# Wetter Temperatur Luftdruck Luftfeuchtigkeit Sichtweite Windgeschwindigkeit Windrichtung Zeit
1 Clouds 3 1037 75 10000 1.03 0 13:40 22.04.2021
2 Clouds 3 1037 75 10000 1.03 0 13:20 22.04.2021
3 Clouds 5 1036 70 10000 2.06 340 12:45 22.04.2021
4 Clouds 5 1036 70 10000 2.06 340 12:22 22.04.2021
5 Clouds 6 1036 70 10000 2.57 340 11:47 22.04.2021
6 Rain 6 1036 70 10000 2.57 340 11:23 22.04.2021
7 Rain 5 1037 75 10000 2.06 300 10:46 22.04.2021
8 Clouds 5 1037 75 10000 2.06 300 10:24 22.04.2021
9 Clouds 2 1037 87 10000 2.06 260 09:47 22.04.2021
10 Clouds 2 1037 87 10000 2.06 260 09:24 22.04.2021
11 Clouds 2 1037 75 10000 1.54 80 08:39 22.04.2021
12 Clouds 2 1037 75 10000 1.54 80 08:21 22.04.2021
13 Clouds 4 1037 70 10000 2.57 40 07:45 22.04.2021
14 Clouds 4 1037 70 10000 2.57 40 07:24 22.04.2021
15 Clouds 4 1038 75 10000 2.06 50 06:27 22.04.2021
16 Clouds 4 1038 75 10000 1.54 90 05:26 22.04.2021
17 Clouds 4 1037 81 10000 2.06 100 04:30 22.04.2021
18 Clouds 14 1035 24 10000 3.6 320 00:57 22.04.2021
19 Clouds 16 1035 25 10000 4.63 220 23:48 21.04.2021
20 Clouds 16 1035 25 10000 4.63 220 23:28 21.04.2021
21 Clouds 16 1034 25 10000 6.17 290 22:44 21.04.2021
22 Clouds 16 1034 25 10000 6.17 290 22:24 21.04.2021
23 Clouds 18 1035 20 10000 4.63 300 21:49 21.04.2021
24 Clouds 18 1035 20 10000 4.63 300 21:24 21.04.2021
25 Clouds 17 1036 20 10000 4.12 250 20:58 21.04.2021
26 Clouds 17 1036 20 10000 4.12 250 20:21 21.04.2021
27 Clouds 16 1037 21 10000 4.63 250 19:43 21.04.2021
28 Clouds 16 1037 21 10000 4.63 250 19:24 21.04.2021
29 Clouds 15 1038 26 10000 2.06 280 18:46 21.04.2021
30 Clouds 15 1038 26 10000 2.06 280 18:27 21.04.2021
31 Clouds 13 1039 35 10000 3.09 300 17:48 21.04.2021
32 Clouds 13 1039 35 10000 3.09 300 17:25 21.04.2021
33 Clouds 13 1039 35 10000 3.09 300 17:25 21.04.2021
34 Clouds 13 1039 35 10000 3.09 300 17:25 21.04.2021
35 Clouds 13 1039 35 10000 3.09 300 17:25 21.04.2021
36 Clouds 11 1039 46 10000 3.09 230 16:55 21.04.2021
37 Clear 10 1039 57 10000 1.54 290 15:59 21.04.2021
38 Clear 10 1039 57 10000 1.54 290 15:41 21.04.2021
39 Clear 6 1038 52 10000 1.03 0 14:55 21.04.2021
40 Clear 6 1038 52 10000 1.03 0 14:36 21.04.2021
41 Clear 6 1038 52 10000 1.03 0 14:18 21.04.2021
42 Clouds 3 1038 60 10000 2.57 10 13:40 21.04.2021
43 Clouds 3 1038 60 10000 2.57 10 13:20 21.04.2021
44 Clouds 2 1037 60 10000 2.06 10 12:30 21.04.2021
45 Clouds 2 1037 55 10000 2.57 30 11:50 21.04.2021
46 Clouds 2 1037 55 10000 2.57 30 11:29 21.04.2021
47 Clouds 2 1037 64 10000 2.57 20 10:51 21.04.2021
48 Clouds 2 1037 64 10000 2.57 20 10:33 21.04.2021
49 Clouds 1 1037 80 10000 1.03 0 09:44 21.04.2021
50 Clouds 0 1038 86 10000 1.54 80 08:56 21.04.2021
51 Clouds 0 1038 86 10000 1.54 80 08:38 21.04.2021
52 Clouds 0 1038 86 10000 1.54 80 08:19 21.04.2021
53 Clouds 0 1038 86 10000 1.03 0 07:31 21.04.2021
54 Clouds 3 1038 70 10000 1.07 358 06:42 21.04.2021
55 Clouds 3 1038 75 10000 1.03 0 05:20 21.04.2021
56 Clouds 12 1036 37 10000 5.66 300 00:58 21.04.2021
57 Clouds 14 1035 23 10000 2.57 190 23:50 20.04.2021
58 Clouds 14 1035 23 10000 2.57 190 23:24 20.04.2021
59 Clouds 17 1035 19 10000 2.06 100 22:41 20.04.2021
60 Clouds 17 1035 19 10000 2.06 100 22:19 20.04.2021
61 Clouds 17 1036 15 10000 4.12 170 21:47 20.04.2021
62 Clouds 17 1036 15 10000 4.12 170 21:25 20.04.2021
63 Clouds 16 1037 20 10000 2.57 170 20:43 20.04.2021
64 Clouds 16 1037 20 10000 2.57 170 20:23 20.04.2021
65 Clouds 15 1038 33 10000 1.54 330 19:54 20.04.2021
66 Clouds 15 1038 33 10000 1.54 330 19:36 20.04.2021
67 Clouds 14 1040 38 10000 2.06 270 18:55 20.04.2021
68 Clouds 14 1040 38 10000 2.06 270 18:35 20.04.2021
69 Clouds 12 1040 50 10000 3.09 240 17:45 20.04.2021
70 Clouds 12 1040 50 10000 3.09 240 17:22 20.04.2021
71 Clouds 11 1040 58 10000 2.06 260 16:44 20.04.2021
72 Clouds 9 1040 66 10000 1.03 0 15:51 20.04.2021
73 Clouds 9 1040 66 10000 1.03 0 15:27 20.04.2021
74 Clouds 6 1039 81 10000 1.03 0 14:57 20.04.2021
75 Clouds 6 1039 81 10000 1.03 0 14:28 20.04.2021
76 Fog 5 1039 87 4000 3.09 120 13:32 20.04.2021
77 Fog 4 1038 93 4000 2.06 90 12:57 20.04.2021
78 Fog 4 1038 93 4000 2.06 90 12:35 20.04.2021
79 Fog 3 1038 100 4000 1.03 0 11:58 20.04.2021
80 Fog 3 1038 100 4000 1.03 0 11:39 20.04.2021
81 Fog 3 1038 100 4000 1.03 0 11:19 20.04.2021
82 Fog 3 1037 93 4000 2.06 80 10:42 20.04.2021
83 Fog 3 1037 93 4000 2.06 80 10:22 20.04.2021
84 Fog 5 1037 93 4000 2.57 80 09:22 20.04.2021
85 Fog 5 1037 100 4000 4.12 90 08:54 20.04.2021
86 Fog 5 1037 100 4000 4.12 90 08:19 20.04.2021
87 Fog 4 1038 100 4000 4.12 70 07:39 20.04.2021
88 Clouds 4 1038 93 10000 4.12 80 06:35 20.04.2021
89 Clouds 5 1039 93 10000 3.09 70 05:37 20.04.2021
90 Clear 7 1038 87 10000 3.09 110 04:41 20.04.2021
91 Clouds 15 1035 18 10000 6.17 120 00:53 20.04.2021
92 Clouds 15 1035 18 10000 6.17 120 00:27 20.04.2021
93 Clouds 17 1035 12 10000 3.6 160 23:33 19.04.2021
94 Clouds 17 1012 12 10000 4.63 150 22:46 19.04.2021
95 Clouds 17 1012 12 10000 4.63 150 22:26 19.04.2021
96 Clouds 17 1037 12 10000 4.12 220 21:46 19.04.2021
97 Clear 16 1012 25 10000 3.14 153 21:22 19.04.2021
98 Clear 16 1012 25 10000 3.14 153 20:41 19.04.2021
99 Clear 16 1013 23 10000 2.88 168 20:21 19.04.2021
100 Clear 16 1013 23 10000 2.88 168 19:50 19.04.2021
101 Clear 16 1014 24 10000 2.35 190 19:27 19.04.2021
102 Clear 16 1014 24 10000 2.35 190 18:59 19.04.2021
103 Clear 16 1014 24 10000 2.35 190 18:40 19.04.2021
104 Clear 15 1016 27 10000 2.2 208 18:19 19.04.2021
105 Clear 15 1016 27 10000 2.2 208 18:19 19.04.2021
106 Clear 15 1016 27 10000 2.2 208 17:44 19.04.2021
107 Clear 13 1018 31 10000 1.74 219 17:23 19.04.2021
108 Clear 13 1018 31 10000 1.74 219 16:43 19.04.2021
109 Clouds 8 1039 39 10000 1.03 0 16:24 19.04.2021
110 Clear 12 1020 36 10000 1.32 228 15:43 19.04.2021
111 Clear 10 1021 43 10000 1.07 233 15:24 19.04.2021
112 Clear 9 1021 43 10000 1.07 233 14:51 19.04.2021
113 Clear 10 1021 43 10000 1.07 233 14:30 19.04.2021
114 Clear 8 1022 51 10000 0.62 261 13:50 19.04.2021
115 Clear 5 1021 65 10000 0.68 316 13:27 19.04.2021
116 Clear 5 1021 65 10000 0.68 316 12:48 19.04.2021
117 Clear 4 1020 68 10000 0.68 328 12:27 19.04.2021
118 Clear 4 1020 68 10000 0.68 328 11:58 19.04.2021
119 Clear 4 1020 73 10000 0.75 22 11:27 19.04.2021
120 Clear 4 1020 73 10000 0.75 22 11:27 19.04.2021
121 Clear 4 1020 73 10000 0.75 22 10:55 19.04.2021
122 Clear 4 1020 73 10000 0.75 22 10:36 19.04.2021
123 Clear 5 1019 77 10000 0.57 98 10:18 19.04.2021
124 Clear 5 1019 77 10000 0.57 98 09:38 19.04.2021
125 Clear 5 1019 74 10000 0.61 125 09:19 19.04.2021
126 Clear 5 1019 74 10000 0.61 125 08:30 19.04.2021
127 Clear 6 1019 69 10000 0.69 139 07:49 19.04.2021
128 Clear 7 1019 63 10000 0.57 34 07:20 19.04.2021
129 Clear 7 1019 63 10000 0.57 34 06:38 19.04.2021
130 Clear 9 1017 64 10000 0.81 339 02:37 19.04.2021
131 Clear 10 1014 61 10000 1.11 59 01:29 19.04.2021
132 Clear 13 1011 48 10000 0.8 53 00:23 19.04.2021
133 Clear 16 1009 30 10000 1.16 223 23:19 18.04.2021
134 Clear 16 1009 30 10000 1.16 223 22:49 18.04.2021
135 Clear 16 1009 30 10000 1.16 223 22:30 18.04.2021
136 Clear 16 1009 28 10000 1.03 155 22:30 18.04.2021
137 Clear 16 1009 28 10000 1.04 153 21:41 18.04.2021
138 Clear 17 1010 29 10000 2.11 164 21:20 18.04.2021
139 Clear 17 1010 25 10000 1.51 181 20:40 18.04.2021
140 Clear 17 1012 27 10000 2.18 201 20:20 18.04.2021
141 Clear 17 1012 27 10000 2.18 201 19:49 18.04.2021
142 Clear 16 1013 27 10000 2.53 222 19:29 18.04.2021
143 Clear 16 1013 27 10000 2.53 222 18:54 18.04.2021
144 Clear 16 1013 27 10000 2.53 222 18:31 18.04.2021
145 Clear 15 1015 31 10000 2.22 227 17:55 18.04.2021
146 Clear 15 1015 31 10000 2.22 227 17:37 18.04.2021
147 Clear 14 1017 35 10000 1.77 228 17:18 18.04.2021
148 Clear 14 1017 35 10000 1.77 228 16:41 18.04.2021
149 Clear 12 1019 40 10000 1.46 243 15:59 18.04.2021
150 Clear 12 1019 40 10000 1.46 243 15:38 18.04.2021
151 Clear 10 1020 49 10000 0.93 270 15:18 18.04.2021
152 Clear 10 1020 49 10000 0.93 270 14:41 18.04.2021
153 Clear 7 1021 62 10000 0.3 312 14:19 18.04.2021
154 Clear 8 1021 62 10000 0.29 311 13:49 18.04.2021
155 Clear 8 1021 62 10000 0.29 311 13:49 18.04.2021
156 Clear 5 1021 77 10000 0.2 33 13:29 18.04.2021
157 Fog 3 1037 93 4000 3.09 60 12:38 18.04.2021
158 Fog 3 1037 93 4000 3.09 60 11:58 18.04.2021
159 Clear 4 1020 78 10000 0.13 34 11:39 18.04.2021
160 Clear 4 1019 77 10000 0.12 94 11:20 18.04.2021
161 Clear 4 1019 77 10000 0.12 94 10:41 18.04.2021
162 Clear 5 1019 76 10000 0.47 58 10:18 18.04.2021
163 Clear 5 1019 76 10000 0.47 58 09:39 18.04.2021
164 Clear 5 1019 75 10000 0.3 76 09:19 18.04.2021
165 Clear 5 1019 75 10000 0.3 76 08:44 18.04.2021
166 Clear 6 1019 75 10000 0.05 325 08:24 18.04.2021
167 Clear 6 1019 75 10000 0.05 325 07:40 18.04.2021
168 Clear 7 1020 73 10000 2.12 36 05:56 18.04.2021
169 Clear 7 1019 71 10000 2.59 44 05:26 18.04.2021
170 Clear 7 1019 71 10000 2.59 44 04:30 18.04.2021
171 Clear 9 1017 58 10000 3.11 30 02:23 18.04.2021
172 Clear 10 1015 49 10000 2.84 10 00:41 18.04.2021
173 Clear 12 1013 42 10000 2.26 330 23:46 17.04.2021
174 Clear 15 1011 30 10000 1.95 309 23:18 17.04.2021
175 Clear 15 1011 30 10000 1.95 309 22:41 17.04.2021
176 Clouds 17 1036 22 10000 4.12 120 22:20 17.04.2021
177 Clear 16 1011 28 10000 2.21 275 21:39 17.04.2021
178 Clear 16 1011 28 10000 2.33 261 21:21 17.04.2021
179 Clear 16 1012 28 10000 2.86 260 20:28 17.04.2021
180 Clear 16 1012 28 10000 2.86 260 19:46 17.04.2021
181 Clear 16 1014 30 10000 2.45 246 19:22 17.04.2021
182 Clear 16 1014 30 10000 2.45 246 18:58 17.04.2021
183 Clear 16 1014 30 10000 2.45 246 18:37 17.04.2021
184 Clear 15 1015 34 10000 2.12 234 18:00 17.04.2021
185 Clear 15 1015 34 10000 2.12 234 17:40 17.04.2021
186 Clear 13 1017 40 10000 1.73 227 16:55 17.04.2021
187 Clouds 11 1019 50 10000 1.42 224 16:28 17.04.2021
188 Clouds 11 1019 50 10000 1.42 224 15:53 17.04.2021
189 Clouds 2 1038 69 10000 1.03 0 14:51 17.04.2021
190 Clear 10 1020 51 10000 1.04 216 14:32 17.04.2021
191 Clouds 8 1020 59 10000 0.17 292 13:49 17.04.2021
192 Fog -1 1036 100 4000 3.6 80 13:25 17.04.2021
193 Clouds 5 1020 75 10000 0.48 348 12:42 17.04.2021
194 Clouds 4 1019 80 10000 0.15 36 12:18 17.04.2021
195 Clouds 4 1019 80 10000 0.15 36 11:40 17.04.2021
196 Clouds 4 1018 82 10000 0.42 135 11:22 17.04.2021
197 Clouds 4 1018 82 10000 0.42 135 10:43 17.04.2021
198 Clouds 5 1018 83 10000 0.32 108 10:25 17.04.2021
199 Clouds 5 1018 84 10000 0.38 98 09:22 17.04.2021
200 Clouds 5 1018 84 10000 0.43 117 08:38 17.04.2021
201 Clouds 6 1019 86 10000 0.63 113 08:19 17.04.2021
202 Clear 6 1019 85 10000 0.74 106 06:43 17.04.2021
203 Clear 8 1018 74 10000 1.41 40 03:51 17.04.2021
204 Clouds 9 1018 75 10000 1.62 47 02:40 17.04.2021
205 Clouds 10 1013 61 10000 2.54 52 00:44 17.04.2021
206 Clouds 16 1034 31 10000 4.63 270 00:23 17.04.2021
207 Clouds 16 1034 31 10000 4.63 270 23:43 16.04.2021
208 Clouds 18 1034 25 10000 2.57 260 23:20 16.04.2021
209 Clouds 18 1034 25 10000 2.57 260 22:42 16.04.2021
210 Clear 16 1009 36 10000 0.24 226 22:20 16.04.2021
211 Clear 16 1009 36 10000 0.24 226 21:49 16.04.2021
212 Clear 16 1010 34 10000 1.46 175 21:28 16.04.2021
213 Clear 16 1010 34 10000 1.46 175 20:47 16.04.2021
214 Clouds 16 1037 36 10000 2.06 250 20:24 16.04.2021
215 Clouds 16 1037 36 10000 2.06 250 19:50 16.04.2021
216 Clouds 15 1038 41 10000 1.54 10 19:22 16.04.2021
217 Clouds 15 1038 41 10000 1.54 10 18:28 16.04.2021
218 Clouds 13 1039 54 10000 1.54 100 17:55 16.04.2021
219 Clouds 11 1039 66 10000 1.54 80 17:21 16.04.2021
220 Clouds 11 1039 66 10000 1.54 80 16:58 16.04.2021
221 Clouds 11 1039 66 10000 1.54 80 16:40 16.04.2021
222 Clouds 8 1038 76 10000 2.06 100 16:21 16.04.2021
223 Clear 12 1017 51 10000 0.94 172 15:40 16.04.2021
224 Fog 5 1037 93 4000 1.03 0 14:56 16.04.2021
225 Clear 10 1018 60 10000 0.72 192 14:37 16.04.2021
226 Clear 8 1019 69 10000 0.13 93 13:58 16.04.2021
227 Clear 8 1019 69 10000 0.13 93 13:36 16.04.2021
228 Clear 5 1019 84 10000 0.26 48 13:18 16.04.2021
229 Clear 5 1019 84 10000 0.26 48 12:43 16.04.2021
230 Clear 5 1018 85 10000 0.36 64 12:21 16.04.2021
231 Clear 5 1018 85 10000 0.36 64 11:43 16.04.2021
232 Clear 5 1017 84 10000 0.41 72 11:23 16.04.2021
233 Clear 5 1017 84 10000 0.41 72 10:43 16.04.2021
234 Clear 6 1017 84 10000 0.57 61 10:23 16.04.2021
235 Clear 6 1017 84 10000 0.57 61 09:44 16.04.2021
236 Clear 6 1017 84 10000 0.86 59 09:23 16.04.2021
237 Clear 6 1017 84 10000 0.86 59 08:45 16.04.2021
238 Clear 6 1018 86 10000 0.74 101 08:24 16.04.2021
239 Clear 6 1018 86 10000 0.74 101 07:45 16.04.2021
240 Clear 7 1018 83 10000 1 122 07:25 16.04.2021
241 Clear 7 1018 83 10000 1 122 06:41 16.04.2021
242 Clear 7 1018 79 10000 1.22 96 05:32 16.04.2021
243 Clear 9 1017 72 10000 1.13 97 03:31 16.04.2021
244 Clouds 10 1014 61 10000 0.25 231 00:46 16.04.2021
245 Clear 13 1011 50 10000 0.71 252 00:22 16.04.2021
246 Clear 13 1011 50 10000 0.71 252 23:56 15.04.2021
247 Clear 13 1011 50 10000 0.71 252 23:32 15.04.2021
248 Clouds 15 1009 39 10000 0.38 277 22:50 15.04.2021
249 Clear 16 1009 37 10000 1.58 192 22:24 15.04.2021
250 Clear 16 1009 37 10000 1.58 192 21:44 15.04.2021
251 Clear 16 1009 37 10000 1.58 192 21:44 15.04.2021
252 Clear 16 1010 37 10000 2.21 195 21:26 15.04.2021
253 Clear 16 1010 37 10000 2.22 196 20:49 15.04.2021
254 Clouds 16 1011 38 10000 1.88 207 20:26 15.04.2021
255 Clouds 16 1011 37 10000 1.91 209 19:57 15.04.2021
256 Clouds 16 1011 38 10000 1.88 207 19:39 15.04.2021
257 Clouds 15 1013 40 10000 1.42 217 19:20 15.04.2021
258 Clouds 15 1013 40 10000 1.42 217 18:39 15.04.2021
259 Clouds 14 1015 45 10000 1.5 228 18:18 15.04.2021
260 Clouds 14 1015 45 10000 1.5 228 17:53 15.04.2021
261 Clouds 14 1015 45 10000 1.5 228 17:30 15.04.2021
262 Clouds 13 1017 49 10000 1.58 239 16:44 15.04.2021
263 Clouds 12 1018 56 10000 1.86 255 16:24 15.04.2021
264 Clouds 11 1018 56 10000 1.88 256 15:51 15.04.2021
265 Clouds 10 1019 64 10000 2.08 267 15:28 15.04.2021
266 Clouds 10 1019 64 10000 2.08 267 14:44 15.04.2021
267 Clouds 10 1019 64 10000 2.08 267 14:44 15.04.2021
268 Clouds 3 1037 87 10000 2.57 10 14:26 15.04.2021
269 Clouds 3 1037 87 10000 2.57 10 13:51 15.04.2021
270 Clouds 3 1037 87 10000 2.57 10 13:25 15.04.2021
271 Clouds 6 1019 84 10000 1.42 313 12:53 15.04.2021
272 Clouds 5 1018 87 10000 1.3 304 12:27 15.04.2021
273 Clouds 5 1018 87 10000 1.3 304 11:48 15.04.2021
274 Clouds 6 1018 86 10000 1.49 287 11:29 15.04.2021
275 Clouds 6 1018 86 10000 1.49 287 10:58 15.04.2021
276 Clouds 6 1018 86 10000 1.49 287 10:40 15.04.2021
277 Clouds 6 1018 86 10000 1.49 287 10:40 15.04.2021
278 Clouds 6 1017 85 10000 1.52 273 10:22 15.04.2021
279 Clouds 6 1017 85 10000 1.52 273 09:30 15.04.2021
280 Clouds 7 1017 83 10000 0.9 283 08:53 15.04.2021
281 Clouds 6 1017 86 10000 0.57 287 08:30 15.04.2021
282 Clouds 6 1039 87 10000 2.57 360 07:36 15.04.2021
283 Clouds 6 1039 87 10000 2.57 360 06:56 15.04.2021
284 Clouds 6 1039 87 10000 2.57 360 06:35 15.04.2021
285 Clouds 8 1019 81 10000 1.42 333 04:55 15.04.2021
286 Clouds 8 1019 80 10000 2.02 339 03:59 15.04.2021
287 Rain 10 1035 71 8000 6.17 90 23:59 14.04.2021
288 Rain 10 1035 71 8000 6.17 90 23:32 14.04.2021
289 Clouds 12 1013 61 10000 1.65 311 22:50 14.04.2021
290 Clouds 12 1014 62 10000 2.49 272 22:29 14.04.2021
291 Clouds 12 1014 62 10000 2.45 271 21:56 14.04.2021
292 Clouds 12 1014 62 10000 2.45 271 21:37 14.04.2021
293 Clouds 13 1014 60 9996 2.58 257 21:18 14.04.2021
294 Clouds 14 1038 47 10000 3.6 340 20:37 14.04.2021
295 Clouds 14 1038 47 10000 3.6 340 20:19 14.04.2021
296 Clouds 12 1040 58 10000 3.09 180 19:39 14.04.2021
297 Clouds 12 1040 58 10000 3.09 180 19:18 14.04.2021
298 Clouds 12 1040 58 10000 3.09 180 18:50 14.04.2021
299 Clouds 12 1041 58 10000 2.57 60 18:19 14.04.2021
300 Clouds 12 1041 58 10000 2.57 60 17:51 14.04.2021
301 Clouds 9 1041 71 6000 2.57 140 17:24 14.04.2021
302 Clouds 12 1019 56 10000 1.55 232 16:43 14.04.2021
303 Fog 8 1040 87 4000 1.03 0 16:22 14.04.2021
304 Clouds 11 1020 60 10000 1.4 215 15:40 14.04.2021
305 Fog 7 1039 87 4000 2.57 120 15:18 14.04.2021
306 Fog 7 1039 87 4000 2.57 120 14:42 14.04.2021
307 Fog 6 1038 93 4000 1.03 0 14:21 14.04.2021
308 Fog 6 1038 93 4000 1.03 0 13:47 14.04.2021
309 Fog 6 1038 93 4000 2.57 100 12:48 14.04.2021
310 Fog 6 1038 93 4000 2.57 100 12:24 14.04.2021
311 Fog 5 1038 93 4000 2.57 100 11:42 14.04.2021
312 Clouds 6 1038 93 10000 2.57 60 11:23 14.04.2021
313 Clouds 6 1038 93 10000 2.57 60 10:35 14.04.2021
314 Fog 6 1038 93 4000 4.12 70 09:46 14.04.2021
315 Fog 6 1038 93 4000 4.12 70 09:27 14.04.2021
316 Clouds 6 1021 72 10000 1.06 47 08:56 14.04.2021
317 Fog 6 1040 93 4000 3.6 110 08:32 14.04.2021
318 Fog 6 1040 93 4000 3.6 110 07:51 14.04.2021
319 Fog 6 1040 93 4000 3.09 100 06:35 14.04.2021
320 Fog 6 1040 93 4000 2.06 140 05:50 14.04.2021
321 Clouds 7 1022 76 10000 2.52 36 02:40 14.04.2021
322 Clouds 11 1036 62 10000 4.12 70 01:19 14.04.2021
323 Clouds 11 1036 62 10000 4.12 70 00:32 14.04.2021
324 Clouds 12 1036 54 10000 3.6 70 23:34 13.04.2021
325 Clouds 14 1037 47 10000 3.6 110 22:45 13.04.2021
326 Clouds 16 1038 39 10000 2.57 140 22:22 13.04.2021
327 Clouds 12 1016 61 10000 3.56 44 21:49 13.04.2021
328 Clouds 14 1039 44 10000 2.57 120 21:31 13.04.2021
329 Clouds 12 1016 57 10000 4.43 53 20:51 13.04.2021
330 Clouds 14 1040 44 10000 2.06 150 20:25 13.04.2021
331 Clouds 14 1040 44 10000 2.06 150 19:58 13.04.2021
332 Clouds 13 1041 50 10000 2.06 140 19:26 13.04.2021
333 Clouds 13 1041 50 10000 2.06 140 18:51 13.04.2021
334 Clouds 13 1041 50 10000 2.06 140 18:30 13.04.2021
335 Clouds 12 1042 58 10000 1.54 90 17:40 13.04.2021
336 Clouds 9 1042 71 8000 1.54 250 17:21 13.04.2021
337 Clouds 9 1042 71 8000 1.54 250 16:45 13.04.2021
338 Clouds 6 1042 87 6000 2.57 260 16:27 13.04.2021
339 Clouds 11 1021 61 10000 1.35 69 15:55 13.04.2021
340 Clouds 6 1041 81 6000 1.03 0 15:37 13.04.2021
341 Clouds 6 1041 81 6000 1.03 0 14:58 13.04.2021
342 Clouds 7 1023 77 10000 1.2 50 14:24 13.04.2021
343 Clouds 7 1023 77 10000 1.2 50 13:53 13.04.2021
344 Clouds 5 1023 86 10000 2.05 33 13:27 13.04.2021
345 Clouds 5 1023 86 10000 2.05 33 12:59 13.04.2021
346 Clouds 5 1023 86 10000 2.05 33 12:41 13.04.2021
347 Clouds 5 1022 85 10000 2.21 30 12:22 13.04.2021
348 Fog 5 1039 93 4000 2.57 110 11:36 13.04.2021
349 Fog 5 1039 93 4000 2.57 110 10:57 13.04.2021
350 Fog 5 1039 93 4000 2.57 110 10:57 13.04.2021
351 Fog 5 1039 93 4000 2.57 110 10:39 13.04.2021
352 Clouds 5 1022 85 10000 1.79 16 10:18 13.04.2021
353 Clouds 5 1022 85 10000 1.79 16 09:42 13.04.2021
354 Clouds 6 1022 88 10000 0.77 37 09:18 13.04.2021
355 Clouds 6 1022 88 10000 0.77 37 08:43 13.04.2021
356 Clouds 7 1022 85 10000 1.22 34 08:21 13.04.2021
357 Clouds 7 1022 85 10000 1.22 34 08:21 13.04.2021
358 Clouds 7 1022 85 10000 1.22 34 07:37 13.04.2021
359 Clouds 7 1022 84 10000 1.87 32 07:19 13.04.2021
360 Clouds 6 1023 86 10000 2.22 29 06:18 13.04.2021
361 Clouds 7 1038 81 10000 3.6 100 02:52 13.04.2021
362 Clouds 10 1037 66 10000 1.03 0 01:28 13.04.2021
363 Clouds 9 1017 80 9682 3.29 66 23:49 12.04.2021
364 Clouds 9 1017 80 9682 3.29 66 23:49 12.04.2021
365 Clouds 14 1037 51 10000 3.09 90 23:27 12.04.2021
366 Clouds 14 1037 51 10000 3.09 90 22:43 12.04.2021
367 Clouds 11 1016 73 8266 2.46 72 22:23 12.04.2021
368 Clouds 11 1016 73 8093 2.46 72 21:46 12.04.2021
369 Clouds 11 1016 73 8093 2.46 72 21:46 12.04.2021
370 Clouds 14 1038 54 10000 4.63 70 21:21 12.04.2021
371 Clouds 11 1017 75 5623 2.4 67 20:41 12.04.2021
372 Clouds 11 1017 71 4878 2.37 75 20:23 12.04.2021
373 Clouds 11 1017 71 4878 2.37 75 19:57 12.04.2021
374 Clouds 11 1017 71 4878 2.37 75 19:38 12.04.2021
375 Clouds 11 1018 68 5363 2.19 77 19:19 12.04.2021
376 Clouds 11 1018 68 5265 2.2 76 18:44 12.04.2021
377 Clouds 11 1019 67 10000 1.43 102 18:25 12.04.2021
378 Clouds 11 1019 67 10000 1.43 102 17:44 12.04.2021
379 Clouds 10 1020 70 10000 0.91 133 17:24 12.04.2021
380 Clouds 10 1020 70 10000 0.91 133 16:47 12.04.2021
381 Clouds 9 1021 74 10000 0.64 151 16:27 12.04.2021
382 Rain 9 1021 74 10000 0.64 151 15:49 12.04.2021
383 -273 0 0 0 0 0 15:31 12.04.2021
384 Clouds 9 1021 77 10000 0.82 160 14:51 12.04.2021
385 Clouds 9 1021 77 10000 0.82 160 14:30 12.04.2021
386 Clouds 8 1022 83 10000 0.62 265 13:49 12.04.2021
387 Clouds 7 1021 88 10000 0.37 253 13:28 12.04.2021
388 Clouds 7 1021 88 10000 0.37 253 12:49 12.04.2021
389 Rain 6 1020 89 10000 0.85 257 12:27 12.04.2021
390 Clouds 6 1020 89 10000 0.85 257 11:59 12.04.2021
391 Clouds 7 1019 88 10000 0.4 330 11:24 12.04.2021
392 Clouds 7 1019 88 10000 0.4 330 10:46 12.04.2021
393 Clouds 7 1019 87 10000 1.03 44 10:26 12.04.2021
394 Clouds 7 1019 87 10000 1.03 44 09:49 12.04.2021
395 Clouds 7 1019 86 10000 1.63 58 09:20 12.04.2021
396 Clouds 7 1019 87 10000 1.27 51 08:36 12.04.2021
397 Clouds 7 1019 86 10000 1.96 57 07:40 12.04.2021
398 Clouds 7 1020 86 10000 2.53 57 07:20 12.04.2021
399 Clouds 7 1020 86 10000 2.53 57 07:20 12.04.2021
400 Clouds 8 1020 85 10000 2.92 55 05:52 12.04.2021
401 Clouds 8 1020 84 10000 3.34 48 04:31 12.04.2021
402 Clouds 12 1036 58 10000 4.12 260 01:23 12.04.2021
403 Clouds 12 1036 58 10000 4.12 260 00:25 12.04.2021
404 Clouds 13 1035 54 10000 4.12 250 23:46 11.04.2021
405 Clouds 13 1035 54 10000 4.12 250 23:27 11.04.2021
406 Clouds 13 1035 50 10000 5.14 50 22:46 11.04.2021
407 Clouds 13 1035 50 10000 5.14 50 22:25 11.04.2021
408 Clouds 12 1036 66 10000 5.14 100 21:46 11.04.2021
409 Clouds 12 1036 66 10000 5.14 100 21:27 11.04.2021
410 Clouds 11 1037 66 10000 4.12 130 20:57 11.04.2021
411 Clouds 11 1037 66 10000 4.12 130 20:30 11.04.2021
412 Clouds 7 1038 87 7000 6.17 40 19:56 11.04.2021
413 Clouds 7 1038 87 7000 6.17 40 19:37 11.04.2021
414 Clouds 7 1038 87 7000 6.17 40 19:18 11.04.2021
415 Clouds 9 1038 76 8000 5.14 100 18:42 11.04.2021
416 Clouds 9 1038 76 8000 5.14 100 18:42 11.04.2021
417 Clouds 12 1038 62 10000 4.12 110 18:24 11.04.2021
418 Clouds 13 1039 54 10000 2.57 90 17:46 11.04.2021
419 Clouds 13 1039 54 10000 2.57 90 17:27 11.04.2021
420 Clouds 11 1039 66 10000 3.09 110 16:50 11.04.2021
421 Clouds 11 1039 66 10000 3.09 110 16:23 11.04.2021
422 Clouds 10 1038 66 10000 2.57 80 15:54 11.04.2021
423 Clouds 10 1038 66 10000 2.57 80 15:27 11.04.2021
424 Clouds 7 1037 81 10000 2.06 80 14:55 11.04.2021
425 Clouds 7 1037 81 10000 2.06 80 14:31 11.04.2021
426 Fog 0 1036 100 4000 2.06 100 13:51 11.04.2021
427 Fog 0 1036 100 4000 2.06 100 13:31 11.04.2021
428 Fog 1 1035 100 4000 1.54 70 12:49 11.04.2021
429 Fog 1 1035 100 4000 1.54 70 12:21 11.04.2021
430 Fog 2 1036 100 4000 2.06 70 11:50 11.04.2021
431 Fog 2 1036 100 4000 2.06 70 11:23 11.04.2021
432 Clouds 6 1017 82 10000 1.19 347 10:48 11.04.2021
433 Mist 5 1036 100 3000 1.03 0 10:30 11.04.2021
434 Mist 5 1036 100 3000 1.03 0 09:56 11.04.2021
435 Mist 5 1036 100 3000 1.03 0 09:33 11.04.2021
436 Mist 4 1036 93 2000 2.06 80 08:51 11.04.2021
437 Mist 4 1036 93 2000 2.06 80 08:24 11.04.2021
438 Fog 3 1036 93 4000 2.06 80 07:22 11.04.2021
439 Clouds 5 1037 87 10000 1.03 0 06:50 11.04.2021
440 Clouds 5 1036 87 10000 2.06 90 05:41 11.04.2021
441 Rain 7 1036 76 10000 2.06 50 05:19 11.04.2021
442 Clouds 7 1036 76 10000 2.06 50 04:34 11.04.2021
443 Clouds 8 1035 76 10000 5.14 270 01:45 11.04.2021
444 Clouds 10 1035 71 10000 2.57 120 00:33 11.04.2021
445 Clouds 11 1034 66 10000 4.63 110 23:47 10.04.2021
446 Clouds 11 1034 66 10000 4.63 110 23:47 10.04.2021
447 Clouds 11 1034 66 10000 4.63 110 23:24 10.04.2021
448 Rain 12 1035 54 10000 3.6 80 22:43 10.04.2021
449 Rain 12 1035 54 10000 3.6 80 22:20 10.04.2021
450 Rain 12 1035 54 10000 3.6 80 22:20 10.04.2021
451 Rain 13 1035 54 10000 4.63 60 21:40 10.04.2021
452 Clouds 13 1035 54 10000 4.63 60 21:20 10.04.2021
453 Clouds 11 1036 71 8000 4.63 60 20:42 10.04.2021
454 Clouds 11 1036 71 8000 4.63 60 20:23 10.04.2021
455 Clouds 14 1037 44 10000 3.09 130 19:44 10.04.2021
456 Clouds 14 1037 44 10000 3.09 130 19:25 10.04.2021
457 Clouds 14 1037 44 10000 3.09 130 19:25 10.04.2021
458 Clouds 12 1038 54 10000 3.09 270 18:50 10.04.2021
459 Clouds 12 1038 54 10000 3.09 270 18:28 10.04.2021
460 Clouds 12 1039 58 10000 3.6 280 17:37 10.04.2021
461 Clouds 11 1039 62 10000 2.57 260 16:57 10.04.2021
462 Clouds 11 1039 62 10000 2.57 260 16:27 10.04.2021
463 Clouds 8 1039 81 10000 2.57 80 15:53 10.04.2021
464 Clouds 8 1039 81 10000 2.57 80 15:19 10.04.2021
465 Fog 6 1038 100 4000 2.57 70 14:41 10.04.2021
466 Fog 6 1038 100 4000 2.57 70 14:18 10.04.2021
467 Fog 4 1037 100 3000 2.57 60 13:40 10.04.2021
468 Fog 3 1037 100 4000 2.06 70 12:49 10.04.2021
469 Fog 3 1037 100 4000 2.06 70 12:26 10.04.2021
470 Fog 4 1037 100 4000 2.06 80 11:47 10.04.2021
471 Rain 4 1037 100 4000 2.06 80 11:25 10.04.2021
472 Rain 4 1037 100 4000 2.06 80 10:52 10.04.2021
473 Rain 4 1037 100 4000 2.06 80 10:31 10.04.2021
474 Fog 4 1037 100 4000 2.06 40 09:45 10.04.2021
475 Fog 4 1037 100 4000 2.06 40 09:20 10.04.2021
476 Fog 5 1037 93 4000 1.03 0 08:46 10.04.2021
477 Fog 5 1037 93 4000 1.03 0 08:28 10.04.2021
478 Mist 5 1038 100 2000 1.03 0 07:38 10.04.2021
479 Fog 5 1037 100 500 2.06 270 07:19 10.04.2021
480 Fog 4 1038 93 4000 3.6 70 05:54 10.04.2021
481 Clouds 4 1037 93 10000 1.03 0 03:46 10.04.2021
482 Clouds 6 1036 93 10000 1.54 30 02:50 10.04.2021
483 Clouds 6 1036 93 10000 1.54 30 02:18 10.04.2021
484 Clouds 10 1036 71 10000 3.6 110 00:40 10.04.2021
485 Clouds 11 1036 62 10000 1.03 0 23:59 09.04.2021
486 Clouds 11 1036 62 10000 1.03 0 23:36 09.04.2021
487 Clouds 11 1036 71 10000 2.57 270 22:57 09.04.2021
488 Clouds 11 1036 71 10000 2.57 270 22:37 09.04.2021
489 Clouds 12 1037 58 10000 1.03 0 21:44 09.04.2021
490 Clouds 12 1037 58 10000 1.03 0 21:23 09.04.2021
491 Clouds 12 1038 58 10000 3.6 70 20:59 09.04.2021
492 Clouds 12 1038 58 10000 3.6 70 20:40 09.04.2021
493 Clouds 12 1038 58 10000 3.6 70 20:21 09.04.2021
494 Clouds 10 1039 71 10000 0.26 307 19:43 09.04.2021
495 Clouds 10 1039 71 10000 0.32 301 19:23 09.04.2021
496 Clouds 9 1040 81 10000 1.03 0 18:44 09.04.2021
497 Clouds 9 1040 81 10000 1.03 0 18:25 09.04.2021
498 Rain 8 1040 87 10000 1.03 0 17:49 09.04.2021
499 Rain 8 1040 87 10000 1.03 0 17:31 09.04.2021
500 Clouds 7 1040 87 10000 3.09 100 16:55 09.04.2021
501 Rain 7 1040 87 10000 3.09 100 16:30 09.04.2021
502 Fog 7 1040 93 4000 2.57 80 15:47 09.04.2021
503 Fog 7 1040 93 4000 2.57 80 15:24 09.04.2021
504 Fog 7 1038 93 4000 3.6 80 14:47 09.04.2021
505 Fog 7 1038 93 4000 3.6 80 14:29 09.04.2021
506 Fog 6 1037 93 3000 2.57 70 13:47 09.04.2021
507 Fog 6 1037 93 3000 2.57 70 13:22 09.04.2021
508 Fog 6 1037 100 4000 3.09 100 12:47 09.04.2021
509 Fog 6 1037 100 4000 3.09 100 12:24 09.04.2021
510 Fog 6 1037 100 3000 2.57 90 11:43 09.04.2021
511 Fog 6 1037 100 3000 2.57 90 11:20 09.04.2021
512 Fog 5 1037 100 4000 3.09 80 10:38 09.04.2021
513 Fog 5 1037 100 4000 3.09 70 09:59 09.04.2021
514 Fog 5 1037 100 4000 3.09 70 09:28 09.04.2021
515 Fog 5 1037 93 4000 1.03 0 08:56 09.04.2021
516 Fog 5 1037 93 4000 1.03 0 08:33 09.04.2021
517 Clouds 7 1038 93 10000 1.03 0 07:34 09.04.2021
518 Fog 7 1038 93 4000 1.03 0 06:30 09.04.2021
519 Clouds 7 1038 93 10000 1.03 0 05:44 09.04.2021
520 Clouds 9 1036 76 10000 3.09 90 03:43 09.04.2021
521 Clouds 16 1035 41 10000 3.6 250 00:39 09.04.2021
522 Clouds 16 1035 41 10000 3.6 250 00:21 09.04.2021
523 Clouds 15 1035 38 10000 4.63 240 23:38 08.04.2021
524 Clouds 16 1035 39 10000 3.6 260 22:56 08.04.2021
525 Clouds 16 1035 39 10000 3.6 260 22:31 08.04.2021
526 Clouds 16 1036 36 10000 3.6 250 21:59 08.04.2021
527 Clouds 16 1036 36 10000 3.6 250 21:41 08.04.2021
528 Clouds 16 1036 36 10000 3.6 250 21:22 08.04.2021
529 Clouds 17 1037 31 10000 3.09 240 20:58 08.04.2021
530 Clouds 17 1037 31 10000 3.09 240 20:39 08.04.2021
531 Clouds 15 1038 44 10000 1.03 0 19:59 08.04.2021
532 Clouds 15 1038 44 10000 1.03 0 19:29 08.04.2021
533 Clouds 15 1039 44 10000 2.57 280 18:58 08.04.2021
534 Clouds 15 1039 44 10000 2.57 280 18:39 08.04.2021
535 Clouds 15 1039 44 10000 2.57 280 18:19 08.04.2021
536 Clouds 13 1040 54 10000 1.03 0 17:41 08.04.2021
537 Clouds 13 1040 54 10000 1.03 0 17:19 08.04.2021
538 Clouds 11 1040 62 10000 1.03 0 16:44 08.04.2021
539 Clouds 11 1040 62 10000 1.03 0 16:22 08.04.2021
540 Clouds 10 1039 62 10000 1.03 0 15:45 08.04.2021
541 Clouds 10 1039 62 10000 1.03 0 15:25 08.04.2021
542 Clouds 6 1039 93 10000 1.03 0 14:42 08.04.2021
543 Clouds 6 1039 93 10000 1.03 0 14:20 08.04.2021
544 Fog 2 1038 100 4000 1.54 80 13:46 08.04.2021
545 Fog 2 1038 100 4000 1.54 80 13:24 08.04.2021
546 Fog 4 1037 93 4000 1.03 0 12:53 08.04.2021
547 Fog 4 1037 93 4000 1.03 0 12:33 08.04.2021
548 Fog 6 1037 93 3000 2.06 80 11:56 08.04.2021
549 Fog 6 1037 93 3000 2.06 80 11:21 08.04.2021
550 Fog 6 1037 100 1200 3.09 80 10:49 08.04.2021
551 Fog 6 1037 100 1200 3.09 80 10:25 08.04.2021
552 Fog 4 1037 100 2000 2.57 90 09:43 08.04.2021
553 Clouds 5 1037 100 10000 2.06 70 08:54 08.04.2021
554 Clouds 5 1037 100 10000 2.06 70 08:36 08.04.2021
555 Clouds 5 1037 100 10000 2.06 70 08:18 08.04.2021
556 Fog 6 1038 93 4000 1.54 50 07:42 08.04.2021
557 Clouds 5 1038 100 10000 1.54 80 05:45 08.04.2021
558 Clouds 11 1036 58 10000 3.6 110 01:25 08.04.2021
559 Clouds 12 1035 54 10000 4.12 100 00:30 08.04.2021
560 Clouds 15 1035 44 10000 4.12 150 23:47 07.04.2021
561 Clouds 15 1035 44 10000 4.12 150 23:47 07.04.2021
562 Clouds 15 1035 44 10000 4.12 150 23:24 07.04.2021
563 Clouds 16 1036 39 10000 3.09 130 22:55 07.04.2021
564 Clouds 16 1036 39 10000 3.09 130 22:36 07.04.2021
565 Clouds 15 1037 41 10000 3.6 110 21:58 07.04.2021
566 Clouds 15 1037 41 10000 3.6 110 21:34 07.04.2021
567 Clouds 15 1038 44 10000 3.09 130 20:51 07.04.2021
568 Clouds 15 1038 44 10000 3.09 130 20:28 07.04.2021
569 Clouds 14 1039 51 10000 3.09 120 19:50 07.04.2021
570 Clouds 14 1039 51 10000 3.09 120 19:31 07.04.2021
571 Clouds 13 1039 50 10000 3.09 150 18:56 07.04.2021
572 Clouds 13 1039 50 10000 3.09 150 18:22 07.04.2021
573 Clouds 10 1040 71 10000 3.09 130 17:59 07.04.2021
574 Clouds 10 1040 71 10000 3.09 130 17:40 07.04.2021
575 Clouds 10 1040 71 10000 2.06 90 16:59 07.04.2021
576 Clouds 10 1040 71 10000 2.06 90 16:39 07.04.2021
577 Clouds 10 1040 71 10000 2.06 90 16:20 07.04.2021
578 Fog 8 1039 87 4000 1.03 0 15:50 07.04.2021
579 Fog 8 1039 87 4000 1.03 0 15:25 07.04.2021
580 Fog 8 1039 87 4000 1.03 0 15:25 07.04.2021
581 Fog 6 1039 93 4000 1.03 0 14:35 07.04.2021
582 Fog 5 1038 100 3000 2.57 110 13:55 07.04.2021
583 Fog 5 1038 100 3000 2.57 110 13:29 07.04.2021
584 Fog 5 1038 100 4000 2.57 80 12:58 07.04.2021
585 Fog 5 1038 100 4000 2.57 80 12:26 07.04.2021
586 Fog 5 1037 100 4000 1.03 0 11:59 07.04.2021
587 Fog 5 1037 100 4000 1.03 0 11:29 07.04.2021
588 Fog 5 1037 100 4000 1.03 0 11:29 07.04.2021
589 Fog 4 1037 100 4000 1.03 0 10:59 07.04.2021
590 Fog 4 1037 100 4000 1.03 0 10:30 07.04.2021
591 Fog 3 1038 100 4000 2.57 80 09:46 07.04.2021
592 Fog 3 1038 100 4000 2.57 80 09:27 07.04.2021
593 Clouds 3 1038 93 10000 2.06 70 08:47 07.04.2021
594 Clouds 3 1038 93 10000 2.06 70 08:22 07.04.2021
595 Clouds 5 1038 87 10000 2.06 40 07:44 07.04.2021
596 Clouds 5 1038 87 10000 2.06 40 07:25 07.04.2021
597 Clouds 6 1039 100 10000 2.06 30 06:33 07.04.2021
598 Clouds 5 1038 93 10000 2.06 100 04:23 07.04.2021
599 Clouds 9 1037 71 10000 3.6 340 00:31 07.04.2021
600 Rain 10 1036 66 8000 5.14 320 23:47 06.04.2021
601 Clouds 10 1036 66 8000 5.14 320 23:22 06.04.2021
602 Clouds 12 1036 54 10000 3.6 70 22:48 06.04.2021
603 Clouds 12 1036 54 10000 3.6 70 22:19 06.04.2021
604 Clouds 12 1036 62 10000 3.6 80 21:42 06.04.2021
605 Clouds 12 1036 62 10000 3.6 80 21:22 06.04.2021
606 Clouds 12 1037 62 10000 3.6 80 20:54 06.04.2021
607 Clouds 12 1037 62 10000 3.6 80 20:25 06.04.2021
608 Clouds 12 1038 66 10000 4.12 90 19:58 06.04.2021
609 Clouds 12 1038 66 10000 4.12 90 19:58 06.04.2021
610 Clouds 12 1038 66 10000 4.12 90 19:35 06.04.2021
611 Clouds 12 1039 66 10000 4.12 100 18:57 06.04.2021
612 Clouds 12 1039 66 10000 4.12 100 18:57 06.04.2021
613 Clouds 12 1039 66 10000 4.12 100 18:57 06.04.2021
614 Clouds 12 1039 66 10000 4.12 100 18:39 06.04.2021
615 Clouds 12 1039 66 10000 4.12 100 18:19 06.04.2021
616 Clouds 11 1040 66 10000 4.12 110 17:41 06.04.2021
617 Clouds 11 1040 66 10000 4.12 110 17:18 06.04.2021
618 Clouds 9 1039 76 8000 3.09 150 16:43 06.04.2021
619 Clouds 6 1039 93 8000 1.03 0 15:59 06.04.2021
620 Clouds 6 1039 93 8000 1.03 0 15:25 06.04.2021
621 Mist 4 1038 100 1600 1.03 110 14:43 06.04.2021
622 Mist 4 1038 100 1600 1.03 110 14:24 06.04.2021
623 Mist 2 1038 93 1600 2.57 80 13:46 06.04.2021
624 Mist 2 1038 93 1600 2.57 80 13:25 06.04.2021
625 Fog 1 1037 100 500 1.54 60 12:45 06.04.2021
626 Fog 1 1037 100 500 1.54 60 12:27 06.04.2021
627 Fog 4 1036 100 4000 1.03 0 11:55 06.04.2021
628 Fog 4 1036 100 4000 1.03 0 11:36 06.04.2021
629 Fog 4 1036 100 4000 1.03 0 11:18 06.04.2021
630 Fog 4 1037 100 4000 2.06 80 10:39 06.04.2021
631 Fog 4 1037 100 3000 3.09 110 10:19 06.04.2021
632 Fog 4 1037 100 3000 3.09 110 09:43 06.04.2021
633 Clouds 3 1037 100 10000 2.06 80 08:50 06.04.2021
634 Clouds 3 1037 100 10000 2.06 80 08:19 06.04.2021
635 Clouds 3 1038 100 10000 2.06 80 06:57 06.04.2021
636 Clouds 3 1038 100 10000 2.06 80 06:24 06.04.2021
637 Clouds 5 1038 93 10000 2.57 50 03:54 06.04.2021
638 Clouds 10 1036 71 10000 2.06 60 00:48 06.04.2021
639 Clouds 10 1036 71 10000 2.06 60 00:22 06.04.2021
640 Clouds 11 1036 66 10000 2.57 60 23:50 05.04.2021
641 Clouds 11 1036 66 10000 2.57 60 23:28 05.04.2021
642 Clouds 11 1035 71 10000 3.6 100 22:53 05.04.2021
643 Clouds 11 1035 71 10000 3.6 100 22:33 05.04.2021
644 Clouds 11 1036 66 10000 4.12 100 21:47 05.04.2021
645 Clouds 11 1036 66 10000 4.12 100 21:23 05.04.2021
646 Clouds 10 1037 76 10000 5.14 110 20:49 05.04.2021
647 Clouds 10 1037 76 10000 5.14 110 20:30 05.04.2021
648 Clouds 7 1038 93 8000 3.6 150 19:45 05.04.2021
649 Clouds 7 1038 93 8000 3.6 150 19:25 05.04.2021
650 Clouds 10 1039 71 10000 2.06 70 18:57 05.04.2021
651 Clouds 10 1039 71 10000 2.06 70 18:38 05.04.2021
652 Clouds 10 1039 71 10000 2.06 70 18:19 05.04.2021
653 Clouds 8 1039 81 10000 1.03 0 17:46 05.04.2021
654 Clouds 8 1039 81 10000 1.03 0 17:21 05.04.2021
655 Clouds 8 1039 76 10000 1.03 0 16:44 05.04.2021
656 Clouds 8 1039 76 10000 1.03 0 16:21 05.04.2021
657 Clouds 6 1039 87 6000 1.67 199 15:56 05.04.2021
658 Rain 6 1039 87 6000 1.67 199 15:30 05.04.2021
659 Fog 4 1039 93 4000 1.03 0 14:54 05.04.2021
660 Fog 4 1039 93 4000 1.03 0 14:35 05.04.2021
661 Rain 4 1038 93 4000 1.03 0 13:32 05.04.2021
662 Fog 4 1037 93 4000 1.11 207 12:57 05.04.2021
663 Fog 4 1037 93 4000 1.11 207 12:37 05.04.2021
664 Rain 4 1037 93 4000 1.87 203 12:19 05.04.2021
665 Rain 4 1037 93 4000 1.03 0 11:42 05.04.2021
666 Rain 4 1037 93 4000 1.03 0 11:22 05.04.2021
667 Rain 5 1037 93 4000 2.06 170 10:45 05.04.2021
668 Rain 5 1037 93 4000 2.06 170 10:26 05.04.2021
669 Rain 5 1037 93 4000 2.06 160 09:47 05.04.2021
670 Fog 5 1037 93 4000 2.06 160 09:23 05.04.2021
671 Fog 5 1037 100 4000 1.03 0 08:45 05.04.2021
672 Rain 5 1037 100 4000 1.03 0 08:25 05.04.2021
673 Fog 5 1038 100 4000 1.03 0 07:36 05.04.2021
674 Rain 6 1038 100 3000 1.03 0 06:20 05.04.2021
675 Fog 7 1036 93 4000 3.6 100 01:57 05.04.2021
676 Clouds 8 1035 81 10000 3.09 110 00:49 05.04.2021
677 Clouds 10 1035 71 10000 3.09 60 23:51 04.04.2021
678 Clouds 10 1035 71 10000 3.09 60 23:24 04.04.2021
679 Clouds 8 1035 81 8000 3.09 10 22:52 04.04.2021
680 Clouds 8 1035 81 8000 3.09 10 22:30 04.04.2021
681 Clouds 7 1036 87 6000 3.09 20 21:28 04.04.2021
682 Clouds 7 1037 87 6000 1.03 0 20:57 04.04.2021
683 Clouds 7 1037 87 6000 1.03 0 20:30 04.04.2021
684 Clouds 6 1038 87 4000 2.57 20 19:57 04.04.2021
685 Clouds 6 1038 87 4000 2.57 20 19:36 04.04.2021
686 Clouds 6 1038 87 4000 2.57 20 19:18 04.04.2021
687 Clouds 6 1038 87 4000 2.57 20 19:18 04.04.2021
688 Clouds 8 1038 81 8000 1.03 0 18:42 04.04.2021
689 Clouds 10 1038 66 10000 2.06 120 18:21 04.04.2021
690 Clouds 10 1038 66 10000 2.06 120 18:21 04.04.2021
691 Clouds 10 1039 66 10000 2.06 140 17:44 04.04.2021
692 Clouds 10 1039 66 10000 2.06 140 17:23 04.04.2021
693 Clouds 9 1039 76 6000 2.06 80 16:43 04.04.2021
694 Clouds 9 1039 76 6000 2.06 80 16:18 04.04.2021
695 Clouds 7 1039 81 6000 2.06 110 15:34 04.04.2021
696 Fog 6 1038 87 4000 3.6 80 14:46 04.04.2021
697 Fog 6 1038 87 4000 3.6 80 14:27 04.04.2021
698 Fog 5 1038 93 4000 2.06 90 13:47 04.04.2021
699 Fog 5 1038 93 4000 2.06 90 13:23 04.04.2021
700 Fog 4 1037 100 4000 2.57 110 12:41 04.04.2021
701 Fog 4 1037 100 4000 2.57 110 12:23 04.04.2021
702 Fog 5 1037 93 4000 3.09 110 11:42 04.04.2021
703 Fog 5 1037 93 4000 3.09 110 11:23 04.04.2021
704 Fog 5 1037 93 4000 3.6 110 10:43 04.04.2021
705 Rain 5 1037 93 4000 4.12 100 09:54 04.04.2021
706 Rain 5 1037 93 4000 4.12 100 09:25 04.04.2021
707 Rain 7 1019 85 9510 1.32 129 08:53 04.04.2021
708 Fog 5 1038 93 4000 3.09 80 08:35 04.04.2021
709 Fog 5 1038 93 4000 3.09 80 07:54 04.04.2021
710 Fog 6 1038 93 4000 3.09 120 06:37 04.04.2021
711 Rain 5 1038 100 4000 2.06 70 05:33 04.04.2021
712 Clouds 8 1036 71 10000 2.57 150 01:28 04.04.2021
713 Clouds 10 1035 57 10000 4.63 100 00:20 04.04.2021
714 Clouds 11 1035 50 10000 6.69 110 23:47 03.04.2021
715 Clouds 11 1035 50 10000 6.69 110 23:23 03.04.2021
716 Clouds 12 1034 47 10000 4.63 80 22:51 03.04.2021
717 Clouds 12 1034 47 10000 4.63 80 22:21 03.04.2021
718 Clouds 11 1035 54 10000 6.69 60 21:47 03.04.2021
719 Clouds 11 1035 54 10000 6.69 60 21:24 03.04.2021
720 Clouds 14 1036 58 10000 5.66 90 20:51 03.04.2021
721 Clouds 14 1036 58 10000 5.66 90 20:28 03.04.2021
722 Clouds 13 1037 50 10000 5.14 100 19:51 03.04.2021
723 Clouds 14 1037 51 10000 6.17 90 19:25 03.04.2021
724 Clouds 13 1038 54 10000 5.14 90 18:51 03.04.2021
725 Clouds 13 1038 54 10000 5.14 90 18:32 03.04.2021
726 Clouds 12 1038 54 10000 5.14 80 17:53 03.04.2021
727 Clouds 12 1038 54 10000 5.14 80 17:25 03.04.2021
728 Clouds 9 1039 71 10000 3.09 60 16:51 03.04.2021
729 Clouds 9 1039 71 10000 3.09 60 16:22 03.04.2021
730 Clouds 7 1039 81 10000 2.06 150 15:50 03.04.2021
731 Clouds 7 1039 81 10000 2.06 150 15:23 03.04.2021
732 Fog 4 1038 100 4000 2.57 60 14:44 03.04.2021
733 Fog 4 1038 100 4000 2.57 60 14:24 03.04.2021
734 Fog 3 1037 100 3000 2.06 90 13:51 03.04.2021
735 Fog 3 1037 100 3000 2.06 90 13:24 03.04.2021
736 Fog 3 1036 100 4000 1.03 0 12:57 03.04.2021
737 Fog 3 1036 100 4000 1.03 0 12:32 03.04.2021
738 Fog 2 1036 100 4000 2.06 80 11:40 03.04.2021
739 Fog 2 1036 100 4000 2.06 80 11:19 03.04.2021
740 Clouds 3 1036 100 10000 1.03 0 10:43 03.04.2021
741 Clouds 3 1036 100 10000 1.03 0 10:22 03.04.2021
742 Fog 3 1037 100 4000 2.06 80 09:29 03.04.2021
743 Fog 4 1037 100 4000 2.06 70 08:58 03.04.2021
744 Fog 4 1037 100 4000 2.06 70 08:31 03.04.2021
745 Clouds 5 1037 93 10000 2.06 110 07:29 03.04.2021
746 Rain 5 1037 100 3000 4.12 100 06:50 03.04.2021
747 Fog 6 1036 100 4000 3.09 80 03:53 03.04.2021
748 Clouds 7 1036 93 10000 3.09 100 02:52 03.04.2021
749 Clouds 7 1036 93 10000 3.09 100 02:26 03.04.2021
750 Clouds 10 1035 71 10000 3.6 140 00:29 03.04.2021
751 Clouds 11 1034 62 10000 3.09 100 23:53 02.04.2021
752 Clouds 11 1034 62 10000 3.09 100 23:26 02.04.2021
753 Clouds 11 1034 66 10000 3.09 70 22:55 02.04.2021
754 Clouds 11 1034 66 10000 3.09 70 22:36 02.04.2021
755 Clouds 10 1035 71 10000 4.63 110 21:46 02.04.2021
756 Clouds 10 1035 71 10000 4.63 110 21:26 02.04.2021
757 Clouds 12 1035 58 10000 6.17 120 20:54 02.04.2021
758 Rain 12 1035 58 10000 6.17 120 20:35 02.04.2021
759 Clouds 13 1036 58 10000 4.63 130 19:59 02.04.2021
760 Clouds 13 1036 58 10000 4.63 130 19:39 02.04.2021
761 Clouds 13 1036 58 10000 4.63 130 19:21 02.04.2021
762 Clouds 12 1037 62 10000 4.12 120 18:41 02.04.2021
763 Clouds 12 1037 62 10000 4.12 120 18:41 02.04.2021
764 Clouds 12 1037 62 10000 4.12 120 18:20 02.04.2021
765 Clouds 12 1038 71 10000 3.09 130 17:40 02.04.2021
766 Clouds 11 1037 62 10000 1.54 70 16:53 02.04.2021
767 Clouds 11 1037 62 10000 1.54 70 16:22 02.04.2021
768 Clouds 7 1037 81 10000 1.03 0 15:42 02.04.2021
769 Clouds 5 1037 87 10000 1.03 0 14:57 02.04.2021
770 Clouds 5 1037 87 10000 1.03 0 14:33 02.04.2021
771 Fog 2 1036 100 4000 2.06 60 13:44 02.04.2021
772 Fog 2 1036 100 4000 2.06 60 13:25 02.04.2021
773 Fog 4 1035 100 4000 2.06 60 12:41 02.04.2021
774 Fog 4 1035 100 4000 2.06 60 12:20 02.04.2021
775 Fog 4 1035 100 3000 2.57 70 11:56 02.04.2021
776 Fog 4 1035 100 3000 2.57 70 11:21 02.04.2021
777 Fog 4 1035 100 1500 2.57 50 10:51 02.04.2021
778 Fog 4 1035 100 1500 2.57 50 10:30 02.04.2021
779 Fog 2 1035 100 2000 1.54 90 09:53 02.04.2021
780 Fog 2 1035 100 2000 1.54 90 09:27 02.04.2021
781 Fog 4 1035 100 800 2.06 50 08:58 02.04.2021
782 Fog 4 1035 100 800 2.06 50 08:33 02.04.2021
783 Fog 4 1035 100 2000 2.06 40 07:31 02.04.2021
784 Fog 4 1035 100 4000 2.57 50 06:53 02.04.2021
785 Clouds 4 1035 100 10000 1.03 0 05:57 02.04.2021
786 Clouds 5 1033 87 10000 2.57 70 02:45 02.04.2021
787 Clouds 9 1033 66 10000 5.14 80 00:53 02.04.2021
788 Clouds 9 1033 66 10000 5.14 80 00:23 02.04.2021
789 Clouds 10 1033 76 10000 6.17 90 23:40 01.04.2021
790 Clouds 12 1033 54 10000 3.09 10 22:59 01.04.2021
791 Clouds 12 1033 54 10000 3.09 10 22:20 01.04.2021
792 Clouds 9 1033 71 10000 4.63 270 21:51 01.04.2021
793 Clouds 9 1033 71 10000 4.63 270 21:28 01.04.2021
794 Clouds 14 1034 54 10000 3.09 190 20:49 01.04.2021
795 Clouds 14 1034 54 10000 3.09 190 20:26 01.04.2021
796 Clouds 12 1035 62 10000 3.09 150 19:56 01.04.2021
797 Clouds 12 1035 62 10000 3.09 150 19:35 01.04.2021
798 Clouds 12 1036 54 10000 1.03 0 18:46 01.04.2021
799 Clouds 12 1036 54 10000 1.03 0 18:19 01.04.2021
800 Clouds 12 1036 58 10000 2.06 270 17:52 01.04.2021
801 Clouds 12 1036 58 10000 2.06 270 17:33 01.04.2021
802 Clouds 10 1036 66 10000 1.03 0 16:53 01.04.2021
803 Clouds 10 1036 66 10000 1.03 0 16:30 01.04.2021
804 Clouds 8 1036 66 10000 1.03 0 15:47 01.04.2021
805 Clouds 8 1036 66 10000 1.03 0 15:20 01.04.2021
806 Clouds 4 1035 93 10000 1.03 0 14:45 01.04.2021
807 Clouds 4 1035 93 10000 1.03 0 14:45 01.04.2021
808 Clouds 4 1035 93 10000 1.03 0 14:45 01.04.2021
809 Clouds 4 1035 93 10000 1.03 0 14:26 01.04.2021
810 Mist 1 1034 100 2000 1.54 60 13:55 01.04.2021
811 Mist 1 1034 100 2000 1.54 60 13:31 01.04.2021
812 Fog 2 1034 100 700 2.57 60 12:51 01.04.2021
813 Fog 2 1034 100 700 2.57 60 12:32 01.04.2021
814 Clouds 2 1034 100 10000 1.03 0 11:49 01.04.2021
815 Clouds 2 1034 100 10000 1.03 0 11:24 01.04.2021
816 Clouds 3 1034 93 10000 0.97 275 10:56 01.04.2021
817 Clouds 3 1034 93 10000 0.97 275 10:37 01.04.2021
818 Clouds 4 1035 100 10000 1.4 249 09:56 01.04.2021
819 Clouds 4 1035 100 10000 1.01 269 09:27 01.04.2021
820 Clouds 5 1035 93 10000 2.57 250 08:33 01.04.2021
821 Clouds 5 1035 93 10000 2.57 250 07:59 01.04.2021
822 Clouds 5 1035 93 10000 2.57 250 07:20 01.04.2021
823 Rain 5 1035 93 10000 5.66 20 06:48 01.04.2021
824 Rain 5 1035 93 10000 5.66 20 06:48 01.04.2021
825 Rain 5 1036 93 8000 3.09 70 03:52 01.04.2021
826 Rain 8 1034 76 8000 5.14 230 01:52 01.04.2021
827 Rain 8 1034 76 8000 5.14 230 01:52 01.04.2021
828 Clouds 9 1032 76 10000 5.14 90 23:51 31.03.2021
829 Clouds 9 1032 76 10000 5.14 90 23:31 31.03.2021
830 Clouds 9 1032 71 10000 5.14 90 22:41 31.03.2021
831 Clouds 9 1032 71 10000 5.14 90 22:21 31.03.2021
832 Clouds 10 1033 66 10000 6.17 110 21:47 31.03.2021
833 Clouds 10 1033 66 10000 6.17 110 21:24 31.03.2021
834 Clouds 10 1034 71 10000 4.63 80 20:57 31.03.2021
835 Clouds 13 1035 58 10000 3.6 130 20:39 31.03.2021
836 Clouds 13 1035 58 10000 3.6 130 20:18 31.03.2021
837 Clouds 14 1036 54 10000 4.63 280 19:40 31.03.2021
838 Clouds 14 1036 54 10000 4.63 280 19:19 31.03.2021
839 Clouds 11 1037 62 10000 3.09 290 18:49 31.03.2021
840 Clouds 11 1037 62 10000 2.57 240 17:58 31.03.2021
841 Clouds 11 1037 62 10000 2.57 240 17:36 31.03.2021
842 Clouds 11 1037 62 10000 2.57 240 17:18 31.03.2021
843 Clouds 8 1037 71 10000 4.63 300 16:42 31.03.2021
844 Clouds 8 1037 71 10000 4.63 300 16:22 31.03.2021
845 Clouds 7 1037 81 10000 4.12 290 15:50 31.03.2021
846 Clouds 7 1037 81 10000 4.12 290 15:19 31.03.2021
847 Fog 6 1037 81 4000 4.12 300 14:44 31.03.2021
848 Fog 6 1037 81 4000 4.12 300 14:22 31.03.2021
849 Clouds 5 1036 87 10000 3.09 310 13:42 31.03.2021
850 Rain 5 1036 87 10000 3.6 310 12:42 31.03.2021
851 Rain 5 1036 87 10000 3.6 310 12:21 31.03.2021
852 Rain 5 1036 87 10000 3.6 310 12:21 31.03.2021
853 Rain 5 1036 87 10000 3.6 310 12:21 31.03.2021
854 Rain 6 1036 87 10000 4.12 310 11:59 31.03.2021
855 Rain 6 1036 87 10000 4.12 310 11:21 31.03.2021
856 Rain 6 1036 93 10000 2.57 290 10:47 31.03.2021
857 Rain 6 1036 93 10000 2.57 290 10:26 31.03.2021
858 Rain 6 1036 93 10000 1.03 0 09:43 31.03.2021
859 Clouds 6 1036 93 10000 1.03 0 09:18 31.03.2021
860 Fog 6 1036 100 4000 1.54 70 08:39 31.03.2021
861 Rain 6 1037 100 4000 1.03 0 07:53 31.03.2021
862 Rain 7 1037 93 4000 2.06 120 06:49 31.03.2021
863 Fog 7 1036 100 4000 3.09 90 03:51 31.03.2021
864 Clouds 8 1036 87 10000 1.03 0 01:43 31.03.2021
865 Clouds 9 1035 81 10000 1.03 0 00:49 31.03.2021
866 Clouds 9 1035 81 10000 1.03 0 00:21 31.03.2021
867 Rain 8 1035 81 8000 1.03 0 23:41 30.03.2021
868 Rain 11 1035 71 8000 5.14 90 22:59 30.03.2021
869 Rain 11 1035 71 8000 5.14 90 22:40 30.03.2021
870 Rain 11 1035 71 8000 5.14 90 22:21 30.03.2021
871 Clouds 13 1036 58 10000 2.57 290 21:49 30.03.2021
872 Clouds 13 1036 58 10000 2.57 290 21:20 30.03.2021
873 Clouds 10 1037 66 10000 4.12 300 20:52 30.03.2021
874 Rain 10 1037 66 10000 4.12 300 20:28 30.03.2021
875 Rain 13 1037 62 10000 4.63 130 19:51 30.03.2021
876 Clouds 13 1037 62 10000 4.63 130 19:27 30.03.2021
877 Clouds 11 1038 71 10000 4.12 110 18:39 30.03.2021
878 Clouds 12 1039 66 10000 3.6 80 17:56 30.03.2021
879 Clouds 12 1039 66 10000 3.6 80 17:38 30.03.2021
880 Clouds 12 1039 66 10000 3.6 80 17:20 30.03.2021
881 Clouds 10 1039 71 10000 2.57 90 16:44 30.03.2021
882 Clouds 10 1039 71 10000 2.57 90 16:23 30.03.2021
883 Fog 8 1038 87 4000 2.06 70 15:20 30.03.2021
884 Fog 6 1038 93 4000 2.06 80 14:56 30.03.2021
885 Fog 6 1038 93 4000 2.06 80 14:22 30.03.2021
886 Mist 5 1037 100 2000 1.03 0 13:58 30.03.2021
887 Mist 5 1037 100 2000 1.03 0 13:36 30.03.2021
888 Mist 5 1037 100 1200 2.06 80 12:49 30.03.2021
889 Mist 5 1037 100 1200 2.06 80 12:49 30.03.2021
890 Fog 5 1037 100 4000 2.57 80 12:27 30.03.2021
891 Clouds 5 1020 89 10000 0.89 28 11:53 30.03.2021
892 Clouds 5 1019 88 10000 1.21 39 11:23 30.03.2021
893 Fog 5 1036 100 2000 2.57 80 10:46 30.03.2021
894 Fog 5 1036 100 2000 2.57 80 10:20 30.03.2021
895 Mist 5 1037 100 1200 3.09 90 09:43 30.03.2021
896 Mist 5 1037 100 1200 3.09 90 09:25 30.03.2021
897 Fog 5 1037 100 800 3.09 100 08:53 30.03.2021
898 Fog 5 1037 100 800 3.09 100 08:35 30.03.2021
899 Fog 5 1038 100 800 3.09 60 07:50 30.03.2021
900 Fog 5 1038 100 800 3.09 60 07:21 30.03.2021
901 Rain 4 1038 93 10000 1.54 110 05:25 30.03.2021
902 Fog 5 1038 100 3000 2.06 40 04:45 30.03.2021
903 Clouds 8 1035 71 10000 2.57 350 00:26 30.03.2021
904 Clouds 8 1035 76 10000 2.57 340 23:29 29.03.2021
905 Clouds 7 1036 81 10000 3.6 30 22:43 29.03.2021
906 Rain 6 1037 87 10000 2.57 20 21:59 29.03.2021
907 Rain 6 1037 87 10000 2.57 20 21:37 29.03.2021
908 Rain 8 1037 76 8000 2.57 40 20:59 29.03.2021
909 Rain 8 1037 76 8000 2.57 40 20:38 29.03.2021
910 Rain 10 1036 66 8000 5.66 80 20:20 29.03.2021
911 Clouds 11 1038 71 10000 3.6 90 19:45 29.03.2021
912 Clouds 11 1038 71 10000 3.6 90 19:18 29.03.2021
913 Clouds 12 1038 66 10000 3.6 140 18:40 29.03.2021
914 Clouds 12 1038 66 10000 3.6 140 18:20 29.03.2021
915 Clouds 11 1038 66 10000 3.6 110 17:39 29.03.2021
916 Clouds 10 1039 62 10000 1.54 10 16:59 29.03.2021
917 Clouds 10 1039 62 10000 1.54 10 16:35 29.03.2021
918 Clouds 8 1038 76 6000 1.03 0 15:51 29.03.2021
919 Clouds 8 1038 76 6000 1.03 0 15:31 29.03.2021
920 Fog 6 1038 93 4000 1.54 70 14:54 29.03.2021
921 Fog 6 1038 93 4000 1.54 70 14:31 29.03.2021
922 Fog 5 1037 100 1600 2.57 70 13:47 29.03.2021
923 Fog 5 1037 100 1600 2.57 70 13:24 29.03.2021
924 Fog 4 1037 100 500 2.57 70 12:50 29.03.2021
925 Rain 5 1036 93 2000 2.57 80 11:49 29.03.2021
926 Rain 5 1036 93 2000 2.57 80 11:30 29.03.2021
927 Fog 5 1036 93 1200 2.57 60 10:55 29.03.2021
928 Fog 5 1036 93 1200 2.57 60 10:34 29.03.2021
929 Rain 5 1037 93 3000 3.09 110 09:37 29.03.2021
930 Fog 5 1037 93 3000 3.09 110 08:51 29.03.2021
931 Fog 5 1037 93 3000 3.09 110 08:27 29.03.2021
932 Fog 5 1037 93 4000 1.54 100 07:28 29.03.2021
933 Fog 5 1037 100 3000 2.57 60 06:26 29.03.2021
934 Fog 6 1036 93 4000 2.57 70 03:35 29.03.2021
935 Clouds 9 1034 71 10000 3.6 110 00:55 29.03.2021
936 Clouds 9 1034 71 10000 3.6 110 00:20 29.03.2021
937 Clouds 11 1034 66 10000 4.63 60 23:31 28.03.2021
938 Clouds 8 1034 81 10000 3.09 10 22:54 28.03.2021
939 Clouds 8 1034 81 10000 3.09 10 22:35 28.03.2021
940 Clouds 7 1036 81 8000 6.17 10 21:59 28.03.2021
941 Rain 7 1036 81 8000 6.17 10 21:40 28.03.2021
942 Rain 7 1036 81 8000 6.17 10 21:40 28.03.2021
943 Rain 7 1036 81 8000 6.17 10 21:22 28.03.2021
944 Rain 6 1036 87 8000 4.63 10 20:47 28.03.2021
945 Clouds 6 1036 87 8000 4.63 10 20:29 28.03.2021
946 Rain 8 1037 71 10000 4.12 50 19:43 28.03.2021
947 Clouds 8 1037 71 10000 4.12 50 19:22 28.03.2021
948 Clouds 10 1038 71 10000 3.6 100 18:58 28.03.2021
949 Clouds 10 1038 71 10000 3.6 100 18:25 28.03.2021
950 Clouds 11 1038 58 10000 2.57 240 17:46 28.03.2021
951 Clouds 11 1038 58 10000 2.57 240 17:23 28.03.2021
952 Clouds 9 1038 66 10000 1.03 0 16:45 28.03.2021
953 Clouds 9 1038 66 10000 1.03 0 16:23 28.03.2021
954 Clouds 8 1038 76 10000 2.06 80 15:25 28.03.2021
955 Fog 5 1037 93 4000 2.57 70 14:52 28.03.2021
956 Fog 5 1037 93 4000 2.57 70 14:30 28.03.2021
957 Fog 4 1037 100 4000 2.57 60 13:43 28.03.2021
958 Fog 4 1037 100 4000 2.57 60 13:20 28.03.2021
959 Fog 3 1036 100 4000 2.06 60 12:49 28.03.2021
960 Fog 3 1036 100 4000 2.06 60 12:29 28.03.2021
961 Fog 3 1036 93 4000 1.03 0 11:40 28.03.2021
962 Fog 3 1036 93 4000 1.03 0 11:18 28.03.2021
963 Fog 3 1036 100 4000 2.06 90 10:43 28.03.2021
964 Fog 3 1036 100 4000 2.06 90 10:21 28.03.2021
965 Fog 3 1036 100 4000 1.54 100 09:44 28.03.2021
966 Fog 3 1036 100 4000 1.54 100 09:23 28.03.2021
967 Fog 4 1037 100 4000 2.06 80 08:42 28.03.2021
968 Fog 5 1037 100 4000 2.57 110 07:45 28.03.2021
969 Fog 6 1038 93 4000 3.09 100 06:23 28.03.2021
970 Fog 6 1036 100 4000 4.12 120 03:51 28.03.2021
971 Clouds 8 1034 76 10000 3.6 70 00:49 28.03.2021
972 Clouds 8 1034 76 10000 3.6 70 00:19 28.03.2021
973 Clouds 10 1034 62 10000 2.06 80 23:39 27.03.2021
974 Clouds 9 1034 61 10000 2.57 10 22:53 27.03.2021
975 Clouds 9 1034 61 10000 2.57 10 22:35 27.03.2021
976 Rain 8 1034 76 10000 4.63 10 21:46 27.03.2021
977 Rain 8 1034 76 10000 4.63 10 21:21 27.03.2021
978 Rain 8 1035 81 8000 4.12 40 20:59 27.03.2021
979 Rain 8 1035 81 8000 4.12 40 20:37 27.03.2021
980 Rain 9 1035 71 6000 6.17 290 19:59 27.03.2021
981 Rain 9 1035 71 6000 6.17 290 19:40 27.03.2021
982 Rain 9 1035 71 6000 6.17 290 19:22 27.03.2021
983 Rain 11 1036 58 10000 3.6 240 18:47 27.03.2021
984 Rain 11 1036 58 10000 3.6 240 18:22 27.03.2021
985 Clouds 13 1037 54 10000 3.6 120 17:37 27.03.2021
986 Clouds 13 1037 54 10000 3.6 120 17:18 27.03.2021
987 Clouds 14 1037 54 10000 1.03 0 16:46 27.03.2021
988 Clouds 14 1037 54 10000 1.03 0 16:25 27.03.2021
989 Clouds 11 1037 58 10000 2.06 90 15:45 27.03.2021
990 Clouds 11 1037 58 10000 2.06 90 15:18 27.03.2021
991 Clouds 9 1037 81 10000 4.12 110 14:39 27.03.2021
992 Fog 6 1037 93 4000 3.09 80 13:39 27.03.2021
993 Fog 6 1037 93 4000 3.09 80 13:19 27.03.2021
994 Fog 3 1036 100 4000 1.54 100 12:43 27.03.2021
995 Fog 4 1036 93 4000 3.09 70 11:50 27.03.2021
996 Fog 4 1036 93 4000 3.09 70 11:31 27.03.2021
997 Fog 4 1035 100 4000 2.06 100 10:49 27.03.2021
998 Fog 4 1035 100 4000 2.06 100 10:30 27.03.2021
999 Fog 6 1035 93 4000 4.12 90 09:47 27.03.2021
1000 Fog 6 1035 93 4000 4.12 90 09:20 27.03.2021
1001 Fog 5 1035 93 4000 2.57 70 08:39 27.03.2021
1002 Fog 3 1036 100 4000 3.09 70 07:49 27.03.2021
1003 Fog 4 1036 100 4000 2.06 60 06:59 27.03.2021
1004 Fog 4 1036 100 4000 2.06 60 06:39 27.03.2021
1005 Clouds 3 1037 93 10000 1.03 0 04:42 27.03.2021
1006 Clouds 6 1036 81 10000 1.03 40 02:26 27.03.2021
1007 Clouds 8 1035 76 10000 2.57 70 00:33 27.03.2021
1008 Clouds 11 1034 62 10000 1.54 60 23:59 26.03.2021
1009 Clouds 11 1034 62 10000 1.54 60 23:25 26.03.2021
1010 Clouds 12 1034 62 10000 2.57 30 22:39 26.03.2021
1011 Rain 11 1034 62 10000 2.06 360 21:42 26.03.2021
1012 Rain 11 1034 62 10000 2.06 360 21:23 26.03.2021
1013 Rain 11 1035 66 10000 4.63 330 20:54 26.03.2021
1014 Rain 11 1035 66 10000 4.63 330 20:31 26.03.2021
1015 Clouds 13 1036 58 8000 3.09 50 19:51 26.03.2021
1016 Clouds 13 1036 58 8000 3.09 50 19:32 26.03.2021
1017 Clouds 12 1037 71 8000 3.09 110 18:49 26.03.2021
1018 Clouds 12 1037 71 8000 3.09 110 18:30 26.03.2021
1019 Clouds 14 1038 51 10000 1.54 190 17:50 26.03.2021
1020 Clouds 14 1038 51 10000 1.54 190 17:23 26.03.2021
1021 Clouds 12 1038 62 10000 2.06 270 16:34 26.03.2021
1022 Clouds 11 1039 66 10000 2.06 240 15:59 26.03.2021
1023 Clouds 11 1039 66 10000 2.06 240 15:28 26.03.2021
1024 Clouds 9 1039 71 10000 1.03 0 14:43 26.03.2021
1025 Clouds 5 1038 87 10000 1.03 0 13:51 26.03.2021
1026 Clouds 5 1038 87 10000 1.03 0 13:22 26.03.2021
1027 Clouds 2 1037 93 6000 2.57 70 12:35 26.03.2021
1028 Fog 1 1037 93 4000 2.57 90 11:47 26.03.2021
1029 Fog 1 1037 93 4000 2.57 90 11:27 26.03.2021
1030 Clouds 5 1019 87 10000 0.88 357 10:42 26.03.2021
1031 Fog 1 1036 93 4000 1.03 0 10:19 26.03.2021
1032 Fog 1 1036 93 4000 1.03 0 09:41 26.03.2021
1033 Fog 1 1036 93 4000 1.03 0 08:48 26.03.2021
1034 Fog 1 1036 93 4000 1.03 0 08:26 26.03.2021
1035 Fog 3 1037 93 4000 1.03 0 07:43 26.03.2021
1036 Fog 3 1037 93 4000 1.03 0 07:21 26.03.2021
1037 Clouds 2 1037 93 10000 2.06 70 06:55 26.03.2021
1038 Clouds 4 1038 87 10000 2.06 70 05:32 26.03.2021
1039 Clouds 6 1039 87 10000 1.03 0 03:28 26.03.2021
1040 Clouds 10 1036 57 10000 1.03 0 00:50 26.03.2021
1041 Clouds 12 1035 50 10000 2.57 70 23:49 25.03.2021
1042 Clouds 12 1035 50 10000 2.57 70 23:30 25.03.2021
1043 Clouds 11 1035 46 10000 2.06 90 22:40 25.03.2021
1044 Clouds 9 1036 61 10000 3.6 30 21:55 25.03.2021
1045 Rain 9 1036 61 10000 3.6 30 21:36 25.03.2021
1046 Rain 8 1036 71 10000 6.17 10 20:59 25.03.2021
1047 Rain 8 1036 71 10000 6.17 10 20:37 25.03.2021
1048 Rain 7 1037 81 10000 5.14 40 20:18 25.03.2021
1049 Clouds 8 1037 81 10000 4.63 60 19:39 25.03.2021
1050 Clouds 8 1037 81 10000 4.63 60 19:21 25.03.2021
1051 Clouds 10 1038 66 10000 6.69 50 18:40 25.03.2021
1052 Clouds 13 1038 54 10000 3.09 60 18:22 25.03.2021
1053 Clouds 14 1039 51 10000 3.6 120 17:38 25.03.2021
1054 Clouds 12 1039 62 10000 3.6 130 16:58 25.03.2021
1055 Clouds 12 1039 62 10000 3.6 130 16:35 25.03.2021
1056 Clouds 10 1039 71 10000 2.57 100 15:49 25.03.2021
1057 Clouds 10 1039 71 10000 2.57 100 15:27 25.03.2021
1058 Clouds 8 1039 81 6000 2.57 80 14:58 25.03.2021
1059 Clouds 8 1039 81 6000 2.57 80 14:38 25.03.2021
1060 Fog 6 1038 100 2500 2.57 120 13:29 25.03.2021
1061 Fog 5 1038 100 2000 2.57 90 12:56 25.03.2021
1062 Fog 5 1038 100 2000 2.57 90 12:36 25.03.2021
1063 Fog 2 1038 100 800 2.57 100 12:18 25.03.2021
1064 Fog 1 1037 93 2000 1.03 0 11:44 25.03.2021
1065 Clouds 3 1036 93 10000 1.03 310 11:25 25.03.2021
1066 Clouds 2 1036 100 10000 1.03 90 10:49 25.03.2021
1067 Clouds 2 1036 100 10000 1.03 90 10:21 25.03.2021
1068 Clouds 3 1036 93 10000 1.03 20 09:48 25.03.2021
1069 Clouds 3 1036 93 10000 1.03 20 09:29 25.03.2021
1070 Clouds 4 1037 87 10000 1.03 20 08:36 25.03.2021
1071 Clouds 6 1038 75 10000 1.03 0 07:43 25.03.2021
1072 Clouds 6 1039 81 10000 1.03 0 06:43 25.03.2021
1073 Clouds 6 1039 81 10000 1.03 0 06:23 25.03.2021
1074 Clouds 8 1039 81 10000 3.6 130 04:51 25.03.2021
1075 Clouds 9 1038 81 10000 3.6 120 02:28 25.03.2021
1076 Clouds 10 1036 62 10000 1.03 0 00:19 25.03.2021
1077 Rain 12 1035 47 10000 2.57 70 23:40 24.03.2021
1078 Clouds 12 1035 47 10000 2.57 70 23:19 24.03.2021
1079 Clouds 13 1034 41 10000 2.57 60 22:39 24.03.2021
1080 Clouds 14 1035 44 10000 4.12 50 21:51 24.03.2021
1081 Clouds 14 1035 44 10000 4.12 50 21:33 24.03.2021
1082 Clouds 12 1036 54 10000 3.6 10 20:59 24.03.2021
1083 Clouds 12 1036 54 10000 3.6 10 20:41 24.03.2021
1084 Clouds 12 1036 54 10000 3.6 10 20:18 24.03.2021
1085 Clouds 11 1037 58 10000 4.12 320 19:33 24.03.2021
1086 Clouds 14 1038 54 10000 4.12 140 18:53 24.03.2021
1087 Clouds 14 1038 54 10000 4.12 140 18:24 24.03.2021
1088 Clouds 13 1039 58 10000 4.63 130 17:53 24.03.2021
1089 Clouds 13 1039 58 10000 4.63 130 17:32 24.03.2021
1090 Clouds 12 1040 62 10000 2.57 120 16:56 24.03.2021
1091 Clouds 12 1040 62 10000 2.57 120 16:38 24.03.2021
1092 Clouds 12 1040 62 10000 2.57 120 16:18 24.03.2021
1093 Clouds 9 1040 71 10000 1.03 0 15:33 24.03.2021
1094 Clouds 7 1039 87 6000 1.03 0 14:59 24.03.2021
1095 Clouds 7 1039 87 6000 1.03 0 14:29 24.03.2021
1096 Fog 5 1038 100 4000 1.03 0 13:58 24.03.2021
1097 Fog 5 1038 100 4000 1.03 0 13:28 24.03.2021
1098 Fog 5 1038 93 4000 1.03 0 12:50 24.03.2021
1099 Mist 2 1037 100 1600 1.03 0 12:29 24.03.2021
1100 Mist 2 1037 100 1200 1.03 0 11:54 24.03.2021
1101 Fog 1 1037 100 4000 0.29 70 11:35 24.03.2021
1102 Clouds 3 1036 100 10000 2.06 40 10:48 24.03.2021
1103 Clouds 3 1036 100 10000 2.06 40 10:28 24.03.2021
1104 Fog 5 1037 93 4000 2.57 60 09:54 24.03.2021
1105 Fog 5 1037 100 4000 2.06 120 09:25 24.03.2021
1106 Fog 5 1037 100 4000 2.06 120 08:57 24.03.2021
1107 Fog 5 1037 100 4000 2.06 120 08:32 24.03.2021
1108 Fog 5 1038 93 4000 2.06 110 07:44 24.03.2021
1109 Fog 5 1038 93 4000 2.06 110 07:18 24.03.2021
1110 Fog 3 1038 93 4000 3.09 70 06:41 24.03.2021
1111 Clouds 6 1036 87 10000 3.09 70 01:24 24.03.2021
1112 Clouds 8 1035 76 10000 1.03 0 00:33 24.03.2021
1113 Clouds 9 1035 81 10000 2.06 300 23:43 23.03.2021
1114 Clouds 9 1035 81 10000 2.06 300 23:18 23.03.2021
1115 Clouds 9 1035 81 10000 4.12 280 22:40 23.03.2021
1116 Clouds 13 1035 58 10000 4.12 90 21:59 23.03.2021
1117 Clouds 13 1035 58 10000 4.12 90 21:41 23.03.2021
1118 Clouds 13 1035 58 10000 4.12 90 21:20 23.03.2021
1119 Clouds 15 1035 47 10000 5.14 100 20:42 23.03.2021
1120 Clouds 15 1035 47 10000 5.14 100 20:23 23.03.2021
1121 Clouds 14 1036 51 10000 5.14 120 19:45 23.03.2021
1122 Clouds 14 1036 51 10000 5.14 120 19:25 23.03.2021
1123 Clouds 12 1016 63 8470 1.6 66 18:43 23.03.2021
1124 Clouds 11 1018 64 3747 2.51 77 18:21 23.03.2021
1125 Clouds 11 1018 64 3747 2.51 77 17:44 23.03.2021
1126 Clouds 12 1039 58 10000 4.12 70 17:21 23.03.2021
1127 Clouds 12 1039 58 10000 4.12 70 17:21 23.03.2021
1128 Clouds 12 1039 58 10000 4.12 70 16:26 23.03.2021
1129 Clouds 10 1039 71 10000 3.09 80 15:59 23.03.2021
1130 Clouds 10 1039 71 10000 3.09 80 15:38 23.03.2021
1131 Clouds 7 1039 81 6000 3.09 100 14:51 23.03.2021
1132 Clouds 7 1039 81 6000 3.09 100 14:21 23.03.2021
1133 Clouds 5 1038 87 6000 4.12 90 13:49 23.03.2021
1134 Clouds 5 1038 87 6000 4.12 90 13:26 23.03.2021
1135 Fog 4 1038 93 4000 4.63 70 12:47 23.03.2021
1136 Fog 4 1038 93 4000 4.63 70 12:27 23.03.2021
1137 Fog 4 1037 93 4000 2.57 80 11:51 23.03.2021
1138 Fog 4 1037 93 4000 2.57 80 11:33 23.03.2021
1139 Fog 5 1037 93 4000 3.6 80 10:44 23.03.2021
1140 Fog 5 1037 93 4000 3.6 80 10:22 23.03.2021
1141 Fog 5 1037 87 4000 3.09 70 09:55 23.03.2021
1142 Fog 5 1037 87 4000 3.09 70 09:29 23.03.2021
1143 Fog 5 1038 87 4000 2.57 60 08:57 23.03.2021
1144 Fog 5 1038 87 4000 2.57 60 08:38 23.03.2021
1145 Fog 5 1038 87 4000 2.57 60 08:20 23.03.2021
1146 Rain 5 1038 93 4000 3.6 90 07:28 23.03.2021
1147 Fog 5 1039 93 4000 2.57 70 06:54 23.03.2021
1148 Fog 5 1039 93 4000 2.57 90 05:48 23.03.2021
1149 Rain 7 1039 93 4000 3.6 100 03:20 23.03.2021
1150 Clouds 8 1036 71 10000 4.12 60 00:22 23.03.2021
1151 Rain 8 1035 81 10000 7.2 60 23:23 22.03.2021
1152 Clouds 13 1035 47 10000 4.12 40 22:45 22.03.2021
1153 Clouds 13 1035 47 10000 4.12 40 22:22 22.03.2021
1154 Clouds 13 1035 47 10000 7.72 30 21:51 22.03.2021
1155 Clouds 13 1035 47 10000 7.72 30 21:27 22.03.2021
1156 Clouds 12 1035 62 10000 3.6 60 20:54 22.03.2021
1157 Clouds 12 1035 62 10000 3.6 60 20:30 22.03.2021
1158 Clouds 13 1036 58 10000 4.63 100 19:58 22.03.2021
1159 Clouds 13 1036 58 10000 4.63 100 19:40 22.03.2021
1160 Clouds 13 1036 58 10000 4.63 100 19:40 22.03.2021
1161 Clouds 13 1036 58 10000 4.63 100 19:21 22.03.2021
1162 Clouds 11 1038 66 10000 4.63 120 18:42 22.03.2021
1163 Clouds 11 1038 66 10000 4.63 120 18:23 22.03.2021
1164 Clouds 8 1039 87 10000 4.63 110 17:50 22.03.2021
1165 Clouds 8 1039 87 10000 4.63 110 17:22 22.03.2021
1166 Clouds 8 1039 87 10000 4.63 110 17:22 22.03.2021
1167 Clouds 9 1039 87 10000 3.6 120 16:57 22.03.2021
1168 Clouds 9 1039 87 10000 3.6 120 16:39 22.03.2021
1169 Clouds 9 1039 81 6000 3.6 120 15:43 22.03.2021
1170 Clouds 9 1039 81 6000 3.6 120 15:25 22.03.2021
1171 Fog 6 1039 93 4000 3.09 120 14:59 22.03.2021
1172 Fog 6 1039 93 4000 3.09 120 14:34 22.03.2021
1173 Fog 6 1038 93 2500 3.09 120 13:52 22.03.2021
1174 Fog 6 1038 93 2500 3.09 120 13:52 22.03.2021
1175 Fog 6 1038 93 2500 3.09 120 13:33 22.03.2021
1176 Fog 6 1020 93 2500 3.09 100 12:59 22.03.2021
1177 Fog 6 1020 93 2500 3.09 100 12:27 22.03.2021
1178 Fog 5 1037 100 4000 3.09 110 11:57 22.03.2021
1179 Fog 5 1037 100 4000 3.09 110 11:39 22.03.2021
1180 Fog 5 1037 100 4000 3.09 110 11:20 22.03.2021
1181 Fog 5 1037 100 4000 4.12 100 10:41 22.03.2021
1182 Fog 5 1037 100 4000 4.12 100 10:18 22.03.2021
1183 Fog 5 1037 100 4000 5.14 110 09:36 22.03.2021
1184 Fog 5 1037 93 4000 3.6 110 08:57 22.03.2021
1185 Fog 5 1037 93 4000 3.6 110 08:57 22.03.2021
1186 Fog 5 1037 93 4000 3.6 110 08:39 22.03.2021
1187 Fog 5 1037 93 4000 3.6 110 08:20 22.03.2021
1188 Fog 5 1037 100 4000 5.14 100 07:42 22.03.2021
1189 Fog 5 1038 100 4000 1.03 0 06:52 22.03.2021
1190 Fog 5 1039 100 4000 3.09 60 05:18 22.03.2021
1191 Clouds 8 1036 76 10000 4.12 60 00:55 22.03.2021
1192 Clouds 8 1036 76 10000 4.12 60 00:20 22.03.2021
1193 Clouds 10 1035 66 10000 1.03 0 23:47 21.03.2021
1194 Clouds 10 1035 66 10000 1.03 0 23:18 21.03.2021
1195 Clouds 11 1035 71 10000 3.6 290 22:53 21.03.2021
1196 Clouds 11 1035 71 10000 3.6 290 22:53 21.03.2021
1197 Clouds 13 1036 54 10000 3.09 100 21:43 21.03.2021
1198 Clouds 13 1036 54 10000 3.09 100 21:25 21.03.2021
1199 Clouds 13 1036 54 10000 5.66 120 20:57 21.03.2021
1200 Clouds 13 1036 54 10000 5.66 120 20:39 21.03.2021
1201 Clouds 13 1036 54 10000 5.66 120 20:21 21.03.2021
1202 Clouds 13 1037 54 8000 7.2 100 19:46 21.03.2021
1203 Clouds 14 1038 54 10000 5.14 90 19:20 21.03.2021
1204 Clouds 14 1038 54 10000 5.14 90 18:41 21.03.2021
1205 Clouds 14 1038 54 10000 5.14 90 18:18 21.03.2021
1206 Clouds 13 1039 54 10000 6.17 90 17:42 21.03.2021
1207 Clouds 13 1039 54 10000 6.17 90 17:18 21.03.2021
1208 Clouds 13 1039 54 10000 6.17 90 17:18 21.03.2021
1209 Clouds 12 1039 58 10000 6.17 60 16:50 21.03.2021
1210 Clouds 12 1039 58 10000 6.17 60 16:23 21.03.2021
1211 Clouds 12 1039 58 10000 6.17 60 16:23 21.03.2021
1212 Clouds 11 1039 66 10000 4.12 80 15:46 21.03.2021
1213 Clouds 11 1039 66 10000 4.12 80 15:21 21.03.2021
1214 Clouds 8 1039 81 6000 3.09 110 14:48 21.03.2021
1215 Clouds 8 1039 81 6000 3.09 110 14:48 21.03.2021
1216 Clouds 8 1039 81 6000 3.09 110 14:27 21.03.2021
1217 Fog 6 1038 93 4000 3.09 120 13:58 21.03.2021
1218 Fog 6 1038 93 4000 3.09 120 13:39 21.03.2021
1219 Fog 6 1037 93 4000 3.6 120 12:44 21.03.2021
1220 Fog 6 1037 93 4000 3.6 120 12:25 21.03.2021
1221 Fog 6 1037 93 4000 3.6 120 12:25 21.03.2021
1222 Fog 6 1036 93 4000 2.57 100 11:41 21.03.2021
1223 Fog 6 1036 93 4000 2.57 100 11:21 21.03.2021
1224 Fog 5 1035 93 4000 3.09 120 10:45 21.03.2021
1225 Fog 5 1035 93 4000 3.09 120 10:26 21.03.2021
1226 Fog 5 1035 93 4000 2.06 90 09:49 21.03.2021
1227 Fog 5 1035 93 4000 2.06 90 09:30 21.03.2021
1228 Fog 5 1035 93 4000 2.57 90 08:56 21.03.2021
1229 Fog 5 1035 93 4000 2.57 90 08:31 21.03.2021
1230 Fog 6 1035 100 4000 3.6 100 07:50 21.03.2021
1231 Fog 6 1035 100 4000 3.6 100 07:23 21.03.2021
1232 Rain 7 1036 100 4000 3.6 90 05:59 21.03.2021
1233 Clouds 8 1035 81 10000 3.09 70 02:48 21.03.2021
1234 Clouds 9 1034 76 10000 1.03 0 00:56 21.03.2021
1235 Clouds 9 1034 76 10000 1.03 0 00:36 21.03.2021
1236 Clouds 9 1034 76 10000 1.03 0 00:18 21.03.2021
1237 Clouds 9 1034 71 10000 2.06 310 23:40 20.03.2021
1238 Clouds 9 1033 76 10000 6.17 290 22:57 20.03.2021
1239 Clouds 9 1033 76 10000 6.17 290 22:24 20.03.2021
1240 Clouds 13 1033 54 10000 3.09 60 21:48 20.03.2021
1241 Clouds 13 1033 54 10000 3.09 60 21:25 20.03.2021
1242 Clouds 14 1034 47 10000 2.57 90 20:49 20.03.2021
1243 Clouds 14 1034 47 10000 2.57 90 20:24 20.03.2021
1244 Clouds 13 1034 50 10000 2.06 160 19:51 20.03.2021
1245 Clouds 13 1034 50 10000 2.06 160 19:29 20.03.2021
1246 Clouds 13 1035 50 10000 1.54 130 18:51 20.03.2021
1247 Clouds 13 1035 50 10000 1.54 130 18:28 20.03.2021
1248 Clouds 13 1035 50 10000 3.6 140 17:58 20.03.2021
1249 Clouds 13 1035 50 10000 3.6 140 17:40 20.03.2021
1250 Clouds 13 1035 50 10000 3.6 140 17:19 20.03.2021
1251 Clouds 12 1036 54 10000 1.03 0 16:38 20.03.2021
1252 Clouds 12 1036 54 10000 1.03 0 16:18 20.03.2021
1253 Clouds 10 1036 53 10000 1.03 0 15:40 20.03.2021
1254 Clouds 10 1036 53 10000 1.03 0 15:21 20.03.2021
1255 Clouds 8 1036 71 10000 1.46 258 14:32 20.03.2021
1256 Clouds 5 1035 87 10000 1.03 0 13:59 20.03.2021
1257 Clouds 5 1035 87 10000 1.03 0 13:29 20.03.2021
1258 Clouds 3 1035 93 10000 1.03 0 12:30 20.03.2021
1259 Clouds 3 1034 81 10000 2.57 190 11:58 20.03.2021
1260 Clouds 3 1034 81 10000 2.57 190 11:39 20.03.2021
1261 Clouds 3 1034 81 10000 2.57 190 11:20 20.03.2021
1262 Clouds 4 1033 81 10000 1.03 0 10:39 20.03.2021
1263 Clouds 4 1033 81 10000 1.03 0 10:20 20.03.2021
1264 Clouds 5 1034 70 10000 2.06 230 09:43 20.03.2021
1265 Clouds 5 1034 70 10000 2.06 230 09:21 20.03.2021
1266 Clouds 6 1034 61 10000 3.09 220 08:49 20.03.2021
1267 Clouds 5 1035 70 10000 2.06 190 07:58 20.03.2021
1268 Clouds 5 1035 70 10000 2.06 190 07:39 20.03.2021
1269 Clouds 5 1035 70 10000 2.06 190 07:20 20.03.2021
1270 Clouds 6 1035 75 10000 2.57 240 06:38 20.03.2021
1271 Clouds 7 1035 81 10000 3.09 230 05:27 20.03.2021
1272 Clouds 7 1034 87 10000 1.03 0 03:43 20.03.2021
1273 Clouds 8 1033 81 10000 1.03 0 00:48 20.03.2021
1274 Clouds 8 1032 76 10000 3.6 290 23:45 19.03.2021
1275 Clouds 8 1032 76 10000 3.6 290 23:18 19.03.2021
1276 Clouds 8 1032 76 10000 5.14 310 22:42 19.03.2021
1277 Clouds 8 1032 76 10000 5.14 310 22:22 19.03.2021
1278 Clouds 9 1032 71 10000 4.63 290 21:38 19.03.2021
1279 Clouds 9 1032 71 10000 4.63 290 21:38 19.03.2021
1280 Clouds 9 1032 71 10000 4.63 290 21:19 19.03.2021
1281 Clouds 8 1033 81 10000 4.12 130 20:44 19.03.2021
1282 Clouds 8 1033 81 10000 4.12 130 20:26 19.03.2021
1283 Clouds 7 1034 81 10000 2.57 200 19:47 19.03.2021
1284 Clouds 7 1034 76 10000 4.63 290 19:22 19.03.2021
1285 Clouds 7 1034 76 10000 4.63 290 18:46 19.03.2021
1286 Clouds 9 1034 71 10000 2.57 320 18:21 19.03.2021
1287 Clouds 11 1035 66 10000 2.06 140 17:56 19.03.2021
1288 Clouds 11 1035 66 10000 2.06 140 17:36 19.03.2021
1289 Clouds 11 1036 66 10000 3.09 110 16:57 19.03.2021
1290 Clouds 11 1036 66 10000 3.09 110 16:36 19.03.2021
1291 Clouds 11 1036 66 10000 3.09 110 16:18 19.03.2021
1292 Clouds 9 1035 81 10000 3.09 120 15:32 19.03.2021
1293 Fog 7 1035 93 3000 3.09 100 14:49 19.03.2021
1294 Fog 7 1035 93 3000 3.09 100 14:29 19.03.2021
1295 Fog 6 1034 93 2000 3.09 80 13:45 19.03.2021
1296 Fog 6 1034 93 2000 3.09 80 13:18 19.03.2021
1297 Clouds 1 1034 93 10000 1.03 0 12:38 19.03.2021
1298 Clouds 3 1034 93 10000 1.54 20 11:53 19.03.2021
1299 Clouds 3 1033 93 10000 1.54 10 10:59 19.03.2021
1300 Clouds 3 1033 93 10000 1.54 10 10:40 19.03.2021
1301 Clouds 3 1033 93 10000 1.54 10 10:40 19.03.2021
1302 Clouds 3 1033 93 10000 1.54 10 10:19 19.03.2021
1303 Clouds 3 1034 100 10000 1.03 10 09:43 19.03.2021
1304 Clouds 3 1034 100 10000 1.03 10 09:22 19.03.2021
1305 Clouds 2 1034 100 10000 1.03 60 08:47 19.03.2021
1306 Clouds 2 1034 100 10000 1.03 60 08:26 19.03.2021
1307 Clouds 3 1035 100 10000 1.03 0 07:43 19.03.2021
1308 Clouds 5 1036 93 10000 1.03 0 06:59 19.03.2021
1309 Rain 6 1036 93 10000 1.03 0 05:26 19.03.2021
1310 Clouds 9 1034 81 10000 1.03 0 00:58 19.03.2021
1311 Clouds 9 1034 76 10000 1.03 0 23:51 18.03.2021
1312 Clouds 9 1034 76 10000 1.03 0 23:26 18.03.2021
1313 Clouds 10 1034 76 10000 3.09 110 22:44 18.03.2021
1314 Clouds 10 1034 76 10000 3.09 110 22:25 18.03.2021
1315 Clouds 12 1034 58 10000 1.03 0 21:40 18.03.2021
1316 Clouds 12 1034 58 10000 1.03 0 21:20 18.03.2021
1317 Clouds 11 1035 62 10000 2.57 90 20:36 18.03.2021
1318 Clouds 9 1036 81 8000 3.6 100 19:59 18.03.2021
1319 Clouds 9 1036 81 8000 3.6 100 19:59 18.03.2021
1320 Clouds 9 1036 81 8000 3.6 100 19:41 18.03.2021
1321 Clouds 9 1036 81 8000 3.6 100 19:21 18.03.2021
1322 Clouds 8 1036 87 5000 3.6 90 18:38 18.03.2021
1323 Clouds 11 1037 66 10000 5.66 140 17:51 18.03.2021
1324 Clouds 11 1037 66 10000 5.66 140 17:26 18.03.2021
1325 Clouds 10 1037 62 10000 3.6 120 16:50 18.03.2021
1326 Clouds 10 1037 62 10000 3.6 120 16:31 18.03.2021
1327 Clouds 7 1037 81 10000 1.03 0 15:49 18.03.2021
1328 Clouds 7 1037 81 10000 1.03 0 15:30 18.03.2021
1329 Clouds 5 1038 87 4000 3.09 60 14:59 18.03.2021
1330 Rain 5 1038 87 4000 3.09 60 14:40 18.03.2021
1331 Rain 5 1037 87 6000 4.12 50 13:56 18.03.2021
1332 Rain 5 1037 87 6000 4.12 50 13:27 18.03.2021
1333 Rain 5 1035 93 4000 4.12 60 12:46 18.03.2021
1334 Rain 5 1035 93 4000 4.12 60 12:28 18.03.2021
1335 Rain 5 1035 100 4000 3.09 70 11:55 18.03.2021
1336 Rain 5 1035 100 4000 3.09 70 11:34 18.03.2021
1337 Rain 5 1035 100 4000 3.09 70 10:49 18.03.2021
1338 Rain 5 1035 100 4000 3.09 70 10:28 18.03.2021
1339 Rain 5 1034 100 4000 1.54 100 09:58 18.03.2021
1340 Rain 5 1034 100 4000 1.54 100 09:30 18.03.2021
1341 Rain 5 1035 93 10000 1.03 0 08:57 18.03.2021
1342 Rain 4 1035 93 10000 1.44 120 08:33 18.03.2021
1343 Rain 4 1035 93 10000 0.92 101 07:57 18.03.2021
1344 Rain 4 1035 93 10000 0.92 101 07:39 18.03.2021
1345 Rain 6 1035 87 10000 1.54 80 06:40 18.03.2021
1346 Clouds 6 1035 87 10000 1.54 80 06:19 18.03.2021
1347 Clouds 7 1036 81 10000 2.57 220 04:27 18.03.2021
1348 Clouds 6 1035 93 8000 6.69 70 00:39 18.03.2021
1349 Rain 10 1034 66 6000 5.14 80 23:18 17.03.2021
1350 Rain 12 1033 58 8000 6.17 290 22:37 17.03.2021
1351 Clouds 12 1033 58 8000 6.17 290 22:18 17.03.2021
1352 Clouds 12 1033 62 10000 7.2 310 21:47 17.03.2021
1353 Clouds 12 1033 62 10000 7.2 310 21:47 17.03.2021
1354 Clouds 12 1033 62 10000 7.2 310 21:29 17.03.2021
1355 Clouds 9 1034 81 8000 4.12 300 20:45 17.03.2021
1356 Clouds 9 1034 81 8000 4.12 300 20:25 17.03.2021
1357 Clouds 12 1034 71 8000 3.6 270 19:54 17.03.2021
1358 Clouds 12 1034 71 8000 3.6 270 19:25 17.03.2021
1359 Clouds 11 1035 62 10000 3.6 300 18:57 17.03.2021
1360 Clouds 11 1035 62 10000 3.6 300 18:39 17.03.2021
1361 Clouds 12 1036 66 8000 1.03 0 17:57 17.03.2021
1362 Clouds 12 1036 66 8000 1.03 0 17:27 17.03.2021
1363 Clouds 13 1037 67 10000 1.03 0 16:55 17.03.2021
1364 Clouds 13 1037 67 10000 1.03 0 16:37 17.03.2021
1365 Clouds 13 1037 67 10000 1.03 0 16:18 17.03.2021
1366 Clouds 12 1037 71 10000 1.03 0 15:37 17.03.2021
1367 Clouds 10 1037 81 6000 2.57 80 14:46 17.03.2021
1368 Clouds 10 1037 81 6000 2.57 80 14:27 17.03.2021
1369 Clouds 7 1036 87 10000 1.03 0 13:56 17.03.2021
1370 Clouds 7 1036 87 10000 1.03 0 13:37 17.03.2021
1371 Clouds 6 1035 93 10000 1.03 0 12:59 17.03.2021
1372 Clouds 6 1035 93 10000 1.03 0 12:34 17.03.2021
1373 Fog 6 1035 93 4000 1.03 0 11:54 17.03.2021
1374 Fog 6 1035 93 4000 1.03 0 11:27 17.03.2021
1375 Fog 6 1035 100 4000 2.06 60 10:59 17.03.2021
1376 Fog 6 1035 100 4000 2.06 60 10:40 17.03.2021
1377 Fog 6 1034 100 4000 2.06 70 09:59 17.03.2021
1378 Fog 6 1034 100 4000 2.06 70 09:41 17.03.2021
1379 Fog 6 1034 100 4000 2.06 70 09:19 17.03.2021
1380 Fog 6 1034 100 4000 2.06 70 09:19 17.03.2021
1381 Fog 7 1034 93 4000 2.57 80 08:39 17.03.2021
1382 Fog 7 1034 93 4000 2.57 80 08:20 17.03.2021
1383 Fog 7 1035 93 4000 2.57 90 07:36 17.03.2021
1384 Mist 6 1035 100 2000 2.57 110 06:47 17.03.2021
1385 Fog 6 1036 93 4000 2.57 60 04:27 17.03.2021
1386 Clouds 7 1035 93 10000 3.09 80 03:25 17.03.2021
1387 Rain 7 1034 87 10000 1.03 0 00:41 17.03.2021
1388 Rain 6 1033 87 10000 2.06 60 23:40 16.03.2021
1389 Rain 6 1033 87 10000 2.06 60 23:18 16.03.2021
1390 Rain 8 1033 71 8000 6.17 40 22:43 16.03.2021
1391 Rain 8 1033 71 8000 6.17 40 22:24 16.03.2021
1392 Rain 13 1032 54 10000 5.66 60 21:40 16.03.2021
1393 Rain 14 1033 44 10000 4.63 260 21:21 16.03.2021
1394 Clouds 15 1034 41 10000 4.12 250 20:46 16.03.2021
1395 Clouds 15 1034 41 10000 4.12 250 20:19 16.03.2021
1396 Clouds 15 1035 44 10000 4.63 240 19:43 16.03.2021
1397 Clouds 16 1036 41 10000 4.12 260 19:24 16.03.2021
1398 Clouds 16 1036 41 10000 4.12 260 18:50 16.03.2021
1399 Clouds 16 1036 41 10000 4.12 260 18:29 16.03.2021
1400 Clouds 15 1037 41 10000 3.6 240 17:51 16.03.2021
1401 Clouds 15 1037 41 10000 3.6 240 17:33 16.03.2021
1402 Clouds 13 1037 54 10000 4.63 270 16:54 16.03.2021
1403 Clouds 13 1037 54 10000 4.63 270 16:54 16.03.2021
1404 Clouds 13 1037 54 10000 4.63 270 16:54 16.03.2021
1405 Clouds 13 1037 54 10000 4.63 270 16:54 16.03.2021
1406 Clouds 13 1037 54 10000 4.63 270 16:31 16.03.2021
1407 Clouds 10 1038 66 10000 3.09 300 15:57 16.03.2021
1408 Clouds 10 1038 66 10000 3.09 300 15:37 16.03.2021
1409 Clouds 10 1038 66 10000 3.09 300 15:37 16.03.2021
1410 Clouds 10 1038 66 10000 3.09 300 15:18 16.03.2021
1411 Clouds 9 1038 76 10000 2.06 260 14:41 16.03.2021
1412 Clouds 9 1038 76 10000 2.06 260 14:22 16.03.2021
1413 Clouds 7 1037 87 10000 1.03 0 13:57 16.03.2021
1414 Clouds 7 1037 87 10000 1.03 0 13:29 16.03.2021
1415 Clouds 4 1036 100 10000 0.6 30 12:55 16.03.2021
1416 Clouds 4 1036 100 10000 0.6 30 12:36 16.03.2021
1417 Clouds 4 1035 100 10000 1.03 0 11:55 16.03.2021
1418 Clouds 4 1035 100 10000 1.03 0 11:29 16.03.2021
1419 Clouds 4 1035 100 10000 1.03 0 10:46 16.03.2021
1420 Clouds 4 1035 100 10000 1.03 0 10:20 16.03.2021
1421 Clouds 2 1035 100 10000 1.03 0 09:40 16.03.2021
1422 Clouds 2 1035 100 10000 1.03 0 09:40 16.03.2021
1423 Clouds 2 1035 100 10000 1.03 0 09:19 16.03.2021
1424 Clouds 4 1036 100 10000 1.03 0 08:51 16.03.2021
1425 Clouds 4 1036 100 10000 1.03 0 08:32 16.03.2021
1426 Clouds 5 1037 93 10000 1.03 10 07:50 16.03.2021
1427 Fog 6 1037 100 4000 1.03 0 06:57 16.03.2021
1428 Fog 6 1037 100 4000 1.03 0 06:37 16.03.2021
1429 Fog 7 1038 87 4000 2.57 260 05:35 16.03.2021
1430 Clouds 5 1037 93 10000 2.57 80 02:46 16.03.2021
1431 Clouds 5 1037 93 10000 2.57 80 02:25 16.03.2021
1432 Clouds 10 1034 66 10000 3.09 90 00:25 16.03.2021
1433 Clouds 10 1034 66 10000 3.09 90 00:25 16.03.2021
1434 Clouds 10 1034 66 10000 3.09 90 00:25 16.03.2021
1435 Clouds 12 1034 54 10000 1.03 0 23:29 15.03.2021
1436 Clouds 12 1034 50 10000 2.06 80 22:57 15.03.2021
1437 Clouds 12 1034 50 10000 2.06 80 22:38 15.03.2021
1438 Clouds 12 1034 50 10000 2.06 80 22:20 15.03.2021
1439 Clouds 12 1034 54 10000 3.6 90 21:44 15.03.2021
1440 Rain 12 1034 54 10000 3.6 90 21:26 15.03.2021
1441 Clouds 11 1035 58 10000 3.6 60 20:45 15.03.2021
1442 Clouds 11 1035 58 10000 3.6 60 20:26 15.03.2021
1443 Clouds 11 1036 62 10000 4.63 70 19:56 15.03.2021
1444 Clouds 11 1036 62 10000 4.63 70 19:35 15.03.2021
1445 Rain 13 1037 54 10000 1.03 0 18:58 15.03.2021
1446 Clouds 13 1037 54 10000 1.03 0 18:33 15.03.2021
1447 Clouds 12 1038 54 10000 2.57 160 17:57 15.03.2021
1448 Clouds 12 1038 54 10000 2.57 160 17:39 15.03.2021
1449 Clouds 12 1038 54 10000 2.57 160 17:21 15.03.2021
1450 Clouds 10 1038 66 10000 3.09 110 16:42 15.03.2021
1451 Clouds 9 1038 71 10000 2.57 120 15:55 15.03.2021
1452 Clouds 9 1038 71 10000 2.57 120 15:28 15.03.2021
1453 Clouds 9 1038 71 10000 2.57 120 15:28 15.03.2021
1454 Clouds 7 1038 81 6000 2.06 120 14:47 15.03.2021
1455 Clouds 7 1038 81 6000 2.06 120 14:28 15.03.2021
1456 Clouds 6 1037 81 6000 1.03 0 13:59 15.03.2021
1457 Clouds 6 1037 81 6000 1.03 0 13:35 15.03.2021
1458 Rain 5 1037 87 4000 1.03 0 12:51 15.03.2021
1459 Fog 5 1037 87 4000 1.03 0 12:21 15.03.2021
1460 Rain 5 1036 87 4000 1.03 0 11:59 15.03.2021
1461 Fog 5 1036 87 4000 1.03 0 11:40 15.03.2021
1462 Fog 5 1036 87 4000 1.03 0 11:21 15.03.2021
1463 Rain 5 1036 87 4000 1.03 0 10:39 15.03.2021
1464 Rain 5 1036 87 4000 1.03 0 10:21 15.03.2021
1465 Fog 4 1036 93 4000 1.03 0 09:40 15.03.2021
1466 Rain 4 1036 93 4000 1.03 0 09:20 15.03.2021
1467 Fog 4 1036 93 4000 1.03 0 08:42 15.03.2021
1468 Fog 4 1036 93 4000 1.03 0 08:21 15.03.2021
1469 Fog 4 1036 100 4000 3.09 70 07:33 15.03.2021
1470 Fog 5 1037 93 4000 3.09 100 06:48 15.03.2021
1471 Clouds 5 1037 87 10000 2.57 80 05:35 15.03.2021
1472 Clouds 7 1037 76 10000 4.63 90 03:19 15.03.2021
1473 Clouds 9 1035 76 10000 1.03 0 00:21 15.03.2021
1474 Clouds 9 1035 76 10000 1.03 0 00:21 15.03.2021
1475 Clouds 8 1034 76 10000 3.6 30 23:22 14.03.2021
1476 Clouds 8 1034 71 10000 5.14 20 22:49 14.03.2021
1477 Clouds 8 1034 71 10000 5.14 20 22:27 14.03.2021
1478 Clouds 9 1034 71 10000 3.6 330 21:51 14.03.2021
1479 Clouds 9 1034 71 10000 3.6 330 21:22 14.03.2021
1480 Clouds 9 1035 71 10000 3.6 340 20:50 14.03.2021
1481 Clouds 9 1035 71 10000 3.6 340 20:27 14.03.2021
1482 Clouds 11 1036 62 10000 2.57 150 19:56 14.03.2021
1483 Clouds 11 1036 62 10000 2.57 150 19:37 14.03.2021
1484 Clouds 11 1036 62 10000 2.57 150 19:18 14.03.2021
1485 Clouds 11 1037 62 10000 1.03 0 18:31 14.03.2021
1486 Clouds 10 1038 66 10000 3.6 130 17:42 14.03.2021
1487 Clouds 10 1038 66 10000 3.6 130 17:23 14.03.2021
1488 Clouds 11 1038 58 10000 2.06 240 16:52 14.03.2021
1489 Clouds 11 1038 58 10000 2.06 240 16:33 14.03.2021
1490 Clouds 11 1038 62 10000 2.57 100 15:57 14.03.2021
1491 Clouds 11 1038 62 10000 2.57 100 15:39 14.03.2021
1492 Clouds 8 1038 76 10000 2.57 110 14:42 14.03.2021
1493 Clouds 8 1038 76 10000 2.57 110 14:42 14.03.2021
1494 Clouds 8 1038 76 10000 2.57 110 14:23 14.03.2021
1495 Fog 5 1037 93 4000 4.63 110 13:50 14.03.2021
1496 Fog 5 1037 93 4000 4.63 110 13:29 14.03.2021
1497 Fog 4 1037 93 4000 4.12 100 12:47 14.03.2021
1498 Fog 4 1037 93 4000 4.12 100 12:29 14.03.2021
1499 Fog 4 1036 93 4000 4.12 100 11:54 14.03.2021
1500 Fog 4 1036 93 4000 4.12 100 11:36 14.03.2021
1501 Fog 5 1036 93 4000 4.12 100 10:56 14.03.2021
1502 Fog 5 1036 93 4000 4.12 100 10:37 14.03.2021
1503 Fog 5 1036 93 4000 4.12 100 10:18 14.03.2021
1504 Fog 5 1036 93 4000 3.6 110 09:43 14.03.2021
1505 Fog 5 1036 93 4000 3.6 110 09:22 14.03.2021
1506 Fog 6 1037 87 4000 3.6 130 08:48 14.03.2021
1507 Fog 6 1037 87 4000 3.6 130 08:29 14.03.2021
1508 Clouds 6 1037 87 10000 2.06 150 07:47 14.03.2021
1509 Clouds 6 1038 87 10000 3.09 140 06:51 14.03.2021
1510 Clouds 7 1038 81 10000 3.09 140 05:32 14.03.2021
1511 Clouds 10 1034 62 10000 2.57 70 00:52 14.03.2021
1512 Clouds 10 1034 62 10000 2.57 70 00:19 14.03.2021
1513 Clouds 11 1034 62 10000 3.09 50 23:52 13.03.2021
1514 Clouds 11 1034 62 10000 3.09 50 23:30 13.03.2021
1515 Clouds 13 1034 50 10000 3.6 60 22:53 13.03.2021
1516 Clouds 13 1034 50 10000 3.6 60 22:27 13.03.2021
1517 Clouds 11 1034 58 10000 4.63 260 21:44 13.03.2021
1518 Clouds 11 1034 58 10000 4.63 260 21:25 13.03.2021
1519 Clouds 13 1035 44 10000 2.06 130 20:50 13.03.2021
1520 Clouds 13 1035 44 10000 2.06 130 20:30 13.03.2021
1521 Clouds 13 1036 41 10000 2.57 60 19:53 13.03.2021
1522 Clouds 13 1036 41 10000 2.57 60 19:29 13.03.2021
1523 Clouds 13 1037 38 10000 3.6 110 18:44 13.03.2021
1524 Clouds 13 1037 38 10000 3.6 110 18:23 13.03.2021
1525 Clouds 13 1038 38 10000 3.09 70 17:59 13.03.2021
1526 Clouds 13 1038 38 10000 3.09 70 17:40 13.03.2021
1527 Clouds 13 1038 38 10000 3.09 70 17:21 13.03.2021
1528 Clouds 10 1039 62 10000 4.12 90 16:42 13.03.2021
1529 Clouds 9 1039 66 10000 4.12 110 15:59 13.03.2021
1530 Clouds 9 1039 66 10000 4.12 110 15:25 13.03.2021
1531 Clouds 8 1039 71 10000 4.12 90 14:47 13.03.2021
1532 Clouds 8 1039 71 10000 4.12 90 14:25 13.03.2021
1533 Clouds 8 1039 71 10000 4.12 90 14:25 13.03.2021
1534 Clouds 4 1038 100 6000 2.06 80 13:46 13.03.2021
1535 Clouds 4 1038 100 6000 2.06 80 13:23 13.03.2021
1536 Fog 2 1037 100 4000 2.57 70 12:43 13.03.2021
1537 Fog 2 1037 100 4000 2.57 70 12:18 13.03.2021
1538 Fog 2 1037 100 4000 2.57 90 11:42 13.03.2021
1539 Fog 2 1037 100 4000 2.57 90 11:24 13.03.2021
1540 Fog 2 1036 93 4000 2.06 90 10:49 13.03.2021
1541 Fog 2 1036 93 4000 2.06 90 10:25 13.03.2021
1542 Fog 3 1036 93 4000 2.57 90 09:38 13.03.2021
1543 Fog 4 1036 93 4000 3.6 100 08:58 13.03.2021
1544 Fog 4 1036 93 4000 3.6 100 08:38 13.03.2021
1545 Fog 4 1036 93 4000 3.6 100 08:18 13.03.2021
1546 Fog 3 1037 93 4000 3.09 80 07:39 13.03.2021
1547 Clouds 4 1038 93 10000 2.06 120 05:31 13.03.2021
1548 Clouds 7 1037 65 10000 2.57 40 02:42 13.03.2021
1549 Clouds 8 1035 66 10000 5.66 90 00:37 13.03.2021
1550 Clouds 11 1034 54 10000 5.14 120 23:48 12.03.2021
1551 Clouds 11 1034 54 10000 5.14 120 23:30 12.03.2021
1552 Clouds 11 1034 54 10000 3.09 240 22:41 12.03.2021
1553 Clouds 11 1034 54 10000 3.09 240 22:21 12.03.2021
1554 Clouds 10 1035 53 10000 1.03 0 21:39 12.03.2021
1555 Clouds 10 1035 53 10000 1.03 0 21:20 12.03.2021
1556 Clouds 11 1035 54 10000 6.17 70 20:54 12.03.2021
1557 Clouds 11 1035 54 10000 6.17 70 20:31 12.03.2021
1558 Clouds 12 1036 50 10000 7.2 60 19:48 12.03.2021
1559 Clouds 12 1036 50 10000 7.2 60 19:48 12.03.2021
1560 Clouds 12 1036 50 10000 7.2 60 19:30 12.03.2021
1561 Clouds 13 1037 44 10000 3.6 80 18:54 12.03.2021
1562 Clouds 13 1037 44 10000 3.6 80 18:32 12.03.2021
1563 Clouds 12 1038 54 10000 4.12 90 17:45 12.03.2021
1564 Clouds 12 1038 54 10000 4.12 90 17:27 12.03.2021
1565 Clouds 11 1039 58 10000 3.6 120 16:49 12.03.2021
1566 Clouds 11 1039 58 10000 3.6 120 16:28 12.03.2021
1567 Clouds 9 1039 71 10000 2.06 90 15:40 12.03.2021
1568 Clouds 9 1039 71 10000 2.06 90 15:18 12.03.2021
1569 Clouds 6 1038 75 10000 2 124 14:40 12.03.2021
1570 Clouds 6 1038 75 10000 1.65 131 14:18 12.03.2021
1571 Clouds 6 1038 75 10000 1.54 70 13:40 12.03.2021
1572 Clouds 6 1038 75 10000 1.54 70 13:19 12.03.2021
1573 Fog 0 1037 93 4000 1.03 50 12:49 12.03.2021
1574 Fog 0 1037 93 4000 1.03 50 12:28 12.03.2021
1575 Fog 0 1036 100 4000 2.06 100 11:54 12.03.2021
1576 Fog 0 1036 100 4000 2.06 100 11:25 12.03.2021
1577 Clouds 0 1036 100 10000 2.06 100 10:57 12.03.2021
1578 Clouds 0 1036 100 10000 2.06 100 10:28 12.03.2021
1579 Clouds 2 1036 93 10000 2.06 50 09:58 12.03.2021
1580 Clouds 2 1036 93 10000 2.06 50 09:27 12.03.2021
1581 Clouds 1 1036 86 10000 2.06 50 08:50 12.03.2021
1582 Clouds 1 1036 86 10000 2.06 50 08:30 12.03.2021
1583 Clouds 3 1037 87 10000 1.54 10 07:41 12.03.2021
1584 Clouds 2 1037 87 10000 1.54 90 06:59 12.03.2021
1585 Clouds 2 1037 87 10000 1.54 90 06:29 12.03.2021
1586 Clouds 4 1037 87 10000 1.03 0 03:28 12.03.2021
1587 Rain 5 1035 81 10000 4.63 60 00:52 12.03.2021
1588 Rain 6 1035 81 10000 3.09 160 23:40 11.03.2021
1589 Rain 8 1035 61 6000 4.12 230 22:51 11.03.2021
1590 Rain 8 1035 61 6000 4.12 230 22:32 11.03.2021
1591 Clouds 8 1034 61 5000 8.23 280 21:56 11.03.2021
1592 Rain 8 1034 61 5000 8.23 280 21:37 11.03.2021
1593 Rain 10 1034 53 8000 8.75 300 21:19 11.03.2021
1594 Clouds 13 1034 38 10000 4.12 80 20:41 11.03.2021
1595 Clouds 13 1034 38 10000 4.12 80 20:19 11.03.2021
1596 Clouds 12 1035 37 10000 5.14 80 19:45 11.03.2021
1597 Clouds 12 1035 37 10000 5.14 80 19:26 11.03.2021
1598 Clouds 12 1035 47 10000 7.2 50 18:48 11.03.2021
1599 Rain 12 1035 47 10000 7.2 50 18:29 11.03.2021
1600 Clouds 14 1036 41 10000 4.63 140 17:44 11.03.2021
1601 Clouds 14 1037 44 10000 3.6 150 16:54 11.03.2021
1602 Clouds 14 1037 44 10000 3.6 150 16:28 11.03.2021
1603 Clouds 12 1037 50 10000 1.03 0 15:49 11.03.2021
1604 Clouds 12 1037 50 10000 1.03 0 15:22 11.03.2021
1605 Clouds 9 1037 61 10000 1.03 0 14:49 11.03.2021
1606 Clouds 9 1037 61 10000 1.03 0 14:20 11.03.2021
1607 Clouds 5 1036 87 10000 1.03 0 13:49 11.03.2021
1608 Clouds 5 1036 87 10000 1.03 0 13:31 11.03.2021
1609 Clouds 5 1036 87 10000 1.03 0 13:31 11.03.2021
1610 Clouds 2 1036 93 10000 1.03 0 12:58 11.03.2021
1611 Clouds 2 1036 93 10000 1.03 0 12:39 11.03.2021
1612 Clouds 2 1036 93 10000 1.03 0 12:21 11.03.2021
1613 Clouds 2 1035 93 10000 1.03 0 11:43 11.03.2021
1614 Clouds 2 1035 93 10000 1.03 0 11:21 11.03.2021
1615 Fog 2 1035 93 4000 2.06 60 10:42 11.03.2021
1616 Fog 2 1035 93 4000 2.06 60 10:20 11.03.2021
1617 Fog 4 1035 93 4000 3.09 80 09:41 11.03.2021
1618 Fog 4 1035 93 4000 3.09 80 09:22 11.03.2021
1619 Fog 4 1035 93 4000 2.57 90 08:47 11.03.2021
1620 Fog 4 1035 93 4000 2.57 90 08:18 11.03.2021
1621 Fog 4 1036 100 4000 2.57 80 07:29 11.03.2021
1622 Fog 4 1037 93 4000 2.57 120 06:50 11.03.2021
1623 Fog 4 1037 93 4000 2.57 120 06:30 11.03.2021
1624 -273 0 0 0 0 0 03:42 11.03.2021
1625 Clouds 10 1033 50 10000 3.6 80 00:59 11.03.2021
1626 Clouds 13 1033 38 10000 4.12 60 23:32 10.03.2021
1627 Clouds 13 1033 38 10000 4.12 60 23:32 10.03.2021
1628 Clouds 14 1033 38 10000 5.14 70 22:57 10.03.2021
1629 Clouds 14 1033 38 10000 5.14 70 22:32 10.03.2021
1630 Clouds 15 1033 29 10000 6.69 110 21:47 10.03.2021
1631 Clouds 15 1033 29 10000 6.69 110 21:25 10.03.2021
1632 Clouds 15 1034 17 10000 5.14 130 20:48 10.03.2021
1633 Clouds 15 1034 17 10000 5.14 130 20:30 10.03.2021
1634 Clouds 15 1034 17 10000 5.14 130 20:30 10.03.2021
1635 Clouds 14 1036 26 10000 5.66 150 19:53 10.03.2021
1636 Clouds 14 1036 26 10000 5.66 150 19:30 10.03.2021
1637 Clouds 13 1037 30 10000 4.63 120 18:47 10.03.2021
1638 Clouds 13 1037 30 10000 4.63 120 18:28 10.03.2021
1639 Clouds 12 1038 37 10000 4.63 150 17:57 10.03.2021
1640 Clouds 12 1038 37 10000 4.63 150 17:38 10.03.2021
1641 Clouds 12 1038 37 10000 4.63 150 17:19 10.03.2021
1642 Clouds 10 1039 43 10000 3.6 150 16:44 10.03.2021
1643 Clouds 10 1039 43 10000 3.6 150 16:24 10.03.2021
1644 Clouds 9 1039 49 10000 3.09 90 15:47 10.03.2021
1645 Clouds 9 1039 49 10000 3.09 90 15:25 10.03.2021
1646 Clouds 9 1039 49 10000 3.09 90 15:25 10.03.2021
1647 Clouds 8 1038 57 10000 3.09 110 14:57 10.03.2021
1648 Clouds 8 1038 57 10000 3.09 110 14:21 10.03.2021
1649 Clouds 5 1038 75 10000 1.03 0 13:52 10.03.2021
1650 Clouds 5 1038 75 10000 1.03 0 13:31 10.03.2021
1651 Clouds 1 1037 93 10000 1.03 0 12:46 10.03.2021
1652 Clouds 1 1037 93 10000 1.03 0 12:23 10.03.2021
1653 Fog 1 1037 93 4000 2.57 80 11:47 10.03.2021
1654 Fog 1 1037 93 4000 2.57 80 11:21 10.03.2021
1655 Fog 3 1036 93 4000 2.57 90 10:50 10.03.2021
1656 Fog 3 1036 93 4000 2.57 90 10:31 10.03.2021
1657 Fog 4 1036 93 4000 3.6 110 09:52 10.03.2021
1658 Fog 4 1036 93 4000 3.6 110 09:32 10.03.2021
1659 Fog 4 1037 93 4000 4.63 110 08:58 10.03.2021
1660 Fog 4 1037 93 4000 4.63 110 08:40 10.03.2021
1661 Fog 4 1037 93 4000 4.63 110 08:21 10.03.2021
1662 Fog 3 1037 100 4000 2.57 120 07:40 10.03.2021
1663 Fog 3 1037 100 4000 2.57 120 07:18 10.03.2021
1664 Fog 3 1038 100 4000 3.09 80 06:44 10.03.2021
1665 Clouds 7 1037 76 10000 4.12 110 02:42 10.03.2021
1666 Clouds 12 1035 47 10000 7.2 90 23:52 09.03.2021
1667 Clouds 12 1035 47 10000 7.2 90 23:25 09.03.2021
1668 Clouds 14 1035 38 10000 7.2 90 22:44 09.03.2021
1669 Clouds 14 1035 38 10000 7.2 90 22:26 09.03.2021
1670 Clouds 14 1035 35 10000 7.2 80 21:55 09.03.2021
1671 Clouds 14 1035 35 10000 7.2 80 21:36 09.03.2021
1672 Clouds 14 1035 35 10000 7.2 80 21:18 09.03.2021
1673 Clouds 13 1036 38 10000 6.69 130 20:41 09.03.2021
1674 Clouds 13 1036 38 10000 6.69 130 20:21 09.03.2021
1675 Clouds 13 1037 47 10000 6.69 120 19:51 09.03.2021
1676 Clouds 13 1037 47 10000 6.69 120 19:27 09.03.2021
1677 Clouds 12 1038 50 10000 6.17 130 18:50 09.03.2021
1678 Clouds 12 1038 50 10000 6.17 130 18:27 09.03.2021
1679 Clouds 11 1039 54 10000 4.12 110 17:53 09.03.2021
1680 Clouds 11 1039 54 10000 4.12 110 17:31 09.03.2021
1681 Clouds 9 1040 66 10000 3.09 130 16:55 09.03.2021
1682 Clouds 9 1040 66 10000 3.09 130 16:37 09.03.2021
1683 Clouds 9 1040 66 10000 3.09 130 16:18 09.03.2021
1684 Clouds 8 1040 71 10000 3.09 70 15:43 09.03.2021
1685 Clouds 8 1040 71 10000 3.09 70 15:20 09.03.2021
1686 Clouds 6 1039 81 6000 2.57 50 14:28 09.03.2021
1687 Fog 5 1039 87 4000 2.57 130 13:57 09.03.2021
1688 Fog 5 1039 87 4000 2.57 130 13:36 09.03.2021
1689 Fog 5 1039 87 4000 2.57 130 13:18 09.03.2021
1690 Fog 4 1038 93 4000 2.57 120 12:39 09.03.2021
1691 Fog 4 1038 93 4000 2.57 120 12:18 09.03.2021
1692 Fog 4 1038 93 4000 2.06 130 11:41 09.03.2021
1693 Fog 4 1038 93 4000 2.06 130 11:20 09.03.2021
1694 Fog 4 1037 93 4000 2.57 100 10:47 09.03.2021
1695 Fog 3 1037 100 2000 1.03 0 10:23 09.03.2021
1696 Fog 3 1037 100 2000 1.03 0 09:58 09.03.2021
1697 Fog 3 1037 100 2000 1.03 0 09:40 09.03.2021
1698 Fog 3 1037 100 2000 1.03 0 09:22 09.03.2021
1699 Fog 4 1038 93 4000 2.57 110 08:36 09.03.2021
1700 Fog 4 1038 93 4000 2.06 110 07:52 09.03.2021
1701 Fog 4 1038 93 4000 2.06 110 07:31 09.03.2021
1702 Clouds 5 1039 93 10000 3.09 110 06:59 09.03.2021
1703 Rain 4 1040 100 10000 1.03 0 05:54 09.03.2021
1704 Rain 4 1040 100 10000 1.03 0 05:34 09.03.2021
1705 Rain 5 1037 87 8000 3.6 330 00:18 09.03.2021
1706 Rain 7 1037 81 4000 3.09 90 23:42 08.03.2021
1707 Clouds 9 1036 66 5000 3.09 140 23:23 08.03.2021
1708 Clouds 14 1034 41 8000 2.06 70 22:44 08.03.2021
1709 Clouds 14 1034 41 8000 2.06 70 22:26 08.03.2021
1710 Clouds 16 1035 39 10000 5.14 120 21:53 08.03.2021
1711 Clouds 16 1035 39 10000 5.14 120 21:34 08.03.2021
1712 Clouds 16 1036 39 10000 4.12 90 20:45 08.03.2021
1713 Clouds 16 1036 39 10000 4.12 90 20:25 08.03.2021
1714 Clouds 15 1037 41 10000 3.6 140 19:55 08.03.2021
1715 Clouds 15 1037 41 10000 3.6 140 19:28 08.03.2021
1716 Clouds 14 1038 47 10000 4.12 120 18:39 08.03.2021
1717 Clouds 14 1038 47 10000 4.12 120 18:20 08.03.2021
1718 Clouds 14 1039 51 10000 2.57 80 17:50 08.03.2021
1719 Clouds 14 1039 51 10000 2.57 80 17:25 08.03.2021
1720 Clouds 12 1040 62 10000 2.57 70 16:46 08.03.2021
1721 Clouds 12 1040 62 10000 2.57 70 16:27 08.03.2021
1722 Clouds 10 1040 66 10000 2.06 90 15:49 08.03.2021
1723 Clouds 10 1040 66 10000 2.06 90 15:26 08.03.2021
1724 Clouds 8 1040 87 6000 2.57 110 14:43 08.03.2021
1725 Clouds 8 1040 87 6000 2.57 110 14:20 08.03.2021
1726 Fog 6 1039 93 4000 2.57 110 13:37 08.03.2021
1727 Fog 6 1039 93 4000 2.57 110 13:18 08.03.2021
1728 Fog 3 1038 100 3000 2.57 70 12:42 08.03.2021
1729 Fog 3 1038 100 3000 2.57 70 12:22 08.03.2021
1730 Fog 5 1037 93 4000 1.03 0 11:38 08.03.2021
1731 Fog 5 1037 93 4000 1.03 0 11:18 08.03.2021
1732 Fog 5 1037 93 4000 1.03 0 10:41 08.03.2021
1733 Fog 5 1037 93 4000 1.03 0 10:19 08.03.2021
1734 Fog 6 1037 93 4000 4.12 90 09:41 08.03.2021
1735 Fog 6 1037 93 4000 4.12 90 09:22 08.03.2021
1736 Fog 6 1038 93 3000 3.6 90 08:27 08.03.2021
1737 Clouds 5 1038 100 10000 1.54 70 07:23 08.03.2021
1738 Clouds 4 1038 93 10000 2.57 80 06:42 08.03.2021
1739 Clouds 6 1038 87 10000 1.54 100 03:37 08.03.2021
1740 Clouds 11 1035 54 10000 3.6 110 00:43 08.03.2021
1741 Clouds 14 1035 38 10000 4.12 120 23:54 07.03.2021
1742 Clouds 14 1035 38 10000 4.12 120 23:28 07.03.2021
1743 Clouds 15 1035 31 10000 3.6 110 22:59 07.03.2021
1744 Clouds 15 1035 31 10000 3.6 110 22:40 07.03.2021
1745 Clouds 15 1035 31 10000 3.6 110 22:20 07.03.2021
1746 Clouds 15 1035 38 10000 4.63 130 21:42 07.03.2021
1747 Clouds 15 1035 38 10000 4.63 130 21:23 07.03.2021
1748 Clouds 15 1036 38 10000 5.66 130 20:43 07.03.2021
1749 Clouds 15 1036 38 10000 5.66 130 20:24 07.03.2021
1750 Clouds 14 1037 44 10000 5.66 140 19:56 07.03.2021
1751 Clouds 14 1037 44 10000 5.66 140 19:37 07.03.2021
1752 Clouds 14 1037 44 10000 5.66 140 19:19 07.03.2021
1753 Clouds 14 1037 44 10000 5.66 140 19:19 07.03.2021
1754 Clouds 13 1038 54 10000 4.63 140 18:40 07.03.2021
1755 Clouds 13 1038 54 10000 4.63 140 18:18 07.03.2021
1756 Clouds 13 1039 50 10000 3.09 110 17:39 07.03.2021
1757 Clouds 13 1039 50 10000 3.09 110 17:20 07.03.2021
1758 Clouds 12 1040 62 10000 3.09 130 16:43 07.03.2021
1759 Clouds 12 1040 62 10000 3.09 130 16:21 07.03.2021
1760 Clouds 10 1040 71 10000 2.06 120 15:52 07.03.2021
1761 Clouds 10 1040 71 10000 2.06 120 15:32 07.03.2021
1762 Clouds 8 1040 76 10000 2.06 90 14:56 07.03.2021
1763 Clouds 8 1040 76 10000 2.06 90 14:29 07.03.2021
1764 Fog 5 1039 100 4000 2.57 80 13:51 07.03.2021
1765 Fog 5 1039 100 4000 2.57 80 13:30 07.03.2021
1766 Fog 2 1038 93 4000 1.54 100 12:56 07.03.2021
1767 Fog 2 1038 93 4000 1.54 100 12:37 07.03.2021
1768 Fog 2 1038 93 4000 1.54 100 12:18 07.03.2021
1769 Fog 4 1037 100 4000 2.57 90 11:24 07.03.2021
1770 Fog 4 1037 100 4000 2.06 90 10:55 07.03.2021
1771 Fog 4 1037 100 4000 2.06 90 10:37 07.03.2021
1772 Fog 4 1037 100 4000 2.06 80 09:54 07.03.2021
1773 Fog 4 1037 100 4000 2.06 80 09:29 07.03.2021
1774 Fog 5 1012 100 4000 1.03 0 08:59 07.03.2021
1775 Fog 5 1012 100 4000 1.03 0 08:39 07.03.2021
1776 Fog 5 1012 100 4000 1.03 0 08:39 07.03.2021
1777 Fog 5 1012 100 4000 1.03 0 08:21 07.03.2021
1778 Fog 5 1039 100 4000 3.6 110 05:26 07.03.2021
1779 Clouds 6 1037 93 10000 5.14 100 02:33 07.03.2021
1780 Rain 8 1036 87 10000 4.63 120 00:33 07.03.2021
1781 Clouds 11 1035 71 10000 5.14 120 23:40 06.03.2021
1782 Clouds 11 1035 71 10000 5.14 120 23:20 06.03.2021
1783 Clouds 11 1035 66 10000 4.63 120 22:45 06.03.2021
1784 Clouds 11 1035 66 10000 4.63 120 22:21 06.03.2021
1785 Clouds 12 1035 62 10000 3.6 110 21:41 06.03.2021
1786 Clouds 12 1035 62 10000 3.6 110 21:41 06.03.2021
1787 Clouds 12 1035 62 10000 3.6 110 21:20 06.03.2021
1788 Clouds 12 1036 62 10000 3.09 100 20:41 06.03.2021
1789 Clouds 12 1037 62 10000 1.03 0 19:55 06.03.2021
1790 Clouds 12 1037 62 10000 1.03 0 19:37 06.03.2021
1791 Clouds 12 1037 62 10000 1.03 0 19:18 06.03.2021
1792 Clouds 10 1038 71 10000 2.06 110 18:41 06.03.2021
1793 Clouds 10 1038 71 10000 2.06 110 18:20 06.03.2021
1794 Clouds 7 1038 93 10000 2.57 110 17:48 06.03.2021
1795 Clouds 7 1038 93 10000 2.57 110 17:27 06.03.2021
1796 Clouds 7 1039 81 10000 1.03 0 16:53 06.03.2021
1797 Clouds 7 1039 81 10000 1.03 0 16:31 06.03.2021
1798 Clouds 6 1039 87 4000 1.03 0 15:55 06.03.2021
1799 Clouds 6 1039 87 4000 1.03 0 15:35 06.03.2021
1800 Clouds 6 1038 81 6000 1.03 0 14:57 06.03.2021
1801 Clouds 6 1038 81 6000 1.03 0 14:31 06.03.2021
1802 Clouds 5 1037 93 6000 1.03 0 13:46 06.03.2021
1803 Clouds 5 1037 93 6000 1.03 0 13:24 06.03.2021
1804 Clouds 5 1037 93 6000 1.03 0 12:49 06.03.2021
1805 Clouds 5 1037 93 6000 1.03 0 12:20 06.03.2021
1806 Clouds 4 1036 93 6000 1.03 0 11:59 06.03.2021
1807 Clouds 4 1036 93 6000 1.03 0 11:27 06.03.2021
1808 Clouds 4 1035 100 6000 1.03 0 10:54 06.03.2021
1809 Clouds 4 1035 100 6000 1.03 0 10:36 06.03.2021
1810 Clouds 4 1035 100 6000 2.57 230 09:51 06.03.2021
1811 Rain 4 1035 100 6000 2.57 230 09:21 06.03.2021
1812 Rain 4 1036 100 6000 3.09 250 08:53 06.03.2021
1813 Rain 4 1036 100 6000 3.09 250 08:25 06.03.2021
1814 Rain 5 1036 93 6000 1.54 220 07:42 06.03.2021
1815 Rain 5 1036 93 6000 1.54 220 07:21 06.03.2021
1816 Clouds 6 1037 93 4000 2.06 160 05:40 06.03.2021
1817 Fog 7 1036 93 4000 3.6 130 02:52 06.03.2021
1818 Clouds 7 1034 87 10000 3.09 120 01:28 06.03.2021
1819 Clouds 8 1033 81 10000 2.57 70 00:44 06.03.2021
1820 Clouds 9 1033 76 10000 4.12 100 23:34 05.03.2021
1821 Rain 11 1033 62 10000 2.57 20 22:58 05.03.2021
1822 Rain 11 1033 62 10000 2.57 20 22:39 05.03.2021
1823 Rain 11 1033 62 10000 2.57 20 22:20 05.03.2021
1824 Rain 9 1034 71 10000 4.63 320 21:41 05.03.2021
1825 Rain 9 1034 71 10000 4.63 320 21:22 05.03.2021
1826 Clouds 13 1009 60 3736 3.44 35 20:42 05.03.2021
1827 Rain 13 1010 60 3842 3.14 29 20:23 05.03.2021
1828 Clouds 13 1010 60 3842 3.14 29 19:44 05.03.2021
1829 Clouds 9 1036 71 8000 3.09 40 19:22 05.03.2021
1830 Clouds 9 1036 71 8000 3.09 40 18:44 05.03.2021
1831 Clouds 9 1036 71 8000 3.09 40 18:25 05.03.2021
1832 Clouds 13 1013 57 3564 2.38 61 17:39 05.03.2021
1833 Clouds 14 1014 54 5360 1.19 77 17:20 05.03.2021
1834 Clouds 14 1014 54 5360 1.19 77 16:41 05.03.2021
1835 Clouds 11 1037 58 10000 1.03 0 16:22 05.03.2021
1836 Clouds 11 1037 58 10000 1.03 0 15:53 05.03.2021
1837 Clouds 11 1037 58 10000 1.03 0 15:26 05.03.2021
1838 Clouds 8 1037 76 10000 1.03 0 14:40 05.03.2021
1839 Clouds 8 1037 76 10000 1.03 0 14:19 05.03.2021
1840 Clouds 7 1036 81 6000 1.03 0 13:42 05.03.2021
1841 Clouds 7 1036 81 6000 1.03 0 13:20 05.03.2021
1842 Fog 6 1036 87 4000 1.03 0 12:40 05.03.2021
1843 Fog 5 1035 100 3000 1.03 0 11:37 05.03.2021
1844 Fog 5 1035 100 3000 1.03 0 11:18 05.03.2021
1845 Fog 5 1035 100 4000 3.09 70 10:42 05.03.2021
1846 Fog 5 1035 100 4000 3.09 70 10:24 05.03.2021
1847 Fog 5 1035 93 4000 2.06 70 09:50 05.03.2021
1848 Rain 5 1035 93 4000 2.06 70 09:27 05.03.2021
1849 Rain 7 1015 94 9942 1.5 72 08:46 05.03.2021
1850 Rain 7 1036 81 10000 3.6 90 08:27 05.03.2021
1851 Clouds 7 1036 81 10000 3.6 90 07:58 05.03.2021
1852 Clouds 7 1036 81 10000 3.6 90 07:29 05.03.2021
1853 Rain 6 1037 93 10000 2.06 150 06:33 05.03.2021
1854 Clouds 6 1038 93 10000 4.63 190 05:32 05.03.2021
1855 Clouds 11 1034 62 10000 5.14 290 00:49 05.03.2021
1856 Clouds 14 1033 51 10000 5.14 270 23:43 04.03.2021
1857 Clouds 16 1033 41 10000 4.12 300 22:55 04.03.2021
1858 Clouds 16 1033 41 10000 4.12 300 22:26 04.03.2021
1859 Clouds 16 1034 41 10000 2.57 320 21:51 04.03.2021
1860 Clouds 16 1034 41 10000 2.57 320 21:29 04.03.2021
1861 Clouds 16 1035 41 10000 3.6 60 20:42 04.03.2021
1862 Clouds 16 1035 41 10000 3.6 60 20:23 04.03.2021
1863 Clouds 16 1036 41 10000 3.6 110 19:58 04.03.2021
1864 Clouds 16 1036 41 10000 3.6 110 19:39 04.03.2021
1865 Clouds 16 1036 41 10000 3.6 110 19:21 04.03.2021
1866 Clouds 15 1037 47 10000 4.63 140 18:45 04.03.2021
1867 Clouds 15 1037 47 10000 4.63 140 18:23 04.03.2021
1868 Clouds 14 1037 54 10000 3.6 110 17:46 04.03.2021
1869 Clouds 14 1037 54 10000 3.6 110 17:27 04.03.2021
1870 Clouds 13 1038 54 10000 4.63 100 16:46 04.03.2021
1871 Clouds 13 1038 54 10000 4.63 100 16:24 04.03.2021
1872 Clouds 11 1038 66 10000 3.09 100 15:49 04.03.2021
1873 Clouds 11 1038 66 10000 3.09 100 15:31 04.03.2021
1874 Clouds 8 1038 81 6000 2.57 70 14:46 04.03.2021
1875 Clouds 8 1038 81 6000 2.57 70 14:25 04.03.2021
1876 Fog 6 1037 93 4000 3.09 90 13:46 04.03.2021
1877 Fog 6 1037 93 4000 3.09 90 13:25 04.03.2021
1878 Fog 5 1036 100 4000 2.57 120 12:45 04.03.2021
1879 Fog 5 1036 100 4000 2.57 120 12:25 04.03.2021
1880 Fog 5 1036 93 4000 3.09 110 11:43 04.03.2021
1881 Fog 5 1036 93 4000 3.09 110 11:22 04.03.2021
1882 Fog 5 1036 100 4000 4.63 90 10:46 04.03.2021
1883 Fog 5 1036 100 4000 4.63 90 10:25 04.03.2021
1884 Fog 4 1035 100 4000 2.57 50 09:36 04.03.2021
1885 Fog 4 1036 93 3000 1.54 40 08:56 04.03.2021
1886 Fog 4 1036 93 3000 1.54 40 08:34 04.03.2021
1887 Clouds 4 1037 100 10000 2.06 80 07:49 04.03.2021
1888 Fog 5 1038 100 4000 2.57 60 06:52 04.03.2021
1889 Fog 5 1038 100 4000 2.57 60 06:23 04.03.2021
1890 Clouds 8 1037 81 10000 2.57 100 02:39 04.03.2021
1891 Clouds 10 1035 71 10000 5.66 110 00:41 04.03.2021
1892 Clouds 13 1035 62 10000 5.14 110 22:41 03.03.2021
1893 Clouds 13 1035 62 10000 5.14 110 22:23 03.03.2021
1894 Clouds 14 1035 58 10000 5.14 120 21:43 03.03.2021
1895 Clouds 14 1035 58 10000 5.14 120 21:24 03.03.2021
1896 Clouds 14 1036 58 10000 4.63 100 20:55 03.03.2021
1897 Clouds 14 1036 58 10000 4.63 100 20:37 03.03.2021
1898 Clouds 14 1037 58 10000 5.14 110 19:57 03.03.2021
1899 Clouds 14 1037 58 10000 5.14 110 19:38 03.03.2021
1900 Clouds 14 1037 58 10000 5.14 110 19:18 03.03.2021
1901 Clouds 14 1037 58 10000 5.14 110 19:18 03.03.2021
1902 Clouds 13 1038 62 10000 5.14 100 18:40 03.03.2021
1903 Clouds 13 1038 58 10000 5.14 120 17:58 03.03.2021
1904 Rain 13 1038 58 10000 5.14 120 17:23 03.03.2021
1905 Rain 11 1038 62 10000 3.09 120 16:58 03.03.2021
1906 Clouds 11 1038 62 10000 3.09 120 16:28 03.03.2021
1907 Clouds 10 1038 62 10000 1.03 0 15:59 03.03.2021
1908 Clouds 10 1038 62 10000 1.03 0 15:33 03.03.2021
1909 Clouds 9 1038 71 6000 1.95 47 14:52 03.03.2021
1910 Clouds 9 1038 71 6000 1.42 38 14:28 03.03.2021
1911 Clouds 6 1038 87 6000 1.03 0 13:48 03.03.2021
1912 Clouds 6 1038 87 6000 1.03 0 13:29 03.03.2021
1913 Fog 5 1037 93 4000 1.03 0 12:43 03.03.2021
1914 Fog 5 1037 93 4000 1.03 0 12:23 03.03.2021
1915 Fog 5 1036 93 4000 1.03 0 11:45 03.03.2021
1916 Fog 5 1036 93 4000 1.03 0 11:27 03.03.2021
1917 Fog 3 1035 93 4000 2.57 80 10:46 03.03.2021
1918 Fog 3 1035 93 4000 2.57 80 10:22 03.03.2021
1919 Fog 6 1035 93 4000 2.06 80 09:44 03.03.2021
1920 Clouds 7 1016 80 9875 1.41 57 08:55 03.03.2021
1921 Fog 6 1037 93 4000 2.06 140 08:37 03.03.2021
1922 Fog 6 1037 93 4000 2.06 140 08:18 03.03.2021
1923 Fog 6 1037 93 4000 2.06 140 07:34 03.03.2021
1924 Fog 6 1037 93 4000 4.12 80 06:45 03.03.2021
1925 Fog 6 1037 93 4000 1.54 90 05:44 03.03.2021
1926 Fog 7 1037 93 4000 3.09 80 04:48 03.03.2021
1927 Fog 7 1037 93 4000 3.09 80 04:24 03.03.2021
1928 Clouds 8 1034 81 10000 3.6 10 00:34 03.03.2021
1929 Clouds 8 1034 81 8000 3.09 270 23:35 02.03.2021
1930 Clouds 12 1033 58 10000 1.03 0 22:53 02.03.2021
1931 Clouds 12 1033 58 10000 1.03 0 22:22 02.03.2021
1932 Clouds 13 1034 58 10000 3.09 60 21:54 02.03.2021
1933 Clouds 13 1034 58 10000 3.09 60 21:36 02.03.2021
1934 Clouds 14 1034 54 10000 6.17 90 20:56 02.03.2021
1935 Clouds 14 1034 54 10000 6.17 90 20:38 02.03.2021
1936 Clouds 14 1034 54 10000 6.17 90 20:20 02.03.2021
1937 Clouds 13 1035 62 10000 4.12 120 19:46 02.03.2021
1938 Clouds 13 1035 62 10000 4.12 120 19:28 02.03.2021
1939 Clouds 13 1036 62 10000 3.6 140 18:42 02.03.2021
1940 Clouds 13 1036 62 10000 3.6 140 18:21 02.03.2021
1941 Clouds 11 1037 66 10000 3.09 120 17:57 02.03.2021
1942 Clouds 11 1037 66 10000 3.09 120 17:39 02.03.2021
1943 Clouds 11 1037 66 10000 3.09 120 17:19 02.03.2021
1944 Clouds 11 1037 66 10000 2.06 120 16:44 02.03.2021
1945 Clouds 9 1037 76 6000 1.03 0 15:54 02.03.2021
1946 Clouds 9 1037 76 6000 1.03 0 15:26 02.03.2021
1947 Clouds 7 1037 81 6000 1.03 0 14:42 02.03.2021
1948 Clouds 7 1037 81 6000 1.03 0 14:18 02.03.2021
1949 Rain 5 1036 93 4000 1.03 0 13:42 02.03.2021
1950 Rain 5 1036 93 4000 1.03 0 13:23 02.03.2021
1951 Rain 5 1035 87 4000 1.03 0 12:43 02.03.2021
1952 Rain 5 1035 87 4000 1.03 0 12:24 02.03.2021
1953 Rain 4 1035 100 4000 2.06 300 11:41 02.03.2021
1954 Rain 4 1035 100 4000 2.06 300 11:20 02.03.2021
1955 Rain 4 1034 100 4000 2.06 250 10:42 02.03.2021
1956 Rain 4 1034 100 4000 2.06 250 10:23 02.03.2021
1957 Fog 4 1034 100 4000 1.03 0 09:40 02.03.2021
1958 Rain 4 1034 100 4000 1.03 0 09:40 02.03.2021
1959 Rain 4 1034 100 4000 1.03 0 09:20 02.03.2021
1960 Rain 4 1035 93 4000 2.57 130 08:38 02.03.2021
1961 Rain 5 1035 93 4000 2.57 110 07:59 02.03.2021
1962 Rain 5 1035 93 4000 2.57 110 07:38 02.03.2021
1963 Rain 5 1036 93 8000 2.57 60 06:34 02.03.2021
1964 Rain 6 1036 93 4000 3.09 160 05:46 02.03.2021
1965 Rain 6 1036 93 4000 3.09 160 05:27 02.03.2021
1966 Clouds 9 1032 81 10000 3.6 90 01:44 02.03.2021
1967 Clouds 9 1032 81 10000 3.6 90 01:44 02.03.2021
1968 Clouds 9 1032 81 10000 3.6 90 01:44 02.03.2021
1969 Clouds 9 1032 81 10000 3.6 90 01:44 02.03.2021
1970 Clouds 9 1032 81 10000 3.6 90 01:26 02.03.2021
1971 Clouds 12 1032 47 10000 1.03 0 00:28 02.03.2021
1972 Clouds 13 1031 54 10000 4.12 110 23:26 01.03.2021
1973 Clouds 14 1030 51 10000 5.66 130 22:42 01.03.2021
1974 Clouds 14 1030 51 10000 5.66 130 22:21 01.03.2021
1975 Clouds 18 1031 36 10000 3.09 130 21:45 01.03.2021
1976 Clouds 18 1031 36 10000 3.09 130 21:23 01.03.2021
1977 Clouds 17 1032 34 10000 3.6 110 20:47 01.03.2021
1978 Clouds 17 1032 34 10000 3.6 110 20:27 01.03.2021
1979 Clouds 16 1033 39 10000 4.12 120 19:53 01.03.2021
1980 Clouds 16 1033 39 10000 4.12 120 19:33 01.03.2021
1981 Clouds 15 1034 41 10000 3.6 110 18:46 01.03.2021
1982 Clouds 15 1034 41 10000 3.6 110 18:24 01.03.2021
1983 Clouds 14 1035 51 10000 4.12 120 17:52 01.03.2021
1984 Clouds 14 1035 51 10000 4.12 120 17:28 01.03.2021
1985 Clouds 13 1036 58 10000 4.12 110 16:57 01.03.2021
1986 Clouds 13 1036 58 10000 4.12 110 16:38 01.03.2021
1987 Clouds 13 1036 58 10000 4.12 110 16:20 01.03.2021
1988 Clouds 10 1036 71 10000 2.57 100 15:38 01.03.2021
1989 Clouds 10 1036 71 10000 2.57 100 15:18 01.03.2021
1990 Clouds 9 1036 76 10000 4.63 130 14:41 01.03.2021
1991 Clouds 9 1036 76 10000 4.63 130 14:22 01.03.2021
1992 Clouds 7 1009 87 6000 2.57 110 13:39 01.03.2021
1993 Clouds 7 1009 87 6000 2.57 110 13:20 01.03.2021
1994 Fog 6 1034 93 4000 3.6 110 12:44 01.03.2021
1995 Fog 6 1034 93 4000 3.6 110 12:25 01.03.2021
1996 Fog 6 1034 93 4000 3.6 120 11:57 01.03.2021
1997 Fog 6 1034 93 4000 3.6 120 11:29 01.03.2021
1998 Fog 6 1034 93 4000 3.09 100 10:42 01.03.2021
1999 Fog 6 1034 93 4000 3.09 100 10:22 01.03.2021
2000 Fog 6 1034 93 4000 1.54 90 09:53 01.03.2021
2001 Fog 6 1034 93 4000 1.54 90 09:31 01.03.2021
2002 Fog 6 1034 93 4000 3.09 100 08:56 01.03.2021
2003 Rain 6 1034 93 4000 3.09 100 08:32 01.03.2021
2004 Clouds 7 1035 93 8000 3.6 290 07:32 01.03.2021
2005 Rain 7 1036 87 4000 3.09 140 06:25 01.03.2021
2006 Clouds 8 1035 81 10000 2.06 240 02:40 01.03.2021
2007 Clouds 12 1033 50 10000 2.06 50 23:47 28.02.2021
2008 Clouds 14 1033 47 10000 4.12 70 22:57 28.02.2021
2009 Clouds 14 1033 47 10000 4.12 70 22:38 28.02.2021
2010 Clouds 14 1033 47 10000 4.12 70 22:20 28.02.2021
2011 Clouds 13 1034 54 10000 6.69 100 21:43 28.02.2021
2012 Clouds 13 1034 54 10000 6.69 100 21:23 28.02.2021
2013 Clouds 14 1034 47 10000 3.6 60 20:41 28.02.2021
2014 Clouds 14 1034 47 10000 3.6 60 20:19 28.02.2021
2015 Clouds 16 1035 44 10000 4.63 100 19:46 28.02.2021
2016 Clouds 16 1035 44 10000 4.63 100 19:25 28.02.2021
2017 Clouds 15 1037 47 10000 4.63 70 18:44 28.02.2021
2018 Clouds 15 1037 47 10000 4.63 70 18:26 28.02.2021
2019 Clouds 14 1037 51 10000 4.12 100 17:53 28.02.2021
2020 Clouds 14 1037 51 10000 4.12 100 17:28 28.02.2021
2021 Clouds 14 1038 54 10000 3.6 110 16:57 28.02.2021
2022 Clouds 14 1038 54 10000 3.6 110 16:38 28.02.2021
2023 Clouds 14 1038 54 10000 3.6 110 16:18 28.02.2021
2024 Clouds 12 1038 62 10000 2.57 90 15:47 28.02.2021
2025 Clouds 12 1038 62 10000 2.57 90 15:24 28.02.2021
2026 Clouds 9 1038 76 10000 2.06 220 14:52 28.02.2021
2027 Clouds 9 1038 76 10000 2.06 220 14:29 28.02.2021
2028 Clouds 8 1038 76 10000 1.03 0 13:52 28.02.2021
2029 Clouds 8 1038 76 10000 1.03 0 13:21 28.02.2021
2030 Clouds 6 1037 87 10000 2.06 70 12:57 28.02.2021
2031 Clouds 6 1037 87 10000 2.06 70 12:39 28.02.2021
2032 Clouds 6 1037 87 10000 2.06 70 12:20 28.02.2021
2033 Rain 6 1036 75 10000 0.7 147 11:46 28.02.2021
2034 Rain 6 1036 75 10000 0.85 149 11:26 28.02.2021
2035 Rain 5 1036 87 10000 3.6 30 10:55 28.02.2021
2036 Rain 5 1036 87 10000 3.6 30 10:29 28.02.2021
2037 Rain 6 1036 81 8000 4.12 70 09:54 28.02.2021
2038 Rain 6 1036 81 8000 4.12 70 09:34 28.02.2021
2039 Fog 7 1036 93 4000 3.6 50 08:52 28.02.2021
2040 Fog 7 1036 93 4000 3.6 50 08:32 28.02.2021
2041 Fog 7 1036 93 4000 4.12 80 07:57 28.02.2021
2042 Fog 7 1036 93 4000 4.12 80 07:38 28.02.2021
2043 Clouds 8 1036 66 10000 7.72 40 06:55 28.02.2021
2044 Clouds 8 1037 66 10000 5.14 70 05:52 28.02.2021
2045 Clouds 9 1036 71 10000 3.09 120 03:45 28.02.2021
2046 Clouds 11 1035 58 10000 4.63 90 01:59 28.02.2021
2047 Clouds 13 1034 44 10000 4.63 100 00:53 28.02.2021
2048 Clouds 13 1034 44 10000 4.63 100 00:34 28.02.2021
2049 Clouds 15 1034 33 10000 4.12 80 23:47 27.02.2021
2050 Clouds 15 1034 33 10000 4.12 80 23:20 27.02.2021
2051 Clouds 16 1034 29 10000 4.12 70 22:49 27.02.2021
2052 Clouds 16 1034 29 10000 4.12 70 22:21 27.02.2021
2053 Clouds 16 1035 29 10000 5.66 80 21:48 27.02.2021
2054 Clouds 16 1035 29 10000 5.66 80 21:29 27.02.2021
2055 Clouds 16 1036 33 10000 5.66 100 20:49 27.02.2021
2056 Clouds 16 1036 33 10000 5.66 100 20:31 27.02.2021
2057 Clouds 15 1037 38 10000 5.14 120 19:47 27.02.2021
2058 Clouds 15 1037 38 10000 5.14 120 19:28 27.02.2021
2059 Clouds 15 1037 38 10000 5.66 110 18:55 27.02.2021
2060 Clouds 15 1037 38 10000 5.66 110 18:36 27.02.2021
2061 Clouds 15 1037 38 10000 5.66 110 18:18 27.02.2021
2062 Clouds 15 1038 41 10000 4.63 130 17:41 27.02.2021
2063 Clouds 15 1038 41 10000 4.63 130 17:19 27.02.2021
2064 Clouds 13 1038 50 10000 4.63 140 16:49 27.02.2021
2065 Clouds 13 1038 50 10000 4.63 140 16:28 27.02.2021
2066 Clouds 10 1039 62 10000 4.12 150 15:46 27.02.2021
2067 Clouds 10 1039 62 10000 4.12 150 15:19 27.02.2021
2068 Clouds 9 1039 71 6000 3.09 130 14:41 27.02.2021
2069 Clouds 9 1039 71 6000 3.09 130 14:21 27.02.2021
2070 Clouds 6 1038 87 6000 3.6 110 13:43 27.02.2021
2071 Clouds 6 1038 87 6000 3.6 110 13:19 27.02.2021
2072 Fog 5 1037 87 4000 2.57 140 12:45 27.02.2021
2073 Fog 5 1037 87 4000 2.57 140 12:45 27.02.2021
2074 Fog 5 1037 87 4000 2.57 140 12:24 27.02.2021
2075 Fog 4 1037 93 4000 2.06 130 11:51 27.02.2021
2076 Fog 4 1037 93 4000 2.06 130 11:31 27.02.2021
2077 Fog 5 1037 87 4000 2.57 120 10:51 27.02.2021
2078 Fog 5 1037 87 4000 2.57 120 10:32 27.02.2021
2079 Fog 5 1037 93 4000 3.09 130 09:53 27.02.2021
2080 Fog 5 1037 93 4000 3.09 130 09:31 27.02.2021
2081 Fog 5 1037 93 4000 3.09 120 08:43 27.02.2021
2082 Fog 5 1037 93 4000 3.09 120 08:24 27.02.2021
2083 Fog 6 1037 87 4000 2.57 120 07:44 27.02.2021
2084 Clouds 7 1017 78 10000 1.42 50 06:55 27.02.2021
2085 Clouds 8 1036 81 10000 3.09 80 01:22 27.02.2021
2086 Clouds 8 1036 81 10000 3.09 80 01:22 27.02.2021
2087 Clouds 10 1035 71 10000 4.63 110 00:26 27.02.2021
2088 Clouds 11 1034 62 10000 6.69 110 23:40 26.02.2021
2089 Rain 11 1034 62 10000 6.69 110 23:20 26.02.2021
2090 Rain 10 1034 66 10000 5.14 130 22:33 26.02.2021
2091 Rain 13 1034 54 10000 4.12 150 21:53 26.02.2021
2092 Clouds 13 1034 54 10000 4.12 150 21:35 26.02.2021
2093 Clouds 15 1035 44 10000 3.6 140 20:45 26.02.2021
2094 Clouds 15 1035 44 10000 3.6 140 20:25 26.02.2021
2095 Clouds 14 1035 51 10000 4.12 100 19:53 26.02.2021
2096 Clouds 14 1035 51 10000 4.12 100 19:26 26.02.2021
2097 Clouds 13 1037 54 10000 4.12 100 18:49 26.02.2021
2098 Clouds 13 1037 54 10000 4.12 100 18:24 26.02.2021
2099 Clouds 12 1037 58 10000 3.09 40 17:48 26.02.2021
2100 Clouds 9 1038 71 6000 7.72 120 17:30 26.02.2021
2101 Clouds 14 1038 47 10000 2.57 100 16:57 26.02.2021
2102 Clouds 14 1038 47 10000 2.57 100 16:38 26.02.2021
2103 Clouds 14 1038 47 10000 2.57 100 16:20 26.02.2021
2104 Clouds 11 1038 66 10000 2.57 140 15:43 26.02.2021
2105 Clouds 11 1038 66 10000 2.57 140 15:23 26.02.2021
2106 Clouds 10 1037 66 10000 1.03 0 14:51 26.02.2021
2107 Clouds 10 1037 66 10000 1.03 0 14:32 26.02.2021
2108 Rain 8 1037 76 10000 2.06 90 13:47 26.02.2021
2109 Rain 8 1037 76 10000 2.06 90 13:28 26.02.2021
2110 Clouds 7 1036 76 10000 1.54 300 12:48 26.02.2021
2111 Clouds 7 1036 76 10000 1.54 300 12:26 26.02.2021
2112 Clouds 6 1036 81 10000 2.06 340 11:39 26.02.2021
2113 Rain 6 1036 87 10000 2.06 330 10:54 26.02.2021
2114 Clouds 6 1036 87 10000 2.06 330 10:21 26.02.2021
2115 Clouds 6 1037 87 10000 2.57 220 09:47 26.02.2021
2116 Clouds 6 1037 87 10000 2.57 220 09:27 26.02.2021
2117 Clouds 7 1037 93 10000 3.6 190 08:32 26.02.2021
2118 Clouds 7 1037 93 10000 2.57 100 07:55 26.02.2021
2119 Fog 7 1037 87 4000 3.09 110 07:20 26.02.2021
2120 Clouds 9 1038 76 10000 2.57 130 05:40 26.02.2021
2121 Clouds 7 1038 81 10000 3.6 80 04:49 26.02.2021
2122 Clouds 11 1037 62 10000 2.57 340 02:36 26.02.2021
2123 Clouds 15 1035 26 10000 1.03 0 00:24 26.02.2021
2124 Clouds 16 1035 29 10000 3.09 150 23:30 25.02.2021
2125 Clouds 17 1035 25 10000 4.12 100 22:51 25.02.2021
2126 Clouds 17 1035 25 10000 4.12 100 22:31 25.02.2021
2127 Clouds 18 1036 25 10000 4.63 70 21:47 25.02.2021
2128 Clouds 18 1036 25 10000 4.63 70 21:28 25.02.2021
2129 Clouds 17 1037 29 10000 5.14 80 20:42 25.02.2021
2130 Clouds 17 1037 29 10000 5.14 80 20:23 25.02.2021
2131 Clouds 17 1038 29 10000 5.66 60 19:53 25.02.2021
2132 Clouds 17 1038 29 10000 5.66 60 19:22 25.02.2021
2133 Clouds 15 1040 33 10000 5.14 40 18:58 25.02.2021
2134 Clouds 15 1040 33 10000 5.14 40 18:33 25.02.2021
2135 Clouds 16 1040 31 10000 4.63 70 17:51 25.02.2021
2136 Clouds 16 1040 31 10000 4.63 70 17:29 25.02.2021
2137 Clouds 14 1041 41 10000 3.6 90 16:52 25.02.2021
2138 Clouds 14 1041 41 10000 3.6 90 16:26 25.02.2021
2139 Clouds 13 1041 47 10000 3.6 60 15:36 25.02.2021
2140 Clouds 13 1041 47 10000 3.6 60 15:18 25.02.2021
2141 Clouds 10 1013 71 10000 2.06 250 14:28 25.02.2021
2142 Clouds 8 1041 87 6000 1.03 0 13:55 25.02.2021
2143 Clouds 8 1041 87 6000 1.03 0 13:27 25.02.2021
2144 Fog 5 1040 93 4000 3.09 120 12:56 25.02.2021
2145 Fog 5 1040 93 4000 3.09 120 12:22 25.02.2021
2146 Fog 5 1038 93 4000 4.63 120 11:47 25.02.2021
2147 Fog 5 1038 93 4000 4.63 120 11:20 25.02.2021
2148 Fog 5 1038 93 4000 4.12 100 10:45 25.02.2021
2149 Fog 5 1038 93 4000 4.12 100 10:26 25.02.2021
2150 Fog 6 1038 93 4000 3.6 110 09:43 25.02.2021
2151 Clouds 6 1019 79 10000 1.63 30 08:56 25.02.2021
2152 Fog 6 1039 93 4000 3.6 90 08:25 25.02.2021
2153 Fog 6 1039 93 4000 3.6 90 07:56 25.02.2021
2154 Fog 6 1039 93 4000 3.6 90 07:34 25.02.2021
2155 Fog 6 1039 87 4000 2.06 90 06:53 25.02.2021
2156 Clouds 10 1039 62 10000 1.03 0 02:39 25.02.2021
2157 Clouds 9 1038 66 10000 3.09 300 01:37 25.02.2021
2158 Clouds 12 1038 50 10000 4.12 150 00:41 25.02.2021
2159 Clouds 14 1038 38 10000 2.57 130 23:52 24.02.2021
2160 Clouds 14 1038 38 10000 2.57 130 23:27 24.02.2021
2161 Clouds 16 1037 39 10000 2.06 80 22:44 24.02.2021
2162 Clouds 16 1037 39 10000 2.06 80 22:25 24.02.2021
2163 Clouds 15 1038 41 10000 4.12 30 21:45 24.02.2021
2164 Clouds 13 1039 47 10000 5.66 40 20:56 24.02.2021
2165 Clouds 13 1039 47 10000 5.66 40 20:37 24.02.2021
2166 Clouds 13 1039 47 10000 5.66 40 20:18 24.02.2021
2167 Clouds 16 1039 36 10000 4.12 40 19:29 24.02.2021
2168 Clouds 15 1041 38 10000 8.23 40 18:56 24.02.2021
2169 Clouds 15 1041 38 10000 8.23 40 18:34 24.02.2021
2170 Clouds 14 1041 41 10000 4.63 90 17:52 24.02.2021
2171 Clouds 14 1041 41 10000 4.63 90 17:29 24.02.2021
2172 Clouds 14 1041 44 10000 4.12 70 16:57 24.02.2021
2173 Clouds 14 1041 44 10000 4.12 70 16:36 24.02.2021
2174 Clouds 14 1041 44 10000 4.12 70 16:18 24.02.2021
2175 Clouds 13 1042 47 10000 4.63 80 15:37 24.02.2021
2176 Clouds 11 1041 58 10000 3.09 80 14:53 24.02.2021
2177 Clouds 11 1041 58 10000 3.09 80 14:32 24.02.2021
2178 Clouds 8 1040 76 10000 1.03 0 13:57 24.02.2021
2179 Clouds 8 1040 76 10000 1.03 0 13:38 24.02.2021
2180 Clouds 8 1040 76 10000 1.03 0 13:19 24.02.2021
2181 Clouds 3 1040 75 10000 1.54 30 12:43 24.02.2021
2182 Clouds 3 1040 75 10000 1.54 30 12:23 24.02.2021
2183 Clouds 1 1039 80 10000 1.03 0 11:42 24.02.2021
2184 Clouds 2 1039 75 10000 1.03 0 10:48 24.02.2021
2185 Clouds 2 1039 75 10000 1.03 0 10:26 24.02.2021
2186 Clouds 5 1038 60 10000 1.03 0 09:34 24.02.2021
2187 Clouds 6 1038 61 10000 2.57 30 08:58 24.02.2021
2188 Clouds 6 1038 61 10000 2.57 30 08:33 24.02.2021
2189 Clouds 7 1039 57 10000 4.12 40 07:47 24.02.2021
2190 Clouds 7 1039 57 10000 4.12 40 07:19 24.02.2021
2191 Clouds 6 1040 49 10000 3.09 70 05:49 24.02.2021
2192 Clouds 9 1038 46 10000 6.17 50 02:35 24.02.2021
2193 Clouds 14 1038 38 10000 6.17 60 23:39 23.02.2021
2194 Clouds 16 1037 36 10000 6.69 50 22:51 23.02.2021
2195 Clouds 16 1037 36 10000 6.69 50 22:23 23.02.2021
2196 Clouds 17 1037 31 10000 6.69 80 21:49 23.02.2021
2197 Clouds 17 1037 31 10000 6.69 80 21:27 23.02.2021
2198 Clouds 14 1038 38 10000 5.66 60 20:59 23.02.2021
2199 Clouds 14 1038 38 10000 5.66 60 20:39 23.02.2021
2200 Clouds 14 1038 38 10000 5.66 60 20:20 23.02.2021
2201 Clouds 16 1012 37 10000 6.3 59 19:46 23.02.2021
2202 Clouds 16 1013 35 10000 6.67 59 19:26 23.02.2021
2203 Clouds 16 1013 34 10000 6.82 58 18:44 23.02.2021
2204 Clouds 15 1040 41 10000 4.12 70 18:26 23.02.2021
2205 Clouds 15 1040 41 10000 4.12 70 17:53 23.02.2021
2206 Clouds 15 1040 41 10000 4.12 70 17:27 23.02.2021
2207 Clouds 14 1040 41 10000 4.63 110 16:46 23.02.2021
2208 Clouds 14 1040 41 10000 4.63 110 16:24 23.02.2021
2209 Clouds 12 1041 47 10000 4.12 80 15:50 23.02.2021
2210 Clouds 12 1041 47 10000 4.12 80 15:50 23.02.2021
2211 Clouds 12 1041 47 10000 4.12 80 15:31 23.02.2021
2212 Clouds 12 1040 47 10000 4.12 50 14:55 23.02.2021
2213 Clouds 12 1040 47 10000 4.12 50 14:37 23.02.2021
2214 Clouds 12 1040 47 10000 4.12 50 14:19 23.02.2021
2215 Clouds 10 1040 50 10000 4.12 60 13:38 23.02.2021
2216 Clouds 6 1039 61 10000 2.06 20 12:59 23.02.2021
2217 Clouds 6 1039 61 10000 2.06 20 12:41 23.02.2021
2218 Clouds 6 1039 61 10000 2.06 20 12:18 23.02.2021
2219 Clouds 5 1038 70 10000 2.57 30 11:45 23.02.2021
2220 Clouds 5 1038 70 10000 2.57 30 11:18 23.02.2021
2221 Clouds 5 1038 70 10000 3.09 50 10:38 23.02.2021
2222 Clouds 5 1037 75 10000 2.06 60 09:59 23.02.2021
2223 Clouds 5 1037 75 10000 2.06 60 09:41 23.02.2021
2224 Clouds 5 1037 75 10000 2.06 60 09:21 23.02.2021
2225 Rain 6 1037 70 10000 1.54 100 08:45 23.02.2021
2226 Rain 6 1037 70 10000 1.54 100 08:20 23.02.2021
2227 Rain 6 1038 75 10000 2.57 90 06:56 23.02.2021
2228 Rain 6 1038 70 10000 1.54 60 05:25 23.02.2021
2229 Clouds 7 1037 65 10000 3.09 70 02:37 23.02.2021
2230 Rain 7 1037 65 10000 3.09 70 02:19 23.02.2021
2231 Clouds 10 1036 46 10000 7.72 80 00:19 23.02.2021
2232 Rain 12 1036 43 10000 8.23 80 23:30 22.02.2021
2233 Clouds 14 1036 41 10000 7.2 70 22:42 22.02.2021
2234 Rain 14 1036 41 10000 7.2 70 22:22 22.02.2021
2235 Clouds 15 1037 36 10000 7.72 70 21:56 22.02.2021
2236 Clouds 15 1037 36 10000 7.72 70 21:38 22.02.2021
2237 Clouds 15 1037 36 10000 7.72 70 21:38 22.02.2021
2238 Clouds 15 1037 36 10000 7.72 70 21:19 22.02.2021
2239 Clouds 14 1037 41 10000 6.69 90 20:43 22.02.2021
2240 Clouds 14 1037 41 10000 6.69 90 20:23 22.02.2021
2241 Clouds 15 1038 38 10000 7.72 80 19:39 22.02.2021
2242 Clouds 15 1038 38 10000 7.72 80 19:21 22.02.2021
2243 Clouds 14 1038 38 10000 6.69 110 18:46 22.02.2021
2244 Clouds 14 1038 38 10000 6.69 110 18:28 22.02.2021
2245 Clouds 13 1039 47 10000 4.12 130 17:43 22.02.2021
2246 Clouds 13 1039 47 10000 4.12 130 17:18 22.02.2021
2247 Clouds 12 1039 50 10000 4.12 100 16:47 22.02.2021
2248 Clouds 12 1039 50 10000 4.12 100 16:25 22.02.2021
2249 Clouds 10 1038 46 10000 3.09 140 15:31 22.02.2021
2250 Clouds 9 1038 61 10000 3.09 140 14:49 22.02.2021
2251 Clouds 9 1038 61 10000 3.09 140 14:30 22.02.2021
2252 Clouds 5 1038 87 6000 2.57 60 13:51 22.02.2021
2253 Clouds 5 1038 87 6000 2.57 60 13:25 22.02.2021
2254 Fog 2 1037 93 4000 2.57 80 12:44 22.02.2021
2255 Fog 2 1037 93 4000 2.57 80 12:22 22.02.2021
2256 Fog 2 1037 100 4000 2.57 80 11:45 22.02.2021
2257 Fog 2 1037 100 4000 2.57 80 11:25 22.02.2021
2258 Fog 2 1037 93 4000 2.06 80 10:50 22.02.2021
2259 Fog 2 1037 93 4000 2.06 80 10:28 22.02.2021
2260 Fog 3 1037 87 4000 3.6 70 09:49 22.02.2021
2261 Fog 3 1037 87 4000 3.6 70 09:49 22.02.2021
2262 Fog 3 1037 87 4000 3.6 70 09:29 22.02.2021
2263 Clouds 5 1037 70 10000 2.57 40 08:54 22.02.2021
2264 Clouds 5 1037 70 10000 2.57 40 08:31 22.02.2021
2265 Clouds 5 1038 70 10000 3.09 30 07:58 22.02.2021
2266 Clouds 5 1038 70 10000 3.09 30 07:26 22.02.2021
2267 Clouds 4 1038 87 10000 1.03 0 06:45 22.02.2021
2268 Clouds 4 1039 87 10000 2.57 90 05:45 22.02.2021
2269 Clouds 6 1038 61 10000 3.09 70 03:29 22.02.2021
2270 Clouds 7 1037 61 10000 4.12 50 02:49 22.02.2021
2271 Clouds 10 1036 50 10000 4.63 70 00:45 22.02.2021
2272 Clouds 10 1036 50 10000 4.63 70 00:22 22.02.2021
2273 Clouds 13 1036 38 10000 5.66 60 23:30 21.02.2021
2274 Clouds 14 1035 38 10000 6.17 50 22:51 21.02.2021
2275 Clouds 14 1035 38 10000 6.17 50 22:22 21.02.2021
2276 Clouds 15 1036 38 10000 6.17 100 21:37 21.02.2021
2277 Clouds 15 1036 38 10000 6.17 100 21:19 21.02.2021
2278 Clouds 15 1036 44 10000 5.14 90 20:40 21.02.2021
2279 Clouds 15 1036 44 10000 5.14 90 20:19 21.02.2021
2280 Clouds 15 1037 47 10000 4.63 110 19:51 21.02.2021
2281 Clouds 15 1037 47 10000 4.63 110 19:32 21.02.2021
2282 Clouds 15 1037 47 10000 4.63 110 19:32 21.02.2021
2283 Clouds 14 1038 51 10000 4.12 60 18:48 21.02.2021
2284 Clouds 14 1038 51 10000 4.12 60 18:25 21.02.2021
2285 Clouds 12 1039 62 10000 3.6 120 17:29 21.02.2021
2286 Clouds 10 1040 71 10000 3.6 130 16:57 21.02.2021
2287 Clouds 10 1040 71 10000 3.6 130 16:34 21.02.2021
2288 Clouds 9 1040 71 10000 4.12 100 15:54 21.02.2021
2289 Rain 9 1040 71 10000 4.12 100 15:22 21.02.2021
2290 Rain 8 1039 81 6000 4.63 110 14:50 21.02.2021
2291 Rain 8 1039 81 6000 4.63 110 14:28 21.02.2021
2292 Fog 7 1038 87 4000 3.09 100 13:46 21.02.2021
2293 Fog 7 1038 87 4000 3.09 100 13:23 21.02.2021
2294 Fog 5 1037 100 3000 2.06 120 12:32 21.02.2021
2295 Fog 5 1037 93 4000 2.06 110 11:55 21.02.2021
2296 Fog 5 1037 93 4000 2.06 110 11:36 21.02.2021
2297 Fog 5 1037 93 4000 3.09 100 10:26 21.02.2021
2298 Clouds 6 1037 75 10000 2.57 140 09:58 21.02.2021
2299 Clouds 6 1037 75 10000 2.57 140 09:39 21.02.2021
2300 Clouds 6 1037 75 10000 2.57 140 09:19 21.02.2021
2301 Rain 6 1037 93 4000 5.14 60 08:32 21.02.2021
2302 Rain 6 1037 93 4000 3.6 90 07:40 21.02.2021
2303 Fog 6 1037 93 4000 3.6 90 07:19 21.02.2021
2304 Fog 7 1038 93 4000 2.06 100 04:54 21.02.2021
2305 Clouds 9 1037 81 10000 2.57 80 02:31 21.02.2021
2306 Clouds 10 1035 66 10000 4.12 100 00:47 21.02.2021
2307 Clouds 10 1035 66 10000 4.12 100 00:20 21.02.2021
2308 Clouds 12 1035 62 10000 4.63 100 23:28 20.02.2021
2309 Clouds 13 1035 50 10000 5.14 80 22:47 20.02.2021
2310 Clouds 13 1035 50 10000 5.14 80 22:27 20.02.2021
2311 Clouds 14 1036 51 10000 5.14 70 21:45 20.02.2021
2312 Clouds 14 1036 51 10000 5.14 70 21:26 20.02.2021
2313 Clouds 15 1036 51 10000 5.66 90 20:49 20.02.2021
2314 Clouds 15 1036 51 10000 5.66 90 20:28 20.02.2021
2315 Rain 15 1037 51 10000 4.63 90 19:53 20.02.2021
2316 Rain 15 1037 51 10000 4.63 90 19:31 20.02.2021
2317 Clouds 14 1038 54 10000 4.63 60 18:45 20.02.2021
2318 Rain 14 1038 54 10000 4.63 60 18:24 20.02.2021
2319 Clouds 13 1039 62 10000 4.63 80 17:41 20.02.2021
2320 Clouds 11 1039 71 10000 4.12 150 17:22 20.02.2021
2321 Clouds 11 1039 71 10000 4.12 150 16:33 20.02.2021
2322 Clouds 10 1039 76 10000 2.57 110 15:56 20.02.2021
2323 Clouds 10 1039 76 10000 2.57 110 15:36 20.02.2021
2324 Clouds 9 1039 76 6000 1.03 0 14:49 20.02.2021
2325 Clouds 9 1039 76 6000 1.03 0 14:24 20.02.2021
2326 Clouds 6 1039 87 10000 1.03 0 13:49 20.02.2021
2327 Clouds 6 1039 87 10000 1.03 0 13:27 20.02.2021
2328 Clouds 6 1039 87 10000 1.03 0 13:27 20.02.2021
2329 Fog 5 1038 93 4000 1.03 0 12:51 20.02.2021
2330 Fog 5 1038 93 4000 1.03 0 12:32 20.02.2021
2331 Fog 4 1037 93 4000 1.54 270 11:44 20.02.2021
2332 Fog 4 1037 93 4000 1.54 270 11:25 20.02.2021
2333 Fog 4 1037 100 4000 1.03 0 10:50 20.02.2021
2334 Fog 5 1037 93 4000 2.06 230 09:55 20.02.2021
2335 Fog 5 1037 93 4000 2.06 230 09:30 20.02.2021
2336 Fog 6 1037 87 4000 2.57 210 08:43 20.02.2021
2337 Fog 6 1037 87 4000 2.57 210 08:18 20.02.2021
2338 Clouds 8 1037 81 10000 2.06 70 03:32 20.02.2021
2339 Clouds 7 1036 81 10000 2.57 70 02:25 20.02.2021
2340 Clouds 10 1035 62 10000 2.06 40 01:49 20.02.2021
2341 Clouds 10 1034 66 10000 2.06 20 00:45 20.02.2021
2342 Clouds 11 1012 72 5855 3.47 32 23:55 19.02.2021
2343 Clouds 13 1010 61 9744 2.73 26 23:18 19.02.2021
2344 Clouds 11 1033 76 10000 2.57 70 22:27 19.02.2021
2345 Clouds 14 1009 56 6697 2.11 29 21:54 19.02.2021
2346 Clouds 11 1034 71 8000 3.6 20 21:31 19.02.2021
2347 Clouds 12 1034 58 10000 4.12 100 20:48 19.02.2021
2348 Clouds 14 1034 47 10000 3.09 130 20:28 19.02.2021
2349 Clouds 15 1035 51 10000 3.6 110 19:55 19.02.2021
2350 Clouds 15 1035 51 10000 3.6 110 19:27 19.02.2021
2351 Clouds 13 1036 54 10000 3.09 120 18:56 19.02.2021
2352 Clouds 13 1036 54 10000 3.09 120 18:33 19.02.2021
2353 Clouds 12 1037 62 10000 3.6 130 17:51 19.02.2021
2354 Clouds 11 1038 62 10000 2.06 170 16:53 19.02.2021
2355 Clouds 11 1038 62 10000 2.06 170 16:28 19.02.2021
2356 Clouds 10 1038 62 10000 1.03 0 15:58 19.02.2021
2357 Clouds 10 1038 62 10000 1.03 0 15:31 19.02.2021
2358 Rain 7 1038 70 10000 2.06 250 14:59 19.02.2021
2359 Clouds 7 1038 70 10000 2.06 250 14:38 19.02.2021
2360 Clouds 6 1037 81 10000 1.03 0 13:58 19.02.2021
2361 Clouds 6 1037 81 10000 1.03 0 13:39 19.02.2021
2362 Clouds 6 1037 81 10000 1.03 0 13:19 19.02.2021
2363 Clouds 5 1036 87 10000 1.03 0 12:41 19.02.2021
2364 Clouds 5 1036 87 10000 1.03 0 12:22 19.02.2021
2365 Clouds 5 1036 87 10000 2.06 230 11:48 19.02.2021
2366 Clouds 5 1036 87 10000 2.06 230 11:22 19.02.2021
2367 Clouds 5 1036 93 8000 1.03 0 10:42 19.02.2021
2368 Clouds 5 1036 93 8000 1.03 0 10:20 19.02.2021
2369 Fog 5 1036 93 4000 2.57 260 09:38 19.02.2021
2370 Fog 5 1036 93 4000 2.57 260 09:19 19.02.2021
2371 Fog 5 1036 93 4000 3.6 250 08:49 19.02.2021
2372 Fog 5 1036 93 4000 3.6 250 08:22 19.02.2021
2373 Clouds 5 1036 93 8000 3.6 260 07:47 19.02.2021
2374 Clouds 5 1036 93 8000 3.6 260 07:26 19.02.2021
2375 Fog 6 1037 100 4000 2.06 240 06:47 19.02.2021
2376 Clouds 6 1037 93 10000 1.54 240 04:42 19.02.2021
2377 Clouds 6 1037 100 10000 1.29 346 03:32 19.02.2021
2378 Clouds 7 1036 87 10000 1.03 0 01:46 19.02.2021
2379 Clouds 7 1036 87 10000 1.03 0 01:46 19.02.2021
2380 Clouds 7 1035 81 10000 3.09 310 00:36 19.02.2021
2381 Clouds 6 1034 93 7000 2.57 300 23:48 18.02.2021
2382 Clouds 6 1034 93 7000 2.57 300 23:48 18.02.2021
2383 Clouds 6 1034 93 7000 2.57 300 23:30 18.02.2021
2384 Clouds 7 1034 93 6000 4.12 330 22:42 18.02.2021
2385 Clouds 7 1034 93 6000 4.12 330 22:24 18.02.2021
2386 Clouds 10 1034 71 8000 4.63 100 21:42 18.02.2021
2387 Clouds 10 1034 71 8000 4.63 100 21:24 18.02.2021
2388 Clouds 10 1034 71 10000 4.63 120 20:40 18.02.2021
2389 Clouds 10 1034 71 10000 4.63 120 20:21 18.02.2021
2390 Clouds 12 1035 66 10000 5.66 110 19:46 18.02.2021
2391 Clouds 12 1035 66 10000 5.66 110 19:21 18.02.2021
2392 Clouds 10 1035 87 8000 5.66 110 18:51 18.02.2021
2393 Clouds 10 1035 87 8000 5.66 110 18:26 18.02.2021
2394 Clouds 11 1036 62 10000 5.14 120 17:52 18.02.2021
2395 Clouds 11 1036 62 10000 5.14 120 17:25 18.02.2021
2396 Clouds 11 1036 62 10000 5.14 120 17:25 18.02.2021
2397 Clouds 9 1037 76 6000 3.6 100 16:47 18.02.2021
2398 Clouds 9 1037 76 6000 3.6 100 16:29 18.02.2021
2399 Clouds 8 1037 81 6000 3.6 130 15:43 18.02.2021
2400 Clouds 8 1037 81 6000 3.6 130 15:24 18.02.2021
2401 Rain 8 1037 81 6000 3.09 110 14:53 18.02.2021
2402 Clouds 8 1037 81 6000 3.09 110 14:34 18.02.2021
2403 Fog 6 1036 93 4000 2.57 120 13:50 18.02.2021
2404 Fog 6 1036 93 4000 2.57 120 13:22 18.02.2021
2405 Fog 5 1035 93 4000 2.57 130 12:55 18.02.2021
2406 Fog 5 1035 93 4000 2.57 130 12:31 18.02.2021
2407 Fog 4 1035 100 4000 1.03 0 11:47 18.02.2021
2408 Fog 4 1035 100 4000 1.03 0 11:47 18.02.2021
2409 Fog 4 1035 100 4000 1.03 0 11:28 18.02.2021
2410 Fog 4 1034 93 4000 1.03 0 10:58 18.02.2021
2411 Fog 4 1034 93 4000 1.03 0 10:37 18.02.2021
2412 Fog 4 1034 93 4000 1.03 0 10:18 18.02.2021
2413 Fog 4 1034 93 4000 1.54 140 09:28 18.02.2021
2414 Fog 5 1034 93 4000 1.03 0 08:49 18.02.2021
2415 Fog 5 1034 93 4000 1.03 0 08:31 18.02.2021
2416 Fog 6 1035 93 4000 1.03 0 07:47 18.02.2021
2417 Fog 6 1035 93 4000 1.03 0 07:20 18.02.2021
2418 Clouds 6 1036 87 10000 2.06 150 05:42 18.02.2021
2419 Clouds 6 1036 87 10000 2.06 150 05:42 18.02.2021
2420 Fog 6 1034 93 4000 5.66 100 00:26 18.02.2021
2421 Fog 6 1034 93 4000 4.63 110 23:38 17.02.2021
2422 Fog 6 1034 93 4000 4.63 110 23:38 17.02.2021
2423 Clouds 7 1033 87 10000 4.63 110 22:57 17.02.2021
2424 Clouds 7 1033 87 10000 4.63 110 22:38 17.02.2021
2425 Clouds 7 1033 87 10000 4.63 110 22:18 17.02.2021
2426 Rain 6 1034 93 8000 2.57 110 21:41 17.02.2021
2427 Clouds 6 1034 93 8000 2.57 110 21:19 17.02.2021
2428 Clouds 7 1034 87 6000 2.06 60 20:40 17.02.2021
2429 Clouds 6 1035 62 3000 2.57 340 19:56 17.02.2021
2430 Clouds 6 1035 67 3000 2.57 340 19:36 17.02.2021
2431 Clouds 7 1035 57 2000 3.6 280 18:57 17.02.2021
2432 Clouds 8 1035 87 7000 3.6 270 18:34 17.02.2021
2433 Clouds 10 1035 71 10000 2.06 120 17:46 17.02.2021
2434 Clouds 10 1035 71 10000 2.06 120 17:21 17.02.2021
2435 Clouds 9 1036 76 10000 1.54 290 16:51 17.02.2021
2436 Clouds 9 1036 76 10000 1.54 290 16:29 17.02.2021
2437 Clouds 9 1036 71 10000 0.81 313 15:46 17.02.2021
2438 Clouds 9 1036 71 10000 1.46 309 15:28 17.02.2021
2439 Clouds 7 1036 87 8000 3.6 110 14:59 17.02.2021
2440 Clouds 7 1036 87 8000 3.6 110 14:39 17.02.2021
2441 Clouds 7 1036 87 8000 3.6 110 14:21 17.02.2021
2442 Fog 6 1034 93 4000 1.03 0 13:40 17.02.2021
2443 Rain 6 1034 93 4000 1.03 0 12:58 17.02.2021
2444 Rain 6 1034 93 4000 1.03 0 12:26 17.02.2021
2445 Fog 6 1033 93 4000 1.54 160 11:48 17.02.2021
2446 Fog 6 1033 93 4000 1.54 160 11:29 17.02.2021
2447 Fog 7 1033 87 4000 1.54 130 10:57 17.02.2021
2448 Fog 7 1033 87 4000 1.54 130 10:39 17.02.2021
2449 Fog 7 1033 87 4000 1.54 130 10:20 17.02.2021
2450 Fog 7 1033 87 4000 2.57 130 09:40 17.02.2021
2451 Fog 7 1034 93 4000 3.6 110 08:58 17.02.2021
2452 Fog 7 1034 93 4000 3.6 110 08:37 17.02.2021
2453 Fog 7 1034 93 4000 3.6 110 08:18 17.02.2021
2454 Fog 7 1035 93 4000 3.09 100 06:48 17.02.2021
2455 Rain 8 1034 81 10000 2.57 130 03:53 17.02.2021
2456 Rain 9 1033 76 10000 3.6 70 02:32 17.02.2021
2457 Clouds 9 1033 76 10000 2.57 100 01:36 17.02.2021
2458 Rain 10 1033 71 10000 4.63 110 00:28 17.02.2021
2459 Clouds 12 1032 58 10000 3.6 90 23:39 16.02.2021
2460 Clouds 12 1032 58 10000 3.6 90 22:58 16.02.2021
2461 Clouds 12 1032 58 10000 3.6 90 22:39 16.02.2021
2462 Clouds 12 1032 58 10000 3.6 90 22:21 16.02.2021
2463 Clouds 12 1033 58 10000 5.66 80 21:39 16.02.2021
2464 Clouds 12 1033 58 10000 5.66 80 21:21 16.02.2021
2465 Clouds 11 1034 66 10000 6.69 70 20:55 16.02.2021
2466 Clouds 11 1034 66 10000 6.69 70 20:24 16.02.2021
2467 Clouds 13 1034 50 10000 4.63 120 19:50 16.02.2021
2468 Clouds 13 1034 50 10000 4.63 120 19:29 16.02.2021
2469 Clouds 14 1035 47 10000 4.63 130 18:53 16.02.2021
2470 Clouds 14 1035 47 10000 4.63 130 18:27 16.02.2021
2471 Clouds 13 1036 54 10000 4.63 110 17:58 16.02.2021
2472 Clouds 13 1036 54 10000 4.63 110 17:38 16.02.2021
2473 Clouds 13 1036 54 10000 4.63 110 17:20 16.02.2021
2474 Clouds 12 1036 54 10000 4.63 110 16:44 16.02.2021
2475 Clouds 12 1036 54 10000 4.63 110 16:21 16.02.2021
2476 Clouds 9 1036 66 10000 3.09 140 15:42 16.02.2021
2477 Clouds 9 1036 66 10000 3.09 140 15:24 16.02.2021
2478 Clouds 7 1036 76 10000 1.03 0 14:42 16.02.2021
2479 Clouds 7 1036 76 10000 1.03 0 14:24 16.02.2021
2480 Clouds 6 1036 81 10000 1.96 257 13:47 16.02.2021
2481 Clouds 6 1036 81 10000 2.08 251 13:22 16.02.2021
2482 Clouds 4 1035 93 10000 1.03 0 12:43 16.02.2021
2483 Clouds 4 1035 93 10000 1.03 0 12:20 16.02.2021
2484 Clouds 5 1034 87 10000 1.03 0 11:44 16.02.2021
2485 Clouds 5 1034 87 10000 1.03 0 11:22 16.02.2021
2486 Clouds 5 1034 87 10000 1.54 210 10:49 16.02.2021
2487 Clouds 5 1034 87 10000 1.54 210 10:30 16.02.2021
2488 Clouds 5 1034 87 10000 1.03 0 09:55 16.02.2021
2489 Clouds 5 1034 87 10000 1.03 0 09:29 16.02.2021
2490 Clouds 5 1035 87 10000 3.09 50 08:53 16.02.2021
2491 Clouds 5 1035 87 10000 3.09 50 08:32 16.02.2021
2492 Clouds 5 1036 93 10000 1.03 0 07:59 16.02.2021
2493 Fog 5 1037 93 4000 3.6 120 06:58 16.02.2021
2494 Clouds 5 1036 100 10000 4.12 100 03:20 16.02.2021
2495 Clouds 6 1034 81 8000 6.17 40 00:35 16.02.2021
2496 Clouds 6 1034 93 6000 5.66 70 23:30 15.02.2021
2497 Clouds 10 1034 71 6000 3.6 250 22:51 15.02.2021
2498 Clouds 10 1034 71 6000 3.6 250 22:30 15.02.2021
2499 Clouds 10 1034 71 6000 3.6 250 22:30 15.02.2021
2500 Clouds 10 1033 62 10000 4.12 250 21:50 15.02.2021
2501 Clouds 11 1034 54 10000 6.69 230 21:26 15.02.2021
2502 Rain 11 1034 58 10000 6.17 150 20:57 15.02.2021
2503 Clouds 11 1034 58 10000 6.17 150 20:39 15.02.2021
2504 Clouds 13 1035 44 10000 7.2 60 19:51 15.02.2021
2505 Clouds 13 1035 44 10000 7.2 60 19:30 15.02.2021
2506 Clouds 11 1036 54 8000 6.69 50 18:59 15.02.2021
2507 Clouds 11 1036 54 8000 6.69 50 18:30 15.02.2021
2508 Clouds 14 1037 54 10000 6.17 110 17:59 15.02.2021
2509 Clouds 14 1037 54 10000 6.17 110 17:40 15.02.2021
2510 Clouds 14 1037 54 10000 6.17 110 17:21 15.02.2021
2511 Clouds 13 1037 58 10000 4.12 100 16:46 15.02.2021
2512 Clouds 13 1037 58 10000 4.12 100 16:22 15.02.2021
2513 Clouds 12 1037 58 10000 3.6 110 15:44 15.02.2021
2514 Clouds 12 1037 58 10000 3.6 110 15:20 15.02.2021
2515 Clouds 11 1037 54 10000 1.03 0 14:49 15.02.2021
2516 Clouds 11 1037 54 10000 1.03 0 14:21 15.02.2021
2517 Clouds 8 1036 66 10000 1.03 0 13:49 15.02.2021
2518 Clouds 8 1036 66 10000 1.03 0 13:27 15.02.2021
2519 Clouds 5 1036 75 10000 1.03 0 12:52 15.02.2021
2520 Clouds 5 1036 75 10000 1.03 0 12:31 15.02.2021
2521 Clouds 3 1035 81 10000 0.55 271 11:53 15.02.2021
2522 Clouds 3 1035 81 10000 0.43 289 11:27 15.02.2021
2523 Clouds 5 1034 70 10000 1.54 270 10:55 15.02.2021
2524 Clouds 5 1034 70 10000 1.54 270 10:36 15.02.2021
2525 Clouds 5 1034 70 10000 1.54 270 10:18 15.02.2021
2526 Clouds 5 1035 70 10000 2.06 280 09:47 15.02.2021
2527 Clouds 5 1035 70 10000 2.06 280 09:25 15.02.2021
2528 Clouds 5 1035 70 10000 2.57 280 08:23 15.02.2021
2529 Clouds 6 1035 75 10000 1.03 0 07:20 15.02.2021
2530 Clouds 5 1036 87 10000 1.42 13 06:41 15.02.2021
2531 Clouds 7 1035 76 10000 2.57 10 03:33 15.02.2021
2532 Clouds 8 1035 71 10000 3.6 340 02:21 15.02.2021
2533 Clouds 8 1034 71 8000 3.6 210 00:19 15.02.2021
2534 Clouds 9 1033 61 8000 5.14 320 23:25 14.02.2021
2535 Clouds 11 1033 50 8000 6.69 30 22:46 14.02.2021
2536 Clouds 11 1033 50 8000 6.69 30 22:27 14.02.2021
2537 Clouds 16 1032 36 10000 3.09 50 21:51 14.02.2021
2538 Clouds 16 1032 36 10000 3.09 50 21:30 14.02.2021
2539 Clouds 16 1033 39 10000 3.09 80 20:53 14.02.2021
2540 Clouds 16 1033 39 10000 3.09 80 20:30 14.02.2021
2541 Clouds 17 1034 36 10000 3.09 70 19:49 14.02.2021
2542 Clouds 17 1034 36 10000 3.09 70 19:29 14.02.2021
2543 Clouds 16 1035 39 10000 3.09 110 18:42 14.02.2021
2544 Clouds 16 1035 39 10000 3.09 110 18:21 14.02.2021
2545 Clouds 16 1035 36 10000 2.57 40 17:39 14.02.2021
2546 Clouds 14 1036 41 10000 3.09 140 16:57 14.02.2021
2547 Clouds 14 1036 41 10000 3.09 140 16:38 14.02.2021
2548 Clouds 14 1036 41 10000 3.09 140 16:18 14.02.2021
2549 Clouds 12 1037 50 10000 1.03 0 15:40 14.02.2021
2550 Clouds 9 1037 57 10000 3.09 120 14:51 14.02.2021
2551 Clouds 9 1037 57 10000 3.09 120 14:27 14.02.2021
2552 Clouds 7 1036 61 10000 4.12 60 13:54 14.02.2021
2553 Clouds 7 1036 61 10000 4.12 60 13:30 14.02.2021
2554 Rain 5 1036 75 10000 3.6 60 12:44 14.02.2021
2555 Rain 5 1036 75 10000 3.6 60 12:20 14.02.2021
2556 Rain 5 1036 93 4000 4.63 80 11:50 14.02.2021
2557 Rain 5 1036 93 4000 4.63 80 11:50 14.02.2021
2558 Rain 5 1036 93 4000 4.63 80 11:50 14.02.2021
2559 Fog 5 1036 93 4000 4.63 80 11:21 14.02.2021
2560 Clouds 5 1035 81 10000 3.6 50 10:37 14.02.2021
2561 Clouds 5 1035 81 10000 3.6 50 09:55 14.02.2021
2562 Clouds 5 1035 81 10000 3.6 50 09:37 14.02.2021
2563 Clouds 5 1035 81 10000 3.6 50 09:19 14.02.2021
2564 Fog 4 1035 93 4000 2.06 110 08:35 14.02.2021
2565 Clouds 4 1035 87 10000 2.57 50 07:54 14.02.2021
2566 Clouds 4 1035 81 10000 2.57 60 06:37 14.02.2021
2567 Clouds 7 1036 70 10000 3.09 290 04:52 14.02.2021
2568 Clouds 8 1036 66 10000 3.6 330 03:23 14.02.2021
2569 Clouds 8 1035 61 10000 3.09 30 01:33 14.02.2021
2570 Rain 8 1034 57 10000 6.69 10 00:45 14.02.2021
2571 Clouds 9 1034 61 10000 3.6 80 23:58 13.02.2021
2572 Rain 9 1034 61 10000 3.6 80 23:26 13.02.2021
2573 Rain 10 1034 53 10000 4.12 170 22:59 13.02.2021
2574 Rain 10 1034 53 10000 4.12 170 22:26 13.02.2021
2575 Rain 11 1034 50 10000 3.09 100 21:49 13.02.2021
2576 Rain 11 1034 50 10000 3.09 100 21:27 13.02.2021
2577 Clouds 10 1034 46 10000 7.72 40 20:45 13.02.2021
2578 Rain 10 1034 46 10000 7.72 40 20:26 13.02.2021
2579 Clouds 6 1034 65 8000 9.26 60 19:48 13.02.2021
2580 Rain 6 1034 65 8000 9.26 60 19:24 13.02.2021
2581 Clouds 15 1035 47 10000 3.09 140 18:50 13.02.2021
2582 Clouds 15 1035 47 10000 3.09 140 18:27 13.02.2021
2583 Clouds 15 1035 47 10000 3.09 140 18:27 13.02.2021
2584 Clouds 15 1036 44 10000 2.06 40 17:44 13.02.2021
2585 Clouds 15 1036 44 10000 2.06 40 17:25 13.02.2021
2586 Clouds 13 1036 58 10000 2.06 160 16:52 13.02.2021
2587 Clouds 13 1036 58 10000 2.06 160 16:31 13.02.2021
2588 Clouds 13 1036 47 10000 1.03 0 15:43 13.02.2021
2589 Clouds 13 1036 47 10000 1.03 0 15:24 13.02.2021
2590 Clouds 11 1036 62 10000 2.06 150 14:40 13.02.2021
2591 Clouds 8 1036 76 10000 2.06 70 13:49 13.02.2021
2592 Clouds 8 1036 76 10000 2.06 70 13:27 13.02.2021
2593 Fog 4 1035 93 4000 2.06 90 12:52 13.02.2021
2594 Fog 4 1035 93 4000 2.06 90 12:21 13.02.2021
2595 Fog 4 1035 93 4000 2.57 80 11:47 13.02.2021
2596 Fog 4 1035 93 4000 2.57 80 11:21 13.02.2021
2597 Fog 4 1035 93 4000 2.06 30 10:56 13.02.2021
2598 Fog 4 1035 93 4000 2.06 30 10:38 13.02.2021
2599 Fog 4 1035 93 4000 2.06 30 10:19 13.02.2021
2600 Fog 5 1034 93 4000 1.03 0 09:45 13.02.2021
2601 Fog 5 1034 93 4000 1.03 0 09:21 13.02.2021
2602 Clouds 6 1034 81 10000 1.03 0 08:41 13.02.2021
2603 Clouds 5 1035 93 10000 2.06 70 07:54 13.02.2021
2604 Fog 5 1036 87 4000 1.54 80 06:42 13.02.2021
2605 Fog 5 1036 87 4000 1.54 80 06:19 13.02.2021
2606 Clouds 8 1037 66 10000 2.57 340 04:19 13.02.2021
2607 Clouds 9 1034 76 10000 2.57 70 01:54 13.02.2021
2608 Clouds 11 1033 58 10000 5.14 90 00:51 13.02.2021
2609 Clouds 13 1033 41 10000 5.14 40 23:54 12.02.2021
2610 Clouds 13 1033 41 10000 5.14 40 23:28 12.02.2021
2611 Clouds 11 1032 46 10000 6.69 30 22:45 12.02.2021
2612 Clouds 11 1032 46 10000 6.69 30 22:26 12.02.2021
2613 Clouds 11 1033 50 8000 5.66 40 21:50 12.02.2021
2614 Clouds 11 1033 50 8000 5.66 40 21:29 12.02.2021
2615 Rain 16 1032 36 8000 4.63 130 20:51 12.02.2021
2616 Rain 16 1032 36 8000 4.63 130 20:32 12.02.2021
2617 Clouds 16 1033 41 10000 4.12 140 19:58 12.02.2021
2618 Clouds 16 1033 41 10000 4.12 140 19:38 12.02.2021
2619 Clouds 14 1034 51 10000 4.12 130 18:58 12.02.2021
2620 Clouds 14 1034 51 10000 4.12 130 18:30 12.02.2021
2621 Clouds 15 1035 47 10000 4.63 110 17:46 12.02.2021
2622 Clouds 15 1035 47 10000 4.63 110 17:21 12.02.2021
2623 Clouds 13 1035 62 10000 4.12 110 16:28 12.02.2021
2624 Clouds 10 1036 71 10000 3.6 90 15:46 12.02.2021
2625 Clouds 10 1036 71 10000 3.6 90 15:21 12.02.2021
2626 Clouds 9 1035 81 6000 3.6 110 14:42 12.02.2021
2627 Clouds 9 1035 81 6000 3.6 110 14:23 12.02.2021
2628 Fog 7 1035 87 4000 2.06 50 13:40 12.02.2021
2629 Fog 6 1034 93 4000 1.54 60 12:56 12.02.2021
2630 Fog 6 1034 93 4000 1.54 60 12:37 12.02.2021
2631 Fog 7 1034 87 4000 1.03 0 11:58 12.02.2021
2632 Fog 7 1034 87 4000 1.03 0 11:37 12.02.2021
2633 Fog 7 1034 87 4000 1.03 0 11:19 12.02.2021
2634 Fog 6 1033 93 4000 1.03 0 10:40 12.02.2021
2635 Fog 6 1033 93 4000 1.54 70 09:48 12.02.2021
2636 Fog 6 1033 93 4000 1.54 70 09:24 12.02.2021
2637 Fog 5 1033 100 4000 2.57 70 08:49 12.02.2021
2638 Fog 5 1033 100 4000 2.57 70 08:27 12.02.2021
2639 Fog 6 1034 93 4000 3.09 90 07:53 12.02.2021
2640 Fog 6 1034 93 4000 3.09 90 07:53 12.02.2021
2641 Fog 6 1034 93 4000 3.09 90 07:31 12.02.2021
2642 Fog 7 1034 93 4000 2.57 80 06:55 12.02.2021
2643 Fog 7 1035 93 4000 2.57 90 05:39 12.02.2021
2644 Clouds 8 1034 87 10000 2.57 180 03:48 12.02.2021
2645 Clouds 10 1031 71 10000 5.14 100 00:47 12.02.2021
2646 Clouds 12 1031 62 10000 5.66 90 23:39 11.02.2021
2647 Clouds 12 1031 62 10000 5.66 90 23:20 11.02.2021
2648 Clouds 13 1030 62 10000 5.66 90 22:44 11.02.2021
2649 Clouds 13 1030 62 10000 5.66 90 22:23 11.02.2021
2650 Clouds 15 1031 55 10000 5.14 130 21:43 11.02.2021
2651 Clouds 15 1031 55 10000 5.14 130 21:25 11.02.2021
2652 Clouds 16 1031 41 10000 3.6 290 20:57 11.02.2021
2653 Clouds 16 1031 41 10000 3.6 290 20:39 11.02.2021
2654 Clouds 16 1031 41 10000 3.6 290 20:19 11.02.2021
2655 Clouds 16 1032 48 10000 5.14 270 19:46 11.02.2021
2656 Clouds 16 1032 48 10000 5.14 270 19:26 11.02.2021
2657 Clouds 16 1032 48 10000 5.14 270 19:26 11.02.2021
2658 Clouds 14 1034 58 10000 3.09 70 18:42 11.02.2021
2659 Clouds 14 1034 58 10000 3.09 70 18:20 11.02.2021
2660 Clouds 12 1034 66 10000 3.6 120 17:47 11.02.2021
2661 Clouds 12 1034 66 10000 3.6 120 17:21 11.02.2021
2662 Clouds 11 1035 71 10000 2.57 100 16:45 11.02.2021
2663 Clouds 11 1035 71 10000 2.57 100 16:26 11.02.2021
2664 Clouds 11 1035 71 6000 1.54 120 15:45 11.02.2021
2665 Clouds 11 1035 71 6000 1.54 120 15:26 11.02.2021
2666 Clouds 8 1035 81 6000 1.03 0 14:55 11.02.2021
2667 Clouds 8 1035 81 6000 1.03 0 14:31 11.02.2021
2668 Fog 7 1034 87 4000 2.57 60 13:43 11.02.2021
2669 Fog 7 1034 87 4000 2.57 60 13:20 11.02.2021
2670 Fog 5 1034 93 4000 2.57 70 12:56 11.02.2021
2671 Fog 5 1034 93 4000 2.57 70 12:33 11.02.2021
2672 Fog 5 1033 93 4000 2.06 70 11:48 11.02.2021
2673 Fog 5 1033 93 4000 2.06 70 11:27 11.02.2021
2674 Fog 6 1033 93 4000 2.06 90 10:45 11.02.2021
2675 Fog 6 1033 93 4000 2.06 90 10:26 11.02.2021
2676 Fog 6 1033 93 4000 2.57 70 09:56 11.02.2021
2677 Fog 6 1033 93 4000 2.57 70 09:26 11.02.2021
2678 Fog 6 1034 93 4000 1.03 0 08:55 11.02.2021
2679 Fog 6 1034 93 4000 1.03 0 08:31 11.02.2021
2680 Fog 7 1034 93 4000 2.57 250 07:39 11.02.2021
2681 Clouds 8 1035 87 10000 2.57 300 06:42 11.02.2021
2682 Fog 8 1035 93 4000 2.06 120 05:44 11.02.2021
2683 Fog 8 1033 93 4000 4.12 100 02:43 11.02.2021
2684 Fog 8 1033 93 4000 4.12 100 02:19 11.02.2021
2685 Clouds 10 1032 81 10000 3.6 80 00:22 11.02.2021
2686 Clouds 10 1031 87 10000 4.63 70 23:46 10.02.2021
2687 Clouds 10 1031 87 10000 4.63 70 23:18 10.02.2021
2688 Clouds 12 1031 66 10000 5.66 90 22:42 10.02.2021
2689 Clouds 12 1031 66 10000 5.66 90 22:18 10.02.2021
2690 Clouds 13 1032 67 10000 5.66 110 21:39 10.02.2021
2691 Clouds 14 1032 67 10000 4.63 90 21:19 10.02.2021
2692 Clouds 12 1033 62 10000 2.06 110 20:42 10.02.2021
2693 Clouds 12 1033 62 10000 2.06 110 20:24 10.02.2021
2694 Rain 11 1033 76 10000 2.57 110 19:47 10.02.2021
2695 Clouds 14 1033 58 10000 4.12 80 19:26 10.02.2021
2696 Rain 13 1035 67 10000 4.12 100 18:47 10.02.2021
2697 Rain 13 1035 67 10000 4.12 100 18:24 10.02.2021
2698 Clouds 12 1036 71 10000 4.63 100 17:57 10.02.2021
2699 Clouds 12 1036 71 10000 4.63 100 17:24 10.02.2021
2700 Clouds 12 1036 66 10000 3.6 120 16:57 10.02.2021
2701 Rain 12 1036 66 10000 3.6 120 16:31 10.02.2021
2702 Rain 10 1036 81 10000 4.63 100 15:59 10.02.2021
2703 Rain 10 1036 81 10000 4.63 100 15:24 10.02.2021
2704 Rain 9 1035 81 6000 4.12 80 14:48 10.02.2021
2705 Rain 8 1035 87 6000 3.09 80 14:29 10.02.2021
2706 Rain 8 1035 87 6000 3.09 80 13:52 10.02.2021
2707 Rain 8 1035 87 6000 3.09 80 13:28 10.02.2021
2708 Fog 7 1034 93 4000 2.06 70 12:50 10.02.2021
2709 Fog 7 1034 93 4000 2.06 70 12:30 10.02.2021
2710 Fog 7 1033 93 4000 3.6 80 11:56 10.02.2021
2711 Fog 7 1033 93 4000 3.6 80 11:37 10.02.2021
2712 Fog 7 1033 93 4000 3.6 80 11:19 10.02.2021
2713 Fog 7 1033 93 4000 1.03 0 10:22 10.02.2021
2714 Clouds 7 1034 93 10000 2.57 60 09:45 10.02.2021
2715 Clouds 7 1034 93 10000 2.57 60 09:26 10.02.2021
2716 Clouds 7 1034 87 10000 2.57 50 08:51 10.02.2021
2717 Clouds 7 1034 87 10000 2.57 50 08:30 10.02.2021
2718 Clouds 8 1035 81 6000 4.12 340 07:25 10.02.2021
2719 Rain 9 1036 87 8000 2.57 200 05:40 10.02.2021
2720 Clouds 11 1033 76 10000 3.6 70 01:21 10.02.2021
2721 Clouds 15 1031 36 10000 2.57 140 23:42 09.02.2021
2722 Clouds 15 1031 36 10000 2.57 140 23:24 09.02.2021
2723 Clouds 15 1032 36 10000 4.12 240 22:41 09.02.2021
2724 Clouds 15 1032 36 10000 4.12 240 22:23 09.02.2021
2725 Clouds 15 1032 38 10000 5.14 300 21:42 09.02.2021
2726 Clouds 15 1032 38 10000 5.14 300 21:19 09.02.2021
2727 Clouds 17 1033 29 10000 4.63 350 20:42 09.02.2021
2728 Clouds 17 1033 29 10000 4.63 350 20:24 09.02.2021
2729 Clouds 15 1034 47 10000 4.63 30 19:40 09.02.2021
2730 Clouds 15 1034 47 10000 4.63 30 19:21 09.02.2021
2731 Clouds 16 1035 39 10000 4.12 230 18:42 09.02.2021
2732 Clouds 16 1035 39 10000 4.12 230 18:21 09.02.2021
2733 Clouds 15 1036 44 10000 4.12 260 17:45 09.02.2021
2734 Clouds 15 1036 44 10000 4.12 260 17:25 09.02.2021
2735 Clouds 14 1036 47 10000 3.09 250 16:50 09.02.2021
2736 Clouds 14 1036 47 10000 3.09 250 16:19 09.02.2021
2737 Clouds 12 1037 58 10000 3.09 300 15:50 09.02.2021
2738 Clouds 12 1037 58 10000 3.09 300 15:28 09.02.2021
2739 Clouds 10 1037 66 10000 2.06 240 14:57 09.02.2021
2740 Clouds 10 1037 66 10000 2.06 240 14:29 09.02.2021
2741 Clouds 9 1036 71 10000 1.03 0 13:55 09.02.2021
2742 Clouds 9 1036 71 10000 1.03 0 13:29 09.02.2021
2743 Clouds 6 1035 81 10000 1.54 340 12:59 09.02.2021
2744 Clouds 6 1035 81 10000 1.54 340 12:40 09.02.2021
2745 Clouds 6 1035 81 10000 1.54 340 12:21 09.02.2021
2746 Clouds 4 1035 87 10000 1.54 50 11:43 09.02.2021
2747 Clouds 4 1035 87 10000 1.54 50 11:21 09.02.2021
2748 Clouds 4 1035 87 10000 1.54 50 11:21 09.02.2021
2749 Clouds 4 1035 87 10000 1.03 0 10:51 09.02.2021
2750 Clouds 4 1035 87 10000 1.03 0 10:19 09.02.2021
2751 Clouds 5 1035 87 10000 2.06 350 09:44 09.02.2021
2752 Clouds 5 1035 87 10000 2.06 350 09:25 09.02.2021
2753 Clouds 4 1036 87 10000 1.03 0 08:51 09.02.2021
2754 Clouds 4 1036 87 10000 1.03 0 08:27 09.02.2021
2755 Clouds 6 1035 75 10000 1.03 0 07:29 09.02.2021
2756 Clouds 7 1038 76 10000 1.54 70 04:55 09.02.2021
2757 Clouds 7 1038 76 10000 1.03 0 03:42 09.02.2021
2758 Rain 10 1035 71 10000 3.6 230 00:44 09.02.2021
2759 Rain 12 1035 54 10000 2.57 50 23:57 08.02.2021
2760 Rain 12 1035 54 10000 2.57 50 23:22 08.02.2021
2761 Clouds 12 1035 62 10000 2.57 60 22:45 08.02.2021
2762 Clouds 12 1035 62 10000 2.57 60 22:26 08.02.2021
2763 Clouds 11 1034 62 10000 3.6 70 21:57 08.02.2021
2764 Clouds 11 1034 62 10000 3.6 70 21:34 08.02.2021
2765 Clouds 12 1035 54 8000 5.14 50 20:59 08.02.2021
2766 Clouds 12 1035 54 8000 5.14 50 20:40 08.02.2021
2767 Clouds 12 1035 58 8000 2.57 300 20:21 08.02.2021
2768 Clouds 11 1035 62 8000 4.12 280 19:45 08.02.2021
2769 Clouds 12 1036 50 8000 5.14 300 19:25 08.02.2021
2770 Clouds 15 1036 47 10000 4.12 120 18:49 08.02.2021
2771 Clouds 15 1036 47 10000 4.12 120 18:24 08.02.2021
2772 Clouds 15 1038 51 10000 3.6 110 17:47 08.02.2021
2773 Clouds 15 1038 51 10000 3.6 110 17:26 08.02.2021
2774 Clouds 14 1038 58 10000 3.09 120 16:45 08.02.2021
2775 Clouds 14 1038 58 10000 3.09 120 16:21 08.02.2021
2776 Clouds 12 1038 62 10000 2.06 100 15:48 08.02.2021
2777 Clouds 12 1038 62 10000 2.06 100 15:20 08.02.2021
2778 Clouds 10 1038 71 10000 1.03 0 14:53 08.02.2021
2779 Clouds 10 1038 71 10000 1.03 0 14:32 08.02.2021
2780 Clouds 8 1038 76 6000 2.06 150 13:57 08.02.2021
2781 Clouds 8 1038 76 6000 2.06 150 13:38 08.02.2021
2782 Clouds 8 1038 76 6000 2.06 150 13:20 08.02.2021
2783 Fog 7 1037 87 4000 2.57 100 12:37 08.02.2021
2784 Fog 5 1036 93 4000 1.54 90 11:51 08.02.2021
2785 Fog 5 1036 93 4000 1.54 90 11:23 08.02.2021
2786 Fog 6 1036 93 4000 2.57 80 10:46 08.02.2021
2787 Fog 6 1036 93 4000 2.57 80 10:24 08.02.2021
2788 Fog 6 1036 93 4000 3.6 90 09:54 08.02.2021
2789 Fog 6 1036 93 4000 3.6 90 09:36 08.02.2021
2790 Clouds 6 1036 93 10000 2.06 70 08:50 08.02.2021
2791 Clouds 6 1037 87 10000 1.54 100 08:21 08.02.2021
2792 Clouds 6 1037 87 10000 1.54 100 07:35 08.02.2021
2793 Clouds 6 1037 93 10000 2.06 80 06:29 08.02.2021
2794 Clouds 10 1036 71 10000 4.12 130 02:37 08.02.2021
2795 Clouds 12 1035 58 10000 2.57 160 01:48 08.02.2021
2796 Clouds 13 1034 47 10000 4.63 120 00:21 08.02.2021
2797 Clouds 16 1033 33 10000 4.12 120 23:50 07.02.2021
2798 Clouds 16 1033 33 10000 4.12 120 23:50 07.02.2021
2799 Clouds 16 1033 33 10000 4.12 120 23:21 07.02.2021
2800 Clouds 18 1033 29 10000 5.14 140 22:45 07.02.2021
2801 Clouds 18 1033 29 10000 5.14 140 22:27 07.02.2021
2802 Clouds 18 1033 29 10000 5.66 130 21:56 07.02.2021
2803 Clouds 18 1033 29 10000 5.66 130 21:28 07.02.2021
2804 Clouds 18 1035 24 10000 4.12 160 20:59 07.02.2021
2805 Clouds 18 1035 24 10000 4.12 160 20:41 07.02.2021
2806 Clouds 18 1035 24 10000 4.12 160 20:22 07.02.2021
2807 Clouds 18 1035 24 10000 4.12 160 20:22 07.02.2021
2808 Clouds 17 1036 29 10000 4.12 100 19:39 07.02.2021
2809 Clouds 17 1036 29 10000 4.12 100 19:20 07.02.2021
2810 Clouds 16 1037 41 10000 2.57 200 18:40 07.02.2021
2811 Clouds 16 1037 41 10000 2.57 200 18:22 07.02.2021
2812 Clouds 14 1038 47 10000 2.06 210 17:44 07.02.2021
2813 Clouds 14 1038 47 10000 2.06 210 17:21 07.02.2021
2814 Clouds 14 1038 44 10000 2.06 140 16:50 07.02.2021
2815 Clouds 14 1038 44 10000 2.06 140 16:30 07.02.2021
2816 Clouds 12 1039 58 10000 2.57 130 15:59 07.02.2021
2817 Clouds 12 1039 58 10000 2.57 130 15:41 07.02.2021
2818 Clouds 12 1039 58 10000 2.57 130 15:21 07.02.2021
2819 Clouds 11 1038 58 10000 1.03 0 14:40 07.02.2021
2820 Clouds 11 1038 58 10000 1.03 0 14:22 07.02.2021
2821 Clouds 8 1038 76 10000 1.03 0 13:37 07.02.2021
2822 Clouds 8 1038 76 10000 1.03 0 13:19 07.02.2021
2823 Fog 5 1037 93 4000 2.57 90 12:39 07.02.2021
2824 Fog 5 1037 93 4000 2.57 90 12:20 07.02.2021
2825 Fog 5 1037 93 4000 2.57 90 12:20 07.02.2021
2826 Fog 4 1037 93 4000 3.6 70 11:39 07.02.2021
2827 Fog 4 1037 93 4000 3.6 70 11:18 07.02.2021
2828 Fog 4 1036 100 4000 3.6 90 10:29 07.02.2021
2829 Fog 4 1036 100 4000 3.09 80 09:51 07.02.2021
2830 Fog 4 1036 100 4000 3.09 80 09:25 07.02.2021
2831 Fog 5 1036 100 2500 4.63 80 08:48 07.02.2021
2832 Clouds 7 1017 79 10000 1.86 60 07:49 07.02.2021
2833 Fog 6 1039 93 4000 3.09 70 05:58 07.02.2021
2834 Clouds 8 1037 76 10000 3.09 90 03:59 07.02.2021
2835 Clouds 10 1035 66 10000 4.63 110 01:51 07.02.2021
2836 Clouds 12 1034 58 10000 3.6 110 00:36 07.02.2021
2837 Clouds 15 1033 44 10000 4.63 130 23:48 06.02.2021
2838 Clouds 17 1033 39 10000 5.14 120 22:50 06.02.2021
2839 Clouds 17 1034 39 10000 4.63 90 21:45 06.02.2021
2840 Clouds 17 1034 39 10000 4.63 90 21:24 06.02.2021
2841 Clouds 17 1035 39 10000 4.63 110 20:53 06.02.2021
2842 Clouds 17 1035 39 10000 4.63 110 20:26 06.02.2021
2843 Clouds 16 1036 44 10000 4.63 120 19:59 06.02.2021
2844 Clouds 16 1036 44 10000 4.63 120 19:35 06.02.2021
2845 Clouds 15 1037 47 10000 4.63 110 18:59 06.02.2021
2846 Clouds 15 1037 47 10000 4.63 110 18:41 06.02.2021
2847 Clouds 15 1037 47 10000 4.63 110 18:20 06.02.2021
2848 Clouds 14 1038 54 10000 5.14 140 17:40 06.02.2021
2849 Clouds 14 1038 54 10000 5.14 140 17:20 06.02.2021
2850 Clouds 13 1038 54 10000 2.57 120 16:42 06.02.2021
2851 Clouds 13 1038 54 10000 2.57 120 16:24 06.02.2021
2852 Clouds 13 1039 54 10000 2.57 120 15:50 06.02.2021
2853 Clouds 13 1039 54 10000 2.57 120 15:29 06.02.2021
2854 Clouds 9 1039 76 6000 1.03 0 14:49 06.02.2021
2855 Clouds 9 1039 76 6000 1.03 0 14:29 06.02.2021
2856 Fog 8 1038 87 4000 2.06 120 13:55 06.02.2021
2857 Fog 8 1038 87 4000 2.06 120 13:36 06.02.2021
2858 Fog 6 1036 100 4000 1.03 0 12:23 06.02.2021
2859 Fog 6 1036 100 4000 1.03 0 11:58 06.02.2021
2860 Fog 6 1036 100 4000 1.03 0 11:39 06.02.2021
2861 Fog 6 1036 100 4000 1.03 0 11:19 06.02.2021
2862 Fog 7 1036 93 4000 1.54 120 10:47 06.02.2021
2863 Fog 7 1036 93 4000 1.54 120 10:25 06.02.2021
2864 Fog 7 1036 93 4000 1.54 130 09:37 06.02.2021
2865 Fog 7 1036 93 4000 1.54 130 09:18 06.02.2021
2866 Fog 7 1036 93 4000 3.6 100 08:52 06.02.2021
2867 Fog 7 1036 93 4000 3.6 100 08:28 06.02.2021
2868 Rain 8 1037 93 4000 5.14 110 06:41 06.02.2021
2869 Fog 8 1038 93 4000 4.12 90 05:33 06.02.2021
2870 Clouds 10 1036 76 10000 3.09 120 02:43 06.02.2021
2871 Clouds 12 1034 62 10000 4.12 130 00:49 06.02.2021
2872 Clouds 14 1034 47 10000 3.09 90 00:21 06.02.2021
2873 Clouds 14 1034 47 10000 3.09 90 23:59 05.02.2021
2874 Clouds 14 1034 47 10000 3.09 90 23:29 05.02.2021
2875 Clouds 15 1033 47 10000 4.63 70 22:49 05.02.2021
2876 Clouds 15 1033 47 10000 4.63 70 22:24 05.02.2021
2877 Clouds 17 1034 42 10000 3.6 90 21:52 05.02.2021
2878 Clouds 17 1034 42 10000 3.6 90 21:30 05.02.2021
2879 Clouds 16 1035 51 10000 2.06 70 20:48 05.02.2021
2880 Clouds 15 1037 51 10000 4.12 80 19:57 05.02.2021
2881 Clouds 15 1037 51 10000 4.12 80 19:22 05.02.2021
2882 Clouds 14 1038 58 10000 4.12 120 18:55 05.02.2021
2883 Clouds 14 1038 58 10000 4.12 120 18:28 05.02.2021
2884 Clouds 13 1038 67 10000 4.63 120 17:56 05.02.2021
2885 Clouds 13 1038 67 10000 4.63 120 17:33 05.02.2021
2886 Clouds 12 1039 71 10000 4.12 100 16:57 05.02.2021
2887 Clouds 12 1039 71 10000 4.12 100 16:37 05.02.2021
2888 Clouds 11 1039 71 6000 3.6 120 16:19 05.02.2021
2889 Clouds 11 1039 71 6000 3.6 120 15:29 05.02.2021
2890 Clouds 9 1039 76 6000 3.09 110 14:57 05.02.2021
2891 Clouds 9 1039 76 6000 3.09 110 14:37 05.02.2021
2892 Clouds 9 1039 76 6000 3.09 110 14:18 05.02.2021
2893 Fog 7 1039 87 4000 2.57 120 13:39 05.02.2021
2894 Fog 7 1039 87 4000 2.57 120 13:18 05.02.2021
2895 Fog 6 1038 93 4000 3.6 110 12:40 05.02.2021
2896 Fog 6 1037 93 4000 2.57 70 11:58 05.02.2021
2897 Fog 6 1037 93 4000 2.57 70 11:37 05.02.2021
2898 Fog 6 1037 93 4000 2.57 70 11:18 05.02.2021
2899 Fog 6 1037 93 4000 2.06 110 10:41 05.02.2021
2900 Fog 6 1037 93 4000 2.06 110 10:21 05.02.2021
2901 Fog 7 1038 87 4000 1.03 0 09:41 05.02.2021
2902 Fog 7 1038 87 4000 1.03 0 09:21 05.02.2021
2903 Fog 7 1038 93 4000 2.57 120 08:36 05.02.2021
2904 Fog 7 1039 93 3000 3.09 110 07:39 05.02.2021
2905 Fog 7 1039 93 3000 3.6 100 06:58 05.02.2021
2906 Fog 7 1039 93 4000 3.09 80 05:40 05.02.2021
2907 Fog 8 1040 87 4000 3.6 120 04:50 05.02.2021
2908 Clouds 8 1039 93 10000 3.6 100 02:25 05.02.2021
2909 Clouds 10 1037 76 10000 2.57 110 00:41 05.02.2021
2910 Clouds 10 1037 76 10000 2.57 110 00:21 05.02.2021
2911 Clouds 11 1036 66 10000 1.03 0 23:59 04.02.2021
2912 Clouds 11 1036 66 10000 1.03 0 23:40 04.02.2021
2913 Clouds 11 1036 66 10000 1.03 0 23:21 04.02.2021
2914 Clouds 11 1037 76 10000 4.12 280 22:51 04.02.2021
2915 Clouds 11 1037 76 10000 4.12 280 22:51 04.02.2021
2916 Clouds 11 1037 76 10000 4.12 280 22:27 04.02.2021
2917 Clouds 14 1038 51 10000 2.57 90 21:42 04.02.2021
2918 Clouds 14 1038 51 10000 2.57 90 21:21 04.02.2021
2919 Clouds 12 1038 66 10000 4.12 130 20:52 04.02.2021
2920 Clouds 12 1038 66 10000 4.12 130 20:34 04.02.2021
2921 Clouds 12 1039 62 10000 4.12 70 19:45 04.02.2021
2922 Clouds 10 1039 71 10000 5.66 60 18:57 04.02.2021
2923 Clouds 8 1040 87 10000 6.69 70 18:27 04.02.2021
2924 Clouds 11 1040 71 10000 6.17 100 17:56 04.02.2021
2925 Clouds 11 1040 71 10000 6.17 100 17:37 04.02.2021
2926 Clouds 11 1040 71 10000 6.17 100 17:18 04.02.2021
2927 Clouds 13 1040 62 10000 3.6 110 16:41 04.02.2021
2928 Clouds 13 1040 62 10000 3.6 110 16:18 04.02.2021
2929 Clouds 11 1040 71 10000 4.12 120 15:40 04.02.2021
2930 Clouds 11 1040 71 10000 4.12 120 15:20 04.02.2021
2931 Clouds 11 1040 71 10000 4.12 120 15:20 04.02.2021
2932 Clouds 9 1040 81 6000 4.63 100 14:48 04.02.2021
2933 Clouds 9 1040 81 6000 4.63 100 14:21 04.02.2021
2934 Fog 7 1040 93 4000 4.12 90 13:45 04.02.2021
2935 Fog 7 1040 93 4000 4.12 90 13:26 04.02.2021
2936 Fog 6 1039 93 3000 2.06 110 12:54 04.02.2021
2937 Fog 6 1038 100 4000 2.06 110 11:57 04.02.2021
2938 Fog 6 1038 100 4000 2.06 110 11:37 04.02.2021
2939 Fog 6 1038 100 4000 2.06 110 11:18 04.02.2021
2940 Fog 6 1038 93 4000 3.09 100 10:34 04.02.2021
2941 Fog 6 1038 100 4000 2.57 90 09:45 04.02.2021
2942 Fog 6 1038 100 4000 2.57 90 09:23 04.02.2021
2943 Fog 6 1038 93 4000 1.54 50 08:51 04.02.2021
2944 Fog 6 1038 93 4000 1.54 50 08:26 04.02.2021
2945 Fog 7 1038 93 4000 1.03 0 07:56 04.02.2021
2946 Fog 7 1038 93 4000 1.03 0 07:33 04.02.2021
2947 Fog 6 1039 100 4000 1.03 0 06:45 04.02.2021
2948 Fog 7 1040 100 4000 2.06 130 05:52 04.02.2021
2949 Clouds 9 1038 81 10000 1.54 150 02:40 04.02.2021
2950 Clouds 9 1038 81 10000 1.54 150 02:21 04.02.2021
2951 Clouds 10 1036 66 10000 4.63 60 00:24 04.02.2021
2952 Clouds 12 1036 62 10000 5.66 80 23:34 03.02.2021
2953 Clouds 14 1035 58 10000 6.17 70 22:38 03.02.2021
2954 Clouds 14 1035 58 10000 6.17 70 22:20 03.02.2021
2955 Clouds 15 1035 47 10000 5.66 60 21:51 03.02.2021
2956 Clouds 15 1035 47 10000 5.66 60 21:24 03.02.2021
2957 Clouds 15 1037 67 10000 6.17 70 20:51 03.02.2021
2958 Clouds 15 1037 67 10000 6.17 70 20:31 03.02.2021
2959 Clouds 14 1038 62 10000 4.63 80 19:55 03.02.2021
2960 Clouds 14 1038 62 10000 4.63 80 19:25 03.02.2021
2961 Rain 12 1039 62 10000 2.57 90 18:58 03.02.2021
2962 Clouds 12 1039 62 10000 2.57 90 18:37 03.02.2021
2963 Rain 12 1039 62 10000 2.57 90 18:19 03.02.2021
2964 Rain 11 1040 66 10000 1.03 0 17:43 03.02.2021
2965 Rain 11 1040 66 10000 1.03 0 17:19 03.02.2021
2966 Rain 8 1040 76 10000 1.03 0 16:40 03.02.2021
2967 Rain 8 1040 76 10000 1.03 0 16:20 03.02.2021
2968 Rain 6 1040 93 8000 2.57 280 15:39 03.02.2021
2969 Rain 6 1040 93 8000 2.57 280 15:20 03.02.2021
2970 Clouds 7 1040 93 8000 2.57 270 14:44 03.02.2021
2971 Rain 7 1040 93 8000 2.57 270 14:21 03.02.2021
2972 Clouds 6 1039 93 8000 1.54 100 13:43 03.02.2021
2973 Clouds 6 1039 93 8000 1.54 100 13:43 03.02.2021
2974 Clouds 6 1039 93 8000 1.54 100 13:19 03.02.2021
2975 Rain 5 1037 93 10000 3.09 100 12:39 03.02.2021
2976 Rain 5 1037 93 10000 3.09 100 12:20 03.02.2021
2977 Rain 4 1037 93 4000 1.03 0 11:41 03.02.2021
2978 Rain 4 1037 93 4000 1.03 0 11:21 03.02.2021
2979 Rain 5 1037 93 4000 3.09 80 10:28 03.02.2021
2980 Rain 5 1037 93 4000 3.6 80 09:58 03.02.2021
2981 Rain 5 1037 93 4000 3.6 80 09:39 03.02.2021
2982 Rain 5 1037 93 4000 3.6 80 09:19 03.02.2021
2983 Rain 7 1036 87 6000 1.03 0 08:45 03.02.2021
2984 Rain 7 1036 87 4000 1.03 0 07:58 03.02.2021
2985 Fog 7 1037 100 4000 1.03 0 06:42 03.02.2021
2986 Clouds 7 1037 87 10000 2.06 210 04:56 03.02.2021
2987 Clouds 7 1037 87 10000 2.06 210 04:37 03.02.2021
2988 Clouds 7 1037 87 10000 2.06 100 03:49 03.02.2021
2989 Clouds 8 1036 81 10000 2.57 80 02:39 03.02.2021
2990 Clouds 8 1035 81 10000 1.54 70 01:24 03.02.2021
2991 Clouds 10 1035 66 8000 5.14 320 00:23 03.02.2021
2992 Clouds 10 1035 66 8000 5.14 320 23:42 02.02.2021
2993 Rain 10 1035 66 8000 5.14 320 23:23 02.02.2021
2994 Clouds 14 1034 54 10000 2.06 260 22:43 02.02.2021
2995 Clouds 14 1034 54 10000 2.06 260 22:19 02.02.2021
2996 Clouds 11 1035 66 10000 1.03 0 21:44 02.02.2021
2997 Clouds 11 1035 66 10000 1.03 0 21:44 02.02.2021
2998 Clouds 11 1035 66 10000 1.03 0 21:23 02.02.2021
2999 Clouds 10 1035 71 10000 1.03 0 20:48 02.02.2021
3000 Clouds 9 1036 76 8000 2.06 310 20:21 02.02.2021
3001 Clouds 10 1036 71 6000 4.12 40 19:50 02.02.2021
3002 Clouds 14 1035 58 10000 5.14 210 19:32 02.02.2021
3003 Clouds 9 1036 81 8000 2.06 240 18:54 02.02.2021
3004 Clouds 9 1036 81 8000 2.06 240 18:36 02.02.2021
3005 Clouds 9 1036 81 8000 2.06 240 18:18 02.02.2021
3006 Clouds 10 1037 66 5000 5.66 320 17:37 02.02.2021
3007 Clouds 14 1037 54 10000 1.03 0 17:19 02.02.2021
3008 Clouds 14 1037 54 10000 1.03 0 17:19 02.02.2021
3009 Clouds 12 1037 58 10000 2.06 270 16:43 02.02.2021
3010 Clouds 12 1037 58 10000 2.06 270 16:24 02.02.2021
3011 Clouds 13 1037 54 10000 1.03 0 15:46 02.02.2021
3012 Clouds 13 1037 54 10000 1.03 0 15:23 02.02.2021
3013 Clouds 10 1037 66 10000 1.03 0 14:50 02.02.2021
3014 Clouds 10 1037 66 10000 1.03 0 14:31 02.02.2021
3015 Clouds 9 1037 71 10000 2.06 130 13:56 02.02.2021
3016 Clouds 9 1037 71 10000 2.06 130 13:37 02.02.2021
3017 Clouds 9 1037 71 10000 2.06 130 13:19 02.02.2021
3018 Clouds 7 1036 70 10000 3.6 150 12:41 02.02.2021
3019 Rain 7 1035 70 10000 3.09 30 11:45 02.02.2021
3020 Rain 7 1035 70 10000 3.09 30 11:24 02.02.2021
3021 Rain 6 1035 81 10000 2.57 300 10:56 02.02.2021
3022 Rain 7 1035 70 10000 4.12 60 10:27 02.02.2021
3023 Rain 7 1035 70 10000 4.12 60 09:47 02.02.2021
3024 Rain 7 1035 70 10000 4.12 60 09:26 02.02.2021
3025 Rain 5 1035 87 10000 3.09 30 08:55 02.02.2021
3026 Rain 5 1035 87 10000 3.09 30 08:28 02.02.2021
3027 Clouds 5 1035 87 10000 1.54 40 07:31 02.02.2021
3028 Clouds 5 1036 87 10000 1.54 60 06:43 02.02.2021
3029 Clouds 6 1036 87 10000 1.03 0 05:53 02.02.2021
3030 Clouds 8 1037 76 10000 3.6 210 04:57 02.02.2021
3031 Rain 10 1035 76 10000 3.09 110 02:26 02.02.2021
3032 Rain 10 1035 76 10000 3.09 110 01:55 02.02.2021
3033 Rain 11 1034 71 10000 3.6 110 00:34 02.02.2021
3034 Rain 12 1034 62 10000 3.6 140 23:20 01.02.2021
3035 Rain 12 1033 62 10000 3.6 130 22:50 01.02.2021
3036 Rain 12 1033 62 10000 3.6 130 22:50 01.02.2021
3037 Rain 12 1033 62 10000 3.6 130 22:32 01.02.2021
3038 Rain 13 1034 50 10000 4.63 140 21:49 01.02.2021
3039 Rain 13 1034 50 10000 4.63 140 21:30 01.02.2021
3040 Rain 13 1034 50 10000 4.63 140 21:30 01.02.2021
3041 Rain 13 1034 50 10000 3.09 140 20:47 01.02.2021
3042 Rain 13 1034 50 10000 3.09 140 20:25 01.02.2021
3043 Rain 14 1034 51 10000 4.63 120 19:59 01.02.2021
3044 Rain 14 1034 51 10000 4.63 120 19:59 01.02.2021
3045 Rain 14 1034 51 10000 4.63 120 19:37 01.02.2021
3046 Rain 14 1034 51 10000 4.63 120 19:18 01.02.2021
3047 Clouds 16 1035 48 10000 3.09 80 18:43 01.02.2021
3048 Clouds 16 1035 48 10000 3.09 80 18:25 01.02.2021
3049 Clouds 14 1037 47 10000 2.06 280 17:46 01.02.2021
3050 Clouds 14 1037 47 10000 2.06 280 17:22 01.02.2021
3051 Clouds 13 1037 50 10000 1.54 20 16:42 01.02.2021
3052 Clouds 13 1037 50 10000 1.54 20 16:23 01.02.2021
3053 Clouds 12 1037 58 10000 2.06 290 15:42 01.02.2021
3054 Clouds 12 1037 58 10000 2.06 290 15:19 01.02.2021
3055 Clouds 11 1037 62 10000 3.09 290 14:51 01.02.2021
3056 Clouds 11 1037 62 10000 3.09 290 14:24 01.02.2021
3057 Clouds 11 1037 62 10000 3.09 290 14:24 01.02.2021
3058 Clouds 10 1037 66 10000 2.06 320 13:45 01.02.2021
3059 Clouds 10 1037 66 10000 2.06 320 13:26 01.02.2021
3060 Clouds 7 1036 81 10000 1.03 0 12:44 01.02.2021
3061 Clouds 7 1036 81 10000 1.03 0 12:25 01.02.2021
3062 Clouds 6 1035 81 10000 1.54 350 11:43 01.02.2021
3063 Clouds 6 1035 81 10000 1.54 350 11:21 01.02.2021
3064 Clouds 5 1035 87 10000 2.06 360 10:47 01.02.2021
3065 Clouds 5 1035 87 10000 2.06 360 10:21 01.02.2021
3066 Fog 5 1035 93 4000 1.03 0 09:51 01.02.2021
3067 Fog 5 1035 93 4000 1.03 0 09:25 01.02.2021
3068 Clouds 5 1035 93 10000 2.06 280 08:56 01.02.2021
3069 Clouds 5 1035 93 10000 2.06 280 08:24 01.02.2021
3070 Clouds 7 1036 76 10000 2.06 10 06:58 01.02.2021
3071 Rain 9 1038 66 10000 1.03 0 04:32 01.02.2021
3072 Clouds 9 1036 87 10000 2.57 110 02:38 01.02.2021
3073 Clouds 11 1034 71 10000 4.12 130 23:52 31.01.2021
3074 Rain 11 1034 62 10000 4.12 150 22:56 31.01.2021
3075 Rain 11 1034 62 10000 4.12 150 22:37 31.01.2021
3076 Rain 11 1034 62 10000 4.12 150 22:37 31.01.2021
3077 Rain 11 1034 62 10000 4.12 150 22:18 31.01.2021
3078 Rain 11 1035 71 10000 2.57 100 21:42 31.01.2021
3079 Rain 10 1035 76 10000 2.57 60 21:19 31.01.2021
3080 Rain 15 1008 50 10000 2.4 72 20:42 31.01.2021
3081 Rain 16 1009 48 8138 2.49 72 20:20 31.01.2021
3082 Rain 16 1009 48 8138 2.49 72 19:38 31.01.2021
3083 Rain 15 1010 52 7524 1.9 60 19:19 31.01.2021
3084 Rain 15 1010 52 7524 1.9 60 18:44 31.01.2021
3085 Rain 15 1012 53 7883 1.84 62 18:24 31.01.2021
3086 Clouds 15 1012 53 7883 1.84 62 17:50 31.01.2021
3087 Clouds 15 1013 52 5568 1.36 76 17:24 31.01.2021
3088 Clouds 15 1013 52 5568 1.36 76 16:59 31.01.2021
3089 Clouds 15 1013 52 5568 1.36 76 16:39 31.01.2021
3090 Clear 14 1014 50 8984 1.28 112 16:19 31.01.2021
3091 Clear 14 1014 50 8984 1.28 112 15:48 31.01.2021
3092 Clear 13 1015 51 10000 1.19 131 14:55 31.01.2021
3093 Clear 12 1016 54 10000 0.79 155 14:28 31.01.2021
3094 Clear 12 1016 54 10000 0.79 155 13:59 31.01.2021
3095 Clear 12 1016 54 10000 0.79 155 13:38 31.01.2021
3096 Clouds 10 1016 58 10000 0.59 81 12:57 31.01.2021
3097 Clouds 10 1016 59 10000 0.96 83 12:38 31.01.2021
3098 Clouds 8 1016 70 10000 1.08 66 12:20 31.01.2021
3099 Clouds 8 1016 70 10000 1.08 66 11:38 31.01.2021
3100 Clouds 7 1015 73 10000 0.83 78 11:19 31.01.2021
3101 Clouds 7 1015 73 10000 0.83 78 10:44 31.01.2021
3102 Clouds 7 1014 72 10000 0.75 68 10:25 31.01.2021
3103 Clouds 7 1014 72 10000 0.75 68 09:34 31.01.2021
3104 Clouds 8 1014 71 10000 0.98 55 08:34 31.01.2021
3105 Clouds 8 1014 69 10000 1.13 71 07:50 31.01.2021
3106 Clouds 9 1015 68 10000 1.72 9 06:25 31.01.2021
3107 Clouds 10 1013 71 10000 3.85 43 01:55 31.01.2021
3108 Clouds 12 1010 64 8829 3.59 54 00:28 31.01.2021
3109 Clouds 12 1010 64 8829 3.59 54 23:42 30.01.2021
3110 Clouds 14 1008 52 10000 3.93 55 23:20 30.01.2021
3111 Clouds 14 1008 52 10000 3.93 55 22:37 30.01.2021
3112 Clouds 14 1008 52 10000 3.93 55 22:37 30.01.2021
3113 Clouds 16 1007 44 10000 3.43 65 21:43 30.01.2021
3114 Clouds 16 1008 43 10000 2.67 73 21:23 30.01.2021
3115 Clouds 16 1008 43 10000 2.67 73 20:54 30.01.2021
3116 Clouds 16 1008 43 10000 2.67 73 20:34 30.01.2021
3117 Clouds 16 1008 43 10000 2.15 82 19:58 30.01.2021
3118 Clouds 16 1008 43 10000 2.15 82 19:39 30.01.2021
3119 Clouds 15 1009 44 10000 1.61 93 19:19 30.01.2021
3120 Clouds 16 1009 42 10000 1.05 96 18:40 30.01.2021
3121 Clouds 16 1009 42 10000 1.05 96 18:40 30.01.2021
3122 Clouds 15 1011 43 10000 0.63 135 18:19 30.01.2021
3123 Clouds 15 1011 43 10000 0.63 135 17:37 30.01.2021
3124 Clouds 15 1012 43 10000 0.76 178 17:18 30.01.2021
3125 Clouds 15 1012 43 10000 0.76 178 16:37 30.01.2021
3126 Clouds 14 1014 44 10000 0.62 172 16:19 30.01.2021
3127 Clouds 14 1014 44 10000 0.62 172 15:44 30.01.2021
3128 Clouds 13 1015 46 10000 0.86 152 15:22 30.01.2021
3129 Clouds 13 1015 46 10000 0.86 152 14:52 30.01.2021
3130 Clouds 11 1016 49 10000 1.19 156 14:24 30.01.2021
3131 Clouds 11 1016 49 10000 1.19 156 13:42 30.01.2021
3132 Fog 3 1035 93 4000 3.09 80 13:20 30.01.2021
3133 Clouds 9 1016 53 10000 0.85 107 12:42 30.01.2021
3134 Fog 1 1034 93 4000 2.57 90 12:21 30.01.2021
3135 Fog 1 1034 93 4000 2.57 90 11:40 30.01.2021
3136 Fog 3 1034 93 4000 3.09 90 10:54 30.01.2021
3137 Clouds 6 1014 64 10000 0.54 47 09:54 30.01.2021
3138 Clouds 3 1034 87 10000 2.06 110 09:31 30.01.2021
3139 Clouds 3 1034 87 10000 2.06 110 08:56 30.01.2021
3140 Clouds 3 1034 87 10000 2.06 110 08:56 30.01.2021
3141 Clouds 3 1034 87 10000 2.06 110 08:36 30.01.2021
3142 Clouds 3 1034 81 10000 2.57 50 07:23 30.01.2021
3143 Clouds 3 1035 87 10000 2.06 50 06:19 30.01.2021
3144 Clouds 6 1034 87 10000 2.06 90 03:35 30.01.2021
3145 Clouds 7 1032 61 10000 3.09 70 02:26 30.01.2021
3146 Clouds 10 1032 37 10000 2.57 20 01:35 30.01.2021
3147 Clouds 11 1032 28 10000 4.12 310 00:47 30.01.2021
3148 Clouds 11 1032 28 10000 4.12 310 00:21 30.01.2021
3149 Clouds 12 1008 45 10000 0.82 33 23:49 29.01.2021
3150 Clouds 14 1031 23 10000 5.14 270 23:24 29.01.2021
3151 Clouds 14 1031 23 10000 5.14 270 22:45 29.01.2021
3152 Clouds 16 1006 33 10000 3.1 295 22:20 29.01.2021
3153 Clouds 16 1006 33 10000 3.1 295 21:37 29.01.2021
3154 Clouds 16 1007 32 10000 3.33 290 21:19 29.01.2021
3155 Clouds 16 1007 32 10000 3.33 290 20:41 29.01.2021
3156 Clouds 17 1033 20 10000 4.63 280 20:21 29.01.2021
3157 Clouds 17 1033 20 10000 4.63 280 19:38 29.01.2021
3158 Clouds 15 1034 25 10000 3.6 260 19:19 29.01.2021
3159 Clouds 15 1034 25 10000 3.6 260 19:19 29.01.2021
3160 Clouds 14 1034 26 10000 2.57 230 18:42 29.01.2021
3161 Clouds 14 1034 26 10000 2.57 230 17:45 29.01.2021
3162 Clouds 14 1012 36 10000 1.93 224 17:22 29.01.2021
3163 Clouds 14 1012 36 10000 1.93 224 16:46 29.01.2021
3164 Clouds 13 1013 37 10000 1.76 233 16:24 29.01.2021
3165 Clouds 13 1013 37 10000 1.76 233 15:51 29.01.2021
3166 Clouds 13 1013 37 10000 1.76 233 15:31 29.01.2021
3167 Clear 12 1015 39 10000 1.58 239 14:48 29.01.2021
3168 Clear 10 1015 42 10000 1.37 248 14:18 29.01.2021
3169 Clear 10 1015 42 10000 1.37 248 13:41 29.01.2021
3170 Fog 6 1033 87 3000 1.03 0 13:22 29.01.2021
3171 Fog 5 1032 93 4000 1.54 260 12:28 29.01.2021
3172 Clouds 7 1015 57 10000 1.09 290 11:50 29.01.2021
3173 Fog 5 1032 93 4000 0.98 300 11:20 29.01.2021
3174 Fog 5 1032 93 4000 0.98 300 10:51 29.01.2021
3175 Fog 5 1032 93 4000 0.98 300 10:31 29.01.2021
3176 Clear 5 1014 63 10000 0.84 293 09:49 29.01.2021
3177 Fog 5 1032 100 4000 1.54 100 08:59 29.01.2021
3178 Fog 5 1032 100 4000 1.54 100 08:38 29.01.2021
3179 Fog 8 1033 87 4000 2.06 130 08:19 29.01.2021
3180 Fog 8 1033 87 4000 2.06 130 07:41 29.01.2021
3181 Fog 8 1033 87 4000 2.06 130 07:20 29.01.2021
3182 Clouds 9 1034 61 10000 2.57 210 05:23 29.01.2021
3183 Clouds 9 1034 76 10000 2.57 60 03:50 29.01.2021
3184 Clouds 10 1011 70 9076 3.71 190 00:43 29.01.2021
3185 Clouds 12 1008 50 9612 1.89 105 00:22 29.01.2021
3186 Clouds 12 1008 50 9612 1.89 105 23:44 28.01.2021
3187 Clouds 16 1006 33 10000 1.8 330 23:25 28.01.2021
3188 Clouds 16 1006 33 10000 1.8 330 22:47 28.01.2021
3189 Clouds 17 1005 31 10000 3.83 302 22:27 28.01.2021
3190 Clouds 17 1005 31 10000 3.83 302 21:57 28.01.2021
3191 Clouds 17 1005 31 10000 3.83 302 21:34 28.01.2021
3192 Clouds 17 1006 30 10000 4.4 290 20:59 28.01.2021
3193 Clouds 17 1006 31 10000 4.45 290 20:39 28.01.2021
3194 Clouds 17 1006 32 10000 4.51 285 20:18 28.01.2021
3195 Clouds 17 1006 32 10000 4.51 285 19:41 28.01.2021
3196 Clouds 16 1008 35 10000 3.71 281 19:23 28.01.2021
3197 Clouds 16 1008 35 10000 3.71 281 18:43 28.01.2021
3198 Clouds 16 1010 39 10000 3.03 269 18:20 28.01.2021
3199 Clouds 16 1010 39 10000 3.03 269 17:46 28.01.2021
3200 Clouds 15 1011 42 10000 2.39 265 17:27 28.01.2021
3201 Clouds 15 1011 42 10000 2.39 265 16:45 28.01.2021
3202 Clouds 14 1012 44 10000 1.74 255 16:24 28.01.2021
3203 Clouds 14 1012 44 10000 1.74 255 15:44 28.01.2021
3204 Clouds 12 1014 48 10000 1.3 238 15:19 28.01.2021
3205 Clouds 12 1014 48 10000 1.3 238 14:42 28.01.2021
3206 Clouds 11 1014 53 10000 0.57 262 14:23 28.01.2021
3207 Clouds 11 1014 53 10000 0.57 262 13:48 28.01.2021
3208 Fog 3 1033 93 4000 1.54 70 12:59 28.01.2021
3209 Fog 3 1033 93 4000 1.54 70 12:40 28.01.2021
3210 Fog 3 1033 93 4000 1.54 70 12:21 28.01.2021
3211 Clouds 7 1015 71 10000 0.42 351 11:43 28.01.2021
3212 Clouds 5 1014 77 10000 0.36 53 11:20 28.01.2021
3213 Clouds 5 1014 77 10000 0.36 53 10:54 28.01.2021
3214 Clouds 5 1014 77 10000 0.36 53 10:34 28.01.2021
3215 Clouds 6 1014 80 10000 0.24 84 09:50 28.01.2021
3216 Clouds 6 1014 79 10000 0.62 124 09:25 28.01.2021
3217 Clouds 6 1014 79 10000 0.62 124 08:56 28.01.2021
3218 Fog 6 1034 93 4000 1.54 80 08:38 28.01.2021
3219 Fog 6 1034 93 4000 1.54 80 07:45 28.01.2021
3220 Clouds 6 1034 93 10000 1.22 134 06:50 28.01.2021
3221 Clouds 7 1035 93 10000 2.57 60 06:29 28.01.2021
3222 Clouds 9 1034 71 10000 3.6 70 04:28 28.01.2021
3223 Clouds 13 1032 24 10000 3.6 360 01:39 28.01.2021
3224 Clouds 15 1032 25 10000 4.63 300 23:48 27.01.2021
3225 Clouds 15 1032 25 10000 4.63 300 23:24 27.01.2021
3226 Clouds 16 1032 25 10000 4.12 290 22:42 27.01.2021
3227 Clouds 16 1032 25 10000 4.12 290 22:22 27.01.2021
3228 Clouds 17 1032 25 10000 4.63 280 21:43 27.01.2021
3229 Clouds 17 1032 25 10000 4.63 280 21:23 27.01.2021
3230 Clouds 17 1032 25 10000 4.63 280 21:23 27.01.2021
3231 Clouds 17 1033 27 10000 4.12 260 20:52 27.01.2021
3232 Clouds 17 1033 27 10000 4.12 260 20:24 27.01.2021
3233 Clouds 16 1034 25 10000 3.09 330 19:50 27.01.2021
3234 Clouds 16 1034 25 10000 3.09 330 19:23 27.01.2021
3235 Clouds 16 1035 27 10000 4.12 280 18:46 27.01.2021
3236 Clouds 16 1035 27 10000 4.12 280 18:24 27.01.2021
3237 Clouds 14 1036 30 10000 4.12 260 17:55 27.01.2021
3238 Clouds 14 1036 30 10000 4.12 260 17:35 27.01.2021
3239 Clouds 13 1036 33 10000 3.09 240 16:57 27.01.2021
3240 Clouds 13 1036 33 10000 3.09 240 16:39 27.01.2021
3241 Clouds 13 1036 33 10000 3.09 240 16:21 27.01.2021
3242 Clear 14 1014 38 10000 1.7 200 15:49 27.01.2021
3243 Clear 14 1014 38 10000 1.7 200 15:49 27.01.2021
3244 Clear 11 1036 32 10000 2.06 240 15:29 27.01.2021
3245 Clear 11 1036 32 10000 2.06 240 14:24 27.01.2021
3246 Clear 7 1036 36 10000 2.06 320 13:53 27.01.2021
3247 Clear 7 1036 36 10000 2.06 320 13:35 27.01.2021
3248 Clouds 9 1017 51 10000 0.78 219 12:42 27.01.2021
3249 Clouds 3 1035 44 10000 3.6 320 12:23 27.01.2021
3250 Clouds 3 1035 44 10000 3.6 320 11:47 27.01.2021
3251 Clouds 3 1035 44 10000 3.6 320 11:23 27.01.2021
3252 Clouds 3 1034 60 10000 3.09 350 10:42 27.01.2021
3253 Clouds 3 1034 60 10000 3.09 350 10:21 27.01.2021
3254 Clouds 4 1035 52 10000 2.57 340 09:51 27.01.2021
3255 Clear 4 1035 52 10000 2.57 340 09:27 27.01.2021
3256 Clear 3 1035 52 10000 2.06 270 08:40 27.01.2021
3257 Clear 5 1036 45 10000 1.03 0 07:46 27.01.2021
3258 Clouds 5 1036 45 10000 1.03 0 07:21 27.01.2021
3259 Clouds 5 1036 48 10000 1.03 0 06:23 27.01.2021
3260 Clouds 6 1037 42 10000 2.06 190 05:48 27.01.2021
3261 Clouds 7 1036 45 10000 2.06 250 04:37 27.01.2021
3262 Clouds 10 1035 40 10000 6.17 250 02:24 27.01.2021
3263 Clouds 10 1033 66 10000 2.57 330 01:52 27.01.2021
3264 Clouds 12 1033 54 10000 3.09 310 00:48 27.01.2021
3265 Clouds 13 1032 47 10000 3.6 270 23:50 26.01.2021
3266 Clouds 14 1031 44 10000 4.63 300 23:32 26.01.2021
3267 Clouds 15 1032 41 10000 4.63 310 22:51 26.01.2021
3268 Clouds 15 1032 41 10000 4.63 310 22:33 26.01.2021
3269 Clouds 14 1032 38 10000 3.6 260 21:55 26.01.2021
3270 Clouds 14 1032 38 10000 3.6 260 21:35 26.01.2021
3271 Clouds 15 1033 38 10000 6.69 280 20:59 26.01.2021
3272 Clouds 15 1033 38 10000 6.69 280 20:40 26.01.2021
3273 Clouds 15 1033 38 10000 6.69 280 20:21 26.01.2021
3274 Clouds 15 1034 44 10000 5.14 280 19:46 26.01.2021
3275 Clouds 15 1034 44 10000 5.14 280 19:24 26.01.2021
3276 Clouds 15 1035 38 10000 3.6 270 18:48 26.01.2021
3277 Clouds 15 1035 38 10000 3.6 270 18:27 26.01.2021
3278 Clouds 13 1036 47 10000 3.09 230 17:55 26.01.2021
3279 Clouds 13 1036 47 10000 3.09 230 17:37 26.01.2021
3280 Clouds 12 1011 54 10000 2.06 230 16:56 26.01.2021
3281 Clouds 12 1011 54 10000 2.06 230 16:37 26.01.2021
3282 Clouds 12 1011 54 10000 2.06 230 16:19 26.01.2021
3283 Clouds 11 1037 58 10000 2.06 240 15:44 26.01.2021
3284 Clouds 11 1037 58 10000 2.06 240 15:24 26.01.2021
3285 Clouds 10 1036 53 10000 1.03 0 14:45 26.01.2021
3286 Clouds 10 1036 53 10000 1.03 0 14:25 26.01.2021
3287 Clouds 7 1036 70 10000 1.03 0 13:34 26.01.2021
3288 Clouds 6 1035 81 10000 2.06 180 12:59 26.01.2021
3289 Clouds 6 1035 81 10000 2.06 180 12:40 26.01.2021
3290 Clouds 6 1035 81 10000 2.06 180 12:19 26.01.2021
3291 Clouds 6 1034 81 10000 1.54 190 11:50 26.01.2021
3292 Clouds 6 1034 81 10000 1.54 190 11:19 26.01.2021
3293 Clouds 7 1034 87 10000 1.03 0 10:42 26.01.2021
3294 Clouds 7 1034 87 10000 1.03 0 10:21 26.01.2021
3295 Clouds 7 1034 87 10000 0.62 330 09:40 26.01.2021
3296 Clouds 7 1034 87 10000 0.77 31 09:21 26.01.2021
3297 Clouds 7 1034 87 10000 1.03 0 08:48 26.01.2021
3298 Clouds 7 1034 87 10000 3.09 10 07:57 26.01.2021
3299 Clouds 7 1034 87 10000 3.09 10 07:19 26.01.2021
3300 Clouds 6 1036 93 8000 1.03 0 05:52 26.01.2021
3301 Clouds 6 1036 93 8000 1.03 0 05:33 26.01.2021
3302 Rain 6 1035 93 10000 5.66 120 03:32 26.01.2021
3303 Rain 8 1033 87 4000 5.14 90 01:19 26.01.2021
3304 Clouds 8 1033 87 8000 5.14 110 00:26 26.01.2021
3305 Clouds 11 1032 76 10000 5.14 90 23:33 25.01.2021
3306 Clouds 12 1032 66 10000 5.14 100 22:50 25.01.2021
3307 Clouds 12 1032 66 10000 5.14 100 22:29 25.01.2021
3308 Clouds 14 1032 58 10000 3.6 300 21:46 25.01.2021
3309 Clouds 14 1032 58 10000 3.6 300 21:19 25.01.2021
3310 Clouds 14 1033 58 10000 4.12 320 20:43 25.01.2021
3311 Clouds 14 1033 58 10000 4.12 320 20:23 25.01.2021
3312 Clouds 10 1034 71 10000 4.12 290 19:48 25.01.2021
3313 Clouds 10 1034 71 10000 4.12 290 19:23 25.01.2021
3314 Clouds 7 1036 93 8000 4.12 40 18:46 25.01.2021
3315 Clouds 7 1036 93 8000 4.12 40 18:24 25.01.2021
3316 Rain 7 1036 87 4000 5.14 40 17:49 25.01.2021
3317 Mist 7 1036 87 4000 5.14 40 17:25 25.01.2021
3318 Clouds 9 1036 81 8000 5.14 250 16:50 25.01.2021
3319 Clouds 9 1036 81 8000 5.14 250 16:50 25.01.2021
3320 Clouds 9 1036 81 8000 5.14 250 16:26 25.01.2021
3321 Clouds 11 1036 71 6000 1.03 0 15:57 25.01.2021
3322 Clouds 11 1036 71 6000 1.03 0 15:39 25.01.2021
3323 Clouds 11 1036 71 6000 1.03 0 15:19 25.01.2021
3324 Clouds 9 1036 81 6000 1.03 0 14:39 25.01.2021
3325 Clouds 9 1036 81 6000 1.03 0 14:18 25.01.2021
3326 Fog 6 1036 93 4000 1.51 308 13:44 25.01.2021
3327 Fog 6 1036 93 4000 1.95 329 13:21 25.01.2021
3328 Fog 5 1035 93 4000 1.03 0 12:44 25.01.2021
3329 Fog 5 1035 93 4000 1.03 0 12:19 25.01.2021
3330 Clouds 5 1034 93 10000 1.54 260 11:29 25.01.2021
3331 Rain 5 1034 93 10000 2.57 300 10:52 25.01.2021
3332 Clouds 5 1034 93 10000 2.57 300 10:22 25.01.2021
3333 Clouds 6 1034 93 10000 3.09 300 09:53 25.01.2021
3334 Rain 6 1034 93 10000 3.09 300 09:30 25.01.2021
3335 Fog 5 1035 100 4000 1.03 0 08:38 25.01.2021
3336 Fog 5 1035 100 4000 1.03 0 07:58 25.01.2021
3337 Fog 5 1035 100 4000 1.03 0 07:29 25.01.2021
3338 Fog 5 1035 100 4000 3.09 200 06:38 25.01.2021
3339 Clouds 8 1035 93 10000 4.12 110 02:32 25.01.2021
3340 Clouds 9 1033 81 10000 2.06 260 00:42 25.01.2021
3341 Clouds 10 1033 71 10000 3.09 70 23:38 24.01.2021
3342 Clouds 10 1033 71 10000 3.09 70 23:18 24.01.2021
3343 Clouds 12 1033 62 10000 3.09 150 22:40 24.01.2021
3344 Clouds 12 1033 62 10000 3.09 150 22:40 24.01.2021
3345 Clouds 12 1033 62 10000 3.09 150 22:18 24.01.2021
3346 Rain 9 1034 76 10000 2.06 250 21:31 24.01.2021
3347 Rain 8 1035 81 10000 2.57 250 20:49 24.01.2021
3348 Rain 8 1035 81 10000 2.57 250 20:24 24.01.2021
3349 Rain 8 1035 87 8000 4.63 270 19:58 24.01.2021
3350 Rain 8 1035 87 8000 4.63 270 19:39 24.01.2021
3351 Clouds 8 1035 87 8000 4.63 270 19:19 24.01.2021
3352 Rain 7 1036 93 7000 6.69 280 18:54 24.01.2021
3353 Clouds 8 1036 87 4000 3.6 300 18:36 24.01.2021
3354 Clouds 11 1036 66 8000 4.12 120 18:18 24.01.2021
3355 Clouds 11 1036 76 10000 4.63 110 17:42 24.01.2021
3356 Clouds 11 1036 76 10000 4.63 110 17:18 24.01.2021
3357 Clouds 10 1037 66 10000 2.06 120 16:41 24.01.2021
3358 Clouds 10 1037 66 10000 2.06 120 16:21 24.01.2021
3359 Clouds 10 1037 66 10000 2.57 80 15:46 24.01.2021
3360 Clouds 10 1037 66 10000 2.57 80 15:21 24.01.2021
3361 Clouds 10 1037 66 10000 2.57 90 14:57 24.01.2021
3362 Clouds 10 1037 66 10000 2.57 90 14:32 24.01.2021
3363 Clouds 7 1036 81 6000 2.06 80 13:36 24.01.2021
3364 Fog 6 1036 87 4000 1.54 80 12:55 24.01.2021
3365 Fog 6 1036 87 4000 1.54 80 12:36 24.01.2021
3366 Fog 6 1036 87 4000 1.54 80 12:18 24.01.2021
3367 Fog 6 1035 87 4000 2.57 110 11:43 24.01.2021
3368 Fog 6 1035 87 4000 2.57 110 11:22 24.01.2021
3369 Fog 5 1035 93 4000 3.09 110 10:36 24.01.2021
3370 Fog 5 1035 93 4000 2.57 130 09:50 24.01.2021
3371 Fog 5 1035 93 4000 2.57 130 09:22 24.01.2021
3372 Fog 5 1035 93 4000 2.57 110 08:51 24.01.2021
3373 Fog 7 1037 87 4000 3.6 100 05:18 24.01.2021
3374 Clouds 7 1036 76 10000 4.63 70 02:21 24.01.2021
3375 Clouds 9 1034 71 10000 5.14 90 00:58 24.01.2021
3376 Clouds 9 1034 71 10000 5.14 90 00:22 24.01.2021
3377 Clouds 12 1034 58 10000 5.66 100 23:42 23.01.2021
3378 Clouds 12 1034 58 10000 5.66 100 23:22 23.01.2021
3379 Clouds 13 1034 54 10000 5.14 100 22:41 23.01.2021
3380 Clouds 13 1034 54 10000 5.14 100 22:20 23.01.2021
3381 Clouds 11 1035 66 10000 6.69 90 21:24 23.01.2021
3382 Clouds 12 1036 58 10000 4.63 110 20:58 23.01.2021
3383 Clouds 12 1036 58 10000 4.63 110 20:38 23.01.2021
3384 Clouds 12 1036 58 10000 4.63 110 20:38 23.01.2021
3385 Clouds 12 1036 58 10000 4.63 110 20:20 23.01.2021
3386 Clouds 14 1037 51 10000 3.6 120 19:43 23.01.2021
3387 Clouds 11 1037 62 10000 3.6 90 19:20 23.01.2021
3388 Clouds 11 1037 62 10000 3.6 90 18:43 23.01.2021
3389 Clouds 11 1037 62 10000 3.6 90 18:23 23.01.2021
3390 Clouds 12 1038 50 10000 3.6 140 17:43 23.01.2021
3391 Clouds 12 1038 50 10000 3.6 140 17:24 23.01.2021
3392 Clouds 11 1039 58 10000 4.12 110 16:45 23.01.2021
3393 Clouds 8 1039 71 10000 3.6 90 15:57 23.01.2021
3394 Clouds 8 1039 71 10000 3.6 90 15:30 23.01.2021
3395 Clouds 7 1039 70 10000 4.12 90 14:46 23.01.2021
3396 Clouds 7 1039 70 10000 4.12 90 14:25 23.01.2021
3397 Clouds 5 1038 81 6000 1.03 0 13:49 23.01.2021
3398 Clouds 5 1038 81 6000 1.03 0 13:24 23.01.2021
3399 Fog 3 1038 93 4000 1.03 0 12:45 23.01.2021
3400 Fog 3 1038 93 4000 1.03 0 12:25 23.01.2021
3401 Fog 3 1037 93 4000 1.03 0 11:42 23.01.2021
3402 Fog 3 1037 93 4000 1.03 0 10:59 23.01.2021
3403 Fog 3 1037 93 4000 1.03 0 10:26 23.01.2021
3404 Fog 3 1037 100 3000 1.03 0 09:53 23.01.2021
3405 Fog 3 1037 100 3000 1.03 0 09:28 23.01.2021
3406 Fog 3 1037 100 4000 2.06 50 08:43 23.01.2021
3407 Fog 3 1037 100 4000 3.09 80 07:49 23.01.2021
3408 Fog 4 1038 93 4000 2.57 110 06:55 23.01.2021
3409 Clouds 7 1038 76 10000 3.6 70 03:24 23.01.2021
3410 Clouds 9 1035 61 10000 5.66 110 00:33 23.01.2021
3411 Clouds 12 1034 50 10000 5.66 90 23:36 22.01.2021
3412 Clouds 13 1034 50 10000 6.69 110 22:45 22.01.2021
3413 Clouds 13 1034 50 10000 6.69 110 22:21 22.01.2021
3414 Clouds 13 1035 47 10000 5.14 90 21:42 22.01.2021
3415 Clouds 13 1035 47 10000 5.14 90 21:23 22.01.2021
3416 Clouds 12 1036 54 10000 4.63 80 20:46 22.01.2021
3417 Clouds 12 1036 54 10000 4.63 80 20:26 22.01.2021
3418 Clouds 12 1036 50 10000 6.69 90 19:47 22.01.2021
3419 Clouds 12 1036 50 10000 6.69 90 19:19 22.01.2021
3420 Clouds 13 1037 50 10000 6.69 110 18:45 22.01.2021
3421 Clouds 13 1037 50 10000 6.69 110 18:26 22.01.2021
3422 Clouds 12 1038 50 10000 6.17 90 17:48 22.01.2021
3423 Clouds 12 1038 50 10000 6.17 90 17:30 22.01.2021
3424 Clouds 11 1038 58 10000 6.17 70 16:54 22.01.2021
3425 Clouds 11 1038 58 10000 6.17 70 16:30 22.01.2021
3426 Clouds 11 1038 62 10000 5.14 70 15:45 22.01.2021
3427 Clouds 11 1038 62 10000 5.14 70 15:20 22.01.2021
3428 Clouds 9 1038 66 6000 5.66 60 14:32 22.01.2021
3429 Fog 7 1037 93 4000 4.63 70 13:53 22.01.2021
3430 Fog 7 1037 93 4000 4.63 70 13:35 22.01.2021
3431 Clouds 6 1037 75 6000 4.63 50 12:55 22.01.2021
3432 Clouds 6 1037 75 6000 4.63 50 12:26 22.01.2021
3433 Clouds 5 1036 70 6000 3.6 30 11:48 22.01.2021
3434 Clouds 5 1036 70 6000 3.6 30 11:30 22.01.2021
3435 Fog 4 1035 93 4000 3.09 70 10:46 22.01.2021
3436 Fog 4 1035 93 4000 3.09 70 10:22 22.01.2021
3437 Fog 5 1035 93 4000 1.03 0 09:39 22.01.2021
3438 Fog 5 1035 100 4000 1.54 120 08:51 22.01.2021
3439 Fog 5 1035 100 4000 1.54 120 08:30 22.01.2021
3440 Fog 5 1036 93 4000 1.03 0 07:38 22.01.2021
3441 Clouds 7 1036 87 10000 3.6 90 03:40 22.01.2021
3442 Clouds 8 1034 87 10000 4.63 110 00:41 22.01.2021
3443 Clouds 10 1034 76 10000 3.6 120 23:56 21.01.2021
3444 Clouds 10 1034 76 10000 3.6 120 23:38 21.01.2021
3445 Clouds 10 1034 71 10000 2.06 120 22:54 21.01.2021
3446 Clouds 10 1034 71 10000 2.06 120 22:36 21.01.2021
3447 Clouds 8 1034 81 10000 1.54 350 21:44 21.01.2021
3448 Clouds 8 1034 81 10000 1.54 350 21:44 21.01.2021
3449 Clouds 8 1034 81 10000 1.54 350 21:22 21.01.2021
3450 Clouds 9 1035 87 6000 1.03 0 20:51 21.01.2021
3451 Clouds 9 1035 87 6000 1.03 0 20:31 21.01.2021
3452 Clouds 7 1036 87 8000 2.57 240 19:56 21.01.2021
3453 Clouds 7 1036 87 8000 2.57 240 19:38 21.01.2021
3454 Rain 7 1036 87 8000 2.57 240 19:19 21.01.2021
3455 Clouds 7 1036 87 8000 3.09 50 18:40 21.01.2021
3456 Rain 7 1036 87 8000 3.09 50 18:20 21.01.2021
3457 Clouds 9 1037 76 8000 2.06 80 17:53 21.01.2021
3458 Clouds 9 1037 76 8000 2.06 80 17:21 21.01.2021
3459 Clouds 10 1037 71 10000 1.03 0 16:49 21.01.2021
3460 Clouds 10 1037 71 10000 1.03 0 16:27 21.01.2021
3461 Clouds 9 1037 76 10000 1.03 0 15:59 21.01.2021
3462 Clouds 9 1037 76 10000 1.03 0 15:34 21.01.2021
3463 Clouds 9 1037 76 10000 2.06 240 14:53 21.01.2021
3464 Clouds 9 1037 76 10000 2.06 240 14:35 21.01.2021
3465 Clouds 9 1037 76 6000 1.03 0 13:51 21.01.2021
3466 Clouds 9 1037 76 6000 1.03 0 13:32 21.01.2021
3467 Clouds 4 1036 100 6000 1.54 280 12:56 21.01.2021
3468 Clouds 4 1036 100 6000 1.54 280 12:38 21.01.2021
3469 Clouds 4 1036 100 6000 1.54 280 12:20 21.01.2021
3470 Clouds 4 1036 100 8000 2.57 280 11:45 21.01.2021
3471 Clouds 4 1036 100 8000 2.57 280 11:23 21.01.2021
3472 Rain 5 1035 93 10000 3.6 300 10:45 21.01.2021
3473 Rain 5 1035 93 10000 3.6 300 10:25 21.01.2021
3474 Fog 6 1035 93 4000 3.09 80 09:43 21.01.2021
3475 Fog 6 1035 93 4000 2.57 120 09:24 21.01.2021
3476 Fog 6 1035 93 4000 2.57 120 08:37 21.01.2021
3477 Fog 6 1035 93 4000 3.6 130 07:54 21.01.2021
3478 Fog 6 1035 93 4000 3.6 130 07:26 21.01.2021
3479 Fog 6 1036 93 4000 2.57 130 06:43 21.01.2021
3480 Fog 7 1036 93 4000 3.09 90 04:58 21.01.2021
3481 Clouds 7 1035 93 10000 2.06 90 02:22 21.01.2021
3482 Clouds 8 1034 93 10000 4.12 100 00:43 21.01.2021
3483 Clouds 8 1033 87 7000 4.63 160 23:52 20.01.2021
3484 Clouds 8 1033 87 7000 4.63 160 23:30 20.01.2021
3485 Clouds 12 1033 62 10000 3.09 280 22:57 20.01.2021
3486 Clouds 12 1033 62 10000 3.09 280 22:35 20.01.2021
3487 Clouds 13 1033 50 10000 3.09 60 21:56 20.01.2021
3488 Clouds 13 1033 50 10000 3.09 60 21:24 20.01.2021
3489 Clouds 13 1034 50 10000 4.12 50 20:54 20.01.2021
3490 Clouds 13 1034 50 10000 4.12 50 20:24 20.01.2021
3491 Clouds 10 1035 66 10000 4.12 60 19:55 20.01.2021
3492 Clouds 10 1035 66 10000 4.12 60 19:37 20.01.2021
3493 Clouds 10 1035 66 10000 4.12 60 19:18 20.01.2021
3494 Clouds 10 1035 66 10000 1.03 0 18:41 20.01.2021
3495 Clouds 9 1036 71 10000 1.03 0 17:56 20.01.2021
3496 Clouds 9 1036 71 10000 1.03 0 17:36 20.01.2021
3497 Clouds 10 1037 66 10000 1.03 0 16:52 20.01.2021
3498 Clouds 10 1037 66 10000 1.03 0 16:30 20.01.2021
3499 Rain 10 1037 66 10000 1.03 0 16:30 20.01.2021
3500 Clouds 8 1037 76 6000 2.57 140 15:47 20.01.2021
3501 Clouds 8 1037 76 6000 2.57 140 15:19 20.01.2021
3502 Clouds 8 1037 76 6000 2.06 90 14:44 20.01.2021
3503 Clouds 8 1037 76 6000 2.06 90 14:21 20.01.2021
3504 Fog 6 1037 93 4000 2.57 70 13:40 20.01.2021
3505 Fog 6 1037 93 4000 2.57 70 13:18 20.01.2021
3506 Fog 5 1036 93 4000 3.6 80 12:35 20.01.2021
3507 Fog 5 1035 93 4000 3.6 90 11:53 20.01.2021
3508 Fog 5 1035 93 4000 3.6 90 11:34 20.01.2021
3509 Fog 5 1034 93 4000 3.09 100 10:51 20.01.2021
3510 Fog 5 1034 93 4000 3.09 100 10:28 20.01.2021
3511 Fog 5 1034 93 4000 4.12 90 09:44 20.01.2021
3512 Fog 5 1034 93 4000 4.12 90 09:23 20.01.2021
3513 Fog 5 1035 93 4000 3.09 100 08:47 20.01.2021
3514 Fog 5 1035 93 4000 3.09 100 08:24 20.01.2021
3515 Fog 5 1035 100 3000 2.06 60 07:55 20.01.2021
3516 Fog 5 1035 100 3000 2.06 60 07:25 20.01.2021
3517 Fog 6 1036 93 3000 4.12 110 04:50 20.01.2021
3518 Fog 7 1035 100 1200 3.6 110 02:58 20.01.2021
3519 Clouds 10 1034 76 10000 4.12 80 00:58 20.01.2021
3520 Clouds 10 1034 71 10000 4.12 110 23:59 19.01.2021
3521 Clouds 10 1034 71 10000 4.12 110 23:41 19.01.2021
3522 Clouds 10 1034 71 10000 4.12 110 23:18 19.01.2021
3523 Clouds 11 1033 71 10000 5.14 130 22:41 19.01.2021
3524 Clouds 11 1033 71 10000 5.14 130 22:21 19.01.2021
3525 Clouds 11 1033 71 10000 5.14 130 22:21 19.01.2021
3526 Clouds 13 1033 62 10000 5.66 110 21:55 19.01.2021
3527 Clouds 13 1033 62 10000 5.66 110 21:36 19.01.2021
3528 Clouds 14 1034 58 10000 6.17 90 20:50 19.01.2021
3529 Clouds 14 1034 58 10000 6.17 90 20:30 19.01.2021
3530 Clouds 14 1034 62 10000 5.14 90 19:56 19.01.2021
3531 Clouds 14 1034 62 10000 5.14 90 19:37 19.01.2021
3532 Clouds 14 1034 62 10000 5.14 90 19:19 19.01.2021
3533 Clouds 14 1034 62 10000 5.14 90 19:19 19.01.2021
3534 Clouds 13 1035 67 10000 4.63 110 18:39 19.01.2021
3535 Clouds 13 1035 67 10000 4.63 110 18:21 19.01.2021
3536 Clouds 12 1036 71 10000 4.12 100 17:44 19.01.2021
3537 Clouds 12 1036 71 10000 4.12 100 17:22 19.01.2021
3538 Clouds 10 1036 81 6000 3.6 80 16:41 19.01.2021
3539 Clouds 10 1036 81 6000 3.6 80 16:23 19.01.2021
3540 Fog 10 1037 87 4000 2.57 150 15:52 19.01.2021
3541 Fog 10 1037 87 4000 2.57 150 15:33 19.01.2021
3542 Fog 8 1036 93 4000 2.57 140 14:49 19.01.2021
3543 Fog 8 1036 93 4000 2.57 140 14:28 19.01.2021
3544 Fog 6 1036 100 1600 2.06 130 13:52 19.01.2021
3545 Fog 6 1036 100 1600 2.06 130 13:24 19.01.2021
3546 Clouds 8 1018 73 10000 1.16 90 12:55 19.01.2021
3547 Mist 6 1034 93 1200 2.57 120 12:30 19.01.2021
3548 Mist 6 1034 93 1200 2.57 120 11:52 19.01.2021
3549 Mist 6 1034 93 1200 2.57 120 11:30 19.01.2021
3550 Fog 6 1034 100 800 2.06 120 10:59 19.01.2021
3551 Fog 6 1034 93 1500 2.06 90 10:40 19.01.2021
3552 Fog 6 1034 93 1500 2.06 90 10:18 19.01.2021
3553 Fog 6 1034 93 4000 2.57 100 09:42 19.01.2021
3554 Fog 6 1034 93 4000 2.57 100 09:19 19.01.2021
3555 Fog 6 1035 93 4000 2.57 100 08:33 19.01.2021
3556 Fog 6 1035 100 4000 3.09 110 07:51 19.01.2021
3557 Fog 7 1035 93 2500 3.09 90 06:58 19.01.2021
3558 Fog 7 1036 93 4000 3.09 120 03:20 19.01.2021
3559 Fog 7 1035 100 4000 2.57 70 02:21 19.01.2021
3560 Clouds 8 1033 87 8000 2.06 70 00:18 19.01.2021
3561 Clouds 8 1033 87 8000 2.06 70 23:37 18.01.2021
3562 Clouds 8 1033 87 8000 2.06 70 23:18 18.01.2021
3563 Rain 7 1033 87 6000 2.06 40 22:40 18.01.2021
3564 Rain 7 1033 87 6000 2.06 40 22:19 18.01.2021
3565 Clouds 7 1033 93 6000 2.57 290 21:40 18.01.2021
3566 Clouds 7 1033 93 6000 2.57 290 21:22 18.01.2021
3567 Clouds 8 1034 81 4000 2.57 320 20:43 18.01.2021
3568 Clouds 8 1034 81 4000 2.57 320 20:43 18.01.2021
3569 Clouds 8 1034 81 4000 2.57 320 20:25 18.01.2021
3570 Clouds 12 1034 71 8000 3.09 110 19:51 18.01.2021
3571 Clouds 12 1034 71 8000 3.09 110 19:33 18.01.2021
3572 Clouds 10 1035 76 10000 2.06 100 18:47 18.01.2021
3573 Clouds 10 1035 76 10000 2.06 100 18:23 18.01.2021
3574 Clouds 10 1035 76 7000 2.57 80 17:45 18.01.2021
3575 Clouds 10 1035 76 7000 2.57 80 17:24 18.01.2021
3576 Clouds 11 1017 66 4067 1.57 41 16:48 18.01.2021
3577 Clouds 10 1018 67 7027 1.9 55 16:22 18.01.2021
3578 Rain 7 1036 87 8000 1.03 0 15:48 18.01.2021
3579 Clouds 7 1036 87 8000 1.03 0 15:25 18.01.2021
3580 Clouds 6 1036 93 5000 1.03 0 14:44 18.01.2021
3581 Clouds 6 1036 93 5000 1.03 0 14:26 18.01.2021
3582 Rain 5 1035 72 5000 1.03 0 13:47 18.01.2021
3583 Rain 5 1035 77 5000 1.03 0 13:28 18.01.2021
3584 Clouds 5 1034 93 5000 2.06 10 12:55 18.01.2021
3585 Rain 5 1034 93 5000 2.06 10 12:21 18.01.2021
3586 Clouds 6 1034 93 4000 1.03 0 11:57 18.01.2021
3587 Clouds 6 1034 93 4000 1.03 0 11:39 18.01.2021
3588 Rain 6 1033 93 6000 1.03 0 11:20 18.01.2021
3589 Rain 6 1032 93 10000 1.54 300 10:44 18.01.2021
3590 Rain 6 1032 93 10000 1.54 80 09:50 18.01.2021
3591 Rain 6 1032 93 10000 1.54 80 09:32 18.01.2021
3592 Rain 6 1032 93 7000 1.03 0 08:54 18.01.2021
3593 Rain 6 1032 93 7000 1.03 0 08:18 18.01.2021
3594 Rain 6 1033 93 4000 1.03 0 07:36 18.01.2021
3595 Rain 6 1034 93 4000 1.03 0 05:35 18.01.2021
3596 Rain 6 1035 93 4000 1.03 0 04:37 18.01.2021
3597 Fog 6 1035 93 4000 1.03 0 04:18 18.01.2021
3598 Clouds 6 1035 93 6000 3.6 220 03:41 18.01.2021
3599 Clouds 6 1035 93 6000 3.6 220 03:20 18.01.2021
3600 Rain 8 1034 87 7000 2.06 100 02:37 18.01.2021
3601 Rain 7 1032 87 7000 2.57 160 00:49 18.01.2021
3602 Rain 7 1032 87 7000 2.57 160 00:30 18.01.2021
3603 Clouds 7 1032 81 6000 3.6 340 23:48 17.01.2021
3604 Clouds 10 1031 76 10000 5.14 350 23:20 17.01.2021
3605 Clouds 12 1031 71 10000 4.63 120 22:39 17.01.2021
3606 Clouds 12 1031 71 10000 4.63 120 22:20 17.01.2021
3607 Clouds 12 1031 58 10000 3.09 150 21:40 17.01.2021
3608 Clouds 12 1031 58 10000 3.09 150 21:22 17.01.2021
3609 Clouds 11 1032 71 10000 3.09 100 20:48 17.01.2021
3610 Clouds 11 1032 71 10000 3.09 100 20:28 17.01.2021
3611 Clouds 9 1032 76 10000 2.57 130 19:42 17.01.2021
3612 Clouds 9 1032 76 10000 2.57 130 19:23 17.01.2021
3613 Rain 8 1033 81 10000 4.63 120 18:43 17.01.2021
3614 Clouds 6 1033 93 6000 3.09 100 18:23 17.01.2021
3615 Clouds 7 1034 93 4000 4.63 40 17:48 17.01.2021
3616 Clouds 7 1034 93 4000 4.63 40 17:26 17.01.2021
3617 Clouds 10 1034 76 8000 2.06 290 16:44 17.01.2021
3618 Clouds 10 1034 71 10000 2.06 270 16:21 17.01.2021
3619 Clouds 11 1034 62 10000 1.03 0 15:43 17.01.2021
3620 Clouds 11 1034 62 10000 1.03 0 15:24 17.01.2021
3621 Clouds 8 1034 76 10000 1.03 0 14:49 17.01.2021
3622 Clouds 8 1034 76 10000 1.03 0 14:26 17.01.2021
3623 Clouds 7 1033 87 10000 1.03 0 13:45 17.01.2021
3624 Clouds 7 1033 87 10000 1.03 0 13:27 17.01.2021
3625 Clouds 6 1033 100 10000 1.03 0 12:53 17.01.2021
3626 Clouds 6 1033 100 10000 1.03 0 12:31 17.01.2021
3627 Clouds 6 1032 93 10000 1.03 0 11:56 17.01.2021
3628 Clouds 6 1032 93 10000 1.03 0 11:23 17.01.2021
3629 Clouds 6 1031 93 10000 1.03 0 10:48 17.01.2021
3630 Clouds 6 1031 93 10000 1.03 0 10:21 17.01.2021
3631 Clouds 6 1031 93 10000 1.54 300 09:26 17.01.2021
3632 Clouds 6 1032 93 10000 1.54 320 08:45 17.01.2021
3633 Clouds 7 1034 87 10000 1.03 0 06:52 17.01.2021
3634 Clouds 7 1035 81 10000 3.09 340 04:28 17.01.2021
3635 Clouds 7 1033 87 10000 3.09 260 02:46 17.01.2021
3636 Clouds 8 1031 76 10000 5.66 10 00:47 17.01.2021
3637 Clouds 8 1031 76 10000 5.66 10 00:18 17.01.2021
3638 Fog 6 1032 93 4000 3.6 40 23:48 16.01.2021
3639 Fog 6 1032 93 4000 3.6 40 23:19 16.01.2021
3640 Rain 7 1033 93 3000 5.66 130 22:36 16.01.2021
3641 Rain 7 1032 93 2000 4.63 130 21:58 16.01.2021
3642 Clouds 9 1002 87 7000 4.12 160 21:25 16.01.2021
3643 Clouds 11 1031 71 10000 3.6 60 20:59 16.01.2021
3644 Clouds 11 1031 71 10000 3.6 60 20:40 16.01.2021
3645 Clouds 11 1031 71 10000 3.6 60 20:18 16.01.2021
3646 Clouds 8 1032 81 8000 4.63 130 19:41 16.01.2021
3647 Rain 8 1032 81 8000 4.63 130 19:23 16.01.2021
3648 Clouds 14 1033 51 10000 3.6 280 18:42 16.01.2021
3649 Clouds 14 1033 51 10000 3.6 280 18:21 16.01.2021
3650 Clouds 13 1034 58 10000 2.57 220 17:41 16.01.2021
3651 Clouds 13 1034 58 10000 2.57 220 17:23 16.01.2021
3652 Rain 12 1034 62 10000 3.09 260 16:45 16.01.2021
3653 Clouds 12 1034 62 10000 3.09 260 16:26 16.01.2021
3654 Clouds 11 1034 66 10000 2.57 260 15:48 16.01.2021
3655 Clouds 11 1034 66 10000 2.57 260 15:18 16.01.2021
3656 Clouds 7 1034 87 10000 2.06 330 14:19 16.01.2021
3657 Clouds 7 1034 87 10000 2.06 330 13:48 16.01.2021
3658 Clouds 7 1034 87 10000 2.06 330 13:21 16.01.2021
3659 Clouds 6 1033 93 10000 1.03 0 12:39 16.01.2021
3660 Clouds 6 1033 93 10000 1.03 0 12:20 16.01.2021
3661 Clouds 6 1033 93 10000 1.03 0 12:20 16.01.2021
3662 Clouds 5 1033 93 10000 1.03 0 11:46 16.01.2021
3663 Clouds 5 1033 93 10000 1.03 0 11:24 16.01.2021
3664 Clouds 5 1032 93 10000 1.03 0 10:43 16.01.2021
3665 Rain 6 1032 93 10000 1.03 0 09:59 16.01.2021
3666 Rain 6 1032 93 10000 1.03 0 09:31 16.01.2021
3667 Rain 6 1033 93 10000 1.54 240 08:32 16.01.2021
3668 Rain 6 1034 87 10000 1.54 300 07:28 16.01.2021
3669 Rain 6 1035 93 10000 3.09 300 05:46 16.01.2021
3670 Rain 7 1035 93 10000 3.6 250 04:38 16.01.2021
3671 Clouds 6 1034 93 10000 1.03 260 02:54 16.01.2021
3672 Clouds 8 1032 87 10000 1.03 0 00:49 16.01.2021
3673 Clouds 8 1032 87 10000 1.03 0 00:25 16.01.2021
3674 Clouds 8 1032 87 10000 1.03 0 23:40 15.01.2021
3675 Clouds 5 1032 93 8000 3.09 320 22:47 15.01.2021
3676 Clouds 5 1032 93 8000 3.09 320 22:23 15.01.2021
3677 Clouds 6 1032 93 4000 3.6 270 21:46 15.01.2021
3678 Clouds 12 1032 71 6000 5.14 230 20:50 15.01.2021
3679 Clouds 14 1032 67 10000 4.12 250 20:24 15.01.2021
3680 Clouds 14 1034 67 10000 1.03 0 19:58 15.01.2021
3681 Clouds 14 1034 67 10000 1.03 0 19:39 15.01.2021
3682 Clouds 14 1034 67 10000 1.03 0 19:21 15.01.2021
3683 Clouds 11 1035 71 10000 1.03 0 18:42 15.01.2021
3684 Clouds 11 1035 71 10000 1.03 0 18:18 15.01.2021
3685 Clouds 11 1035 76 10000 2.06 320 17:42 15.01.2021
3686 Clouds 11 1035 76 10000 2.06 320 17:22 15.01.2021
3687 Clouds 9 1036 87 10000 2.57 300 16:49 15.01.2021
3688 Clouds 9 1036 87 6000 2.57 290 16:24 15.01.2021
3689 Clouds 9 1036 87 6000 2.57 270 15:41 15.01.2021
3690 Clouds 9 1036 87 6000 2.57 270 15:21 15.01.2021
3691 Rain 8 1036 93 4000 3.09 260 14:46 15.01.2021
3692 Rain 8 1036 93 4000 3.09 260 14:27 15.01.2021
3693 Rain 10 1015 71 10000 1.67 151 13:43 15.01.2021
3694 Rain 9 1015 75 10000 1.45 144 13:23 15.01.2021
3695 Rain 7 1035 93 4000 1.45 144 12:57 15.01.2021
3696 Rain 7 1035 93 4000 1.86 142 12:32 15.01.2021
3697 Rain 7 1035 93 3000 1.03 0 11:50 15.01.2021
3698 Rain 7 1035 93 3000 1.03 0 11:32 15.01.2021
3699 Fog 7 1034 93 3000 1.03 0 10:57 15.01.2021
3700 Fog 7 1034 93 3000 1.03 0 10:39 15.01.2021
3701 Fog 7 1034 93 3000 1.03 0 09:56 15.01.2021
3702 Fog 7 1034 93 3000 1.03 0 09:35 15.01.2021
3703 Fog 8 1035 87 3000 2.06 100 08:48 15.01.2021
3704 Fog 8 1035 87 3000 2.06 100 08:21 15.01.2021
3705 Fog 8 1035 87 4000 0.99 44 07:41 15.01.2021
3706 Fog 8 1035 87 4000 1.85 65 07:19 15.01.2021
3707 Fog 8 1036 93 4000 2.57 100 04:35 15.01.2021
3708 Clouds 10 1035 81 10000 4.12 110 01:48 15.01.2021
3709 Clouds 12 1033 66 10000 3.6 190 23:55 14.01.2021
3710 Clouds 12 1033 66 10000 3.6 190 23:23 14.01.2021
3711 Clouds 14 1033 58 10000 2.57 160 22:44 14.01.2021
3712 Clouds 14 1033 58 10000 2.57 160 22:25 14.01.2021
3713 Clouds 15 1033 58 10000 3.6 80 21:48 14.01.2021
3714 Clouds 15 1033 58 10000 3.6 80 21:21 14.01.2021
3715 Clouds 14 1009 58 10000 4.12 110 20:51 14.01.2021
3716 Clouds 14 1009 58 10000 4.12 110 20:26 14.01.2021
3717 Clouds 14 1035 58 10000 5.66 80 19:46 14.01.2021
3718 Clouds 14 1035 58 10000 5.66 80 19:27 14.01.2021
3719 Clouds 12 1036 66 10000 5.14 140 18:55 14.01.2021
3720 Clouds 12 1036 66 10000 5.14 140 18:30 14.01.2021
3721 Clouds 12 1037 62 10000 3.09 110 17:50 14.01.2021
3722 Clouds 12 1037 62 10000 3.09 110 17:27 14.01.2021
3723 Clouds 11 1037 71 10000 3.6 140 16:44 14.01.2021
3724 Clouds 11 1037 71 10000 3.6 140 16:23 14.01.2021
3725 Clouds 11 1037 66 10000 3.6 110 15:45 14.01.2021
3726 Clouds 8 1037 81 6000 3.09 110 14:59 14.01.2021
3727 Clouds 8 1037 81 6000 3.09 110 14:38 14.01.2021
3728 Clouds 8 1037 81 6000 3.09 110 14:19 14.01.2021
3729 Clouds 8 1037 81 6000 3.09 110 14:19 14.01.2021
3730 Fog 7 1037 87 4000 2.57 90 13:53 14.01.2021
3731 Fog 7 1037 87 4000 2.57 90 13:21 14.01.2021
3732 Fog 6 1036 93 4000 2.57 130 12:49 14.01.2021
3733 Fog 6 1036 93 4000 2.57 130 12:20 14.01.2021
3734 Fog 5 1035 100 4000 2.57 90 11:43 14.01.2021
3735 Fog 5 1035 100 4000 2.57 90 11:21 14.01.2021
3736 Fog 5 1035 100 4000 3.09 90 10:52 14.01.2021
3737 Fog 5 1035 100 4000 3.09 90 10:27 14.01.2021
3738 Fog 5 1035 100 4000 3.6 60 09:48 14.01.2021
3739 Fog 5 1035 100 4000 3.6 60 09:23 14.01.2021
3740 Fog 6 1035 93 4000 2.57 150 08:49 14.01.2021
3741 Fog 6 1035 93 4000 2.57 150 08:27 14.01.2021
3742 Fog 6 1036 93 4000 4.12 120 07:49 14.01.2021
3743 Fog 7 1036 93 4000 3.09 120 06:53 14.01.2021
3744 Fog 7 1037 93 4000 2.06 110 05:50 14.01.2021
3745 Clouds 9 1035 87 10000 4.63 120 00:46 14.01.2021
3746 Clouds 11 1034 82 10000 4.63 120 23:54 13.01.2021
3747 Clouds 11 1034 82 10000 4.63 120 23:23 13.01.2021
3748 Clouds 13 1034 62 10000 4.63 90 22:29 13.01.2021
3749 Clouds 12 1035 62 10000 3.09 60 21:57 13.01.2021
3750 Clouds 12 1035 62 10000 3.09 60 21:38 13.01.2021
3751 Clouds 10 1036 76 10000 4.63 240 20:59 13.01.2021
3752 Clouds 10 1036 76 10000 4.63 240 20:33 13.01.2021
3753 Clouds 10 1037 71 10000 3.6 20 19:58 13.01.2021
3754 Clouds 10 1037 71 10000 3.6 20 19:39 13.01.2021
3755 Clouds 10 1037 71 10000 3.6 20 19:19 13.01.2021
3756 Clouds 13 1038 54 10000 2.57 110 18:40 13.01.2021
3757 Clouds 11 1039 71 6000 2.57 100 17:51 13.01.2021
3758 Clouds 11 1039 71 6000 2.57 100 17:25 13.01.2021
3759 Fog 8 1039 87 4000 3.6 80 16:51 13.01.2021
3760 Fog 8 1039 87 4000 3.6 80 16:22 13.01.2021
3761 Fog 7 1039 87 8000 4.63 90 15:53 13.01.2021
3762 Fog 7 1039 87 8000 4.63 90 15:35 13.01.2021
3763 Fog 6 1039 93 6000 5.66 90 14:49 13.01.2021
3764 Rain 6 1038 93 6000 4.12 60 13:55 13.01.2021
3765 Rain 6 1038 93 6000 4.12 60 13:32 13.01.2021
3766 Rain 6 1037 93 3000 4.63 90 12:47 13.01.2021
3767 Rain 6 1037 93 3000 4.63 90 12:29 13.01.2021
3768 Rain 6 1036 93 4000 2.57 90 11:55 13.01.2021
3769 Rain 6 1036 93 4000 2.57 90 11:35 13.01.2021
3770 Rain 7 1035 93 4000 3.09 120 10:56 13.01.2021
3771 Fog 7 1035 93 4000 3.09 120 10:37 13.01.2021
3772 Rain 7 1035 93 4000 3.09 120 10:18 13.01.2021
3773 Rain 7 1035 93 4000 3.6 140 09:31 13.01.2021
3774 Rain 7 1036 93 4000 1.03 0 08:52 13.01.2021
3775 Fog 7 1036 93 4000 1.03 0 08:31 13.01.2021
3776 Fog 6 1036 100 4000 1.98 57 07:35 13.01.2021
3777 Clouds 8 1017 76 10000 2.26 51 06:56 13.01.2021
3778 Rain 7 1038 87 10000 3.09 200 04:21 13.01.2021
3779 Clouds 8 1038 93 10000 3.6 240 03:48 13.01.2021
3780 Clouds 8 1038 93 10000 3.6 240 03:29 13.01.2021
3781 Clouds 9 1035 76 10000 2.57 130 01:32 13.01.2021
3782 Clouds 10 1034 66 10000 3.09 70 00:29 13.01.2021
3783 Rain 11 1034 62 10000 2.57 80 23:22 12.01.2021
3784 Rain 11 1034 62 10000 3.6 10 22:46 12.01.2021
3785 Rain 11 1034 62 10000 3.6 10 22:46 12.01.2021
3786 Rain 11 1034 62 10000 3.6 10 22:24 12.01.2021
3787 Rain 12 1035 62 10000 3.09 330 21:51 12.01.2021
3788 Clouds 12 1035 62 10000 3.09 330 21:30 12.01.2021
3789 Rain 10 1035 81 10000 2.06 360 20:49 12.01.2021
3790 Rain 10 1035 81 10000 2.06 360 20:27 12.01.2021
3791 Clouds 11 1036 71 8000 4.12 310 19:49 12.01.2021
3792 Clouds 11 1036 71 8000 4.12 310 19:27 12.01.2021
3793 Clouds 14 1036 58 10000 4.12 130 18:44 12.01.2021
3794 Clouds 14 1036 58 10000 4.12 130 18:24 12.01.2021
3795 Clouds 14 1037 58 10000 4.63 110 17:43 12.01.2021
3796 Clouds 14 1037 58 10000 4.63 110 17:24 12.01.2021
3797 Clouds 12 1038 66 10000 4.63 140 16:44 12.01.2021
3798 Clouds 12 1038 66 10000 4.63 140 16:24 12.01.2021
3799 Clouds 13 1038 62 10000 2.06 100 15:40 12.01.2021
3800 Clouds 13 1038 62 10000 2.06 100 15:21 12.01.2021
3801 Clouds 11 1038 66 10000 3.09 100 14:42 12.01.2021
3802 Clouds 11 1038 66 10000 3.09 100 14:21 12.01.2021
3803 Clouds 8 1038 81 6000 4.12 90 13:52 12.01.2021
3804 Fog 5 1037 93 4000 2.06 80 12:55 12.01.2021
3805 Fog 5 1037 93 4000 2.06 80 12:22 12.01.2021
3806 Fog 5 1009 87 4000 1.03 0 11:41 12.01.2021
3807 Rain 4 1035 93 10000 2.06 110 10:52 12.01.2021
3808 Rain 4 1035 93 10000 2.06 110 10:22 12.01.2021
3809 Rain 4 1035 87 10000 2.06 60 09:57 12.01.2021
3810 Rain 4 1035 87 10000 2.06 60 09:28 12.01.2021
3811 Clouds 5 1036 81 10000 2.06 20 08:51 12.01.2021
3812 Clouds 5 1036 81 10000 2.06 20 08:25 12.01.2021
3813 Clouds 6 1036 81 10000 2.06 10 07:36 12.01.2021
3814 Rain 6 1037 81 10000 1.54 350 06:35 12.01.2021
3815 Clouds 7 1038 76 10000 1.54 340 05:33 12.01.2021
3816 Clouds 8 1038 76 10000 3.6 270 03:26 12.01.2021
3817 Clouds 9 1035 76 10000 2.57 20 02:19 12.01.2021
3818 Clouds 9 1035 76 10000 2.57 20 01:28 12.01.2021
3819 Clouds 11 1034 66 10000 2.57 260 23:54 11.01.2021
3820 Clouds 11 1034 66 10000 2.57 260 23:23 11.01.2021
3821 Clouds 11 1034 71 10000 4.63 230 22:59 11.01.2021
3822 Clouds 11 1034 71 10000 4.63 230 22:40 11.01.2021
3823 Clouds 11 1034 71 10000 4.63 230 22:19 11.01.2021
3824 Clouds 13 1035 50 10000 1.03 0 21:38 11.01.2021
3825 Rain 13 1035 50 10000 1.03 0 21:20 11.01.2021
3826 Rain 12 1035 54 10000 3.6 20 20:41 11.01.2021
3827 Clouds 12 1035 54 10000 3.6 20 20:23 11.01.2021
3828 Clouds 10 1036 71 10000 4.12 20 19:55 11.01.2021
3829 Clouds 10 1036 71 10000 4.12 20 19:30 11.01.2021
3830 Clouds 12 1037 58 8000 4.63 60 18:45 11.01.2021
3831 Rain 12 1037 58 8000 4.63 60 18:26 11.01.2021
3832 Clouds 13 1037 54 10000 3.6 230 17:54 11.01.2021
3833 Rain 15 1037 47 10000 3.09 300 17:36 11.01.2021
3834 Rain 15 1037 47 10000 3.09 300 17:36 11.01.2021
3835 Clouds 15 1037 47 10000 3.09 300 17:18 11.01.2021
3836 Clouds 13 1038 54 10000 3.6 260 16:38 11.01.2021
3837 Clouds 13 1038 54 10000 3.6 260 16:19 11.01.2021
3838 Clouds 12 1038 66 10000 3.09 260 15:47 11.01.2021
3839 Clouds 12 1038 66 10000 3.09 260 15:26 11.01.2021
3840 Clouds 8 1010 81 6000 1.03 0 14:39 11.01.2021
3841 Fog 8 1038 87 4000 1.03 0 13:50 11.01.2021
3842 Fog 8 1038 87 4000 1.03 0 13:26 11.01.2021
3843 Fog 5 1037 93 4000 1.54 90 12:51 11.01.2021
3844 Fog 5 1037 93 4000 1.54 90 12:32 11.01.2021
3845 Fog 5 1036 93 4000 1.54 50 11:56 11.01.2021
3846 Fog 5 1036 93 4000 1.54 50 11:27 11.01.2021
3847 Clouds 5 1036 93 10000 1.03 0 10:47 11.01.2021
3848 Clouds 5 1036 93 10000 1.03 0 10:25 11.01.2021
3849 Rain 6 1036 87 10000 1.4 43 09:42 11.01.2021
3850 Clouds 6 1036 87 10000 1.77 43 09:21 11.01.2021
3851 Clouds 5 1036 93 10000 1.03 0 08:44 11.01.2021
3852 Clouds 5 1036 93 10000 1.03 0 08:18 11.01.2021
3853 Clouds 6 1036 87 10000 1.54 40 07:27 11.01.2021
3854 Clouds 6 1037 87 10000 1.03 0 06:58 11.01.2021
3855 Clouds 7 1038 81 10000 2.57 210 03:51 11.01.2021
3856 Clouds 8 1035 71 10000 1.03 0 01:30 11.01.2021
3857 Clouds 12 1034 47 10000 1.03 0 23:59 10.01.2021
3858 Clouds 12 1034 47 10000 1.03 0 23:30 10.01.2021
3859 Clouds 10 1035 62 10000 2.06 240 22:48 10.01.2021
3860 Clouds 10 1035 62 10000 2.06 240 22:24 10.01.2021
3861 Clouds 10 1035 66 10000 2.57 280 21:45 10.01.2021
3862 Clouds 10 1035 66 10000 2.57 280 21:21 10.01.2021
3863 Clouds 10 1035 66 10000 2.57 280 21:21 10.01.2021
3864 Clouds 9 1036 76 10000 3.09 310 20:53 10.01.2021
3865 Clouds 9 1036 76 10000 3.09 310 20:32 10.01.2021
3866 Rain 9 1036 76 10000 3.09 270 19:43 10.01.2021
3867 Rain 9 1036 76 10000 3.09 270 19:25 10.01.2021
3868 Clouds 9 1037 76 10000 2.57 250 18:49 10.01.2021
3869 Clouds 8 1037 81 10000 3.09 270 18:21 10.01.2021
3870 Clouds 12 1037 66 10000 3.09 260 17:28 10.01.2021
3871 Clouds 13 1038 58 10000 3.09 130 16:59 10.01.2021
3872 Clouds 13 1038 58 10000 3.09 130 16:32 10.01.2021
3873 Clouds 11 1038 71 10000 3.6 130 15:54 10.01.2021
3874 Clouds 11 1038 71 10000 3.6 130 15:25 10.01.2021
3875 Clouds 10 1038 71 10000 3.09 100 14:50 10.01.2021
3876 Clouds 10 1038 71 10000 3.09 100 14:31 10.01.2021
3877 Clouds 7 1038 87 6000 3.09 90 13:54 10.01.2021
3878 Clouds 7 1038 87 6000 3.09 90 13:36 10.01.2021
3879 Clouds 7 1038 87 6000 3.09 90 13:36 10.01.2021
3880 Clouds 7 1038 87 6000 3.09 90 13:18 10.01.2021
3881 Fog 5 1037 100 4000 3.09 80 12:42 10.01.2021
3882 Fog 5 1036 93 4000 2.57 100 11:58 10.01.2021
3883 Fog 5 1036 93 4000 2.57 100 11:22 10.01.2021
3884 Fog 5 1036 100 4000 2.06 80 10:58 10.01.2021
3885 Fog 5 1036 100 4000 2.06 80 10:30 10.01.2021
3886 Fog 4 1036 100 3000 2.57 80 09:58 10.01.2021
3887 Fog 4 1036 100 3000 2.57 80 09:18 10.01.2021
3888 Fog 5 1036 100 3000 2.06 90 08:19 10.01.2021
3889 Fog 5 1036 100 4000 3.09 90 07:28 10.01.2021
3890 Fog 5 1037 100 2000 2.57 70 06:19 10.01.2021
3891 Fog 5 1037 100 4000 3.6 60 05:35 10.01.2021
3892 Clouds 6 1035 100 10000 2.06 50 02:55 10.01.2021
3893 Clouds 10 1035 76 10000 2.06 150 00:38 10.01.2021
3894 Clouds 10 1034 81 10000 3.6 120 23:42 09.01.2021
3895 Clouds 10 1034 81 10000 3.6 120 23:23 09.01.2021
3896 Clouds 12 1034 66 10000 3.6 100 22:25 09.01.2021
3897 Clouds 13 1034 67 10000 2.57 110 21:59 09.01.2021
3898 Clouds 13 1034 67 10000 2.57 110 21:40 09.01.2021
3899 Clouds 13 1034 67 10000 2.57 110 21:21 09.01.2021
3900 Clouds 12 1035 62 10000 3.09 90 20:58 09.01.2021
3901 Clouds 12 1035 62 10000 3.09 90 20:37 09.01.2021
3902 Clouds 12 1036 62 8000 2.57 250 19:43 09.01.2021
3903 Clouds 12 1036 62 8000 2.57 250 19:21 09.01.2021
3904 Rain 11 1037 66 10000 2.57 270 18:39 09.01.2021
3905 Rain 11 1037 66 10000 2.57 270 18:19 09.01.2021
3906 Rain 10 1037 71 10000 2.57 280 17:43 09.01.2021
3907 Rain 10 1037 71 10000 2.57 280 17:23 09.01.2021
3908 Rain 9 1038 76 8000 2.57 290 16:31 09.01.2021
3909 Rain 7 1038 87 8000 2.06 240 15:47 09.01.2021
3910 Rain 7 1038 87 8000 2.06 240 15:27 09.01.2021
3911 Clouds 7 1037 81 6000 3.6 290 14:38 09.01.2021
3912 Clouds 7 1037 81 6000 3.6 290 14:20 09.01.2021
3913 Clouds 7 1037 87 6000 2.57 300 13:47 09.01.2021
3914 Clouds 7 1037 87 6000 2.57 300 13:28 09.01.2021
3915 Fog 6 1036 93 4000 0.59 68 12:47 09.01.2021
3916 Fog 6 1036 93 4000 1.62 56 12:21 09.01.2021
3917 Rain 6 1035 93 4000 1.54 50 11:50 09.01.2021
3918 Fog 6 1035 93 4000 1.54 50 11:27 09.01.2021
3919 Rain 6 1035 93 4000 1.03 0 10:52 09.01.2021
3920 Fog 6 1035 93 4000 1.03 0 10:27 09.01.2021
3921 Rain 6 1034 93 4000 1.03 0 09:46 09.01.2021
3922 Rain 6 1034 93 4000 1.03 0 09:21 09.01.2021
3923 Rain 6 1035 93 4000 1.03 0 08:28 09.01.2021
3924 Fog 7 1037 87 4000 2.57 100 06:56 09.01.2021
3925 Fog 7 1037 87 4000 2.57 100 06:38 09.01.2021
3926 Clouds 7 1038 81 10000 3.6 340 04:43 09.01.2021
3927 Clouds 7 1037 87 10000 5.66 300 02:48 09.01.2021
3928 Clouds 7 1037 87 10000 5.66 300 02:29 09.01.2021
3929 Clouds 9 1036 76 10000 5.14 290 01:36 09.01.2021
3930 Clouds 10 1035 81 10000 2.57 60 00:34 09.01.2021
3931 Clouds 14 1034 47 10000 2.57 250 23:50 08.01.2021
3932 Clouds 14 1034 47 10000 2.57 250 23:50 08.01.2021
3933 Clouds 13 1034 50 10000 3.6 330 22:54 08.01.2021
3934 Clouds 12 1035 58 10000 4.12 340 21:58 08.01.2021
3935 Clouds 12 1035 58 10000 4.12 340 21:31 08.01.2021
3936 Rain 10 1036 71 10000 5.66 310 20:41 08.01.2021
3937 Clouds 10 1036 71 10000 5.66 310 20:21 08.01.2021
3938 Rain 8 1037 87 8000 5.14 290 19:38 08.01.2021
3939 Clouds 8 1037 87 8000 5.14 290 19:19 08.01.2021
3940 Rain 8 1038 81 10000 6.17 290 18:34 08.01.2021
3941 Rain 7 1039 87 10000 5.14 280 17:55 08.01.2021
3942 Rain 7 1039 87 10000 5.14 280 17:28 08.01.2021
3943 Rain 6 1039 93 8000 4.63 260 16:50 08.01.2021
3944 Rain 5 1039 93 8000 4.12 290 15:55 08.01.2021
3945 Rain 5 1039 93 8000 4.12 290 15:33 08.01.2021
3946 Rain 5 1039 93 6000 4.12 300 14:40 08.01.2021
3947 Rain 5 1039 93 6000 4.12 300 14:18 08.01.2021
3948 Clouds 6 1038 87 8000 3.6 320 13:22 08.01.2021
3949 Fog 6 1037 87 4000 3.6 320 12:52 08.01.2021
3950 Fog 6 1037 87 4000 3.6 320 12:22 08.01.2021
3951 Fog 6 1037 87 4000 3.6 320 12:22 08.01.2021
3952 Fog 6 1037 87 4000 3.6 320 12:22 08.01.2021
3953 Clouds 5 1036 93 3000 5.14 300 11:50 08.01.2021
3954 Clouds 5 1036 93 3000 5.14 300 11:30 08.01.2021
3955 Clouds 6 1036 87 10000 2.06 320 10:56 08.01.2021
3956 Clouds 6 1036 87 10000 2.06 320 10:38 08.01.2021
3957 Fog 6 1035 93 4000 1.03 0 09:53 08.01.2021
3958 Fog 6 1035 93 4000 1.03 0 09:34 08.01.2021
3959 Fog 6 1035 93 4000 1.03 0 08:41 08.01.2021
3960 Fog 5 1036 93 4000 2.17 74 07:29 08.01.2021
3961 Fog 5 1037 93 4000 1.03 0 06:40 08.01.2021
3962 Fog 8 1035 93 4000 3.6 80 00:32 08.01.2021
3963 Clouds 11 1035 66 10000 2.57 70 23:41 07.01.2021
3964 Clouds 11 1013 58 10000 3.98 43 22:50 07.01.2021
3965 Clouds 11 1013 58 10000 3.98 43 22:32 07.01.2021
3966 Clouds 11 1013 57 10000 4.04 48 21:49 07.01.2021
3967 Rain 10 1013 64 9580 3.76 55 21:27 07.01.2021
3968 Rain 10 1013 63 9370 3.75 55 20:48 07.01.2021
3969 Rain 7 1036 71 7000 4.63 270 20:29 07.01.2021
3970 Rain 7 1036 70 7000 4.63 270 19:47 07.01.2021
3971 Clouds 7 1036 69 7000 4.63 270 19:23 07.01.2021
3972 Clouds 8 1037 81 10000 1.03 0 18:40 07.01.2021
3973 Rain 8 1037 81 10000 1.03 0 18:19 07.01.2021
3974 Rain 7 1037 87 6000 3.6 270 17:31 07.01.2021
3975 Clouds 8 1038 87 4000 2.57 200 16:55 07.01.2021
3976 Clouds 9 1037 76 10000 2.57 240 16:32 07.01.2021
3977 Clouds 10 1038 66 10000 1.03 0 15:48 07.01.2021
3978 Clouds 10 1038 66 10000 1.03 0 15:30 07.01.2021
3979 Clouds 10 1038 66 10000 1.03 0 15:30 07.01.2021
3980 Clouds 7 1037 87 6000 1.03 0 14:27 07.01.2021
3981 Mist 6 1037 93 4000 2.06 250 13:49 07.01.2021
3982 Mist 6 1037 93 4000 2.06 250 13:22 07.01.2021
3983 Rain 8 1019 67 10000 1.92 77 12:51 07.01.2021
3984 Fog 6 1035 87 4000 1 0 11:59 07.01.2021
3985 Rain 6 1035 87 4000 1 0 11:38 07.01.2021
3986 Clouds 6 1035 87 10000 2.1 310 10:54 07.01.2021
3987 Clouds 6 1035 87 10000 2.1 310 10:33 07.01.2021
3988 Rain 6 1035 93 3000 2.6 260 09:49 07.01.2021
3989 Fog 6 1034 93 4000 1 0 09:22 07.01.2021
3990 Rain 6 1034 93 4000 1 0 08:30 07.01.2021
3991 Fog 6 1035 93 4000 1.5 100 07:54 07.01.2021
3992 Rain 6 1035 93 4000 1.5 100 07:35 07.01.2021
3993 Fog 6 1036 93 4000 1 0 05:44 07.01.2021
3994 Clouds 10 1033 71 10000 5.1 80 00:58 07.01.2021
3995 Clouds 11 1032 62 10000 6.2 100 23:52 06.01.2021
3996 Clouds 12 1033 62 10000 5.1 100 22:50 06.01.2021
3997 Clouds 11 1033 62 10000 1 0 21:59 06.01.2021
3998 Clouds 11 1033 62 10000 1 0 21:41 06.01.2021
3999 Clouds 9 1034 76 10000 3.6 340 21:21 06.01.2021
4000 Clouds 9 1034 76 10000 3.6 340 20:39 06.01.2021
4001 Clouds 9 1034 76 8000 4.6 50 20:18 06.01.2021
4002 Clouds 9 1034 76 8000 4.6 50 19:41 06.01.2021
4003 Clouds 11 1035 57 10000 3.1 90 19:22 06.01.2021
4004 Clouds 11 1035 57 10000 3.1 90 18:42 06.01.2021
4005 Clouds 12 1035 58 8000 3.6 90 18:24 06.01.2021
4006 Rain 12 1035 58 8000 3.6 90 17:43 06.01.2021
4007 Rain 10 1036 66 8000 3.1 130 17:25 06.01.2021
4008 Clouds 10 1036 66 8000 3.1 130 16:45 06.01.2021
4009 Clouds 8 1036 75 6000 3.6 130 16:20 06.01.2021
4010 Clouds 8 1036 75 6000 3.6 130 16:20 06.01.2021
4011 Clouds 8 1036 75 6000 3.6 130 15:53 06.01.2021
4012 Rain 7 1035 81 6000 3.1 100 15:32 06.01.2021
4013 Clouds 7 1035 81 6000 3.1 100 14:51 06.01.2021
4014 Rain 6 1035 93 4000 2.6 80 14:21 06.01.2021
4015 Rain 6 1035 93 4000 2.6 80 13:45 06.01.2021
4016 Rain 6 1035 87 4000 2.6 70 13:23 06.01.2021
4017 Rain 6 1035 87 4000 2.6 70 12:48 06.01.2021
4018 Fog 5 1034 93 4000 2.6 90 12:20 06.01.2021
4019 Fog 5 1034 93 4000 2.6 90 11:36 06.01.2021
4020 Fog 5 1033 93 4000 2.6 120 11:18 06.01.2021
4021 Fog 6 1033 87 4000 2.6 150 10:20 06.01.2021
4022 Fog 6 1033 87 4000 2.6 150 09:50 06.01.2021
4023 Fog 5 1033 93 4000 3.1 100 08:58 06.01.2021
4024 Fog 5 1033 93 4000 3.1 100 08:30 06.01.2021
4025 Fog 5 1033 93 4000 2.1 100 07:54 06.01.2021
4026 Fog 5 1033 93 4000 3.6 80 06:48 06.01.2021
4027 Fog 5 1034 93 4000 2.1 70 05:33 06.01.2021
4028 Fog 6 1033 93 4000 4.1 80 04:34 06.01.2021
4029 Clouds 8 1033 81 10000 3.6 110 02:47 06.01.2021
4030 Clouds 9 1032 70 10000 3.1 60 02:23 06.01.2021
4031 Clouds 10 1032 61 10000 4.6 270 00:34 06.01.2021
4032 Clouds 10 1031 61 10000 5.1 310 23:29 05.01.2021
4033 Rain 11 1031 57 10000 5.1 60 22:43 05.01.2021
4034 Rain 16 1030 41 10000 6.7 70 22:21 05.01.2021
4035 Clouds 16 1030 41 10000 6.7 70 21:55 05.01.2021
4036 Clouds 16 1030 41 10000 4.6 110 20:49 05.01.2021
4037 Clouds 15 1031 41 10000 3.1 130 20:25 05.01.2021
4038 Clouds 15 1031 41 10000 3.1 130 19:44 05.01.2021
4039 Clouds 15 1031 41 10000 3.1 130 19:21 05.01.2021
4040 Clouds 15 1032 41 10000 3.6 140 18:44 05.01.2021
4041 Clouds 15 1032 41 10000 3.6 140 18:24 05.01.2021
4042 Clouds 14 1033 47 10000 3.1 130 17:50 05.01.2021
4043 Clouds 13 1034 58 10000 4.1 140 17:27 05.01.2021
4044 Clouds 13 1034 58 10000 4.1 140 16:53 05.01.2021
4045 Clouds 12 1035 62 10000 3.6 120 16:22 05.01.2021
4046 Clouds 12 1035 62 10000 3.6 120 15:50 05.01.2021
4047 Clouds 10 1035 66 10000 2.1 110 15:25 05.01.2021
4048 Clouds 10 1035 66 10000 2.1 110 14:39 05.01.2021
4049 Clouds 8 1034 81 6000 3.1 90 13:50 05.01.2021
4050 Fog 6 1034 93 4000 2.1 70 13:30 05.01.2021
4051 Fog 6 1034 93 4000 2.1 70 12:49 05.01.2021
4052 Fog 3 1033 100 4000 1.5 80 12:28 05.01.2021
4053 Fog 3 1033 100 4000 1.5 80 11:39 05.01.2021
4054 Fog 3 1033 86 4000 1 0 10:56 05.01.2021
4055 Fog 3 1033 86 4000 1 0 10:37 05.01.2021
4056 Clouds 4 1032 80 10000 1 0 09:50 05.01.2021
4057 Clouds 6 1032 60 10000 1 0 09:30 05.01.2021
4058 Clouds 6 1032 60 10000 1 0 08:28 05.01.2021
4059 Fog 6 1033 93 4000 1.5 110 07:46 05.01.2021
4060 Clouds 8 1034 93 10000 1 0 04:58 05.01.2021
4061 Clouds 12 1030 71 10000 6.2 120 00:59 05.01.2021
4062 Clouds 17 1030 29 10000 2.6 310 23:59 04.01.2021
4063 Clouds 17 1030 29 10000 2.6 310 23:36 04.01.2021
4064 Clouds 18 1030 31 10000 4.1 270 23:18 04.01.2021
4065 Clouds 18 1030 31 10000 4.1 270 22:41 04.01.2021
4066 Clouds 18 1031 31 10000 4.1 280 21:52 04.01.2021
4067 Clouds 18 1031 31 10000 4.1 280 21:34 04.01.2021
4068 Clouds 16 1032 44 10000 3.1 230 20:48 04.01.2021
4069 Clouds 16 1032 44 10000 3.1 230 20:29 04.01.2021
4070 Thunderstorm 17 1032 36 10000 4.1 260 19:52 04.01.2021
4071 Clouds 16 1033 44 10000 3.6 230 19:25 04.01.2021
4072 Clouds 16 1033 44 10000 3.6 230 18:54 04.01.2021
4073 Clouds 16 1033 44 10000 3.6 230 18:24 04.01.2021
4074 Clouds 14 1034 50 10000 3.6 260 17:42 04.01.2021
4075 Clouds 13 1035 58 10000 3.6 250 17:24 04.01.2021
4076 Clouds 13 1035 58 10000 3.6 250 16:46 04.01.2021
4077 Clouds 13 1035 58 10000 3.6 250 16:27 04.01.2021
4078 Clouds 12 1035 54 10000 3.1 260 15:49 04.01.2021
4079 Clouds 10 1035 61 10000 2.1 290 15:27 04.01.2021
4080 Clouds 10 1035 61 10000 2.1 290 15:27 04.01.2021
4081 Clouds 10 1035 61 10000 2.1 290 14:42 04.01.2021
4082 Clouds 8 1034 75 10000 2.6 300 13:46 04.01.2021
4083 Clouds 6 1034 87 10000 1.5 280 13:23 04.01.2021
4084 Clouds 6 1034 87 10000 1.5 280 12:38 04.01.2021
4085 Clouds 6 1033 87 10000 2.1 270 11:58 04.01.2021
4086 Clouds 6 1033 87 10000 1.5 270 11:21 04.01.2021
4087 Clouds 6 1033 87 10000 1.5 270 10:47 04.01.2021
4088 Fog 6 1033 93 4000 2.1 120 10:25 04.01.2021
4089 Fog 6 1033 93 4000 2.1 120 09:51 04.01.2021
4090 Fog 6 1033 93 4000 1.5 90 09:19 04.01.2021
4091 Fog 6 1033 93 4000 1.5 90 08:41 04.01.2021
4092 Clouds 6 1034 87 10000 3.1 40 07:54 04.01.2021
4093 Clouds 5 1035 93 6000 4.6 10 07:18 04.01.2021
4094 Rain 7 1037 93 4000 2.6 70 05:21 04.01.2021
4095 Clouds 9 1035 70 8000 5.1 240 02:34 04.01.2021
4096 Clouds 12 1032 58 10000 3.1 60 00:29 04.01.2021
4097 Rain 14 1032 50 10000 4.6 80 23:47 03.01.2021
4098 Clouds 16 1032 44 10000 4.1 90 23:19 03.01.2021
4099 Rain 16 1032 44 10000 4.1 90 22:42 03.01.2021
4100 Clouds 15 1032 44 10000 4.1 110 22:23 03.01.2021
4101 Clouds 15 1032 44 10000 4.1 110 21:46 03.01.2021
4102 Clouds 15 1033 41 10000 4.1 100 21:24 03.01.2021
4103 Clouds 15 1033 41 10000 4.1 100 20:42 03.01.2021
4104 Clouds 15 1034 41 10000 4.6 130 20:20 03.01.2021
4105 Clouds 15 1034 41 10000 4.6 130 19:52 03.01.2021
4106 Clouds 15 1034 41 10000 4.6 130 19:33 03.01.2021
4107 Clouds 16 1035 41 10000 4.6 120 18:52 03.01.2021
4108 Clouds 16 1035 41 10000 4.6 120 18:33 03.01.2021
4109 Clouds 14 1036 54 10000 3.6 100 17:53 03.01.2021
4110 Clouds 14 1036 54 10000 3.6 100 17:29 03.01.2021
4111 Clouds 13 1037 58 10000 3.1 120 16:57 03.01.2021
4112 Clouds 13 1037 58 10000 3.1 120 16:38 03.01.2021
4113 Clouds 11 1038 66 6000 3.1 120 16:18 03.01.2021
4114 Clouds 11 1038 66 6000 3.1 120 15:41 03.01.2021
4115 Clouds 11 1038 66 6000 3.6 140 15:19 03.01.2021
4116 Clouds 11 1038 66 6000 3.6 140 14:41 03.01.2021
4117 Fog 10 1037 87 4000 1 0 13:55 03.01.2021
4118 Clouds 7 1037 93 3000 2.1 80 13:26 03.01.2021
4119 Clouds 7 1037 93 3000 2.1 80 12:57 03.01.2021
4120 Clouds 4 1035 93 10000 1 0 11:44 03.01.2021
4121 Clouds 4 1035 93 10000 1 0 11:26 03.01.2021
4122 Fog 5 1035 93 4000 3.1 60 10:57 03.01.2021
4123 Fog 5 1035 93 4000 3.1 60 10:31 03.01.2021
4124 Clouds 6 1035 87 10000 1 0 09:43 03.01.2021
4125 Clouds 7 1036 87 10000 3.1 120 09:23 03.01.2021
4126 Fog 7 1036 93 4000 2.6 150 07:59 03.01.2021
4127 Fog 6 1037 100 4000 1.5 60 06:25 03.01.2021
4128 Clouds 8 1036 70 10000 4.1 50 02:45 03.01.2021
4129 Clouds 9 1036 81 10000 4.6 100 02:20 03.01.2021
4130 Clouds 13 1035 58 10000 5.1 110 00:25 03.01.2021
4131 Clouds 13 1035 58 10000 5.1 110 23:32 02.01.2021
4132 Clouds 14 1034 58 10000 5.7 100 22:59 02.01.2021
4133 Clouds 14 1034 58 10000 5.7 100 22:33 02.01.2021
4134 Clouds 13 1035 62 10000 4.6 100 21:55 02.01.2021
4135 Clouds 13 1035 62 10000 4.6 100 21:33 02.01.2021
4136 Clouds 12 1036 62 10000 5.7 120 20:59 02.01.2021
4137 Clouds 12 1036 62 10000 5.7 120 20:39 02.01.2021
4138 Clouds 14 1037 50 10000 5.1 140 20:19 02.01.2021
4139 Clouds 14 1037 50 10000 5.1 140 19:40 02.01.2021
4140 Clouds 12 1038 62 10000 4.1 130 19:18 02.01.2021
4141 Clouds 12 1038 62 10000 4.1 130 18:40 02.01.2021
4142 Clouds 12 1038 62 10000 4.1 130 18:40 02.01.2021
4143 Clouds 11 1038 66 10000 4.1 110 18:20 02.01.2021
4144 Clouds 11 1038 66 10000 4.1 110 17:45 02.01.2021
4145 Clouds 12 1039 62 10000 3.1 90 16:59 02.01.2021
4146 Clouds 12 1039 62 10000 3.1 90 16:23 02.01.2021
4147 Clouds 9 1039 70 10000 2.6 60 15:54 02.01.2021
4148 Clouds 9 1039 70 10000 2.6 60 15:32 02.01.2021
4149 Clouds 5 1040 93 6000 2.6 70 14:55 02.01.2021
4150 Clouds 5 1040 93 6000 2.6 70 14:35 02.01.2021
4151 Fog 7 1039 93 4000 3.1 90 13:49 02.01.2021
4152 Fog 7 1038 87 4000 2.6 100 13:18 02.01.2021
4153 Fog 7 1038 87 4000 2.6 100 12:43 02.01.2021
4154 Fog 6 1037 93 4000 2.1 120 12:24 02.01.2021
4155 Fog 6 1037 93 4000 2.1 120 11:43 02.01.2021
4156 Fog 6 1037 93 4000 2.1 120 11:21 02.01.2021
4157 Fog 6 1037 93 4000 2.1 120 10:42 02.01.2021
4158 Fog 6 1037 93 4000 3.1 110 10:24 02.01.2021
4159 Fog 6 1037 93 4000 3.1 110 09:43 02.01.2021
4160 Fog 7 1037 93 4000 4.1 130 09:21 02.01.2021
4161 Fog 7 1037 93 4000 4.1 130 08:49 02.01.2021
4162 Fog 7 1037 93 4000 2.6 120 08:19 02.01.2021
4163 Fog 8 1038 87 4000 2.6 110 07:25 02.01.2021
4164 Fog 8 1038 87 4000 2.6 110 06:58 02.01.2021
4165 Fog 8 1039 93 4000 2.6 100 06:18 02.01.2021
4166 Clouds 9 1038 87 10000 2.6 100 04:26 02.01.2021
4167 Clouds 11 1036 62 10000 4.6 60 00:49 02.01.2021
4168 Clouds 11 1036 62 10000 4.6 60 00:28 02.01.2021
4169 Clouds 13 1036 54 10000 5.1 50 23:39 01.01.2021
4170 Clouds 16 1035 41 10000 6.2 140 23:19 01.01.2021
4171 Clouds 16 1035 41 10000 6.2 140 22:46 01.01.2021
4172 Clouds 16 1035 51 10000 5.7 120 22:21 01.01.2021
4173 Clouds 16 1035 51 10000 5.7 120 21:43 01.01.2021
4174 Clouds 15 1036 54 10000 4.1 120 21:20 01.01.2021
4175 Clouds 15 1036 54 10000 4.1 120 20:50 01.01.2021
4176 Clouds 15 1036 54 10000 4.1 120 20:50 01.01.2021
4177 Clouds 15 1038 58 10000 4.1 110 20:19 01.01.2021
4178 Clouds 15 1038 58 10000 4.1 110 19:42 01.01.2021
4179 Clouds 14 1039 58 10000 4.6 120 19:22 01.01.2021
4180 Clouds 14 1039 58 10000 4.6 120 18:47 01.01.2021
4181 Clouds 14 1039 58 10000 4.6 120 18:28 01.01.2021
4182 Clouds 13 1040 66 10000 4.1 110 17:50 01.01.2021
4183 Clouds 12 1040 66 10000 2.6 130 17:24 01.01.2021
4184 Clouds 12 1040 66 10000 2.6 130 16:52 01.01.2021
4185 Clouds 12 1040 66 10000 2.6 130 16:28 01.01.2021
4186 Clouds 10 1040 76 8000 2.1 100 15:42 01.01.2021
4187 Clouds 8 1040 81 6000 3.1 110 14:50 01.01.2021
4188 Clouds 8 1040 81 6000 3.1 110 14:31 01.01.2021
4189 Clouds 8 1039 75 6000 2.6 90 13:40 01.01.2021
4190 Fog 6 1039 93 4000 3.1 100 13:20 01.01.2021
4191 Fog 6 1039 93 4000 3.1 100 12:36 01.01.2021
4192 Fog 5 1038 100 4000 1.5 110 12:18 01.01.2021
4193 Fog 5 1038 100 4000 1.5 110 11:38 01.01.2021
4194 Fog 5 1037 93 4000 1 90 11:18 01.01.2021
4195 Fog 5 1037 93 4000 1 90 10:33 01.01.2021
4196 Fog 6 1037 93 4000 1.5 60 09:39 01.01.2021
4197 Fog 5 1037 100 4000 1.5 70 08:52 01.01.2021
4198 Fog 6 1038 93 4000 1 0 08:25 01.01.2021
4199 Fog 6 1038 93 4000 3.1 100 04:52 01.01.2021
4200 Fog 8 1036 87 4000 3.6 90 02:25 01.01.2021
4201 Clouds 9 1036 66 10000 3.6 70 00:37 01.01.2021
4202 Clouds 10 1035 61 10000 4.1 40 23:56 31.12.2020
4203 Clouds 11 1035 57 10000 4.6 60 23:22 31.12.2020
4204 Rain 11 1035 57 10000 4.6 60 22:56 31.12.2020
4205 Rain 11 1035 57 10000 4.6 60 22:37 31.12.2020
4206 Clouds 12 1035 62 10000 5.1 100 22:19 31.12.2020
4207 Clouds 12 1035 62 10000 5.1 100 21:44 31.12.2020
4208 Clouds 12 1035 66 10000 6.2 100 21:21 31.12.2020
4209 Clouds 12 1035 66 10000 6.2 100 20:31 31.12.2020
4210 Clouds 12 1036 66 10000 5.1 120 19:59 31.12.2020
4211 Clouds 12 1036 66 10000 5.1 120 19:36 31.12.2020
4212 Clouds 11 1036 66 10000 4.6 100 19:18 31.12.2020
4213 Clouds 11 1036 66 10000 4.6 100 18:41 31.12.2020
4214 Clouds 9 1037 87 8000 5.1 120 18:23 31.12.2020
4215 Clouds 9 1037 87 8000 5.1 120 17:41 31.12.2020
4216 Clouds 9 1037 76 8000 5.1 120 17:21 31.12.2020
4217 Clouds 9 1037 76 8000 5.1 120 16:39 31.12.2020
4218 Clouds 8 1037 81 8000 4.1 100 16:20 31.12.2020
4219 Clouds 8 1037 81 8000 4.1 100 15:45 31.12.2020
4220 Rain 8 1038 81 6000 2.1 100 15:20 31.12.2020
4221 Rain 8 1038 81 6000 2.1 100 14:44 31.12.2020
4222 Clouds 6 1037 87 6000 1 0 14:24 31.12.2020
4223 Clouds 6 1037 87 6000 1 0 13:59 31.12.2020
4224 Clouds 6 1037 87 6000 1 0 13:38 31.12.2020
4225 Fog 4 1037 100 4000 2.1 70 13:19 31.12.2020
4226 Fog 4 1037 100 4000 2.1 70 12:50 31.12.2020
4227 Fog 4 1037 100 4000 2.1 70 12:32 31.12.2020
4228 Rain 4 1036 100 4000 4.6 120 11:47 31.12.2020
4229 Rain 5 1035 93 5000 6.7 100 11:29 31.12.2020
4230 Rain 5 1035 93 5000 6.7 100 10:45 31.12.2020
4231 Rain 5 1036 100 4000 3.6 140 10:27 31.12.2020
4232 Rain 5 1036 100 4000 3.6 140 09:49 31.12.2020
4233 Rain 5 1036 100 4000 3.6 140 09:24 31.12.2020
4234 Rain 6 1035 93 6000 2.6 10 08:49 31.12.2020
4235 Rain 6 1035 93 6000 2.6 10 08:31 31.12.2020
4236 Rain 6 1035 93 4000 1 0 07:56 31.12.2020
4237 Rain 6 1035 93 4000 1 0 07:25 31.12.2020
4238 Clouds 6 1036 87 10000 1 0 05:30 31.12.2020
4239 Clouds 6 1036 87 10000 1 0 03:37 31.12.2020
4240 Clouds 7 1035 87 10000 1 0 02:37 31.12.2020
4241 Clouds 7 1035 87 10000 1 0 01:58 31.12.2020
4242 Clouds 7 1035 87 10000 1 0 01:39 31.12.2020
4243 Rain 7 1034 87 10000 3.1 210 00:59 31.12.2020
4244 Clouds 7 1034 87 10000 3.1 210 00:39 31.12.2020
4245 Clouds 7 1034 87 7000 2.6 220 23:39 30.12.2020
4246 Clouds 10 1033 71 5000 5.1 40 23:18 30.12.2020
4247 Clouds 10 1033 71 5000 5.1 40 22:36 30.12.2020
4248 Rain 12 1032 54 10000 6.2 300 21:54 30.12.2020
4249 Thunderstorm 12 1032 54 10000 6.2 300 21:28 30.12.2020
4250 Thunderstorm 12 1032 54 10000 6.2 300 21:28 30.12.2020
4251 Thunderstorm 15 1033 47 10000 5.1 80 20:54 30.12.2020
4252 Thunderstorm 15 1033 47 10000 5.1 80 20:29 30.12.2020
4253 Thunderstorm 15 1033 51 10000 7.2 80 19:59 30.12.2020
4254 Thunderstorm 15 1033 51 10000 7.2 80 19:37 30.12.2020
4255 Thunderstorm 15 1033 51 10000 7.2 80 19:37 30.12.2020
4256 Clouds 17 1035 39 10000 3.1 70 19:18 30.12.2020
4257 Clouds 17 1035 39 10000 3.1 70 18:39 30.12.2020
4258 Clouds 16 1035 38 10000 3.1 40 18:20 30.12.2020
4259 Clouds 16 1035 38 10000 3.1 40 17:48 30.12.2020
4260 Clouds 12 1036 58 10000 2.6 160 17:29 30.12.2020
4261 Clouds 12 1036 58 10000 2.6 160 16:44 30.12.2020
4262 Rain 10 1036 66 10000 1.5 180 15:51 30.12.2020
4263 Clouds 10 1036 66 10000 1.5 180 15:30 30.12.2020
4264 Clouds 9 1036 70 10000 1 0 14:58 30.12.2020
4265 Clouds 9 1036 70 10000 1 0 14:39 30.12.2020
4266 Clouds 8 1036 81 6000 1 0 14:18 30.12.2020
4267 Clouds 7 1036 87 6000 1 0 13:18 30.12.2020
4268 Fog 6 1035 93 4000 1 0 12:26 30.12.2020
4269 Fog 6 1035 93 4000 1 0 11:44 30.12.2020
4270 Fog 6 1034 93 4000 1 0 11:22 30.12.2020
4271 Fog 6 1034 93 4000 1 0 10:57 30.12.2020
4272 Fog 6 1034 93 4000 1 0 10:37 30.12.2020
4273 Clouds 6 1034 93 10000 1 0 10:18 30.12.2020
4274 Clouds 6 1034 93 10000 1 0 09:41 30.12.2020
4275 Clouds 6 1034 93 10000 2.6 230 08:35 30.12.2020
4276 Fog 7 1035 93 4000 1 0 07:46 30.12.2020
4277 Fog 7 1035 93 4000 1 0 07:21 30.12.2020
4278 Fog 7 1035 93 4000 1 0 06:38 30.12.2020
4279 Fog 7 1036 87 4000 1 0 05:47 30.12.2020
4280 Fog 7 1036 87 4000 1 0 05:27 30.12.2020
4281 Clouds 8 1035 70 10000 6.2 60 03:29 30.12.2020
4282 Clouds 8 1035 70 10000 6.2 60 02:47 30.12.2020
4283 Clouds 8 1035 70 10000 6.2 60 02:47 30.12.2020
4284 Clouds 9 1034 66 10000 5.7 50 02:27 30.12.2020
4285 Clouds 9 1034 66 10000 5.7 50 01:34 30.12.2020
4286 Clouds 10 1033 61 10000 5.1 50 00:51 30.12.2020
4287 Clouds 10 1033 61 10000 5.1 50 00:32 30.12.2020
4288 Clouds 13 1033 50 10000 4.6 70 23:57 29.12.2020
4289 Clouds 13 1033 50 10000 4.6 70 23:39 29.12.2020
4290 Clouds 13 1032 50 10000 4.6 50 23:18 29.12.2020
4291 Clouds 13 1032 50 10000 4.6 50 22:41 29.12.2020
4292 Clouds 13 1033 54 10000 5.7 60 22:23 29.12.2020
4293 Clouds 13 1033 54 10000 5.7 60 21:46 29.12.2020
4294 Clouds 13 1033 58 10000 4.6 120 21:26 29.12.2020
4295 Clouds 13 1033 58 10000 4.6 120 20:48 29.12.2020
4296 Clouds 13 1034 58 10000 5.1 100 20:26 29.12.2020
4297 Clouds 13 1034 58 10000 5.1 100 19:56 29.12.2020
4298 Clouds 13 1034 58 10000 5.1 100 19:37 29.12.2020
4299 Clouds 14 1010 52 8418 4.03 50 19:18 29.12.2020
4300 Clouds 15 1010 50 10000 4.55 55 18:39 29.12.2020
4301 Clouds 14 1011 51 8675 4.01 59 18:18 29.12.2020
4302 Clouds 14 1011 51 8675 4.01 59 17:38 29.12.2020
4303 Clouds 14 1011 51 8675 4.01 59 17:38 29.12.2020
4304 Clouds 13 1013 53 6540 3.61 63 17:19 29.12.2020
4305 Clouds 13 1013 53 6540 3.61 63 16:36 29.12.2020
4306 Clouds 13 1014 56 7581 3.07 72 15:56 29.12.2020
4307 Clouds 13 1014 56 7581 3.07 72 15:34 29.12.2020
4308 Clouds 12 1015 60 10000 3.05 92 14:58 29.12.2020
4309 Clouds 12 1015 60 10000 3.05 92 14:36 29.12.2020
4310 Clouds 10 1016 66 10000 2.8 107 14:18 29.12.2020
4311 Clouds 10 1016 66 10000 2.8 107 13:37 29.12.2020
4312 Clouds 8 1016 74 10000 2.16 116 13:18 29.12.2020
4313 Clouds 8 1017 74 10000 2.58 108 12:37 29.12.2020
4314 Clouds 7 1017 79 10000 2.09 101 12:19 29.12.2020
4315 Clouds 7 1017 79 10000 2.09 101 11:50 29.12.2020
4316 Clouds 5 1016 83 10000 1.59 94 11:31 29.12.2020
4317 Fog 6 1034 93 4000 3.6 110 10:22 29.12.2020
4318 Fog 6 1034 93 4000 3.6 110 09:47 29.12.2020
4319 Fog 5 1034 100 4000 4.1 100 09:19 29.12.2020
4320 Clouds 5 1015 82 10000 1.32 86 08:49 29.12.2020
4321 Fog 4 1035 100 4000 2.6 80 07:44 29.12.2020
4322 Fog 4 1035 100 4000 2.6 80 07:26 29.12.2020
4323 Clouds 6 1036 93 10000 1 0 05:54 29.12.2020
4324 Fog 6 1035 93 4000 4.1 120 02:41 29.12.2020
4325 Clouds 26 1009 78 10000 3.1 340 00:44 29.12.2020
4326 Clouds 26 1009 78 10000 3.1 340 00:44 29.12.2020
4327 Clouds 9 1034 70 10000 3.6 70 23:39 28.12.2020
4328 Clouds 10 1034 66 10000 5.7 90 22:56 28.12.2020
4329 Clouds 10 1034 71 10000 7.7 100 22:22 28.12.2020
4330 Rain 10 1034 71 10000 7.7 100 21:42 28.12.2020
4331 Rain 10 1034 71 8000 6.2 100 21:21 28.12.2020
4332 Clouds 10 1034 71 8000 6.2 100 20:40 28.12.2020
4333 Clouds 11 1035 71 8000 6.2 120 20:21 28.12.2020
4334 Clouds 11 1035 71 8000 6.2 120 19:42 28.12.2020
4335 Clouds 9 1036 87 6000 5.1 110 19:23 28.12.2020
4336 Clouds 11 1035 71 8000 6.2 120 19:23 28.12.2020
4337 Clouds 9 1036 87 6000 5.1 110 18:50 28.12.2020
4338 Clouds 9 1036 87 6000 6.7 110 18:28 28.12.2020
4339 Clouds 9 1036 87 6000 6.7 110 17:42 28.12.2020
4340 Clouds 9 1036 87 6000 6.7 110 17:42 28.12.2020
4341 Fog 7 1037 93 4000 5.7 120 17:20 28.12.2020
4342 Fog 7 1037 93 4000 5.7 120 16:34 28.12.2020
4343 Rain 6 1037 93 4000 5.1 120 15:59 28.12.2020
4344 Fog 6 1037 93 4000 5.1 120 15:41 28.12.2020
4345 Clouds 26 1013 83 4000 4.1 350 14:54 28.12.2020
4346 Clouds 5 1036 93 4000 4.6 110 13:54 28.12.2020
4347 Clouds 5 1035 100 4000 3.1 100 13:25 28.12.2020
4348 Clouds 5 1035 100 4000 3.1 100 13:25 28.12.2020
4349 Fog 5 1034 93 4000 2.6 110 12:41 28.12.2020
4350 Fog 5 1034 93 4000 2.6 110 12:20 28.12.2020
4351 Fog 5 1034 93 4000 2.6 110 11:45 28.12.2020
4352 Fog 5 1034 93 4000 2.6 140 11:23 28.12.2020
4353 Fog 5 1034 93 4000 2.6 140 10:44 28.12.2020
4354 Fog 6 1034 93 4000 3.1 110 10:26 28.12.2020
4355 Fog 6 1034 93 4000 3.1 110 09:46 28.12.2020
4356 Fog 6 1034 93 4000 2.6 70 09:19 28.12.2020
4357 Rain 6 1034 93 4000 3.6 80 07:30 28.12.2020
4358 Rain 7 1035 87 4000 4.1 90 06:48 28.12.2020
4359 Clouds 8 1035 75 10000 4.1 80 04:26 28.12.2020
4360 Clouds 9 1033 61 10000 5.7 50 01:57 28.12.2020
4361 Clouds 10 1033 57 10000 5.1 40 00:30 28.12.2020
4362 Clouds 11 1032 57 10000 6.2 50 23:46 27.12.2020
4363 Clouds 13 1032 54 10000 5.7 80 23:18 27.12.2020
4364 Clouds 14 1032 54 10000 5.1 100 21:56 27.12.2020
4365 Clouds 14 1032 54 10000 5.1 100 21:25 27.12.2020
4366 Clouds 14 1033 47 10000 5.1 70 20:42 27.12.2020
4367 Clouds 13 1034 58 10000 6.2 110 19:25 27.12.2020
4368 Clouds 12 1035 54 10000 5.7 110 18:54 27.12.2020
4369 Clouds 12 1035 54 10000 5.7 110 18:36 27.12.2020
4370 Clouds 12 1035 58 10000 4.6 60 18:18 27.12.2020
4371 Clouds 12 1035 58 10000 4.6 60 18:18 27.12.2020
4372 Clouds 12 1035 58 10000 4.6 60 17:42 27.12.2020
4373 Clouds 12 1036 58 10000 4.6 100 17:21 27.12.2020
4374 Clouds 12 1036 58 10000 4.6 100 16:30 27.12.2020
4375 Clouds 11 1036 62 10000 3.6 120 15:40 27.12.2020
4376 Clouds 9 1036 70 6000 3.6 120 14:58 27.12.2020
4377 Clouds 9 1036 70 6000 3.6 120 14:38 27.12.2020
4378 Fog 9 1035 87 4000 3.6 90 13:43 27.12.2020
4379 Fog 6 1034 87 4000 4.1 60 13:19 27.12.2020
4380 Rain 6 1034 87 4000 4.1 60 12:41 27.12.2020
4381 Fog 5 1033 86 4000 3.1 80 11:46 27.12.2020
4382 Fog 5 1033 93 4000 4.1 80 11:28 27.12.2020
4383 Clouds 7 1014 78 4060 2.88 59 10:51 27.12.2020
4384 Rain 5 1033 93 4000 3.6 90 10:23 27.12.2020
4385 Rain 5 1033 93 4000 3.6 90 09:41 27.12.2020
4386 Fog 5 1033 93 4000 3.1 60 08:29 27.12.2020
4387 Fog 5 1033 93 4000 3.1 60 08:29 27.12.2020
4388 Fog 6 1034 93 4000 2.1 90 07:58 27.12.2020
4389 Fog 6 1034 93 4000 2.1 90 07:25 27.12.2020
4390 Fog 6 1035 93 4000 2.6 100 05:39 27.12.2020
4391 Fog 7 1034 93 4000 3.1 90 03:26 27.12.2020
4392 Fog 7 1034 87 4000 2.1 90 02:40 27.12.2020
4393 Fog 7 1032 87 4000 3.6 110 00:58 27.12.2020
4394 Clouds 7 1031 93 6000 4.1 110 23:44 26.12.2020
4395 Clouds 7 1031 93 6000 4.1 110 23:26 26.12.2020
4396 Clouds 8 1031 87 8000 5.7 130 22:46 26.12.2020
4397 Clouds 10 1031 71 10000 5.7 120 22:20 26.12.2020
4398 Clouds 10 1031 71 10000 5.7 120 21:54 26.12.2020
4399 Clouds 10 1031 71 10000 5.7 120 21:31 26.12.2020
4400 Clouds 11 1031 66 10000 5.7 120 20:46 26.12.2020
4401 Rain 11 1031 66 10000 5.7 120 20:26 26.12.2020
4402 Rain 11 1032 71 10000 4.1 90 19:50 26.12.2020
4403 Rain 11 1033 71 10000 6.2 120 19:22 26.12.2020
4404 Rain 11 1033 71 10000 6.2 120 18:36 26.12.2020
4405 Clouds 10 1034 76 10000 4.6 120 17:48 26.12.2020
4406 Clouds 10 1034 76 10000 4.6 120 17:29 26.12.2020
4407 Clouds 10 1035 76 10000 3.6 100 16:40 26.12.2020
4408 Clouds 9 1035 81 10000 2.6 100 16:21 26.12.2020
4409 Clouds 8 1035 81 6000 1 0 15:24 26.12.2020
4410 Rain 8 1035 81 6000 1 0 14:44 26.12.2020
4411 Fog 6 1035 93 4000 1 0 14:20 26.12.2020
4412 Rain 6 1035 93 4000 1 0 13:39 26.12.2020
4413 Fog 6 1034 87 4000 1.24 81 13:20 26.12.2020
4414 Fog 6 1034 87 4000 1.58 69 12:41 26.12.2020
4415 Clouds 5 1034 93 6000 1 0 12:19 26.12.2020
4416 Clouds 5 1034 93 6000 1 0 11:42 26.12.2020
4417 Rain 5 1034 93 6000 1.5 80 11:20 26.12.2020
4418 Rain 5 1034 93 6000 1.5 80 10:47 26.12.2020
4419 Rain 5 1034 93 6000 2.1 40 10:26 26.12.2020
4420 Rain 7 1013 75 10000 1.89 38 09:47 26.12.2020
4421 Rain 5 1034 100 6000 2.1 90 08:55 26.12.2020
4422 Rain 5 1035 93 6000 2.6 50 08:20 26.12.2020
4423 Rain 6 1035 93 6000 5.1 120 07:21 26.12.2020
4424 Rain 7 1036 93 8000 5.1 170 05:38 26.12.2020
4425 Clouds 10 1034 71 10000 5.1 130 02:48 26.12.2020
4426 Clouds 13 1031 50 10000 4.1 100 00:40 26.12.2020
4427 Clouds 14 1031 44 10000 4.6 80 23:56 25.12.2020
4428 Clouds 14 1031 44 10000 4.6 80 23:37 25.12.2020
4429 Clouds 16 1031 38 10000 5.1 50 23:19 25.12.2020
4430 Clouds 16 1031 38 10000 5.1 50 22:26 25.12.2020
4431 Clouds 17 1031 36 10000 4.6 110 21:44 25.12.2020
4432 Clouds 17 1033 36 10000 5.1 90 21:25 25.12.2020
4433 Clouds 17 1033 36 10000 5.1 90 20:45 25.12.2020
4434 Clouds 18 1034 36 10000 5.1 100 20:27 25.12.2020
4435 Clouds 18 1034 36 10000 5.1 100 19:43 25.12.2020
4436 Clouds 16 1035 38 10000 4.6 110 18:49 25.12.2020
4437 Clouds 14 1036 44 10000 4.1 130 18:30 25.12.2020
4438 Clouds 14 1036 44 10000 4.1 130 17:35 25.12.2020
4439 Clouds 14 1037 50 10000 3.6 140 16:55 25.12.2020
4440 Clouds 13 1037 54 10000 3.6 160 16:25 25.12.2020
4441 Clouds 13 1037 54 10000 3.6 160 15:50 25.12.2020
4442 Clouds 10 1037 71 8000 2.6 120 15:31 25.12.2020
4443 Clouds 10 1037 71 8000 2.6 120 14:32 25.12.2020
4444 Clouds 8 1037 81 6000 3.1 100 13:57 25.12.2020
4445 Clouds 8 1037 81 6000 3.1 100 13:37 25.12.2020
4446 Fog 6 1036 93 4000 2.1 80 13:18 25.12.2020
4447 Fog 6 1036 93 4000 2.1 80 12:27 25.12.2020
4448 Fog 4 1035 100 4000 1 0 11:48 25.12.2020
4449 Fog 4 1035 100 4000 2.1 90 11:24 25.12.2020
4450 Fog 4 1035 100 4000 2.1 90 11:24 25.12.2020
4451 Fog 4 1035 100 4000 2.1 90 10:47 25.12.2020
4452 Clouds 5 1035 100 10000 3.1 50 10:19 25.12.2020
4453 Clouds 5 1035 100 10000 3.1 50 09:26 25.12.2020
4454 Fog 5 1035 93 4000 2.6 90 08:37 25.12.2020
4455 Clouds 8 1036 87 10000 1 0 06:52 25.12.2020
4456 Clouds 9 1037 70 10000 2.6 150 06:21 25.12.2020
4457 Clouds 11 1035 57 10000 3.1 60 02:23 25.12.2020
4458 Rain 11 1034 57 10000 5.1 40 00:32 25.12.2020
4459 Rain 12 1033 58 10000 4.1 60 23:32 24.12.2020
4460 Clouds 14 1033 50 10000 8.2 90 22:55 24.12.2020
4461 Clouds 17 1033 42 10000 4.6 120 22:25 24.12.2020
4462 Rain 17 1033 42 10000 4.6 120 21:48 24.12.2020
4463 Clouds 16 1034 44 10000 5.1 110 20:59 24.12.2020
4464 Clouds 16 1035 44 10000 5.1 110 19:48 24.12.2020
4465 Clouds 16 1036 44 10000 5.7 90 18:21 24.12.2020
4466 Clouds 14 1037 50 10000 5.7 80 17:38 24.12.2020
4467 Clouds 13 1038 58 10000 3.6 80 17:20 24.12.2020
4468 Clouds 13 1038 58 10000 3.6 80 17:20 24.12.2020
4469 Clouds 13 1038 58 10000 3.6 80 17:20 24.12.2020
4470 Clouds 14 1038 54 10000 4.6 90 16:25 24.12.2020
4471 Clouds 14 1038 54 10000 4.6 90 15:45 24.12.2020
4472 Clouds 12 1038 58 10000 4.1 70 15:23 24.12.2020
4473 Clouds 12 1038 58 10000 4.1 70 14:56 24.12.2020
4474 Clouds 11 1038 66 6000 2.6 100 14:24 24.12.2020
4475 Clouds 11 1038 66 6000 2.6 100 13:49 24.12.2020
4476 Clouds 11 1038 66 6000 2.6 100 13:30 24.12.2020
4477 Fog 8 1036 87 4000 2.6 120 12:56 24.12.2020
4478 Fog 8 1036 87 4000 2.6 120 12:37 24.12.2020
4479 Fog 5 1035 100 4000 3.1 80 12:18 24.12.2020
4480 Fog 5 1035 100 4000 3.1 80 11:38 24.12.2020
4481 Fog 6 1035 93 4000 3.1 80 11:18 24.12.2020
4482 Fog 6 1035 93 4000 3.1 80 10:43 24.12.2020
4483 Fog 7 1035 87 4000 2.6 110 09:54 24.12.2020
4484 Fog 7 1035 87 4000 2.6 110 09:35 24.12.2020
4485 Fog 7 1035 93 4000 1 0 08:48 24.12.2020
4486 Fog 6 1036 93 4000 1.5 110 07:48 24.12.2020
4487 Fog 6 1036 93 4000 1.5 110 07:28 24.12.2020
4488 Clouds 6 1037 93 10000 2.1 80 06:20 24.12.2020
4489 Clouds 9 1035 70 10000 4.1 100 02:50 24.12.2020
4490 Clouds 10 1034 61 10000 5.1 70 01:47 24.12.2020
4491 Clouds 11 1033 53 10000 4.6 50 01:18 24.12.2020
4492 Clouds 13 1033 54 10000 5.7 60 00:23 24.12.2020
4493 Clouds 13 1033 54 10000 5.7 60 23:49 23.12.2020
4494 Clouds 13 1033 54 10000 5.7 60 23:31 23.12.2020
4495 Clouds 14 1033 47 10000 5.1 90 22:59 23.12.2020
4496 Clouds 14 1033 47 10000 5.1 90 22:40 23.12.2020
4497 Clouds 15 1034 41 10000 4.6 110 22:18 23.12.2020
4498 Clouds 15 1034 41 10000 4.6 110 21:31 23.12.2020
4499 Clouds 16 1035 41 10000 4.6 100 20:57 23.12.2020
4500 Clouds 16 1035 41 10000 4.6 100 20:37 23.12.2020
4501 Clouds 15 1036 41 10000 5.7 90 20:19 23.12.2020
4502 Clouds 15 1036 41 10000 5.7 90 19:41 23.12.2020
4503 Clouds 15 1037 44 10000 6.7 110 19:22 23.12.2020
4504 Clouds 15 1037 44 10000 6.7 110 18:51 23.12.2020
4505 Clouds 14 1037 50 10000 5.1 110 18:33 23.12.2020
4506 Clouds 14 1037 50 10000 5.1 110 17:43 23.12.2020
4507 Clouds 12 1038 58 10000 5.1 130 17:22 23.12.2020
4508 Clouds 12 1038 58 10000 5.1 130 16:49 23.12.2020
4509 Clouds 12 1038 58 10000 5.1 130 16:30 23.12.2020
4510 Clouds 11 1038 62 10000 4.6 110 15:58 23.12.2020
4511 Clouds 11 1038 62 10000 4.6 110 15:38 23.12.2020
4512 Clouds 8 1038 75 6000 4.1 140 15:20 23.12.2020
4513 Clouds 8 1038 75 6000 4.1 140 14:41 23.12.2020
4514 Clouds 7 1038 81 6000 1 0 14:21 23.12.2020
4515 Clouds 7 1038 81 6000 1 0 13:44 23.12.2020
4516 Fog 6 1037 87 4000 1 0 13:20 23.12.2020
4517 Fog 6 1037 87 4000 1 0 12:54 23.12.2020
4518 Fog 6 1037 87 4000 1 0 12:30 23.12.2020
4519 Fog 5 1036 93 4000 1 60 11:54 23.12.2020
4520 Fog 5 1036 86 4000 2.6 110 11:27 23.12.2020
4521 Fog 5 1036 86 4000 2.6 110 10:53 23.12.2020
4522 Clouds 7 1016 82 10000 0.5 95 10:33 23.12.2020
4523 Fog 4 1036 100 4000 1.5 80 09:37 23.12.2020
4524 Fog 4 1036 100 4000 1.5 80 08:51 23.12.2020
4525 Fog 5 1036 93 4000 3.1 80 08:23 23.12.2020
4526 Fog 5 1036 93 4000 3.1 80 07:43 23.12.2020
4527 Fog 5 1037 93 4000 3.6 90 06:41 23.12.2020
4528 Fog 5 1038 100 4000 3.1 80 05:54 23.12.2020
4529 Fog 6 1038 93 4000 3.1 90 05:19 23.12.2020
4530 Clouds 8 1036 87 10000 3.1 80 01:38 23.12.2020
4531 Clouds 10 1035 76 10000 2.1 100 00:30 23.12.2020
4532 Clouds 10 1034 81 10000 1 0 23:38 22.12.2020
4533 Clouds 10 1034 76 10000 2.6 270 23:20 22.12.2020
4534 Clouds 10 1034 76 10000 2.6 270 22:42 22.12.2020
4535 Thunderstorm 11 1034 71 10000 3.1 350 22:21 22.12.2020
4536 Thunderstorm 11 1034 71 10000 3.1 350 21:45 22.12.2020
4537 Clouds 13 1035 58 10000 5.7 100 21:20 22.12.2020
4538 Clouds 13 1035 58 10000 5.7 100 20:49 22.12.2020
4539 Clouds 12 1036 66 10000 6.7 110 20:25 22.12.2020
4540 Clouds 12 1036 66 10000 6.7 110 19:49 22.12.2020
4541 Thunderstorm 14 1036 58 10000 6.7 120 19:26 22.12.2020
4542 Thunderstorm 14 1036 58 10000 6.7 120 18:56 22.12.2020
4543 Thunderstorm 14 1036 58 10000 6.7 120 18:36 22.12.2020
4544 Clouds 13 1037 66 10000 5.1 120 18:18 22.12.2020
4545 Clouds 13 1037 66 10000 5.1 120 18:18 22.12.2020
4546 Clouds 13 1037 66 10000 5.1 120 17:36 22.12.2020
4547 Clouds 13 1037 66 10000 5.1 120 17:18 22.12.2020
4548 Clouds 11 1038 71 10000 6.2 130 16:44 22.12.2020
4549 Clouds 11 1018 64 10000 6.2 130 16:19 22.12.2020
4550 Clouds 11 1038 71 10000 4.6 100 15:43 22.12.2020
4551 Clouds 11 1038 71 10000 4.6 100 15:24 22.12.2020
4552 Clouds 10 1038 71 10000 3.6 120 14:45 22.12.2020
4553 Clouds 8 1038 81 6000 4.1 90 14:27 22.12.2020
4554 Clouds 8 1038 81 6000 4.1 90 13:53 22.12.2020
4555 Fog 5 1038 100 4000 3.6 80 13:20 22.12.2020
4556 Fog 5 1038 100 4000 3.6 80 12:58 22.12.2020
4557 Fog 5 1038 100 4000 3.6 80 12:39 22.12.2020
4558 Fog 5 1037 100 4000 3.6 80 12:19 22.12.2020
4559 Fog 5 1037 100 4000 3.6 80 11:42 22.12.2020
4560 Clouds 6 1018 80 6853 2.28 64 11:22 22.12.2020
4561 Clouds 6 1018 80 6853 2.28 64 10:55 22.12.2020
4562 Rain 6 1036 100 3000 4.1 110 10:27 22.12.2020
4563 Rain 6 1036 100 3000 4.1 110 09:58 22.12.2020
4564 Rain 6 1036 100 3000 4.1 110 09:30 22.12.2020
4565 Fog 7 1037 93 2500 1 0 08:58 22.12.2020
4566 Rain 7 1037 93 4000 3.1 200 08:39 22.12.2020
4567 Fog 7 1037 93 4000 3.1 200 08:19 22.12.2020
4568 Rain 7 1037 93 4000 3.1 200 07:27 22.12.2020
4569 Clouds 7 1038 81 10000 4.6 200 06:34 22.12.2020
4570 Clouds 8 1038 81 10000 4.1 180 05:30 22.12.2020
4571 Rain 10 1035 61 10000 2.1 150 02:24 22.12.2020
4572 Clouds 14 1034 41 10000 3.6 160 00:25 22.12.2020
4573 Clouds 14 1034 41 10000 3.6 160 23:46 21.12.2020
4574 Clouds 14 1034 41 10000 2.6 30 23:21 21.12.2020
4575 Clouds 14 1034 41 10000 2.6 30 22:36 21.12.2020
4576 Clouds 12 1034 50 10000 4.6 60 22:18 21.12.2020
4577 Clouds 12 1034 50 10000 4.6 60 21:46 21.12.2020
4578 Clouds 12 1035 46 10000 8.2 40 21:27 21.12.2020
4579 Thunderstorm 12 1036 46 10000 7.2 40 20:43 21.12.2020
4580 Thunderstorm 11 1036 53 10000 7.2 40 20:21 21.12.2020
4581 Clouds 13 1036 54 8000 6.7 40 19:47 21.12.2020
4582 Thunderstorm 13 1037 50 10000 5.1 140 19:20 21.12.2020
4583 Thunderstorm 13 1037 50 10000 5.1 140 18:55 21.12.2020
4584 Thunderstorm 13 1037 50 10000 5.1 140 18:37 21.12.2020
4585 Thunderstorm 14 1037 50 10000 4.6 150 18:18 21.12.2020
4586 Clouds 15 1037 44 10000 5.1 120 17:42 21.12.2020
4587 Clouds 15 1037 44 10000 5.1 120 17:22 21.12.2020
4588 Clouds 13 1038 54 10000 5.7 120 16:39 21.12.2020
4589 Clouds 12 1038 54 10000 2.1 180 16:19 21.12.2020
4590 Clouds 12 1038 54 10000 2.1 180 15:41 21.12.2020
4591 Clouds 11 1038 57 10000 2.1 250 14:57 21.12.2020
4592 Clouds 9 1038 61 10000 2.1 290 14:22 21.12.2020
4593 Clouds 9 1038 61 10000 2.1 290 13:49 21.12.2020
4594 Clouds 7 1037 75 10000 1 0 13:31 21.12.2020
4595 Clouds 7 1037 75 10000 1 0 12:47 21.12.2020
4596 Clouds 5 1036 86 6000 2.6 320 12:25 21.12.2020
4597 Clouds 5 1036 86 6000 2.6 320 11:59 21.12.2020
4598 Clouds 5 1036 86 6000 2.6 320 11:40 21.12.2020
4599 Clouds 5 1036 80 6000 2.6 350 11:22 21.12.2020
4600 Clouds 5 1036 80 6000 2.6 350 10:55 21.12.2020
4601 Clouds 5 1036 80 6000 2.6 350 10:36 21.12.2020
4602 Fog 6 1036 87 4000 1 0 09:51 21.12.2020
4603 Fog 6 1036 87 4000 1 0 09:27 21.12.2020
4604 Fog 5 1036 100 4000 2.1 80 08:58 21.12.2020
4605 Fog 4 1037 93 4000 1.5 80 08:18 21.12.2020
4606 Clouds 5 1037 86 10000 2.1 30 06:47 21.12.2020
4607 Clouds 7 1038 81 10000 2.6 250 04:58 21.12.2020
4608 Clouds 8 1036 75 10000 3.6 60 02:31 21.12.2020
4609 Clouds 10 1033 57 10000 4.6 70 00:34 21.12.2020
4610 Clouds 13 1032 43 10000 6.7 70 23:37 20.12.2020
4611 Clouds 14 1032 44 10000 5.1 70 23:18 20.12.2020
4612 Clouds 14 1032 44 10000 5.1 70 22:42 20.12.2020
4613 Clouds 15 1033 41 10000 5.7 70 22:22 20.12.2020
4614 Clouds 15 1033 41 10000 5.7 70 21:40 20.12.2020
4615 Clouds 14 1034 41 10000 3.1 70 21:21 20.12.2020
4616 Clouds 14 1034 41 10000 3.1 70 20:51 20.12.2020
4617 Clouds 12 1036 50 10000 2.6 70 20:25 20.12.2020
4618 Rain 12 1036 50 10000 2.6 70 19:49 20.12.2020
4619 Rain 12 1036 50 10000 2.6 70 19:31 20.12.2020
4620 Rain 10 1036 57 10000 6.2 10 18:58 20.12.2020
4621 Rain 10 1036 57 10000 6.2 10 18:38 20.12.2020
4622 Rain 7 1037 75 10000 9.8 50 18:20 20.12.2020
4623 Rain 7 1037 75 10000 9.8 50 17:43 20.12.2020
4624 Rain 8 1037 81 6000 7.2 100 17:22 20.12.2020
4625 Rain 8 1037 81 6000 7.2 100 16:45 20.12.2020
4626 Rain 9 1037 76 10000 7.2 110 16:25 20.12.2020
4627 Rain 9 1037 76 10000 7.2 110 15:47 20.12.2020
4628 Rain 12 1036 66 10000 4.1 110 15:24 20.12.2020
4629 Clouds 12 1036 66 10000 4.1 110 14:53 20.12.2020
4630 Clouds 12 1036 66 10000 4.1 110 14:30 20.12.2020
4631 Clouds 12 1036 66 10000 4.1 110 14:30 20.12.2020
4632 Clouds 11 1036 62 10000 2.6 90 13:46 20.12.2020
4633 Fog 6 1035 93 4000 1 0 13:24 20.12.2020
4634 Fog 6 1035 93 4000 1 0 12:54 20.12.2020
4635 Fog 6 1035 93 4000 1 0 12:36 20.12.2020
4636 Fog 4 1035 93 4000 2.1 80 12:18 20.12.2020
4637 Fog 4 1035 93 4000 2.1 80 11:42 20.12.2020
4638 Fog 6 1034 93 4000 4.6 100 10:55 20.12.2020
4639 Fog 6 1034 93 4000 4.6 100 10:37 20.12.2020
4640 Clouds 4 1033 93 10000 1.5 60 10:19 20.12.2020
4641 Clouds 4 1033 93 10000 1.5 60 09:42 20.12.2020
4642 Clouds 4 1034 93 10000 2.1 50 09:24 20.12.2020
4643 Rain 4 1034 93 10000 2.1 50 08:50 20.12.2020
4644 Rain 4 1034 93 10000 2.1 50 08:32 20.12.2020
4645 Clouds 6 1034 70 10000 2.6 30 07:23 20.12.2020
4646 Clouds 7 1034 70 10000 2.6 10 05:44 20.12.2020
4647 Clouds 9 1033 66 10000 7.2 90 01:33 20.12.2020
4648 Clouds 9 1033 66 10000 7.2 90 01:33 20.12.2020
4649 Clouds 10 1032 66 10000 3.6 320 00:22 20.12.2020
4650 Clouds 10 1032 61 10000 3.6 290 23:19 19.12.2020
4651 Clouds 13 1032 56 8000 6.7 240 22:46 19.12.2020
4652 Clouds 17 1032 49 10000 3.1 200 22:26 19.12.2020
4653 Clouds 17 1032 49 10000 3.1 200 21:59 19.12.2020
4654 Clouds 17 1032 49 10000 3.1 200 21:41 19.12.2020
4655 Thunderstorm 15 1033 38 10000 4.1 100 21:22 19.12.2020
4656 Thunderstorm 15 1033 38 10000 4.1 100 20:41 19.12.2020
4657 Thunderstorm 14 1034 44 10000 4.6 70 20:18 19.12.2020
4658 Thunderstorm 14 1034 44 10000 4.6 70 19:50 19.12.2020
4659 Thunderstorm 14 1034 44 10000 4.6 70 19:29 19.12.2020
4660 Rain 15 1034 41 10000 3.6 350 18:38 19.12.2020
4661 Rain 16 1035 41 10000 4.1 190 18:20 19.12.2020
4662 Clouds 16 1035 41 10000 4.1 190 17:45 19.12.2020
4663 Clouds 15 1036 51 10000 3.1 150 17:23 19.12.2020
4664 Clouds 15 1036 51 10000 3.1 150 16:44 19.12.2020
4665 Clouds 14 1036 54 10000 3.1 150 16:26 19.12.2020
4666 Clouds 14 1036 54 10000 3.1 150 15:55 19.12.2020
4667 Clouds 14 1036 54 10000 3.1 150 15:34 19.12.2020
4668 Clouds 11 1037 62 10000 3.1 280 14:41 19.12.2020
4669 Clouds 9 1037 66 10000 2.6 310 14:21 19.12.2020
4670 Clouds 9 1037 66 10000 2.6 310 13:41 19.12.2020
4671 Clouds 6 1036 81 10000 2.97 278 13:20 19.12.2020
4672 Clouds 6 1036 81 10000 2.76 280 12:44 19.12.2020
4673 Clouds 4 1035 86 10000 1 0 12:25 19.12.2020
4674 Clouds 4 1035 86 10000 1 0 11:57 19.12.2020
4675 Clouds 4 1035 86 10000 1 0 11:57 19.12.2020
4676 Clouds 4 1035 86 10000 1 0 11:35 19.12.2020
4677 Clouds 5 1034 86 10000 2.1 20 10:43 19.12.2020
4678 Fog 5 1034 93 4000 1.5 70 10:24 19.12.2020
4679 Fog 5 1034 93 4000 1.5 70 09:47 19.12.2020
4680 Fog 5 1034 93 4000 1.5 70 09:47 19.12.2020
4681 Clouds 6 1034 81 10000 1.5 150 09:29 19.12.2020
4682 Clouds 6 1034 81 10000 1.5 150 08:32 19.12.2020
4683 Clouds 7 1035 70 10000 2.1 350 07:24 19.12.2020
4684 Clouds 7 1035 70 10000 2.6 350 06:52 19.12.2020
4685 Clouds 5 1036 80 10000 1.5 20 06:19 19.12.2020
4686 Clouds 4 1036 86 10000 1 0 05:18 19.12.2020
4687 Clouds 6 1035 93 10000 2.6 60 02:55 19.12.2020
4688 Clouds 10 1034 53 10000 2.1 340 00:36 19.12.2020
4689 Clouds 11 1033 53 10000 3.1 320 00:18 19.12.2020
4690 Clouds 11 1033 53 10000 3.1 320 23:45 18.12.2020
4691 Thunderstorm 11 1034 57 10000 3.6 350 23:23 18.12.2020
4692 Thunderstorm 11 1034 57 10000 3.6 350 22:45 18.12.2020
4693 Thunderstorm 12 1034 50 10000 4.1 320 22:22 18.12.2020
4694 Clouds 11 1034 53 10000 5.7 330 21:50 18.12.2020
4695 Rain 15 1034 47 10000 5.1 130 21:31 18.12.2020
4696 Thunderstorm 15 1034 47 10000 5.1 130 20:40 18.12.2020
4697 Clouds 15 1036 51 10000 4.1 120 20:20 18.12.2020
4698 Clouds 15 1036 51 10000 4.1 120 19:42 18.12.2020
4699 Clouds 13 1037 58 10000 3.6 130 19:20 18.12.2020
4700 Clouds 13 1037 58 10000 3.6 130 18:40 18.12.2020
4701 Clouds 12 1038 54 10000 2.6 80 18:22 18.12.2020
4702 Clouds 10 1038 61 10000 1 0 17:24 18.12.2020
4703 Clouds 10 1038 61 10000 1 0 16:49 18.12.2020
4704 Clouds 9 1038 66 10000 1 0 16:27 18.12.2020
4705 Rain 9 1038 66 10000 1 0 15:59 18.12.2020
4706 Rain 9 1038 66 10000 1 0 15:41 18.12.2020
4707 Rain 8 1038 75 10000 1 0 15:22 18.12.2020
4708 Rain 8 1038 75 10000 1 0 14:54 18.12.2020
4709 Rain 8 1038 75 10000 1 0 14:54 18.12.2020
4710 Rain 7 1037 81 10000 1.5 60 14:21 18.12.2020
4711 Rain 7 1037 81 10000 1.5 60 14:21 18.12.2020
4712 Rain 7 1037 81 10000 1.5 60 13:49 18.12.2020
4713 Clouds 5 1036 86 6000 1.5 20 13:25 18.12.2020
4714 Clouds 5 1036 86 6000 1.5 20 12:46 18.12.2020
4715 Rain 2 1035 93 10000 1 0 11:51 18.12.2020
4716 Clouds 2 1035 93 10000 1.97 33 11:22 18.12.2020
4717 Clouds 2 1035 93 10000 1.97 33 10:39 18.12.2020
4718 Clouds 2 1035 100 10000 2.1 310 10:20 18.12.2020
4719 Clouds 2 1035 100 10000 2.1 310 09:38 18.12.2020
4720 Clouds 2 1036 93 10000 1 0 09:20 18.12.2020
4721 Clouds 2 1036 93 10000 1 0 08:53 18.12.2020
4722 Clouds 2 1036 93 10000 1 0 08:29 18.12.2020
4723 Clouds 2 1036 93 10000 2.1 50 07:36 18.12.2020
4724 Clouds 3 1037 93 10000 1 0 07:18 18.12.2020
4725 Clouds 3 1037 93 10000 1 0 06:42 18.12.2020
4726 Clouds 5 1038 86 10000 2.6 340 05:38 18.12.2020
4727 Clouds 6 1038 81 10000 3.6 300 04:51 18.12.2020
4728 Clouds 5 1038 93 6000 3.1 250 01:57 18.12.2020
4729 Clouds 5 1038 93 6000 3.1 250 01:37 18.12.2020
4730 Clouds 12 1036 54 8000 3.1 240 23:58 17.12.2020
4731 Clouds 14 1035 47 10000 5.7 50 23:25 17.12.2020
4732 Clouds 14 1035 47 10000 5.7 50 22:52 17.12.2020
4733 Clouds 14 1035 47 10000 5.7 50 22:28 17.12.2020
4734 Clouds 15 1035 44 10000 6.7 60 21:55 17.12.2020
4735 Clouds 15 1035 44 10000 6.7 60 21:37 17.12.2020
4736 Clouds 14 1035 41 10000 3.6 30 21:18 17.12.2020
4737 Clouds 14 1035 41 10000 3.6 30 21:18 17.12.2020
4738 Clouds 14 1035 41 10000 3.6 30 20:41 17.12.2020
4739 Thunderstorm 12 1037 46 10000 5.7 20 20:19 17.12.2020
4740 Rain 12 1037 46 10000 5.7 20 19:47 17.12.2020
4741 Thunderstorm 13 1038 54 10000 3.1 100 19:24 17.12.2020
4742 Rain 13 1038 54 10000 3.1 100 18:42 17.12.2020
4743 Rain 15 1038 47 10000 4.1 120 18:23 17.12.2020
4744 Clouds 16 1038 44 10000 3.6 140 17:53 17.12.2020
4745 Clouds 15 1039 47 10000 3.1 120 17:32 17.12.2020
4746 Clouds 15 1039 47 10000 3.1 120 16:45 17.12.2020
4747 Clouds 13 1039 54 10000 4.1 110 16:26 17.12.2020
4748 Clouds 13 1039 54 10000 4.1 110 15:52 17.12.2020
4749 Clouds 12 1039 58 10000 4.6 80 15:32 17.12.2020
4750 Clouds 12 1039 58 10000 4.6 80 14:55 17.12.2020
4751 Clouds 10 1039 71 6000 2.1 110 14:34 17.12.2020
4752 Clouds 10 1039 71 6000 2.1 110 13:58 17.12.2020
4753 Clouds 10 1039 71 6000 2.1 110 13:58 17.12.2020
4754 Clouds 10 1039 71 6000 2.1 110 13:35 17.12.2020
4755 Clouds 8 1038 81 6000 3.1 110 12:48 17.12.2020
4756 Fog 5 1037 93 4000 2.6 100 12:25 17.12.2020
4757 Fog 5 1037 93 4000 2.6 100 11:45 17.12.2020
4758 Fog 5 1036 100 4000 4.1 100 11:25 17.12.2020
4759 Clouds 7 1017 75 10000 2.06 51 10:56 17.12.2020
4760 Fog 6 1036 93 4000 2.1 130 10:21 17.12.2020
4761 Fog 6 1036 93 4000 2.1 130 09:29 17.12.2020
4762 Clouds 6 1037 87 10000 1 0 07:54 17.12.2020
4763 Clouds 6 1037 87 10000 1 0 07:35 17.12.2020
4764 Clouds 6 1037 93 10000 2.6 90 06:54 17.12.2020
4765 Clouds 6 1037 93 10000 2.6 90 06:32 17.12.2020
4766 Clouds 8 1037 81 10000 3.6 150 05:58 17.12.2020
4767 Clouds 10 1035 53 10000 4.6 220 00:38 17.12.2020
4768 Clouds 14 1034 35 10000 3.6 60 23:52 16.12.2020
4769 Clouds 14 1033 41 10000 5.7 40 23:20 16.12.2020
4770 Clouds 14 1033 41 10000 5.7 40 22:54 16.12.2020
4771 Rain 14 1033 41 10000 5.7 40 22:34 16.12.2020
4772 Clouds 14 1034 41 10000 4.6 40 21:50 16.12.2020
4773 Clouds 14 1034 41 10000 4.6 40 21:32 16.12.2020
4774 Clouds 13 1035 47 8000 5.7 60 20:55 16.12.2020
4775 Thunderstorm 16 1035 36 10000 5.7 80 20:21 16.12.2020
4776 Thunderstorm 16 1035 36 10000 5.7 80 19:52 16.12.2020
4777 Clouds 17 1036 33 10000 3.6 200 19:19 16.12.2020
4778 Clouds 17 1036 33 10000 3.6 200 18:53 16.12.2020
4779 Clouds 14 1037 47 10000 3.1 140 18:27 16.12.2020
4780 Clouds 14 1037 47 10000 3.1 140 17:43 16.12.2020
4781 Clouds 12 1038 54 10000 2.6 270 16:58 16.12.2020
4782 Clouds 12 1038 54 10000 2.6 270 16:39 16.12.2020
4783 Clouds 11 1038 62 10000 2.1 330 16:20 16.12.2020
4784 Clouds 11 1038 62 10000 2.1 330 15:49 16.12.2020
4785 Clouds 9 1038 76 6000 3.1 100 15:24 16.12.2020
4786 Clouds 9 1038 76 6000 3.1 100 14:46 16.12.2020
4787 Clouds 9 1038 76 6000 3.1 100 14:28 16.12.2020
4788 Fog 9 1037 76 4000 3.6 110 13:45 16.12.2020
4789 Clouds 10 1016 59 10000 1.95 76 13:27 16.12.2020
4790 Clouds 10 1016 59 10000 1.95 76 12:48 16.12.2020
4791 Fog 7 1035 93 4000 3.1 100 12:25 16.12.2020
4792 Fog 7 1035 93 4000 3.1 100 11:38 16.12.2020
4793 Fog 7 1034 87 4000 2.1 140 11:19 16.12.2020
4794 Fog 7 1034 87 4000 2.1 140 10:43 16.12.2020
4795 Fog 6 1034 93 4000 3.1 110 10:18 16.12.2020
4796 Fog 6 1034 93 4000 3.1 110 10:18 16.12.2020
4797 Fog 6 1034 93 4000 3.1 90 09:34 16.12.2020
4798 Fog 6 1034 93 4000 4.1 110 08:23 16.12.2020
4799 Fog 6 1034 93 4000 4.1 110 07:47 16.12.2020
4800 Fog 6 1034 93 4000 4.1 110 07:29 16.12.2020
4801 Clouds 7 1034 87 10000 4.6 100 05:42 16.12.2020
4802 Clouds 11 1032 53 10000 4.6 80 02:20 16.12.2020
4803 Clouds 17 1030 20 10000 6.2 90 23:57 15.12.2020
4804 Clouds 17 1030 20 10000 6.2 90 23:37 15.12.2020
4805 Clouds 19 1031 9 10000 3.6 210 22:44 15.12.2020
4806 Clouds 20 1031 7 10000 2.1 300 22:22 15.12.2020
4807 Clouds 20 1031 7 10000 2.1 300 21:49 15.12.2020
4808 Clouds 19 1032 8 10000 3.6 220 21:24 15.12.2020
4809 Clouds 19 1032 8 10000 3.6 220 20:46 15.12.2020
4810 Clouds 18 1033 10 10000 4.1 240 20:27 15.12.2020
4811 Clouds 18 1033 10 10000 4.1 240 19:55 15.12.2020
4812 Clouds 18 1034 11 10000 4.1 220 19:34 15.12.2020
4813 Clouds 18 1034 11 10000 4.1 220 18:55 15.12.2020
4814 Clouds 18 1034 11 10000 4.1 220 18:36 15.12.2020
4815 Clouds 16 1035 19 10000 2.6 290 18:18 15.12.2020
4816 Clouds 16 1035 19 10000 2.6 290 17:41 15.12.2020
4817 Clouds 15 1036 30 10000 2.6 260 17:20 15.12.2020
4818 Clouds 15 1036 30 10000 2.6 260 16:34 15.12.2020
4819 Clouds 13 1037 32 10000 2.1 220 15:59 15.12.2020
4820 Clouds 11 1037 34 10000 1 0 15:33 15.12.2020
4821 Clouds 11 1037 34 10000 1 0 14:49 15.12.2020
4822 Clouds 9 1036 70 10000 1 0 14:23 15.12.2020
4823 Clouds 9 1036 70 10000 1 0 13:52 15.12.2020
4824 Clouds 9 1036 70 10000 1 0 13:32 15.12.2020
4825 Fog 5 1036 93 4000 2.6 90 12:47 15.12.2020
4826 Fog 2 1035 100 3000 2.6 80 12:22 15.12.2020
4827 Fog 2 1035 100 3000 2.6 80 11:56 15.12.2020
4828 Fog 2 1035 100 3000 2.6 80 11:26 15.12.2020
4829 Fog 4 1035 100 4000 2.6 70 10:56 15.12.2020
4830 Fog 4 1035 100 4000 2.6 70 10:34 15.12.2020
4831 Fog 5 1034 93 3000 4.1 90 09:52 15.12.2020
4832 Fog 5 1034 93 3000 4.1 90 09:32 15.12.2020
4833 Fog 5 1034 100 2000 4.1 90 08:54 15.12.2020
4834 Fog 5 1034 100 2000 4.1 90 08:29 15.12.2020
4835 Fog 4 1035 100 3000 3.1 90 07:50 15.12.2020
4836 Fog 5 1036 93 4000 3.6 70 07:26 15.12.2020
4837 Fog 5 1036 93 4000 3.6 70 06:37 15.12.2020
4838 Clouds 6 1036 87 10000 3.1 70 03:29 15.12.2020
4839 Clouds 10 1032 61 10000 5.1 90 00:35 15.12.2020
4840 Clouds 16 1032 68 10000 4.6 80 23:26 14.12.2020
4841 Clouds 16 1032 68 10000 4.6 80 22:56 14.12.2020
4842 Clouds 16 1032 68 10000 4.6 80 22:34 14.12.2020
4843 Clouds 16 1033 36 10000 2.1 30 21:53 14.12.2020
4844 Clouds 16 1033 36 10000 2.1 30 21:35 14.12.2020
4845 Clouds 12 1034 46 10000 3.1 110 20:52 14.12.2020
4846 Thunderstorm 12 1034 50 10000 5.1 160 20:30 14.12.2020
4847 Clouds 14 1035 44 10000 2.1 60 19:54 14.12.2020
4848 Rain 14 1035 44 10000 2.1 60 19:29 14.12.2020
4849 Thunderstorm 11 1035 66 8000 5.1 10 18:51 14.12.2020
4850 Thunderstorm 11 1035 66 8000 5.1 10 18:51 14.12.2020
4851 Rain 11 1035 66 8000 5.1 10 18:31 14.12.2020
4852 Thunderstorm 15 1036 51 10000 5.1 70 17:47 14.12.2020
4853 Clouds 15 1036 51 10000 2.6 80 17:28 14.12.2020
4854 Clouds 15 1037 47 10000 4.1 110 16:52 14.12.2020
4855 Clouds 15 1037 54 10000 3.1 120 16:29 14.12.2020
4856 Clouds 15 1037 54 10000 3.1 120 15:44 14.12.2020
4857 Clouds 12 1037 66 10000 4.1 100 15:22 14.12.2020
4858 Clouds 12 1037 66 10000 4.1 100 14:43 14.12.2020
4859 Clouds 11 1037 66 6000 2.6 110 14:24 14.12.2020
4860 Clouds 11 1037 66 6000 2.6 110 13:43 14.12.2020
4861 Fog 8 1037 87 4000 3.1 100 13:19 14.12.2020
4862 Fog 8 1037 87 4000 3.1 100 12:52 14.12.2020
4863 Fog 5 1036 93 4000 3.1 80 12:24 14.12.2020
4864 Fog 5 1036 93 4000 3.1 80 11:35 14.12.2020
4865 Fog 7 1035 93 4000 3.6 100 10:38 14.12.2020
4866 Fog 7 1035 93 4000 4.6 90 10:19 14.12.2020
4867 Fog 7 1035 93 4000 4.6 90 09:31 14.12.2020
4868 Fog 6 1036 100 4000 3.6 90 08:47 14.12.2020
4869 Fog 6 1036 100 4000 3.6 90 08:28 14.12.2020
4870 Fog 6 1036 93 4000 3.6 60 07:44 14.12.2020
4871 Fog 7 1037 87 4000 3.6 100 06:46 14.12.2020
4872 Clouds 9 1037 45 10000 2.6 20 05:21 14.12.2020
4873 Clouds 12 1034 34 10000 2.6 30 02:26 14.12.2020
4874 Clouds 12 1033 32 10000 5.1 60 00:55 14.12.2020
4875 Clouds 12 1033 32 10000 5.1 60 00:33 14.12.2020
4876 Clouds 14 1033 50 10000 5.7 40 23:50 13.12.2020
4877 Clouds 14 1033 48 10000 5.7 40 23:27 13.12.2020
4878 Clouds 15 1033 28 10000 7.7 40 22:46 13.12.2020
4879 Clouds 18 1034 23 8000 7.2 80 22:20 13.12.2020
4880 Clouds 18 1034 23 8000 7.2 80 21:42 13.12.2020
4881 Clouds 18 1034 22 8000 7.7 120 21:24 13.12.2020
4882 Clouds 17 1034 21 10000 6.2 110 20:35 13.12.2020
4883 Clouds 20 1035 16 10000 4.1 150 19:53 13.12.2020
4884 Clouds 20 1035 16 10000 4.1 150 19:33 13.12.2020
4885 Clouds 18 1036 20 10000 1.5 230 18:59 13.12.2020
4886 Clouds 18 1036 20 10000 1.5 230 18:41 13.12.2020
4887 Clouds 18 1037 27 10000 2.6 250 18:20 13.12.2020
4888 Clouds 18 1037 27 10000 2.6 250 17:46 13.12.2020
4889 Clouds 16 1037 30 10000 2.1 260 17:21 13.12.2020
4890 Clouds 16 1037 30 10000 2.1 260 16:54 13.12.2020
4891 Clouds 16 1037 30 10000 2.1 260 16:36 13.12.2020
4892 Clouds 15 1038 38 10000 2.6 290 15:57 13.12.2020
4893 Clouds 15 1038 38 10000 2.6 290 15:38 13.12.2020
4894 Clouds 14 1038 41 10000 2.6 270 15:18 13.12.2020
4895 Clouds 14 1038 41 10000 2.6 270 14:42 13.12.2020
4896 Clouds 12 1037 46 10000 1.5 270 14:19 13.12.2020
4897 Clouds 12 1037 46 10000 1.5 270 13:41 13.12.2020
4898 Clouds 9 1037 57 10000 1 0 13:22 13.12.2020
4899 Clouds 9 1037 57 10000 1 0 12:37 13.12.2020
4900 Clouds 5 1036 64 10000 2.1 20 12:18 13.12.2020
4901 Clouds 5 1036 64 10000 2.1 20 11:35 13.12.2020
4902 Clouds 2 1035 74 10000 1.5 60 10:47 13.12.2020
4903 Clouds 2 1035 77 10000 1.5 60 10:29 13.12.2020
4904 Clouds 3 1034 86 10000 1 0 09:51 13.12.2020
4905 Clouds 3 1034 86 10000 1.5 130 08:53 13.12.2020
4906 Clouds 3 1034 86 10000 1.5 130 08:31 13.12.2020
4907 Clouds 4 1035 93 10000 1 0 07:26 13.12.2020
4908 Clouds 8 1037 70 10000 5.7 250 03:26 13.12.2020
4909 Clouds 8 1037 70 10000 5.7 250 02:32 13.12.2020
4910 Clouds 9 1034 57 10000 6.7 10 01:37 13.12.2020
4911 Clouds 9 1034 57 10000 6.7 10 00:46 13.12.2020
4912 Clouds 10 1035 57 6000 6.7 190 23:45 12.12.2020
4913 Rain 10 1035 57 6000 6.7 190 23:27 12.12.2020
4914 Clouds 14 1033 35 10000 5.1 10 22:37 12.12.2020
4915 Clouds 13 1033 57 10000 7.2 330 21:47 12.12.2020
4916 Clouds 16 1034 31 10000 4.6 50 21:23 12.12.2020
4917 Clouds 16 1034 31 10000 4.6 50 20:46 12.12.2020
4918 Clouds 14 1034 28 8000 7.2 210 20:21 12.12.2020
4919 Clouds 14 1034 28 8000 7.2 210 19:54 12.12.2020
4920 Clouds 19 1035 32 10000 4.6 100 19:34 12.12.2020
4921 Clouds 19 1035 32 10000 4.6 100 18:58 12.12.2020
4922 Clouds 19 1035 32 10000 4.6 100 18:38 12.12.2020
4923 Clouds 19 1035 32 10000 4.6 100 18:38 12.12.2020
4924 Clouds 17 1036 39 10000 4.6 110 18:20 12.12.2020
4925 Clouds 16 1037 48 10000 3.6 120 17:41 12.12.2020
4926 Clouds 16 1037 48 10000 3.6 120 16:45 12.12.2020
4927 Clouds 14 1037 41 10000 2.1 200 15:58 12.12.2020
4928 Clouds 14 1037 41 10000 2.1 200 15:58 12.12.2020
4929 Clouds 14 1037 41 10000 2.1 200 15:58 12.12.2020
4930 Clouds 14 1037 41 10000 2.1 200 15:39 12.12.2020
4931 Clouds 12 1037 46 10000 2.6 260 14:54 12.12.2020
4932 Clouds 9 1037 76 6000 2.6 60 14:22 12.12.2020
4933 Clouds 9 1037 76 6000 2.6 60 13:44 12.12.2020
4934 Fog 8 1036 87 3000 3.6 100 13:25 12.12.2020
4935 Fog 8 1036 87 3000 3.6 100 12:37 12.12.2020
4936 Fog 5 1035 93 3000 3.6 80 11:28 12.12.2020
4937 Fog 5 1034 93 4000 3.1 50 10:46 12.12.2020
4938 Fog 6 1034 93 3000 3.6 90 09:24 12.12.2020
4939 Fog 6 1034 93 3000 3.6 90 08:25 12.12.2020
4940 Clouds 12 1032 46 10000 5.1 100 01:41 12.12.2020
4941 Clouds 19 1030 24 10000 4.1 100 23:30 11.12.2020
4942 Clouds 20 1032 22 10000 4.1 80 20:58 11.12.2020
4943 Clouds 20 1032 22 10000 4.6 150 19:44 11.12.2020
4944 Clouds 16 1035 38 10000 3.1 270 16:59 11.12.2020
4945 Clouds 14 1036 44 10000 1 0 14:37 11.12.2020
4946 Clouds 14 1036 44 10000 1 0 14:37 11.12.2020
4947 Clouds 12 1035 50 10000 1 0 13:45 11.12.2020
4948 Clouds 4 1034 64 10000 2.1 20 12:23 11.12.2020
4949 Clouds 4 1034 64 10000 2.1 20 11:54 11.12.2020
4950 Clouds 4 1034 69 10000 1 0 11:35 11.12.2020
4951 Clouds 4 1034 69 10000 1 0 10:40 11.12.2020
4952 Clouds 4 1035 93 10000 1.5 330 07:31 11.12.2020
4953 Fog 5 1036 93 4000 3.1 80 05:36 11.12.2020
4954 Clouds 7 1036 81 10000 2.6 110 02:58 11.12.2020
4955 Clouds 10 1034 57 10000 4.1 100 00:42 11.12.2020
4956 Clouds 12 1034 54 10000 2.1 60 23:26 10.12.2020
4957 Rain 11 1033 62 10000 10.3 120 21:37 10.12.2020
4958 Clouds 17 1033 52 10000 3.6 120 20:51 10.12.2020
4959 Clouds 15 1035 33 10000 5.7 130 19:53 10.12.2020
4960 Clouds 14 1036 47 10000 5.1 160 19:21 10.12.2020
4961 Clouds 14 1036 47 10000 5.1 160 18:45 10.12.2020
4962 Clouds 13 1037 58 10000 4.1 110 17:23 10.12.2020
4963 Clouds 12 1038 62 7000 4.6 100 15:52 10.12.2020
4964 Clouds 11 1037 71 6000 4.6 140 14:59 10.12.2020
4965 Clouds 11 1037 71 6000 4.6 140 14:39 10.12.2020
4966 Fog 7 1037 93 4000 4.1 110 13:26 10.12.2020
4967 Fog 6 1036 100 500 3.6 110 11:51 10.12.2020
4968 Fog 7 1035 93 4000 1.5 70 10:29 10.12.2020
4969 Clouds 8 1015 77 5195 1.52 12 08:19 10.12.2020
4970 Fog 6 1036 93 4000 1 0 06:57 10.12.2020
4971 Clouds 7 1037 81 10000 2.6 80 04:45 10.12.2020
4972 Clouds 8 1035 87 10000 4.1 80 02:27 10.12.2020
4973 Clouds 11 1034 62 10000 4.6 80 00:48 10.12.2020
4974 Rain 12 1033 54 10000 4.6 50 23:23 09.12.2020
4975 Clouds 18 1035 36 10000 3.6 60 20:37 09.12.2020
4976 Clouds 18 1036 36 10000 5.1 80 19:37 09.12.2020
4977 Clouds 16 1038 44 10000 4.1 130 17:55 09.12.2020
4978 Clouds 13 1039 50 10000 2.6 140 16:54 09.12.2020
4979 Clouds 14 1039 54 10000 1 0 16:25 09.12.2020
4980 Clouds 14 1039 54 10000 1 0 15:38 09.12.2020
4981 Clouds 12 1039 66 6000 2.6 120 14:49 09.12.2020
4982 Fog 10 1039 93 4000 2.6 100 14:24 09.12.2020
4983 Fog 8 1038 87 3000 2.1 70 13:19 09.12.2020
4984 Fog 8 1038 87 3000 2.1 70 12:46 09.12.2020
4985 Fog 6 1037 93 3000 2.6 120 11:54 09.12.2020
4986 Fog 6 1037 93 4000 3.6 110 11:23 09.12.2020
4987 Fog 7 1037 93 4000 2.6 90 09:39 09.12.2020
4988 Fog 6 1037 93 3000 2.6 80 07:57 09.12.2020
4989 Fog 6 1038 100 4000 3.1 80 05:55 09.12.2020
4990 Clouds 9 1038 81 10000 4.6 100 03:54 09.12.2020
4991 Clouds 10 1036 76 10000 2.6 90 01:59 09.12.2020
4992 Clouds 15 1034 38 10000 3.1 110 23:44 08.12.2020
4993 Clouds 17 1035 29 10000 1 0 23:18 08.12.2020
4994 Clouds 16 1037 38 10000 2.6 120 21:30 08.12.2020
4995 Clouds 17 1037 39 10000 4.1 110 19:40 08.12.2020
4996 Clouds 15 1038 47 10000 2.6 130 18:59 08.12.2020
4997 Clouds 15 1039 51 10000 1.5 210 17:55 08.12.2020
4998 Clouds 13 1040 62 10000 1 0 15:51 08.12.2020
4999 Clouds 11 1040 76 10000 2.1 120 14:28 08.12.2020
5000 Fog 6 1039 100 4000 2.1 70 13:29 08.12.2020
5001 Fog 6 1039 100 4000 2.1 70 12:27 08.12.2020
5002 Fog 5 1038 100 3000 3.1 80 11:51 08.12.2020
5003 Fog 5 1037 100 2000 3.6 70 10:47 08.12.2020
5004 Fog 6 1037 93 4000 2.6 70 10:28 08.12.2020
5005 Fog 7 1037 93 3000 1 0 08:39 08.12.2020
5006 Fog 7 1037 100 800 2.1 100 06:52 08.12.2020
5007 Fog 7 1037 100 800 2.1 100 06:52 08.12.2020
5008 Fog 8 1038 93 4000 1 0 03:34 08.12.2020
5009 Clouds 11 1033 71 10000 5.7 100 00:47 08.12.2020
5010 Clouds 12 1034 62 10000 3.1 50 23:52 07.12.2020
5011 Clouds 11 1034 66 10000 1 0 22:40 07.12.2020
5012 Clouds 11 1035 66 8000 4.6 320 21:51 07.12.2020
5013 Clouds 16 1035 51 10000 2.6 100 19:55 07.12.2020
5014 Clouds 15 1036 54 10000 3.6 130 18:42 07.12.2020
5015 Clouds 14 1038 50 8000 2.1 220 17:26 07.12.2020
5016 Clouds 14 1038 50 8000 2.1 220 16:54 07.12.2020
5017 Clouds 12 1038 66 6000 2.1 110 15:26 07.12.2020
5018 Clouds 12 1038 66 6000 2.1 110 14:48 07.12.2020
5019 Fog 8 1038 87 4000 2.6 70 13:54 07.12.2020
5020 Fog 7 1037 93 3000 2.1 70 13:20 07.12.2020
5021 Fog 6 1037 93 4000 2.1 70 11:43 07.12.2020
5022 Fog 6 1036 93 4000 3.1 110 11:18 07.12.2020
5023 Fog 6 1036 93 4000 3.6 70 09:40 07.12.2020
5024 Fog 6 1036 93 4000 2.1 110 08:21 07.12.2020
5025 Clouds 7 1038 75 10000 5.1 330 06:21 07.12.2020
5026 Fog 7 1038 93 4000 3.6 320 04:48 07.12.2020
5027 Fog 8 1036 93 4000 3.1 120 01:54 07.12.2020
5028 Clouds 10 1034 71 10000 4.1 90 23:50 06.12.2020
5029 Clouds 11 1035 71 10000 4.6 60 22:24 06.12.2020
5030 Clouds 10 1035 76 10000 2.6 360 20:54 06.12.2020
5031 Rain 10 1035 76 10000 2.6 360 20:34 06.12.2020
5032 Rain 9 1036 81 8000 2.6 70 19:53 06.12.2020
5033 Rain 6 1037 87 2000 4.1 310 18:18 06.12.2020
5034 Clouds 12 1038 62 10000 3.1 140 16:44 06.12.2020
5035 Clouds 8 1038 87 6000 4.1 90 14:52 06.12.2020
5036 Fog 9 1038 93 4000 2.1 230 13:32 06.12.2020
5037 Clouds 7 1037 81 10000 1 0 12:39 06.12.2020
5038 Fog 6 1037 93 4000 1 0 11:55 06.12.2020
5039 Fog 6 1037 93 4000 1 0 11:30 06.12.2020
5040 Fog 6 1036 93 4000 2.6 110 10:42 06.12.2020
5041 Fog 6 1036 93 3000 3.6 90 09:39 06.12.2020
5042 Clouds 6 1036 87 10000 2.6 60 07:53 06.12.2020
5043 Fog 5 1040 93 4000 2.6 10 05:22 06.12.2020
5044 Clouds 10 1036 66 10000 2.6 60 00:48 06.12.2020
5045 Clouds 10 1036 66 10000 2.6 60 00:27 06.12.2020
5046 Clouds 12 1035 54 10000 2.1 60 23:58 05.12.2020
5047 Clouds 14 1035 50 10000 3.1 40 22:26 05.12.2020
5048 Clouds 14 1036 50 10000 1 0 21:57 05.12.2020
5049 Clouds 14 1036 50 10000 1 0 21:31 05.12.2020
5050 Clouds 13 1037 54 10000 1 0 20:59 05.12.2020
5051 Clouds 13 1039 54 10000 3.1 40 18:46 05.12.2020
5052 Clouds 9 1039 81 10000 3.6 50 17:57 05.12.2020
5053 Clouds 10 1040 76 10000 2.1 130 16:49 05.12.2020
5054 Clouds 10 1040 76 10000 2.1 130 16:28 05.12.2020
5055 Clouds 8 1040 81 6000 2.1 110 15:21 05.12.2020
5056 Fog 6 1039 93 4000 2.1 100 13:25 05.12.2020
5057 Clouds 7 1038 81 10000 1 0 11:50 05.12.2020
5058 Clouds 6 1037 87 10000 2.6 300 10:35 05.12.2020
5059 Rain 6 1038 93 8000 2.1 250 08:54 05.12.2020
5060 Rain 6 1038 93 4000 3.1 70 07:48 05.12.2020
5061 Fog 6 1039 93 4000 3.6 70 05:33 05.12.2020
5062 Rain 11 1035 57 8000 5.1 80 00:40 05.12.2020
5063 Rain 14 1033 47 10000 6.7 120 23:23 04.12.2020
5064 Clouds 15 1032 47 10000 6.7 120 21:34 04.12.2020
5065 Clouds 12 1036 50 10000 6.2 100 19:21 04.12.2020
5066 Rain 12 1036 50 10000 6.2 100 18:30 04.12.2020
5067 Clouds 12 1037 58 8000 6.7 70 17:44 04.12.2020
5068 Rain 13 1037 58 8000 7.2 80 16:30 04.12.2020
5069 Clouds 12 1037 66 10000 2.6 110 15:21 04.12.2020
5070 Clouds 11 1036 66 10000 2.6 100 13:36 04.12.2020
5071 Fog 6 1036 100 3000 2.6 120 13:18 04.12.2020
5072 Mist 6 1036 93 2000 2.6 80 12:20 04.12.2020
5073 Clouds 6 1035 87 10000 1 0 10:37 04.12.2020
5074 Fog 6 1035 93 4000 1 0 08:29 04.12.2020
5075 Fog 7 1036 93 4000 3.1 120 06:40 04.12.2020
5076 Fog 7 1036 93 4000 3.1 120 06:40 04.12.2020
5077 Fog 7 1036 93 4000 3.6 80 04:52 04.12.2020
5078 Clouds 11 1033 53 10000 3.6 120 00:24 04.12.2020
5079 Clouds 12 1033 50 10000 3.1 190 22:47 03.12.2020
5080 Clouds 11 1033 62 8000 4.1 340 21:20 03.12.2020
5081 Rain 11 1033 62 8000 4.1 340 20:39 03.12.2020
5082 Rain 14 1034 54 10000 5.1 110 19:21 03.12.2020
5083 Rain 14 1034 54 10000 5.1 110 18:40 03.12.2020
5084 Rain 14 1035 50 10000 3.6 120 17:21 03.12.2020
5085 Clouds 14 1036 62 10000 2.1 90 15:59 03.12.2020
5086 Clouds 11 1036 66 10000 1 0 15:32 03.12.2020
5087 Clouds 11 1036 66 10000 1 0 14:48 03.12.2020
5088 Clouds 11 1035 66 10000 2.6 100 13:51 03.12.2020
5089 Fog 8 1035 81 4000 2.6 90 12:33 03.12.2020
5090 Fog 7 1034 87 4000 2.6 80 11:59 03.12.2020
5091 Fog 6 1034 93 4000 2.1 70 10:38 03.12.2020
5092 Fog 6 1033 93 4000 3.1 80 08:38 03.12.2020
5093 Clouds 8 1036 87 10000 2.6 80 03:42 03.12.2020
5094 Clouds 10 1034 76 10000 3.1 110 01:41 03.12.2020
5095 Clouds 13 1032 62 10000 5.1 100 23:51 02.12.2020
5096 Clouds 15 1031 47 10000 4.1 110 22:41 02.12.2020
5097 Clouds 17 1032 36 10000 3.1 90 21:37 02.12.2020
5098 Clouds 18 1033 39 10000 6.2 90 20:49 02.12.2020
5099 Clouds 18 1033 39 10000 6.2 90 20:30 02.12.2020
5100 Clouds 16 1034 44 10000 4.6 110 19:39 02.12.2020
5101 Clouds 14 1036 62 10000 4.6 120 17:48 02.12.2020
5102 Clouds 13 1036 62 10000 2.6 120 17:29 02.12.2020
5103 Clouds 12 1037 71 10000 2.1 120 15:43 02.12.2020
5104 Fog 7 1035 93 4000 2.6 100 13:20 02.12.2020
5105 Fog 6 1035 93 4000 2.1 100 11:30 02.12.2020
5106 Fog 7 1034 93 3000 2.1 60 10:24 02.12.2020
5107 Clouds 6 1035 87 10000 1 0 07:42 02.12.2020
5108 Rain 12 1034 58 10000 5.7 80 23:22 01.12.2020
5109 Clouds 13 1034 54 10000 6.7 60 22:20 01.12.2020
5110 Clouds 15 1036 51 10000 4.6 100 19:36 01.12.2020
5111 Clouds 15 1036 51 10000 4.6 100 18:55 01.12.2020
5112 Clouds 12 1038 66 10000 3.1 150 16:47 01.12.2020
5113 Clouds 10 1038 81 6000 2.1 120 14:34 01.12.2020
5114 Fog 4 1037 100 4000 2.1 80 12:31 01.12.2020
5115 Fog 5 1036 86 4000 1 0 11:28 01.12.2020
5116 Fog 5 1036 86 4000 1 0 10:46 01.12.2020
5117 Fog 5 1036 86 4000 1 0 10:26 01.12.2020
5118 Rain 3 1039 93 4000 3.1 70 07:26 01.12.2020
5119 Clouds 7 1038 93 5000 5.7 180 02:41 01.12.2020
5120 Clouds 12 1034 50 10000 7.2 50 00:57 01.12.2020
5121 Clouds 16 1033 36 10000 7.7 40 23:22 30.11.2020
5122 Clouds 16 1033 36 10000 7.7 40 22:45 30.11.2020
5123 Clouds 16 1033 36 10000 7.7 40 22:26 30.11.2020
5124 Clouds 17 1033 29 10000 6.7 40 21:56 30.11.2020
5125 Clouds 16 1036 36 10000 5.7 60 19:45 30.11.2020
5126 Clouds 19 1037 29 10000 4.6 80 18:40 30.11.2020
5127 Clouds 17 1038 33 10000 5.1 130 18:20 30.11.2020
5128 Clouds 17 1038 33 10000 5.1 130 17:42 30.11.2020
5129 Clouds 16 1039 38 10000 4.1 110 16:44 30.11.2020
5130 Clouds 12 1039 50 10000 3.1 130 14:47 30.11.2020
5131 Clouds 10 1039 66 6000 3.1 100 13:55 30.11.2020
5132 Fog 7 1038 75 4000 1 0 12:35 30.11.2020
5133 Fog 6 1037 87 4000 2.1 120 11:59 30.11.2020
5134 Fog 6 1037 87 4000 2.6 110 10:31 30.11.2020
5135 Fog 5 1037 100 4000 2.1 80 09:51 30.11.2020
5136 Fog 3 1038 100 4000 1.5 90 07:44 30.11.2020
5137 Clouds 11 1036 63 10000 3.6 60 01:19 30.11.2020
5138 Clouds 18 1035 42 10000 4.1 70 22:19 29.11.2020
5139 Clouds 18 1035 42 10000 4.1 70 21:42 29.11.2020
5140 Clouds 18 1035 37 10000 4.1 70 21:24 29.11.2020
5141 Clouds 16 1039 38 10000 4.6 110 17:48 29.11.2020
5142 Clouds 15 1039 51 10000 4.6 90 16:29 29.11.2020
5143 Clouds 7 1038 81 6000 1 0 13:24 29.11.2020
5144 Fog 6 1038 93 4000 1.5 290 11:49 29.11.2020
5145 Fog 5 1037 100 4000 1 0 10:53 29.11.2020
5146 Fog 4 1037 93 4000 1.5 70 08:39 29.11.2020
5147 Clouds 7 1038 87 10000 2.1 160 06:33 29.11.2020
5148 Clouds 14 1034 44 10000 5.1 100 23:54 28.11.2020
5149 Clouds 16 1034 38 10000 4.6 120 22:56 28.11.2020
5150 Clouds 18 1036 34 10000 7.2 130 20:50 28.11.2020
5151 Clouds 18 1036 34 10000 7.2 130 20:50 28.11.2020
5152 Clouds 17 1037 39 10000 6.2 140 19:50 28.11.2020
5153 Clouds 17 1037 39 10000 6.2 140 19:23 28.11.2020
5154 Clouds 16 1038 41 10000 4.1 130 18:44 28.11.2020
5155 Clouds 14 1038 47 10000 5.1 130 17:47 28.11.2020
5156 Clouds 13 1039 58 10000 4.1 130 16:44 28.11.2020
5157 Clouds 10 1039 71 10000 2.1 150 14:54 28.11.2020
5158 Clouds 6 1038 93 10000 1 0 12:35 28.11.2020
5159 Clouds 4 1037 100 10000 1 0 10:36 28.11.2020
5160 Clouds 5 1039 93 7000 2.6 170 06:36 28.11.2020
5161 Rain 6 1039 93 5000 3.1 270 03:26 28.11.2020
5162 Clouds 7 1037 93 5000 5.7 220 01:34 28.11.2020
5163 Clouds 13 1033 56 8000 7.2 50 22:55 27.11.2020
5164 Clouds 18 1033 27 10000 6.2 110 21:33 27.11.2020
5165 Clouds 18 1034 25 10000 5.7 80 20:30 27.11.2020
5166 Clouds 19 1035 19 10000 6.2 130 19:25 27.11.2020
5167 Clouds 18 1036 27 10000 6.2 110 18:28 27.11.2020
5168 Clouds 12 1038 54 10000 3.1 110 14:46 27.11.2020
5169 Clouds 7 1038 75 6000 3.6 100 13:25 27.11.2020
5170 Fog 4 1037 100 2000 5.1 100 12:47 27.11.2020
5171 Fog 4 1037 93 2000 5.1 80 11:35 27.11.2020
5172 Fog 3 1036 93 4000 3.1 80 10:50 27.11.2020
5173 Fog 2 1036 93 4000 3.1 80 09:57 27.11.2020
5174 Clouds 8 1016 66 10000 0.37 110 07:22 27.11.2020
5175 Clouds 10 1035 61 10000 4.6 90 22:27 26.11.2020
5176 Clouds 7 1037 81 10000 6.7 310 21:56 26.11.2020
5177 Rain 10 1038 61 8000 6.2 250 20:52 26.11.2020
5178 Clouds 15 1036 41 10000 9.8 50 18:41 26.11.2020
5179 Clouds 17 1037 39 10000 5.1 100 17:50 26.11.2020
5180 Clouds 11 1038 66 6000 4.6 120 14:49 26.11.2020
5181 Clouds 8 1037 81 6000 3.1 120 13:20 26.11.2020
5182 Clouds 8 1037 81 6000 3.1 120 12:42 26.11.2020
5183 Mist 7 1037 93 3000 2.1 120 11:35 26.11.2020
5184 Fog 6 1036 100 3000 2.6 90 10:27 26.11.2020
5185 Fog 5 1036 86 4000 1 0 09:39 26.11.2020
5186 Clouds 6 1036 81 10000 1 0 09:18 26.11.2020
5187 Clouds 6 1036 81 10000 1 0 08:34 26.11.2020
5188 Clouds 11 1037 43 10000 5.1 250 02:19 26.11.2020
5189 Clouds 11 1037 43 10000 5.1 250 02:19 26.11.2020
5190 Clouds 15 1035 30 10000 4.1 120 22:32 25.11.2020
5191 Clouds 18 1036 31 10000 5.1 110 20:38 25.11.2020
5192 Clouds 19 1037 29 10000 5.7 120 19:29 25.11.2020
5193 Clouds 17 1039 39 10000 5.1 130 18:22 25.11.2020
5194 Clouds 13 1040 54 8000 4.1 130 15:55 25.11.2020
5195 Clouds 13 1040 54 8000 4.1 130 15:32 25.11.2020
5196 Clouds 10 1040 71 6000 3.1 90 13:47 25.11.2020
5197 Clouds 8 1039 87 6000 3.1 80 12:59 25.11.2020
5198 Fog 3 1038 93 3000 3.6 70 11:27 25.11.2020
5199 Clouds 4 1038 86 10000 3.6 70 09:22 25.11.2020
5200 Clouds 5 1038 60 10000 2.6 110 08:50 25.11.2020
5201 Clouds 6 1038 70 10000 2.6 90 07:53 25.11.2020
5202 Clouds 9 1039 56 10000 2.6 110 03:54 25.11.2020
5203 Clouds 11 1037 21 10000 4.6 60 01:50 25.11.2020
5204 Clouds 13 1036 24 10000 3.1 60 00:22 25.11.2020
5205 Clouds 15 1036 26 10000 7.2 50 23:36 24.11.2020
5206 Clouds 19 1035 17 10000 7.2 40 22:51 24.11.2020
5207 Clouds 21 1035 10 10000 6.7 60 21:50 24.11.2020
5208 Clouds 21 1035 10 10000 6.7 60 21:27 24.11.2020
5209 Clouds 20 1037 19 10000 6.2 150 20:19 24.11.2020
5210 Clouds 18 1039 23 10000 5.7 120 17:47 24.11.2020
5211 Clouds 17 1040 33 10000 4.6 120 17:27 24.11.2020
5212 Clouds 17 1040 33 10000 4.6 120 16:38 24.11.2020
5213 Clouds 17 1040 33 10000 4.6 120 16:38 24.11.2020
5214 Clouds 14 1040 44 10000 4.1 110 15:56 24.11.2020
5215 Clouds 13 1040 47 10000 3.6 90 15:20 24.11.2020
5216 Clouds 13 1040 47 10000 3.6 90 14:45 24.11.2020
5217 Clouds 11 1040 42 10000 3.1 90 13:56 24.11.2020
5218 Clear 7 1039 30 10000 1 0 12:40 24.11.2020
5219 Clouds 0 1038 51 10000 1.5 20 12:20 24.11.2020
5220 Clouds 0 1038 51 10000 1.5 20 11:33 24.11.2020
5221 Clouds 0 1038 62 10000 1.5 60 10:25 24.11.2020
5222 Clouds 1 1037 86 10000 2.6 80 09:40 24.11.2020
5223 Clouds 3 1038 86 10000 3.6 50 08:59 24.11.2020
5224 Clouds 3 1039 74 10000 3.6 70 06:42 24.11.2020
5225 Clouds 12 1037 37 10000 4.1 50 01:00 24.11.2020
5226 Clouds 18 1035 22 10000 5.1 60 22:24 23.11.2020
5227 Clouds 18 1035 22 10000 5.1 60 22:24 23.11.2020
5228 Clouds 18 1036 27 10000 5.7 50 21:32 23.11.2020
5229 Clouds 16 1037 36 10000 5.1 90 20:32 23.11.2020
5230 Clouds 19 1037 29 10000 5.7 100 19:59 23.11.2020
5231 Clouds 17 1039 33 10000 4.1 110 17:57 23.11.2020
5232 Clouds 16 1040 36 10000 3.1 90 16:56 23.11.2020
5233 Clouds 11 1040 50 10000 4.1 100 15:18 23.11.2020
5234 Clouds 11 1040 50 10000 4.1 100 14:37 23.11.2020
5235 Fog 4 1040 93 4000 3.1 100 12:41 23.11.2020
5236 Fog -1 1038 92 3000 3.1 90 12:18 23.11.2020
5237 Fog -1 1038 92 3000 3.1 90 11:41 23.11.2020
5238 Clouds 3 1038 65 10000 2.1 330 10:19 23.11.2020
5239 Fog 4 1038 86 4000 1 0 08:59 23.11.2020
5240 Fog 5 1038 93 4000 5.1 90 08:18 23.11.2020
5241 Clouds 7 1039 75 10000 4.6 120 05:22 23.11.2020
5242 Clouds 12 1035 50 10000 8.2 40 23:54 22.11.2020
5243 Clouds 15 1035 38 10000 7.2 40 22:32 22.11.2020
5244 Clouds 16 1035 41 10000 6.7 90 21:25 22.11.2020
5245 Clouds 16 1035 39 10000 6.7 90 20:27 22.11.2020
5246 Clouds 19 1036 25 10000 6.2 100 19:29 22.11.2020
5247 Clouds 17 1037 35 10000 5.1 100 18:25 22.11.2020
5248 Clouds 14 1039 44 10000 4.6 110 16:29 22.11.2020
5249 Clouds 12 1039 50 10000 5.1 120 15:27 22.11.2020
5250 Clouds 9 1038 61 6000 4.6 90 13:32 22.11.2020
5251 Fog 7 1038 75 4000 5.1 100 12:43 22.11.2020
5252 Fog 4 1037 93 3000 4.6 90 11:54 22.11.2020
5253 Fog 4 1036 100 4000 4.1 90 10:51 22.11.2020
5254 Fog 4 1036 100 4000 4.1 90 10:33 22.11.2020
5255 Fog 4 1036 100 4000 4.1 90 10:33 22.11.2020
5256 Clouds 7 1037 65 10000 2.1 70 04:43 22.11.2020
5257 Clouds 13 1033 32 10000 4.6 60 00:49 22.11.2020
5258 Clouds 20 1032 14 10000 6.2 90 22:42 21.11.2020
5259 Clouds 20 1032 9 10000 4.1 50 21:31 21.11.2020
5260 Clouds 20 1033 8 10000 4.6 100 20:49 21.11.2020
5261 Clouds 20 1034 8 10000 4.6 240 20:20 21.11.2020
5262 Clouds 20 1034 8 10000 4.6 240 19:49 21.11.2020
5263 Clouds 18 1035 8 10000 4.6 130 19:18 21.11.2020
5264 Clouds 16 1037 10 10000 4.1 140 17:31 21.11.2020
5265 Clouds 16 1037 10 10000 4.1 140 16:45 21.11.2020
5266 Clouds 13 1038 10 10000 4.1 150 15:41 21.11.2020
5267 Clouds 12 1038 13 10000 4.1 140 15:20 21.11.2020
5268 Clouds 12 1038 13 10000 4.1 140 14:42 21.11.2020
5269 Clouds 7 1036 24 10000 1 0 12:44 21.11.2020
5270 Clouds -2 1036 42 10000 1 0 12:22 21.11.2020
5271 Clouds -2 1036 42 10000 1 0 11:49 21.11.2020
5272 Clouds -1 1035 42 10000 1 0 10:28 21.11.2020
5273 Clouds 3 1035 32 10000 1 0 08:52 21.11.2020
5274 Clear 3 1035 34 10000 0.73 135 08:19 21.11.2020
5275 Clouds 5 1036 48 10000 1 0 05:42 21.11.2020
5276 Clouds 10 1034 37 10000 4.6 100 01:59 21.11.2020
5277 Clouds 17 1032 8 10000 4.1 290 00:21 21.11.2020
5278 Clouds 19 1032 9 10000 6.7 260 22:43 20.11.2020
5279 Clouds 20 1032 8 10000 6.7 260 21:44 20.11.2020
5280 Clouds 20 1032 8 10000 6.7 260 21:44 20.11.2020
5281 Clouds 18 1008 24 10000 1.24 156 21:21 20.11.2020
5282 Clouds 18 1009 25 10000 1.41 165 19:55 20.11.2020
5283 Clouds 18 1010 25 10000 1.8 186 18:53 20.11.2020
5284 Clouds 17 1012 27 10000 2.24 194 17:58 20.11.2020
5285 Clouds 16 1014 29 10000 2.45 199 17:29 20.11.2020
5286 Clouds 16 1014 29 10000 2.45 199 16:40 20.11.2020
5287 Clouds 15 1015 32 10000 2.54 195 15:59 20.11.2020
5288 Clouds 15 1015 32 10000 2.54 195 15:34 20.11.2020
5289 Clouds 8 1037 39 10000 2.1 280 13:48 20.11.2020
5290 Clouds 6 1036 52 10000 1.57 188 13:19 20.11.2020
5291 Clouds 6 1036 52 10000 1.57 188 12:36 20.11.2020
5292 Fog -1 1035 92 4000 2.6 80 11:45 20.11.2020
5293 Fog -1 1035 92 4000 2.6 80 11:20 20.11.2020
5294 Clouds -2 1034 79 10000 2.6 90 09:30 20.11.2020
5295 Fog 0 1035 74 4000 2.1 100 08:26 20.11.2020
5296 Fog 2 1036 100 4000 3.1 90 07:33 20.11.2020
5297 Clouds 5 1036 86 10000 3.1 70 03:44 20.11.2020
5298 Clouds 17 1032 38 10000 7.2 90 22:42 19.11.2020
5299 Clouds 18 1032 11 10000 5.1 260 21:57 19.11.2020
5300 Clouds 18 1032 11 10000 5.1 260 21:38 19.11.2020
5301 Clouds 20 1033 11 10000 3.6 260 20:33 19.11.2020
5302 Clouds 19 1034 15 10000 3.6 270 19:49 19.11.2020
5303 Clouds 19 1034 15 10000 3.6 270 19:24 19.11.2020
5304 Clouds 18 1036 18 10000 2.6 190 17:40 19.11.2020
5305 Clouds 16 1037 31 10000 3.1 130 16:54 19.11.2020
5306 Clouds 15 1037 38 10000 2.1 100 15:36 19.11.2020
5307 Clouds 11 1037 53 10000 2.6 100 15:18 19.11.2020
5308 Clouds 11 1037 62 6000 2.1 90 13:46 19.11.2020
5309 Clouds 8 1037 75 10000 1.5 110 13:18 19.11.2020
5310 Clouds 8 1037 75 10000 1.5 110 12:35 19.11.2020
5311 Clouds 4 1036 86 6000 1 0 11:44 19.11.2020
5312 Clouds 4 1036 86 6000 1 0 11:25 19.11.2020
5313 Fog 3 1035 93 4000 1 0 10:52 19.11.2020
5314 Fog 4 1035 93 4000 1.5 80 09:58 19.11.2020
5315 Fog 4 1035 93 4000 1.5 80 09:37 19.11.2020
5316 Fog 3 1035 93 4000 1 0 09:18 19.11.2020
5317 Fog 5 1036 93 4000 2.1 80 08:19 19.11.2020
5318 Clouds 11 1033 40 10000 3.1 80 02:20 19.11.2020
5319 Clouds 16 1032 15 10000 3.6 280 00:56 19.11.2020
5320 Clouds 18 1031 11 10000 5.1 300 23:47 18.11.2020
5321 Clouds 18 1031 11 10000 5.1 300 23:47 18.11.2020
5322 Clouds 19 1031 11 10000 5.7 290 23:24 18.11.2020
5323 Clouds 19 1031 11 10000 5.7 290 22:30 18.11.2020
5324 Clouds 19 1032 13 10000 6.7 290 21:45 18.11.2020
5325 Clouds 19 1032 13 10000 6.7 290 21:27 18.11.2020
5326 Clouds 20 1032 14 10000 6.2 310 20:40 18.11.2020
5327 Clouds 19 1033 15 10000 5.1 290 19:44 18.11.2020
5328 Clouds 19 1033 15 10000 5.1 290 19:24 18.11.2020
5329 Clouds 18 1035 18 10000 4.1 260 18:48 18.11.2020
5330 Clouds 18 1035 17 10000 4.6 240 17:52 18.11.2020
5331 Clouds 16 1036 15 10000 2.6 250 16:58 18.11.2020
5332 Clouds 14 1037 15 10000 2.6 250 16:21 18.11.2020
5333 Clouds 11 1037 14 10000 2.1 240 14:43 18.11.2020
5334 Clouds 10 1036 12 10000 1 0 14:25 18.11.2020
5335 Clear 10 1036 12 10000 1 0 13:26 18.11.2020
5336 Clouds 6 1036 12 10000 2.6 10 12:44 18.11.2020
5337 Clear 3 1035 13 10000 3.1 360 11:56 18.11.2020
5338 Clear 1 1034 19 10000 1 0 10:58 18.11.2020
5339 Clear 1 1034 19 10000 1 0 10:30 18.11.2020
5340 Clear 4 1034 19 10000 2.1 10 08:41 18.11.2020
5341 Clouds 6 1035 24 10000 2.6 360 06:49 18.11.2020
5342 Smoke 7 1037 22 10000 2.6 260 04:24 18.11.2020
5343 Clouds 19 1031 8 10000 5.7 260 00:20 18.11.2020
5344 Clouds 20 1030 7 10000 4.1 310 23:24 17.11.2020
5345 Clouds 20 1030 7 10000 4.1 310 22:44 17.11.2020
5346 Clouds 21 1031 7 10000 3.6 250 22:25 17.11.2020
5347 Clouds 21 1031 7 10000 3.6 250 21:46 17.11.2020
5348 Clouds 21 1032 6 10000 7.2 270 21:18 17.11.2020
5349 Clouds 21 1032 6 10000 7.2 270 20:42 17.11.2020
5350 Clouds 20 1033 8 10000 4.6 290 20:22 17.11.2020
5351 Clouds 19 1035 8 10000 4.1 280 18:37 17.11.2020
5352 Clouds 18 1036 7 10000 4.6 280 18:18 17.11.2020
5353 Clouds 16 1036 8 10000 4.1 300 16:59 17.11.2020
5354 Clouds 16 1036 8 10000 4.1 300 16:29 17.11.2020
5355 Clouds 15 1037 10 10000 3.6 240 15:51 17.11.2020
5356 Clouds 15 1037 10 10000 3.6 240 15:33 17.11.2020
5357 Clouds 13 1037 26 10000 2.6 250 14:57 17.11.2020
5358 Clouds 13 1037 26 10000 2.6 250 14:28 17.11.2020
5359 Clouds 11 1036 25 10000 1.5 220 13:38 17.11.2020
5360 Clouds 6 1036 41 10000 1 0 13:18 17.11.2020
5361 Clouds 6 1036 41 10000 1 0 12:40 17.11.2020
5362 Clouds 4 1035 32 10000 1.5 350 11:44 17.11.2020
5363 Clouds 3 1035 44 10000 1 0 10:49 17.11.2020
5364 Clouds 3 1035 44 10000 1 0 10:23 17.11.2020
5365 Clouds 2 1034 59 10000 1.5 30 09:50 17.11.2020
5366 Clouds 2 1034 59 10000 1.5 30 09:27 17.11.2020
5367 Clouds 2 1036 93 10000 2.1 90 08:22 17.11.2020
5368 Clouds 2 1036 93 10000 2.1 90 07:44 17.11.2020
5369 Clouds 4 1037 86 10000 3.6 70 06:33 17.11.2020
5370 Clouds 8 1036 65 10000 3.6 100 03:31 17.11.2020
5371 Clouds 8 1035 61 10000 3.6 60 02:31 17.11.2020
5372 Clouds 12 1033 46 10000 5.7 90 01:23 17.11.2020
5373 Clouds 12 1033 46 10000 5.7 90 00:42 17.11.2020
5374 Clouds 15 1033 38 10000 4.6 80 23:41 16.11.2020
5375 Clouds 16 1032 54 10000 4.1 40 23:22 16.11.2020
5376 Clouds 16 1032 54 10000 4.1 40 22:37 16.11.2020
5377 Clouds 15 1033 57 10000 5.1 50 22:18 16.11.2020
5378 Clouds 15 1033 57 10000 5.1 50 21:43 16.11.2020
5379 Clouds 15 1033 40 10000 5.1 50 21:23 16.11.2020
5380 Clouds 18 1033 31 10000 4.1 30 20:27 16.11.2020
5381 Clouds 19 1034 20 10000 4.1 150 19:56 16.11.2020
5382 Clouds 19 1034 20 10000 4.1 150 19:31 16.11.2020
5383 Clouds 18 1036 13 10000 3.1 280 18:53 16.11.2020
5384 Clouds 18 1037 15 10000 3.6 260 18:26 16.11.2020
5385 Clouds 18 1037 15 10000 3.6 260 17:37 16.11.2020
5386 Clouds 18 1038 15 10000 1.5 110 17:19 16.11.2020
5387 Clouds 18 1038 15 10000 1.5 110 16:51 16.11.2020
5388 Clouds 18 1038 15 10000 1.5 110 16:26 16.11.2020
5389 Clouds 15 1039 24 10000 2.1 240 15:45 16.11.2020
5390 Clouds 15 1039 24 10000 2.1 240 15:45 16.11.2020
5391 Clouds 13 1039 37 10000 1 0 15:27 16.11.2020
5392 Clouds 13 1039 37 10000 1 0 14:48 16.11.2020
5393 Clouds 10 1038 43 10000 2.6 250 13:50 16.11.2020
5394 Clouds 6 1037 48 10000 1 0 13:18 16.11.2020
5395 Clouds 6 1037 48 10000 1 0 12:30 16.11.2020
5396 Clouds 1 1036 65 10000 2.6 80 11:41 16.11.2020
5397 Fog 2 1036 93 4000 3.1 70 11:21 16.11.2020
5398 Fog 2 1036 93 4000 3.1 70 10:44 16.11.2020
5399 Fog 2 1036 93 4000 3.1 70 10:26 16.11.2020
5400 Fog 1 1035 74 4000 2.1 70 09:50 16.11.2020
5401 Fog 1 1035 71 4000 2.1 70 09:25 16.11.2020
5402 Fog 1 1035 71 4000 2.1 70 08:42 16.11.2020
5403 Clouds 3 1036 86 10000 1.5 80 07:53 16.11.2020
5404 Clouds 3 1036 86 10000 2.6 80 06:54 16.11.2020
5405 Clouds 3 1036 86 10000 2.6 80 06:35 16.11.2020
5406 Clouds 8 1037 63 10000 1 0 04:53 16.11.2020
5407 Clouds 7 1036 70 10000 3.6 60 03:52 16.11.2020
5408 Clouds 9 1034 45 10000 3.1 100 01:44 16.11.2020
5409 Clouds 15 1033 21 10000 2.1 90 23:58 15.11.2020
5410 Clouds 15 1033 21 10000 2.1 90 23:28 15.11.2020
5411 Clouds 16 1033 23 10000 2.6 150 22:51 15.11.2020
5412 Clouds 16 1033 23 10000 2.6 150 22:22 15.11.2020
5413 Clouds 17 1033 21 10000 5.1 240 21:47 15.11.2020
5414 Clouds 17 1033 21 10000 5.1 240 21:25 15.11.2020
5415 Clouds 18 1034 20 10000 7.7 40 20:44 15.11.2020
5416 Clouds 20 1035 18 10000 6.7 90 20:22 15.11.2020
5417 Clouds 20 1035 18 10000 6.7 90 19:48 15.11.2020
5418 Clouds 20 1035 18 10000 6.7 90 19:22 15.11.2020
5419 Clouds 21 1035 10 10000 7.2 100 18:58 15.11.2020
5420 Clouds 21 1035 10 10000 7.2 100 18:40 15.11.2020
5421 Clouds 19 1036 17 10000 7.7 70 18:20 15.11.2020
5422 Clouds 19 1036 17 10000 7.7 70 17:46 15.11.2020
5423 Clouds 18 1037 17 10000 5.1 130 17:24 15.11.2020
5424 Clouds 18 1037 17 10000 5.1 130 16:48 15.11.2020
5425 Clouds 15 1038 21 10000 4.6 140 16:21 15.11.2020
5426 Clouds 15 1038 21 10000 4.6 140 15:54 15.11.2020
5427 Clouds 15 1038 21 10000 4.6 140 15:29 15.11.2020
5428 Clouds 14 1038 26 10000 4.1 130 14:58 15.11.2020
5429 Clouds 12 1037 40 10000 3.6 130 14:31 15.11.2020
5430 Clouds 12 1037 40 10000 3.6 130 13:57 15.11.2020
5431 Clouds 12 1037 40 10000 3.6 130 13:36 15.11.2020
5432 Clouds 7 1036 45 10000 1 0 12:51 15.11.2020
5433 Clouds 7 1036 45 10000 1 0 12:25 15.11.2020
5434 Clouds -1 1035 80 10000 2.1 60 11:46 15.11.2020
5435 Clouds 0 1035 63 10000 3.1 70 11:21 15.11.2020
5436 Clouds 0 1035 63 10000 3.1 70 10:54 15.11.2020
5437 Clouds 0 1035 62 10000 3.1 70 10:32 15.11.2020
5438 Clouds 1 1035 86 10000 3.1 70 09:58 15.11.2020
5439 Clouds 1 1035 86 10000 3.1 70 09:40 15.11.2020
5440 Clouds 1 1034 50 10000 2.1 80 09:18 15.11.2020
5441 Clouds 1 1034 50 10000 2.1 80 08:46 15.11.2020
5442 Clouds 4 1035 38 10000 1 0 07:47 15.11.2020
5443 Clear 4 1036 64 10000 1 0 06:49 15.11.2020
5444 Clear 7 1036 45 10000 1 0 04:56 15.11.2020
5445 Clouds 11 1034 27 10000 4.6 40 02:27 15.11.2020
5446 Clouds 13 1033 32 10000 4.6 30 00:37 15.11.2020
5447 Clouds 15 1032 30 10000 5.1 40 00:18 15.11.2020
5448 Clouds 15 1032 30 10000 5.1 40 23:27 14.11.2020
5449 Clouds 18 1032 18 10000 4.6 70 22:45 14.11.2020
5450 Clouds 18 1032 18 10000 4.6 70 22:26 14.11.2020
5451 Clouds 19 1032 8 10000 4.6 140 21:39 14.11.2020
5452 Clouds 20 1033 8 10000 4.6 130 21:21 14.11.2020
5453 Clouds 20 1033 8 10000 4.6 130 21:21 14.11.2020
5454 Clouds 20 1033 8 10000 4.6 130 20:48 14.11.2020
5455 Clouds 20 1033 8 10000 4.6 130 20:25 14.11.2020
5456 Clouds 20 1034 8 10000 5.1 110 19:39 14.11.2020
5457 Clouds 18 1036 8 10000 5.7 150 19:20 14.11.2020
5458 Clouds 18 1036 8 10000 5.7 150 18:42 14.11.2020
5459 Clouds 17 1037 11 10000 4.6 120 18:22 14.11.2020
5460 Clouds 17 1037 11 10000 4.6 120 17:46 14.11.2020
5461 Clouds 17 1037 11 10000 4.6 120 17:28 14.11.2020
5462 Clouds 16 1037 19 10000 4.1 150 16:52 14.11.2020
5463 Clouds 16 1037 19 10000 4.1 150 16:34 14.11.2020
5464 Clouds 14 1038 28 10000 2.1 150 15:56 14.11.2020
5465 Clouds 14 1038 28 10000 2.1 150 15:32 14.11.2020
5466 Clouds 12 1038 34 10000 1 0 14:57 14.11.2020
5467 Clouds 12 1038 34 10000 1 0 14:30 14.11.2020
5468 Clouds 10 1038 34 10000 1 0 13:53 14.11.2020
5469 Clouds 10 1038 34 10000 1 0 13:30 14.11.2020
5470 Clouds 6 1037 48 10000 1 0 12:56 14.11.2020
5471 Clouds 6 1037 48 10000 1 0 12:35 14.11.2020
5472 Clouds 2 1036 74 10000 1.5 30 11:56 14.11.2020
5473 Clouds 2 1036 74 10000 1.5 30 11:38 14.11.2020
5474 Clouds 1 1035 80 10000 1 0 10:59 14.11.2020
5475 Clouds 1 1035 80 10000 1 0 10:38 14.11.2020
5476 Fog 2 1035 93 4000 2.6 70 10:20 14.11.2020
5477 Fog 2 1035 93 4000 2.6 70 09:45 14.11.2020
5478 Fog 2 1035 93 4000 2.6 70 09:26 14.11.2020
5479 Fog 3 1035 86 4000 3.1 70 08:41 14.11.2020
5480 Clouds 2 1035 58 10000 3.1 70 08:21 14.11.2020
5481 Clouds 2 1035 58 10000 3.1 70 07:41 14.11.2020
5482 Clouds 3 1036 86 10000 2.6 60 06:51 14.11.2020
5483 Clouds 4 1037 86 10000 3.1 70 06:20 14.11.2020
5484 Clouds 5 1037 75 10000 3.6 80 04:53 14.11.2020
5485 Clouds 10 1034 46 10000 3.1 100 01:48 14.11.2020
5486 Clouds 16 1032 11 10000 3.1 280 00:25 14.11.2020
5487 Clouds 16 1032 11 10000 3.1 280 23:33 13.11.2020
5488 Clouds 18 1032 6 10000 5.7 300 22:58 13.11.2020
5489 Clouds 18 1032 6 10000 5.7 300 22:39 13.11.2020
5490 Clear 16 1008 30 10000 1.6 345 22:20 13.11.2020
5491 Clear 16 1008 30 10000 1.6 345 21:44 13.11.2020
5492 Clouds 20 1034 8 10000 4.1 260 21:23 13.11.2020
5493 Clouds 20 1034 8 10000 4.1 260 20:51 13.11.2020
5494 Clouds 20 1034 8 10000 4.1 260 20:32 13.11.2020
5495 Clouds 20 1035 10 10000 5.1 280 19:54 13.11.2020
5496 Clouds 20 1035 10 10000 5.1 280 19:36 13.11.2020
5497 Clouds 17 1036 11 10000 2.1 280 19:18 13.11.2020
5498 Clouds 17 1036 11 10000 2.1 280 18:32 13.11.2020
5499 Clouds 16 1037 18 10000 3.6 300 17:43 13.11.2020
5500 Clouds 15 1038 28 10000 3.6 290 17:21 13.11.2020
5501 Clouds 15 1038 28 10000 3.6 290 16:51 13.11.2020
5502 Clouds 15 1038 28 10000 3.6 290 16:25 13.11.2020
5503 Clouds 14 1039 27 10000 2.1 250 15:59 13.11.2020
5504 Clouds 12 1039 50 10000 1.5 200 15:33 13.11.2020
5505 Clouds 12 1039 50 10000 1.5 200 14:55 13.11.2020
5506 Clouds 12 1039 50 10000 1.5 200 14:36 13.11.2020
5507 Clouds 9 1038 61 10000 1 0 14:18 13.11.2020
5508 Clouds 9 1038 61 10000 1 0 14:18 13.11.2020
5509 Clouds 9 1038 61 10000 1 0 14:18 13.11.2020
5510 Clouds 9 1038 61 10000 1 0 14:18 13.11.2020
5511 Clouds 9 1038 61 10000 1 0 13:31 13.11.2020
5512 Clouds 5 1037 56 10000 1 0 12:52 13.11.2020
5513 Clouds 5 1037 56 10000 1 0 12:27 13.11.2020
5514 Clouds 0 1036 44 10000 1.5 40 11:58 13.11.2020
5515 Clouds 0 1036 44 10000 1.5 40 11:39 13.11.2020
5516 Fog -1 1036 92 4000 2.6 60 11:19 13.11.2020
5517 Fog -1 1036 92 4000 2.6 60 10:41 13.11.2020
5518 Clouds 0 1036 59 10000 2.6 80 10:22 13.11.2020
5519 Clouds 0 1036 59 10000 2.6 80 09:47 13.11.2020
5520 Fog 1 1036 100 4000 2.6 70 09:25 13.11.2020
5521 Fog 1 1036 100 4000 2.6 70 09:25 13.11.2020
5522 Fog 1 1036 100 4000 2.6 70 08:52 13.11.2020
5523 Fog 2 1037 93 4000 3.6 60 08:22 13.11.2020
5524 Fog 2 1037 93 4000 3.6 60 07:48 13.11.2020
5525 Fog 2 1037 93 4000 3.6 60 07:27 13.11.2020
5526 Fog 2 1037 100 4000 3.1 80 06:50 13.11.2020
5527 Clouds 3 1038 93 10000 2.6 80 06:20 13.11.2020
5528 Clouds 3 1038 93 10000 2.6 80 05:39 13.11.2020
5529 Clouds 10 1034 53 10000 2.1 70 02:22 13.11.2020
5530 Clouds 10 1034 53 10000 2.1 70 01:36 13.11.2020
5531 Clouds 12 1033 63 10000 5.1 90 00:34 13.11.2020
5532 Clouds 16 1032 60 10000 6.2 120 23:43 12.11.2020
5533 Clouds 18 1032 12 10000 4.6 260 23:20 12.11.2020
5534 Clouds 18 1032 12 10000 4.6 260 22:52 12.11.2020
5535 Clouds 18 1032 12 10000 4.6 260 22:33 12.11.2020
5536 Clouds 18 1033 15 10000 5.1 280 21:56 12.11.2020
5537 Clouds 18 1033 15 10000 5.1 280 21:38 12.11.2020
5538 Clouds 17 1034 21 10000 4.6 290 21:18 12.11.2020
5539 Clouds 17 1034 21 10000 4.6 290 20:40 12.11.2020
5540 Clouds 18 1035 23 10000 3.6 290 20:21 12.11.2020
5541 Clouds 18 1035 23 10000 3.6 290 19:49 12.11.2020
5542 Clouds 18 1035 23 10000 3.6 290 19:31 12.11.2020
5543 Clouds 14 1037 30 10000 6.7 280 18:52 12.11.2020
5544 Clouds 16 1037 29 10000 2.6 140 18:24 12.11.2020
5545 Clouds 16 1037 29 10000 2.6 140 17:55 12.11.2020
5546 Clouds 15 1038 38 10000 3.1 130 17:30 12.11.2020
5547 Clouds 15 1038 38 10000 3.1 130 16:58 12.11.2020
5548 Clouds 15 1038 38 10000 3.1 130 16:39 12.11.2020
5549 Clouds 14 1038 47 10000 3.1 130 16:21 12.11.2020
5550 Clouds 14 1038 47 10000 3.1 130 15:42 12.11.2020
5551 Clouds 14 1038 47 10000 3.1 130 15:23 12.11.2020
5552 Smoke 11 1039 62 8000 3.1 150 14:46 12.11.2020
5553 Smoke 11 1039 62 8000 3.1 150 14:26 12.11.2020
5554 Clouds 10 1038 71 6000 3.6 60 13:55 12.11.2020
5555 Clouds 10 1038 71 6000 3.6 60 13:37 12.11.2020
5556 Fog 6 1037 93 4000 3.1 70 13:18 12.11.2020
5557 Fog 6 1037 93 4000 3.1 70 12:42 12.11.2020
5558 Fog 4 1036 100 4000 3.1 100 12:20 12.11.2020
5559 Fog 4 1036 100 4000 3.1 100 11:47 12.11.2020
5560 Fog 4 1036 100 4000 3.1 100 11:28 12.11.2020
5561 Fog 4 1035 100 4000 3.6 100 10:43 12.11.2020
5562 Fog 4 1035 100 4000 3.6 100 10:43 12.11.2020
5563 Fog 4 1035 100 4000 3.6 100 10:24 12.11.2020
5564 Fog 4 1035 86 4000 3.1 100 09:48 12.11.2020
5565 Fog 4 1035 86 4000 3.1 100 09:23 12.11.2020
5566 Fog 5 1035 86 4000 2.1 30 08:57 12.11.2020
5567 Fog 6 1036 87 4000 2.6 80 08:39 12.11.2020
5568 Fog 6 1036 87 4000 2.6 80 08:39 12.11.2020
5569 Fog 6 1036 87 4000 2.6 80 08:19 12.11.2020
5570 Fog 6 1036 87 4000 2.6 80 07:42 12.11.2020
5571 Fog 5 1036 86 4000 2.6 100 07:19 12.11.2020
5572 Fog 5 1036 86 4000 2.6 100 06:49 12.11.2020
5573 Clouds 7 1037 65 10000 2.6 90 05:23 12.11.2020
5574 Clouds 9 1035 61 10000 4.6 60 03:21 12.11.2020
5575 Clouds 10 1035 53 10000 4.1 90 01:33 12.11.2020
5576 Clouds 16 1032 31 10000 5.7 100 23:58 11.11.2020
5577 Clouds 17 1032 29 10000 4.6 80 23:25 11.11.2020
5578 Clouds 17 1032 29 10000 4.6 80 22:58 11.11.2020
5579 Clouds 17 1032 29 10000 4.6 80 22:39 11.11.2020
5580 Clouds 16 1033 29 10000 4.6 70 22:19 11.11.2020
5581 Clouds 16 1033 29 10000 4.6 70 21:41 11.11.2020
5582 Clouds 17 1034 23 10000 4.1 100 21:23 11.11.2020
5583 Clouds 17 1034 23 10000 4.1 100 20:57 11.11.2020
5584 Clouds 17 1034 23 10000 4.1 100 20:39 11.11.2020
5585 Clouds 17 1035 25 10000 5.7 100 20:20 11.11.2020
5586 Clouds 17 1035 25 10000 5.7 100 19:48 11.11.2020
5587 Clouds 17 1035 25 10000 5.7 100 19:30 11.11.2020
5588 Clouds 16 1036 42 10000 5.7 110 18:50 11.11.2020
5589 Clouds 16 1036 42 10000 5.7 110 18:32 11.11.2020
5590 Clouds 17 1037 21 10000 2.6 280 17:42 11.11.2020
5591 Clouds 14 1038 35 10000 3.1 260 17:22 11.11.2020
5592 Clouds 14 1038 35 10000 3.1 260 16:50 11.11.2020
5593 Clouds 14 1038 35 10000 3.1 260 16:32 11.11.2020
5594 Clouds 14 1038 35 10000 3.1 260 16:32 11.11.2020
5595 Clouds 14 1038 28 10000 1 0 15:50 11.11.2020
5596 Clouds 14 1038 28 10000 1 0 15:27 11.11.2020
5597 Clouds 12 1038 40 10000 2.6 90 14:56 11.11.2020
5598 Clouds 12 1038 40 10000 2.6 90 14:35 11.11.2020
5599 Clouds 11 1038 37 10000 1.5 60 13:57 11.11.2020
5600 Clouds 11 1038 37 10000 1.5 60 13:35 11.11.2020
5601 Clouds 5 1037 60 10000 1 0 12:44 11.11.2020
5602 Clouds 2 1036 74 10000 1.5 20 12:20 11.11.2020
5603 Clouds 2 1036 74 10000 1.5 20 11:49 11.11.2020
5604 Clouds 2 1036 74 10000 1.5 20 11:30 11.11.2020
5605 Clouds 2 1036 100 10000 2.1 40 10:42 11.11.2020
5606 Clouds 2 1036 100 10000 2.1 40 10:24 11.11.2020
5607 Clouds 4 1035 80 6000 1 0 09:48 11.11.2020
5608 Clouds 4 1035 80 6000 1 0 09:28 11.11.2020
5609 Fog 5 1036 86 4000 1 0 08:46 11.11.2020
5610 Fog 5 1036 86 4000 1 0 08:27 11.11.2020
5611 Fog 5 1036 93 4000 1.5 70 07:51 11.11.2020
5612 Fog 5 1036 93 4000 1.5 70 07:30 11.11.2020
5613 Fog 3 1036 93 4000 2.1 90 06:27 11.11.2020
5614 Clouds 4 1037 80 10000 2.1 70 04:30 11.11.2020
5615 Clouds 9 1034 57 10000 4.1 40 01:32 11.11.2020
5616 Clouds 10 1033 61 10000 4.1 50 00:34 11.11.2020
5617 Clouds 14 1032 33 10000 5.1 60 23:55 10.11.2020
5618 Clouds 16 1032 23 10000 2.6 110 23:24 10.11.2020
5619 Clouds 16 1032 23 10000 2.6 110 22:57 10.11.2020
5620 Clouds 16 1032 23 10000 2.6 110 22:27 10.11.2020
5621 Smoke 15 1033 26 10000 4.1 170 21:44 10.11.2020
5622 Smoke 15 1033 26 10000 4.1 170 21:25 10.11.2020
5623 Clouds 16 1034 25 10000 2.1 110 20:59 10.11.2020
5624 Clouds 16 1034 25 10000 2.1 110 20:41 10.11.2020
5625 Clouds 16 1035 26 10000 3.6 170 20:22 10.11.2020
5626 Clouds 16 1035 26 10000 3.6 170 19:49 10.11.2020
5627 Clouds 16 1035 26 10000 3.6 170 19:30 10.11.2020
5628 Clouds 16 1036 31 10000 1 0 18:59 10.11.2020
5629 Clouds 16 1036 31 10000 1 0 18:40 10.11.2020
5630 Clouds 16 1037 34 10000 4.1 120 18:19 10.11.2020
5631 Clouds 16 1037 34 10000 4.1 120 17:43 10.11.2020
5632 Clouds 14 1038 36 10000 2.1 180 17:25 10.11.2020
5633 Clouds 14 1038 36 10000 2.1 180 16:46 10.11.2020
5634 Clouds 14 1038 41 10000 2.1 180 16:24 10.11.2020
5635 Clouds 13 1039 37 10000 2.6 110 15:57 10.11.2020
5636 Clouds 13 1039 37 10000 2.6 110 15:38 10.11.2020
5637 Clouds 26 1014 78 10000 6.2 350 15:20 10.11.2020
5638 Clouds 26 1014 78 10000 6.2 350 14:41 10.11.2020
5639 Clouds 9 1038 61 10000 2.1 80 14:21 10.11.2020
5640 Clouds 9 1038 61 10000 2.1 80 13:41 10.11.2020
5641 Clouds 3 1038 93 10000 1 0 13:23 10.11.2020
5642 Clouds 3 1038 93 10000 1 0 12:58 10.11.2020
5643 Clouds 3 1038 93 10000 1 0 12:38 10.11.2020
5644 Clouds 2 1037 93 10000 1 0 12:20 10.11.2020
5645 Clouds 2 1037 93 10000 1 0 11:38 10.11.2020
5646 Clouds 1 1036 100 10000 2.1 90 11:19 10.11.2020
5647 Clouds 1 1036 100 10000 2.1 90 11:19 10.11.2020
5648 Clouds 1 1036 100 10000 2.1 90 10:42 10.11.2020
5649 Clouds 2 1036 93 10000 2.1 60 10:24 10.11.2020
5650 Clouds 2 1036 93 10000 2.1 60 09:49 10.11.2020
5651 Clouds 2 1036 93 10000 2.1 60 09:26 10.11.2020
5652 Clouds 3 1036 86 10000 2.1 60 08:57 10.11.2020
5653 Clouds 3 1036 86 10000 2.1 60 08:30 10.11.2020
5654 Clouds 5 1036 80 10000 2.1 120 07:47 10.11.2020
5655 Clouds 5 1036 80 10000 2.1 120 07:26 10.11.2020
5656 Clouds 4 1037 86 10000 3.1 60 06:47 10.11.2020
5657 Fog 4 1038 100 4000 6.2 70 06:23 10.11.2020
5658 Fog 4 1038 100 4000 6.2 70 05:27 10.11.2020
5659 Clouds 9 1036 66 10000 4.6 100 02:48 10.11.2020
5660 Clouds 11 1035 64 10000 3.6 30 01:37 10.11.2020
5661 Clouds 11 1033 53 10000 8.2 50 00:23 10.11.2020
5662 Clouds 11 1033 53 10000 8.2 50 23:41 09.11.2020
5663 Rain 13 1034 43 8000 8.2 90 22:56 09.11.2020
5664 Rain 13 1034 43 8000 8.2 90 22:37 09.11.2020
5665 Clouds 17 1034 56 8000 7.2 40 22:19 09.11.2020
5666 Clouds 17 1034 56 8000 7.2 40 21:39 09.11.2020
5667 Clouds 18 1034 22 10000 3.6 110 21:20 09.11.2020
5668 Clouds 18 1034 22 10000 3.6 110 20:40 09.11.2020
5669 Clouds 18 1036 25 10000 4.6 90 20:21 09.11.2020
5670 Clouds 18 1036 25 10000 4.6 90 19:42 09.11.2020
5671 Clouds 18 1036 25 10000 4.6 90 19:22 09.11.2020
5672 Clouds 18 1037 22 10000 3.1 170 18:47 09.11.2020
5673 Clouds 16 1038 26 10000 3.6 130 18:21 09.11.2020
5674 Clouds 16 1038 26 10000 3.6 130 17:59 09.11.2020
5675 Clouds 16 1038 26 10000 3.6 130 17:39 09.11.2020
5676 Clouds 16 1038 26 10000 3.6 130 17:39 09.11.2020
5677 Clouds 15 1039 28 8000 3.1 180 17:21 09.11.2020
5678 Clouds 15 1039 28 8000 3.1 180 16:39 09.11.2020
5679 Clouds 13 1040 42 8000 2.1 300 16:19 09.11.2020
5680 Clouds 13 1040 42 8000 2.1 300 15:42 09.11.2020
5681 Clouds 11 1040 53 6000 2.1 260 15:24 09.11.2020
5682 Clouds 11 1040 53 6000 2.1 260 14:44 09.11.2020
5683 Clouds 11 1040 53 6000 2.1 260 14:26 09.11.2020
5684 Clouds 9 1040 66 6000 1 0 13:51 09.11.2020
5685 Clouds 5 1039 86 6000 1 0 13:21 09.11.2020
5686 Clouds 5 1039 86 6000 1 0 12:50 09.11.2020
5687 Clouds 5 1039 86 6000 1 0 12:26 09.11.2020
5688 Fog 3 1038 100 3000 1 0 11:57 09.11.2020
5689 Fog 3 1038 100 3000 1 0 11:38 09.11.2020
5690 Fog 1 1038 100 4000 3.1 70 11:19 09.11.2020
5691 Fog 1 1038 100 4000 3.1 70 10:42 09.11.2020
5692 Clouds 1 1037 86 10000 2.1 70 10:23 09.11.2020
5693 Clouds 1 1037 86 10000 2.1 70 09:45 09.11.2020
5694 Clouds 2 1037 80 10000 1 0 09:23 09.11.2020
5695 Clouds 2 1037 80 10000 1 0 08:39 09.11.2020
5696 Clouds 4 1038 70 10000 1 0 08:19 09.11.2020
5697 Clouds 4 1038 70 10000 1 0 07:39 09.11.2020
5698 Clouds 5 1038 65 10000 3.6 90 07:19 09.11.2020
5699 Clouds 8 1039 67 10000 4.1 30 06:23 09.11.2020
5700 Clouds 10 1039 61 10000 1 0 03:19 09.11.2020
5701 Clouds 10 1039 60 10000 6.2 210 01:43 09.11.2020
5702 Clouds 11 1038 43 10000 6.2 240 00:58 09.11.2020
5703 Clouds 15 1036 24 10000 2.6 110 23:51 08.11.2020
5704 Clouds 15 1036 24 10000 2.6 110 23:29 08.11.2020
5705 Clouds 16 1036 23 10000 3.6 140 22:46 08.11.2020
5706 Clouds 17 1036 21 10000 4.1 90 22:22 08.11.2020
5707 Clouds 17 1036 21 10000 4.1 90 21:54 08.11.2020
5708 Clouds 17 1036 21 10000 4.1 90 21:36 08.11.2020
5709 Clouds 16 1038 23 10000 4.1 60 21:18 08.11.2020
5710 Clouds 16 1038 23 10000 4.1 60 20:39 08.11.2020
5711 Clouds 16 1038 23 10000 4.1 60 20:39 08.11.2020
5712 Clouds 17 1039 21 10000 6.2 40 20:20 08.11.2020
5713 Clouds 17 1039 21 10000 6.2 40 19:56 08.11.2020
5714 Clouds 17 1039 21 10000 6.2 40 19:37 08.11.2020
5715 Clouds 17 1040 20 9000 5.7 90 19:18 08.11.2020
5716 Clouds 17 1040 20 9000 5.7 90 18:45 08.11.2020
5717 Clouds 16 1041 21 9000 4.1 110 18:21 08.11.2020
5718 Clouds 16 1041 21 9000 4.1 110 17:57 08.11.2020
5719 Clouds 16 1041 21 9000 4.1 110 17:36 08.11.2020
5720 Clouds 15 1041 26 8000 4.1 140 17:18 08.11.2020
5721 Clouds 15 1041 26 8000 4.1 140 16:39 08.11.2020
5722 Clouds 13 1042 37 8000 2.6 250 16:21 08.11.2020
5723 Clouds 13 1042 37 8000 2.6 250 15:50 08.11.2020
5724 Clouds 13 1042 37 8000 2.6 250 15:28 08.11.2020
5725 Clouds 10 1042 40 6000 2.6 200 14:44 08.11.2020
5726 Clouds 10 1042 46 6000 2.6 200 14:25 08.11.2020
5727 Smoke 8 1041 52 5000 1 0 13:57 08.11.2020
5728 Smoke 8 1041 52 5000 1 0 13:39 08.11.2020
5729 Clear 5 1041 56 6000 1 0 13:20 08.11.2020
5730 Clear 5 1041 56 6000 1 0 12:41 08.11.2020
5731 Clear 5 1041 56 6000 1 0 12:23 08.11.2020
5732 Clouds 0 1040 62 9000 1.5 10 11:56 08.11.2020
5733 Clouds 0 1040 62 9000 1.5 10 11:38 08.11.2020
5734 Clear 0 1040 73 10000 1 0 11:19 08.11.2020
5735 Clear 0 1040 73 10000 1 0 10:47 08.11.2020
5736 Clear -2 1039 92 10000 1.38 47 10:18 08.11.2020
5737 Clear -2 1039 92 10000 1.38 47 09:42 08.11.2020
5738 Clear -2 1039 92 10000 1.38 47 09:42 08.11.2020
5739 Clear -2 1039 58 10000 1.56 40 09:24 08.11.2020
5740 Clear -2 1039 58 10000 1.56 40 08:47 08.11.2020
5741 Clear -2 1039 58 10000 1.43 41 08:27 08.11.2020
5742 Clear -1 1039 54 10000 1 0 07:53 08.11.2020
5743 Clear -1 1039 54 10000 1 0 07:33 08.11.2020
5744 Clouds 3 1039 51 10000 1 0 06:45 08.11.2020
5745 Clouds 4 1040 23 10000 2.6 60 05:55 08.11.2020
5746 Clouds 6 1040 15 10000 5.7 80 04:54 08.11.2020
5747 Clouds 5 1040 18 10000 4.1 70 03:39 08.11.2020
5748 Clouds 9 1038 34 10000 4.1 70 01:22 08.11.2020
5749 Clouds 9 1038 34 10000 4.1 70 00:49 08.11.2020
5750 Clouds 12 1038 34 10000 6.7 80 00:20 08.11.2020
5751 Clouds 12 1038 34 10000 6.7 80 23:40 07.11.2020
5752 Clouds 14 1037 30 10000 7.7 50 23:22 07.11.2020
5753 Clouds 14 1037 30 10000 7.7 50 22:40 07.11.2020
5754 Clouds 15 1037 28 9000 8.7 50 22:21 07.11.2020
5755 Clouds 15 1037 28 9000 8.7 50 21:44 07.11.2020
5756 Clouds 15 1038 30 9000 9.8 50 21:21 07.11.2020
5757 Clouds 15 1038 30 9000 9.8 50 20:48 07.11.2020
5758 Clouds 15 1038 30 9000 9.8 50 20:30 07.11.2020
5759 Clouds 17 1038 21 9000 9.3 40 19:50 07.11.2020
5760 Clouds 17 1038 21 9000 9.3 40 19:28 07.11.2020
5761 Clouds 17 1038 20 9000 9.3 40 18:45 07.11.2020
5762 Clouds 17 1038 20 9000 9.3 40 18:27 07.11.2020
5763 Clouds 17 1038 18 9000 9.8 90 17:59 07.11.2020
5764 Clouds 17 1038 18 9000 9.8 90 17:37 07.11.2020
5765 Clouds 16 1039 25 8000 6.7 90 16:58 07.11.2020
5766 Clouds 16 1039 25 8000 6.7 90 16:39 07.11.2020
5767 Clouds 13 1040 43 6000 3.1 140 16:21 07.11.2020
5768 Clouds 13 1040 43 6000 3.1 140 15:43 07.11.2020
5769 Smoke 11 1040 53 5000 3.1 90 15:23 07.11.2020
5770 Smoke 11 1040 53 5000 3.1 90 14:48 07.11.2020
5771 Smoke 11 1040 53 5000 3.1 90 14:29 07.11.2020
5772 Clouds 9 1040 66 6000 1 0 13:56 07.11.2020
5773 Clouds 9 1040 66 6000 1 0 13:31 07.11.2020
5774 Clouds 5 1039 75 6000 1 0 12:52 07.11.2020
5775 Clouds 5 1039 75 6000 1 0 12:26 07.11.2020
5776 Fog -1 1038 86 3000 1.5 90 11:45 07.11.2020
5777 Fog 0 1037 69 4000 1 0 11:23 07.11.2020
5778 Fog 0 1037 69 4000 1 0 10:46 07.11.2020
5779 Fog -1 1037 86 4000 1 0 10:27 07.11.2020
5780 Fog -1 1037 86 4000 1 0 09:54 07.11.2020
5781 Fog -1 1037 86 4000 1 0 09:36 07.11.2020
5782 Fog -1 1036 86 4000 1 0 08:53 07.11.2020
5783 Fog -1 1036 86 4000 1 0 08:35 07.11.2020
5784 Clouds -1 1037 80 10000 1 0 07:51 07.11.2020
5785 Clouds -1 1037 80 10000 1 0 07:29 07.11.2020
5786 Clear 2 1037 64 10000 1 0 06:47 07.11.2020
5787 Clear 6 1037 28 10000 5.1 70 05:24 07.11.2020
5788 Clear 7 1037 39 10000 4.6 70 03:24 07.11.2020
5789 Clear 9 1035 42 10000 7.7 40 01:29 07.11.2020
5790 Clouds 10 1035 39 10000 5.7 40 00:59 07.11.2020
5791 Clouds 12 1034 34 10000 7.7 40 23:53 06.11.2020
5792 Clouds 14 1034 33 10000 7.7 50 23:21 06.11.2020
5793 Clouds 14 1034 33 10000 7.7 50 22:41 06.11.2020
5794 Clouds 14 1035 30 10000 8.2 50 22:19 06.11.2020
5795 Clouds 14 1035 30 10000 8.2 50 21:46 06.11.2020
5796 Clouds 16 1035 19 10000 7.2 70 21:21 06.11.2020
5797 Clouds 16 1035 19 10000 7.2 70 20:56 06.11.2020
5798 Clouds 16 1035 19 10000 7.2 70 20:38 06.11.2020
5799 Clouds 16 1035 17 10000 6.2 80 20:18 06.11.2020
5800 Clouds 16 1035 17 10000 6.2 80 19:44 06.11.2020
5801 Clouds 16 1035 17 10000 6.2 80 19:26 06.11.2020
5802 Clouds 18 1036 16 10000 7.7 110 18:45 06.11.2020
5803 Clouds 16 1037 31 10000 5.7 110 18:23 06.11.2020
5804 Clouds 16 1037 31 10000 5.7 110 17:51 06.11.2020
5805 Clouds 16 1037 31 10000 5.7 110 17:25 06.11.2020
5806 Clouds 15 1038 41 8000 5.1 130 16:50 06.11.2020
5807 Clouds 15 1038 41 8000 5.1 130 16:27 06.11.2020
5808 Clouds 13 1038 47 8000 4.6 120 15:49 06.11.2020
5809 Clouds 13 1038 47 8000 4.6 120 15:28 06.11.2020
5810 Clouds 11 1038 62 6000 2.1 120 14:53 06.11.2020
5811 Clouds 10 1038 66 6000 2.1 110 14:26 06.11.2020
5812 Clouds 10 1038 66 6000 2.1 110 13:45 06.11.2020
5813 Clouds 7 1037 81 8000 2.6 70 13:23 06.11.2020
5814 Clouds 7 1037 81 8000 2.6 70 12:45 06.11.2020
5815 Fog 1 1037 86 8000 3.1 70 12:23 06.11.2020
5816 Fog 1 1037 86 8000 3.1 70 11:46 06.11.2020
5817 Fog 1 1037 86 8000 3.1 70 11:27 06.11.2020
5818 Clear 5 1018 67 10000 1.31 108 10:41 06.11.2020
5819 Clear 6 1017 66 10000 1.53 106 10:23 06.11.2020
5820 Clear 6 1017 66 10000 1.53 106 09:48 06.11.2020
5821 Clear 6 1016 64 10000 1.54 106 09:22 06.11.2020
5822 Clear 6 1016 64 10000 1.54 106 08:50 06.11.2020
5823 Clouds 7 1016 64 10000 1.62 87 08:29 06.11.2020
5824 Clouds 7 1016 64 10000 1.62 87 07:49 06.11.2020
5825 Clouds 8 1017 66 10000 1.73 80 07:30 06.11.2020
5826 Clouds 8 1017 66 10000 1.73 80 06:57 06.11.2020
5827 Clouds 7 1039 62 10000 2.6 220 05:44 06.11.2020
5828 Clouds 8 1039 52 10000 4.1 240 03:46 06.11.2020
5829 Clouds 11 1035 25 10000 5.1 70 00:51 06.11.2020
5830 Clouds 15 1034 11 10000 5.7 10 00:19 06.11.2020
5831 Clouds 15 1034 11 10000 5.7 10 23:30 05.11.2020
5832 Clouds 17 1034 21 10000 7.2 20 22:57 05.11.2020
5833 Clouds 17 1034 21 10000 7.2 20 22:37 05.11.2020
5834 Clouds 15 1010 40 10000 5.28 42 22:18 05.11.2020
5835 Clouds 15 1010 40 10000 5.28 42 21:43 05.11.2020
5836 Clouds 15 1010 40 10000 5.28 42 21:43 05.11.2020
5837 Rain 16 1009 36 10000 5.49 50 21:21 05.11.2020
5838 Clouds 16 1009 36 10000 5.49 50 20:48 05.11.2020
5839 Rain 16 1009 32 10000 4.9 68 20:28 05.11.2020
5840 Clouds 16 1009 32 10000 4.9 68 19:59 05.11.2020
5841 Clouds 16 1009 32 10000 4.9 68 19:40 05.11.2020
5842 Clear 17 1010 28 10000 2.95 100 19:22 05.11.2020
5843 Clear 17 1010 27 10000 2.62 106 18:42 05.11.2020
5844 Clear 17 1012 25 10000 2.14 135 18:24 05.11.2020
5845 Clear 17 1012 25 10000 2.14 135 17:52 05.11.2020
5846 Clear 16 1013 26 10000 1.77 163 17:27 05.11.2020
5847 Clear 16 1013 26 10000 1.77 163 16:54 05.11.2020
5848 Clouds 15 1039 15 10000 2.6 260 16:29 05.11.2020
5849 Clouds 15 1039 15 10000 2.6 260 15:59 05.11.2020
5850 Clouds 15 1039 15 10000 2.6 260 15:40 05.11.2020
5851 Clear 12 1039 17 10000 2.6 250 15:21 05.11.2020
5852 Clear 12 1039 17 10000 2.6 250 14:44 05.11.2020
5853 Clear 10 1039 18 10000 1 0 14:24 05.11.2020
5854 Clear 10 1039 18 10000 1 0 13:42 05.11.2020
5855 Clouds 6 1038 20 10000 1.5 10 13:23 05.11.2020
5856 Clear 6 1038 20 10000 1.5 10 13:23 05.11.2020
5857 Clear 6 1038 20 10000 1.5 10 12:45 05.11.2020
5858 Clear 2 1038 27 10000 1 20 12:23 05.11.2020
5859 Clear 2 1038 27 10000 1 20 11:46 05.11.2020
5860 Clear 1 1037 29 10000 1 10 11:25 05.11.2020
5861 Clear 1 1037 29 10000 1 10 10:52 05.11.2020
5862 Clear 1 1037 29 10000 1 10 10:28 05.11.2020
5863 Clear -1 1037 36 10000 0.7 325 09:53 05.11.2020
5864 Clear 4 1037 23 10000 2.6 10 09:25 05.11.2020
5865 Clear 4 1037 23 10000 2.6 10 08:59 05.11.2020
5866 Clear 4 1037 23 10000 2.6 10 08:41 05.11.2020
5867 Clear 4 1037 23 10000 2.6 10 08:23 05.11.2020
5868 Clouds 3 1038 34 10000 2.1 360 07:29 05.11.2020
5869 Clouds 0 1038 62 10000 1 0 06:51 05.11.2020
5870 Clouds 0 1038 61 10000 1 0 06:32 05.11.2020
5871 Clouds 8 1039 13 10000 4.1 60 03:45 05.11.2020
5872 Clouds 10 1037 23 10000 6.2 50 00:45 05.11.2020
5873 Clouds 13 1037 24 10000 7.2 40 00:20 05.11.2020
5874 Clouds 13 1037 24 10000 7.2 40 23:43 04.11.2020
5875 Clouds 15 1037 22 10000 6.7 30 23:24 04.11.2020
5876 Clouds 15 1037 22 10000 6.7 30 22:42 04.11.2020
5877 Clouds 18 1037 18 10000 5.7 70 22:22 04.11.2020
5878 Clouds 18 1037 18 10000 5.7 70 22:22 04.11.2020
5879 Clouds 18 1037 18 10000 5.7 70 21:47 04.11.2020
5880 Clouds 18 1037 18 10000 6.7 80 21:27 04.11.2020
5881 Clouds 18 1037 18 10000 6.7 80 20:56 04.11.2020
5882 Clouds 18 1037 18 10000 6.7 80 20:36 04.11.2020
5883 Clouds 18 1038 23 10000 6.7 100 19:59 04.11.2020
5884 Clouds 18 1038 23 10000 6.7 100 19:40 04.11.2020
5885 Clouds 18 1038 23 10000 6.7 100 19:40 04.11.2020
5886 Clouds 17 1039 25 10000 5.1 90 19:22 04.11.2020
5887 Clouds 17 1039 25 10000 5.1 90 18:41 04.11.2020
5888 Clouds 16 1040 36 10000 5.7 120 18:23 04.11.2020
5889 Clouds 16 1040 36 10000 5.7 120 17:48 04.11.2020
5890 Clouds 16 1040 36 10000 5.7 120 17:27 04.11.2020
5891 Clouds 14 1040 41 10000 4.1 150 16:56 04.11.2020
5892 Clouds 14 1040 41 10000 4.1 150 16:36 04.11.2020
5893 Clouds 12 1041 54 10000 4.6 120 16:18 04.11.2020
5894 Clouds 12 1041 54 10000 4.6 120 15:41 04.11.2020
5895 Clouds 10 1041 53 10000 4.6 80 15:23 04.11.2020
5896 Clouds 10 1041 53 10000 4.6 80 14:44 04.11.2020
5897 Clouds 10 1041 53 10000 4.6 80 14:24 04.11.2020
5898 Clouds 8 1040 65 6000 6.7 100 13:51 04.11.2020
5899 Fog 5 1038 86 4000 4.1 80 13:21 04.11.2020
5900 Fog 5 1038 86 4000 4.1 80 12:58 04.11.2020
5901 Fog 5 1038 86 4000 4.1 80 12:58 04.11.2020
5902 Fog 5 1038 86 4000 4.1 80 12:40 04.11.2020
5903 Fog 5 1038 86 4000 4.1 80 12:40 04.11.2020
5904 Fog 1 1038 64 4000 2.6 80 12:21 04.11.2020
5905 Fog 1 1038 64 4000 2.6 80 11:44 04.11.2020
5906 Fog -1 1037 92 4000 2.6 90 11:21 04.11.2020
5907 Fog -1 1037 92 4000 2.6 90 10:48 04.11.2020
5908 Fog -1 1037 92 4000 2.6 90 10:23 04.11.2020
5909 Fog -1 1037 92 4000 1 0 09:55 04.11.2020
5910 Fog -1 1037 92 4000 1 0 09:28 04.11.2020
5911 Clouds 3 1037 86 10000 1 0 08:48 04.11.2020
5912 Clouds 3 1037 86 10000 1 0 08:23 04.11.2020
5913 Clouds 3 1037 86 10000 1 0 07:57 04.11.2020
5914 Clouds 3 1037 86 10000 1 0 07:31 04.11.2020
5915 Clouds 3 1037 86 10000 2.6 80 06:58 04.11.2020
5916 Clouds 3 1037 86 10000 2.6 80 06:38 04.11.2020
5917 Clouds 6 1037 70 10000 4.6 110 04:46 04.11.2020
5918 Clouds 8 1036 61 10000 3.6 100 02:31 04.11.2020
5919 Clouds 9 1035 57 10000 3.6 100 01:32 04.11.2020
5920 Clouds 14 1033 30 10000 5.7 100 23:53 03.11.2020
5921 Clouds 17 1032 16 10000 6.7 90 23:25 03.11.2020
5922 Clouds 17 1032 16 10000 6.7 90 22:54 03.11.2020
5923 Clouds 17 1032 16 10000 6.7 90 22:36 03.11.2020
5924 Clouds 17 1033 20 10000 5.7 110 22:18 03.11.2020
5925 Clouds 17 1033 20 10000 5.7 110 21:41 03.11.2020
5926 Clouds 18 1034 15 10000 4.6 150 21:22 03.11.2020
5927 Clouds 18 1034 15 10000 4.6 150 20:46 03.11.2020
5928 Clouds 18 1034 15 10000 4.6 150 20:26 03.11.2020
5929 Clouds 17 1035 18 10000 4.1 120 19:46 03.11.2020
5930 Clouds 17 1035 18 10000 4.1 120 19:27 03.11.2020
5931 Clouds 15 1036 22 10000 4.1 140 18:57 03.11.2020
5932 Clouds 15 1036 22 10000 4.1 140 18:38 03.11.2020
5933 Clouds 15 1037 30 10000 4.1 110 18:18 03.11.2020
5934 Clouds 15 1037 30 10000 4.1 110 17:43 03.11.2020
5935 Clouds 13 1037 35 10000 4.1 120 17:25 03.11.2020
5936 Clouds 13 1037 35 10000 4.1 120 16:45 03.11.2020
5937 Clouds 11 1037 43 10000 4.6 120 16:25 03.11.2020
5938 Clouds 11 1037 43 10000 4.6 120 15:52 03.11.2020
5939 Clouds 11 1037 43 10000 4.6 120 15:29 03.11.2020
5940 Clouds 9 1037 57 10000 3.6 100 14:54 03.11.2020
5941 Clouds 9 1037 57 10000 3.6 100 14:33 03.11.2020
5942 Clouds 7 1037 75 6000 5.1 90 13:47 03.11.2020
5943 Clouds 7 1037 75 6000 5.1 90 13:26 03.11.2020
5944 Clouds 4 1036 80 6000 5.1 100 12:59 03.11.2020
5945 Clouds 4 1036 80 6000 5.1 100 12:41 03.11.2020
5946 Fog 3 1036 86 4000 4.1 100 12:20 03.11.2020
5947 Fog 3 1036 86 4000 4.1 100 11:46 03.11.2020
5948 Fog 2 1035 93 4000 4.1 90 11:22 03.11.2020
5949 Fog 2 1035 93 4000 4.1 90 10:41 03.11.2020
5950 Fog 2 1034 93 4000 4.1 90 10:22 03.11.2020
5951 Fog 2 1034 93 4000 4.1 90 09:59 03.11.2020
5952 Fog 2 1034 93 4000 4.1 90 09:41 03.11.2020
5953 Fog 3 1034 86 4000 3.6 90 09:18 03.11.2020
5954 Fog 3 1034 86 4000 3.6 90 08:44 03.11.2020
5955 Fog 3 1034 86 4000 3.6 90 08:25 03.11.2020
5956 Fog 4 1035 86 4000 4.6 100 07:35 03.11.2020
5957 Fog 5 1035 86 4000 5.1 80 06:53 03.11.2020
5958 Fog 4 1036 93 4000 5.7 100 06:19 03.11.2020
5959 Clouds 5 1035 80 10000 3.6 70 03:34 03.11.2020
5960 Clouds 10 1032 53 10000 4.6 120 00:43 03.11.2020
5961 Clouds 15 1030 57 10000 5.7 90 23:59 02.11.2020
5962 Clouds 15 1030 57 10000 5.7 90 23:40 02.11.2020
5963 Clouds 17 1030 27 10000 5.1 110 22:56 02.11.2020
5964 Clouds 17 1030 27 10000 5.1 110 22:37 02.11.2020
5965 Clouds 18 1031 20 10000 4.1 130 21:59 02.11.2020
5966 Clouds 18 1031 20 10000 4.1 130 21:38 02.11.2020
5967 Clouds 17 1031 23 10000 4.1 140 21:19 02.11.2020
5968 Clouds 17 1031 23 10000 4.1 140 20:41 02.11.2020
5969 Clouds 18 1032 16 10000 3.6 200 20:20 02.11.2020
5970 Clouds 18 1032 16 10000 3.6 200 19:49 02.11.2020
5971 Clouds 18 1032 16 10000 3.6 200 19:27 02.11.2020
5972 Clouds 17 1034 25 10000 4.1 120 18:58 02.11.2020
5973 Clouds 17 1034 25 10000 4.1 120 18:39 02.11.2020
5974 Clouds 16 1035 26 10000 4.1 220 18:20 02.11.2020
5975 Clouds 16 1035 26 10000 4.1 220 17:43 02.11.2020
5976 Clouds 16 1035 26 10000 4.1 220 17:25 02.11.2020
5977 Clouds 13 1035 37 10000 4.1 180 16:54 02.11.2020
5978 Clouds 13 1035 37 10000 4.1 180 16:36 02.11.2020
5979 Clouds 11 1036 50 10000 3.1 130 16:18 02.11.2020
5980 Clouds 11 1036 50 10000 3.1 130 15:39 02.11.2020
5981 Clouds 9 1036 57 10000 4.1 120 15:19 02.11.2020
5982 Clouds 9 1036 57 10000 4.1 120 14:48 02.11.2020
5983 Clouds 8 1035 70 10000 4.1 90 14:19 02.11.2020
5984 Clouds 8 1035 70 10000 4.1 90 13:48 02.11.2020
5985 Clouds 8 1035 70 10000 4.1 90 13:22 02.11.2020
5986 Fog 5 1035 93 4000 3.1 100 12:51 02.11.2020
5987 Fog 5 1035 93 4000 3.1 100 12:28 02.11.2020
5988 Fog 2 1034 93 4000 3.6 90 11:46 02.11.2020
5989 Fog 3 1034 93 4000 3.1 80 11:21 02.11.2020
5990 Fog 3 1034 93 4000 3.1 80 10:48 02.11.2020
5991 Fog 3 1034 93 4000 3.1 80 10:26 02.11.2020
5992 Fog 4 1034 93 4000 3.1 100 09:56 02.11.2020
5993 Fog 5 1034 86 4000 3.6 100 09:30 02.11.2020
5994 Fog 5 1034 86 4000 3.6 100 09:30 02.11.2020
5995 Fog 5 1034 86 4000 3.6 100 08:59 02.11.2020
5996 Fog 5 1034 86 4000 3.6 100 08:38 02.11.2020
5997 Fog 5 1034 86 4000 4.1 100 08:19 02.11.2020
5998 Fog 5 1034 86 4000 4.1 100 07:39 02.11.2020
5999 Fog 5 1035 93 4000 4.6 100 06:45 02.11.2020
6000 Fog 6 1035 93 4000 3.1 60 05:22 02.11.2020
6001 Clouds 7 1033 75 10000 3.6 70 01:34 02.11.2020
6002 Clouds 10 1032 57 10000 3.6 90 00:38 02.11.2020
6003 Clouds 14 1031 41 10000 6.7 70 00:20 02.11.2020
6004 Clouds 14 1031 41 10000 6.7 70 23:38 01.11.2020
6005 Clouds 15 1031 56 10000 7.2 90 23:20 01.11.2020
6006 Clouds 15 1031 56 10000 7.2 90 22:42 01.11.2020
6007 Clouds 15 1031 49 10000 7.2 90 22:22 01.11.2020
6008 Clouds 17 1031 25 10000 3.1 210 21:43 01.11.2020
6009 Clouds 17 1031 25 10000 3.1 210 21:24 01.11.2020
6010 Clouds 17 1032 27 10000 4.6 270 20:48 01.11.2020
6011 Clouds 17 1032 27 10000 4.6 270 20:26 01.11.2020
6012 Clouds 18 1033 27 10000 2.6 240 19:49 01.11.2020
6013 Clouds 18 1033 27 10000 2.6 240 19:30 01.11.2020
6014 Clouds 18 1033 27 10000 2.6 240 19:30 01.11.2020
6015 Clouds 19 1035 32 10000 3.1 290 18:59 01.11.2020
6016 Clouds 19 1035 32 10000 3.1 290 18:40 01.11.2020
6017 Clouds 16 1036 41 10000 2.1 90 18:19 01.11.2020
6018 Clouds 16 1036 41 10000 2.1 90 17:45 01.11.2020
6019 Clouds 16 1036 41 10000 2.1 90 17:27 01.11.2020
6020 Clouds 15 1037 41 10000 2.6 240 16:46 01.11.2020
6021 Clouds 15 1037 41 10000 2.6 240 16:27 01.11.2020
6022 Clouds 14 1037 47 10000 3.1 290 15:59 01.11.2020
6023 Clouds 14 1037 47 10000 3.1 290 15:39 01.11.2020
6024 Clouds 12 1037 58 10000 2.6 280 15:20 01.11.2020
6025 Clouds 12 1037 58 10000 2.6 280 14:46 01.11.2020
6026 Clouds 9 1037 70 6000 2.1 110 14:23 01.11.2020
6027 Clouds 9 1037 70 6000 2.1 110 13:57 01.11.2020
6028 Clouds 9 1037 70 6000 2.1 110 13:39 01.11.2020
6029 Fog 6 1036 87 4000 3.1 90 13:21 01.11.2020
6030 Fog 6 1036 87 4000 3.1 90 12:42 01.11.2020
6031 Fog 4 1036 93 3000 2.6 80 12:19 01.11.2020
6032 Fog 4 1036 93 3000 2.6 80 11:48 01.11.2020
6033 Fog 4 1036 93 4000 2.6 80 11:18 01.11.2020
6034 Fog 4 1036 93 4000 2.6 80 10:42 01.11.2020
6035 Fog 4 1036 93 4000 2.6 80 10:24 01.11.2020
6036 Fog 5 1036 93 4000 3.1 90 09:49 01.11.2020
6037 Fog 5 1036 93 4000 3.1 90 09:24 01.11.2020
6038 Fog 5 1036 86 4000 3.1 90 08:40 01.11.2020
6039 Fog 4 1036 93 4000 2.6 90 07:54 01.11.2020
6040 Fog 5 1037 93 4000 2.6 80 06:48 01.11.2020
6041 Clouds 7 1036 75 10000 3.1 70 02:31 01.11.2020
6042 Clouds 9 1035 61 10000 3.6 100 01:32 01.11.2020
6043 Clouds 14 1034 63 10000 5.7 90 23:51 31.10.2020
6044 Clouds 15 1033 33 10000 5.1 100 23:23 31.10.2020
6045 Clouds 15 1033 33 10000 5.1 100 22:45 31.10.2020
6046 Clouds 15 1033 33 10000 5.1 100 22:45 31.10.2020
6047 Clouds 15 1033 33 10000 5.1 100 22:24 31.10.2020
6048 Clouds 16 1034 31 10000 4.1 100 21:46 31.10.2020
6049 Clouds 16 1034 31 10000 3.1 100 21:22 31.10.2020
6050 Clouds 16 1034 31 10000 3.1 100 20:43 31.10.2020
6051 Clouds 15 1035 37 10000 4.1 110 20:20 31.10.2020
6052 Clouds 15 1035 37 10000 4.1 110 19:44 31.10.2020
6053 Clouds 15 1035 36 10000 4.1 110 19:25 31.10.2020
6054 Clouds 17 1036 33 10000 3.6 100 18:59 31.10.2020
6055 Clouds 17 1036 33 10000 3.6 100 18:59 31.10.2020
6056 Clouds 17 1036 33 10000 3.6 100 18:41 31.10.2020
6057 Clouds 15 1037 41 10000 2.1 180 17:47 31.10.2020
6058 Clouds 15 1037 41 10000 2.1 180 17:27 31.10.2020
6059 Clouds 13 1037 47 10000 2.1 150 16:56 31.10.2020
6060 Clouds 13 1037 47 10000 2.1 150 16:37 31.10.2020
6061 Clouds 10 1038 57 8000 3.1 100 15:55 31.10.2020
6062 Clouds 10 1038 57 8000 3.1 100 15:26 31.10.2020
6063 Fog 8 1038 70 6000 1 0 14:55 31.10.2020
6064 Clouds 5 1038 80 6000 1 0 14:32 31.10.2020
6065 Clouds 5 1038 80 6000 1 0 13:55 31.10.2020
6066 Clouds 5 1038 80 6000 1 0 13:37 31.10.2020
6067 Fog 5 1037 86 4000 1 0 13:18 31.10.2020
6068 Fog 5 1036 86 4000 2.1 110 12:25 31.10.2020
6069 Fog 5 1036 86 4000 2.1 110 11:42 31.10.2020
6070 Fog 5 1036 86 4000 2.6 110 11:23 31.10.2020
6071 Fog 5 1036 86 4000 2.6 110 10:49 31.10.2020
6072 Fog 5 1036 86 4000 2.6 110 10:30 31.10.2020
6073 Fog 5 1036 86 4000 2.1 80 09:40 31.10.2020
6074 Fog 4 1035 93 4000 4.6 90 09:20 31.10.2020
6075 Fog 4 1035 93 4000 4.6 90 08:27 31.10.2020
6076 Fog 5 1035 93 3000 5.1 90 07:45 31.10.2020
6077 Fog 5 1035 93 3000 5.1 90 07:25 31.10.2020
6078 Fog 5 1036 93 4000 3.6 80 06:37 31.10.2020
6079 Clouds 6 1036 87 10000 3.1 80 03:49 31.10.2020
6080 Clouds 8 1036 75 10000 3.6 90 02:48 31.10.2020
6081 Clouds 10 1033 53 10000 3.6 80 00:55 31.10.2020
6082 Clouds 13 1033 47 10000 6.7 100 23:58 30.10.2020
6083 Clouds 13 1033 47 10000 6.7 100 23:38 30.10.2020
6084 Clouds 18 1033 22 10000 2.6 290 23:20 30.10.2020
6085 Clouds 18 1033 22 10000 2.6 290 22:39 30.10.2020
6086 Clouds 18 1033 22 10000 4.6 280 22:20 30.10.2020
6087 Clouds 18 1033 22 10000 4.6 280 21:49 30.10.2020
6088 Clouds 18 1033 22 10000 4.6 280 21:26 30.10.2020
6089 Clouds 18 1033 25 10000 5.7 290 20:45 30.10.2020
6090 Clouds 18 1033 23 10000 5.1 290 20:27 30.10.2020
6091 Clouds 18 1033 23 10000 5.1 290 19:58 30.10.2020
6092 Clouds 18 1033 23 10000 5.1 290 19:37 30.10.2020
6093 Clouds 16 1034 29 10000 3.1 250 19:18 30.10.2020
6094 Clouds 16 1034 29 10000 3.1 250 18:41 30.10.2020
6095 Clouds 15 1035 33 10000 2.6 230 18:22 30.10.2020
6096 Clouds 15 1035 33 10000 2.6 230 17:44 30.10.2020
6097 Clouds 14 1036 35 10000 2.6 240 17:21 30.10.2020
6098 Clouds 14 1036 35 10000 2.6 240 16:50 30.10.2020
6099 Clouds 14 1036 35 10000 2.6 240 16:24 30.10.2020
6100 Clouds 12 1036 54 10000 3.1 200 15:42 30.10.2020
6101 Clouds 9 1036 66 10000 2.1 140 15:24 30.10.2020
6102 Clouds 9 1036 66 10000 2.1 140 14:55 30.10.2020
6103 Clouds 9 1036 66 10000 2.1 140 14:36 30.10.2020
6104 Clouds 10 1036 61 10000 1 0 14:18 30.10.2020
6105 Clouds 10 1036 61 10000 1 0 13:41 30.10.2020
6106 Clouds 6 1035 81 6000 1 0 13:19 30.10.2020
6107 Clouds 6 1035 81 6000 1 0 12:41 30.10.2020
6108 Fog 5 1034 86 3000 1 0 12:21 30.10.2020
6109 Fog 5 1034 86 3000 1 0 11:44 30.10.2020
6110 Fog 6 1034 81 4000 1.44 28 11:20 30.10.2020
6111 Fog 6 1034 81 4000 1.44 28 10:47 30.10.2020
6112 Fog 6 1034 81 4000 0.99 22 10:23 30.10.2020
6113 Fog 6 1034 81 4000 0.99 22 09:46 30.10.2020
6114 Fog 6 1034 81 4000 1 0 09:24 30.10.2020
6115 Fog 6 1034 81 4000 1 0 08:46 30.10.2020
6116 Fog 5 1035 93 4000 2.1 260 08:26 30.10.2020
6117 Fog 5 1035 93 4000 2.1 260 07:50 30.10.2020
6118 Fog 5 1035 93 4000 2.1 260 07:31 30.10.2020
6119 Clouds 6 1035 81 10000 1 0 06:40 30.10.2020
6120 Clouds 9 1036 49 10000 4.1 40 05:19 30.10.2020
6121 Clouds 9 1034 45 10000 4.1 60 02:27 30.10.2020
6122 Clouds 13 1032 16 10000 2.6 260 00:40 30.10.2020
6123 Clouds 16 1031 11 10000 4.1 320 23:49 29.10.2020
6124 Clouds 16 1031 11 10000 4.1 320 23:31 29.10.2020
6125 Clouds 17 1031 12 10000 6.2 280 22:58 29.10.2020
6126 Clouds 17 1031 12 10000 6.2 280 22:40 29.10.2020
6127 Clouds 18 1031 10 10000 5.7 280 22:21 29.10.2020
6128 Clouds 18 1031 10 10000 5.7 280 21:37 29.10.2020
6129 Clouds 18 1031 7 10000 5.1 310 21:18 29.10.2020
6130 Clouds 18 1031 7 10000 5.1 310 20:41 29.10.2020
6131 Clouds 18 1032 7 10000 4.1 270 20:19 29.10.2020
6132 Clouds 18 1032 7 10000 4.1 270 19:43 29.10.2020
6133 Clouds 18 1032 7 10000 4.1 270 19:22 29.10.2020
6134 Clouds 17 1033 7 10000 4.6 260 18:49 29.10.2020
6135 Clouds 17 1033 7 10000 4.6 260 18:29 29.10.2020
6136 Clouds 16 1035 8 10000 4.6 250 17:57 29.10.2020
6137 Clouds 16 1035 8 10000 4.6 250 17:38 29.10.2020
6138 Clouds 14 1036 8 10000 2.6 150 17:18 29.10.2020
6139 Clouds 14 1036 8 10000 2.6 150 16:43 29.10.2020
6140 Clouds 12 1036 9 10000 4.6 140 16:19 29.10.2020
6141 Clouds 12 1036 9 10000 4.6 140 15:55 29.10.2020
6142 Clouds 12 1036 9 10000 4.6 140 15:37 29.10.2020
6143 Clouds 11 1036 9 10000 4.1 120 15:18 29.10.2020
6144 Clouds 11 1036 9 10000 4.1 120 14:41 29.10.2020
6145 Clouds 9 1036 9 10000 1.49 166 14:21 29.10.2020
6146 Clouds 9 1036 9 10000 1.49 166 13:46 29.10.2020
6147 Clouds 9 1036 9 10000 0.97 162 13:27 29.10.2020
6148 Clouds 5 1035 12 10000 2.6 10 12:43 29.10.2020
6149 Clear 1 1034 15 10000 2.1 20 12:20 29.10.2020
6150 Clear 1 1034 15 10000 2.1 20 12:20 29.10.2020
6151 Clear 1 1034 15 10000 2.1 20 11:51 29.10.2020
6152 Clear 1 1034 15 10000 2.1 20 11:27 29.10.2020
6153 Clear 1 1034 17 10000 1 0 10:59 29.10.2020
6154 Clear 1 1034 17 10000 1 0 10:37 29.10.2020
6155 Clear 2 1033 13 10000 2.6 290 10:18 29.10.2020
6156 Clear 2 1033 13 10000 2.6 290 09:46 29.10.2020
6157 Clear 3 1033 11 10000 3.1 250 09:24 29.10.2020
6158 Clear 3 1033 11 10000 3.1 250 08:40 29.10.2020
6159 Clear 4 1034 16 10000 1 0 08:22 29.10.2020
6160 Clear 4 1034 16 10000 1 0 07:49 29.10.2020
6161 Clouds 4 1034 14 10000 1 0 06:59 29.10.2020
6162 Clouds 5 1035 14 10000 2.1 210 06:24 29.10.2020
6163 Clouds 7 1035 12 10000 2.1 200 04:48 29.10.2020
6164 Clouds 11 1012 38 10000 4.08 233 02:18 29.10.2020
6165 Clouds 12 1011 38 10000 3.5 235 00:38 29.10.2020
6166 Clear 13 1009 37 10000 2.71 245 00:18 29.10.2020
6167 Clear 16 1006 27 10000 1.99 279 23:23 28.10.2020
6168 Clear 16 1006 27 10000 1.99 279 22:59 28.10.2020
6169 Clear 16 1006 27 10000 1.99 279 22:41 28.10.2020
6170 Clouds 18 1031 6 10000 7.2 250 22:22 28.10.2020
6171 Clear 17 1005 24 10000 2.71 250 21:44 28.10.2020
6172 Clouds 19 1031 6 10000 4.1 210 21:25 28.10.2020
6173 Clouds 19 1031 6 10000 4.1 210 20:43 28.10.2020
6174 Clouds 18 1032 6 10000 4.1 230 20:23 28.10.2020
6175 Clouds 18 1032 6 10000 4.1 230 19:53 28.10.2020
6176 Clouds 18 1032 6 10000 4.1 230 19:31 28.10.2020
6177 Clear 17 1034 9 10000 4.6 230 18:52 28.10.2020
6178 Clear 15 1035 9 10000 3.1 270 18:22 28.10.2020
6179 Clear 15 1035 9 10000 3.1 270 17:59 28.10.2020
6180 Clear 15 1035 9 10000 3.1 270 17:41 28.10.2020
6181 Clear 13 1036 9 10000 4.1 270 17:21 28.10.2020
6182 Clear 13 1036 9 10000 4.1 270 16:44 28.10.2020
6183 Clear 12 1036 12 10000 3.6 280 16:25 28.10.2020
6184 Clear 12 1036 12 10000 3.6 280 15:41 28.10.2020
6185 Clear 12 1036 12 10000 3.6 280 15:41 28.10.2020
6186 Clear 13 1013 27 10000 3.37 245 15:19 28.10.2020
6187 Clear 13 1013 27 10000 3.37 245 14:44 28.10.2020
6188 Clear 12 1014 29 10000 3 249 14:26 28.10.2020
6189 Clear 10 1014 33 10000 2.63 259 12:55 28.10.2020
6190 Clear 10 1014 33 10000 2.63 259 12:36 28.10.2020
6191 Clear 8 1015 42 10000 2.32 291 12:18 28.10.2020
6192 Clear 8 1015 42 10000 2.32 291 11:41 28.10.2020
6193 Clear 5 1014 49 10000 2.2 290 11:20 28.10.2020
6194 Clear 5 1014 49 10000 2.2 290 10:53 28.10.2020
6195 Clouds 2 1033 37 10000 2.1 340 10:33 28.10.2020
6196 Clear 6 1014 48 10000 2.04 300 09:46 28.10.2020
6197 Clouds 2 1034 40 10000 2.1 290 09:24 28.10.2020
6198 Clouds 2 1034 40 10000 2.1 290 08:51 28.10.2020
6199 Clouds 2 1034 40 10000 2.1 290 08:33 28.10.2020
6200 Clouds 3 1034 47 10000 2.1 240 07:56 28.10.2020
6201 Clouds 3 1034 47 10000 2.1 240 07:37 28.10.2020
6202 Clouds 5 1035 52 10000 2.1 190 07:19 28.10.2020
6203 Clouds 5 1035 52 10000 2.1 190 06:39 28.10.2020
6204 Clouds 4 1035 44 10000 1 0 05:44 28.10.2020
6205 Clouds 7 1036 30 10000 1 0 04:51 28.10.2020
6206 Clouds 9 1035 24 10000 3.6 260 04:20 28.10.2020
6207 Clouds 12 1033 22 10000 4.1 220 01:56 28.10.2020
6208 Clouds 26 1004 69 10000 4.1 310 00:33 28.10.2020
6209 Clouds 17 1029 23 10000 3.1 200 23:50 27.10.2020
6210 Clouds 19 1029 17 10000 6.2 220 23:22 27.10.2020
6211 Clouds 19 1029 17 10000 6.2 220 22:45 27.10.2020
6212 Clouds 20 1030 18 10000 5.7 210 22:22 27.10.2020
6213 Clouds 20 1030 18 10000 5.7 210 21:57 27.10.2020
6214 Clouds 20 1030 18 10000 5.7 210 21:38 27.10.2020
6215 Clouds 19 1031 20 10000 4.6 210 21:20 27.10.2020
6216 Clouds 19 1031 20 10000 4.6 210 20:50 27.10.2020
6217 Clouds 19 1031 20 10000 4.6 210 20:25 27.10.2020
6218 Clouds 19 1032 22 10000 4.1 250 19:58 27.10.2020
6219 Clouds 19 1032 22 10000 4.1 250 19:38 27.10.2020
6220 Clouds 19 1034 24 10000 4.6 240 19:19 27.10.2020
6221 Clouds 19 1034 24 10000 4.6 240 18:45 27.10.2020
6222 Clouds 19 1034 24 10000 4.6 240 18:24 27.10.2020
6223 Clouds 17 1035 27 10000 4.1 230 17:59 27.10.2020
6224 Clouds 17 1035 27 10000 4.1 230 17:40 27.10.2020
6225 Clouds 16 1036 31 10000 3.6 80 17:19 27.10.2020
6226 Clouds 16 1036 31 10000 3.6 80 16:42 27.10.2020
6227 Clouds 12 1037 54 10000 2.1 130 16:23 27.10.2020
6228 Clouds 12 1037 54 10000 2.1 130 15:42 27.10.2020
6229 Clouds 12 1036 58 8000 2.1 150 15:24 27.10.2020
6230 Clouds 12 1036 58 8000 2.1 150 14:50 27.10.2020
6231 Clouds 12 1036 58 8000 2.1 150 14:30 27.10.2020
6232 Clouds 9 1036 76 6000 2.1 70 13:58 27.10.2020
6233 Clouds 9 1036 76 6000 2.1 70 13:29 27.10.2020
6234 Fog 5 1035 100 4000 1 0 12:46 27.10.2020
6235 Fog 5 1035 100 4000 1 0 12:27 27.10.2020
6236 Fog 3 1035 93 4000 2.1 100 11:59 27.10.2020
6237 Fog 3 1035 93 4000 2.1 100 11:41 27.10.2020
6238 Fog 2 1034 93 4000 1 0 11:21 27.10.2020
6239 Fog 2 1034 93 4000 1 0 10:43 27.10.2020
6240 Fog 4 1034 93 4000 1 0 10:20 27.10.2020
6241 Fog 4 1034 93 4000 1 0 09:28 27.10.2020
6242 Fog 4 1034 100 4000 1.5 50 08:59 27.10.2020
6243 Fog 4 1034 100 4000 1.5 50 08:33 27.10.2020
6244 Fog 3 1035 93 4000 1.5 70 07:54 27.10.2020
6245 Fog 3 1035 93 4000 1.5 70 07:36 27.10.2020
6246 Clouds 5 1036 93 10000 1 0 06:54 27.10.2020
6247 Clouds 4 1036 86 10000 3.1 80 06:20 27.10.2020
6248 Clouds 4 1036 86 10000 3.1 80 05:45 27.10.2020
6249 Clouds 6 1036 75 10000 3.1 90 05:23 27.10.2020
6250 Clouds 9 1036 49 10000 1.5 70 02:51 27.10.2020
6251 Clouds 10 1034 58 10000 3.1 70 01:20 27.10.2020
6252 Clouds 10 1034 62 10000 3.1 70 00:38 27.10.2020
6253 Clouds 15 1033 30 10000 3.1 30 23:37 26.10.2020
6254 Clouds 14 1033 30 10000 3.6 50 22:57 26.10.2020
6255 Clouds 14 1033 30 10000 3.6 50 22:31 26.10.2020
6256 Clouds 13 1035 30 10000 5.1 20 21:57 26.10.2020
6257 Clouds 13 1035 30 10000 5.1 20 21:36 26.10.2020
6258 Thunderstorm 14 1034 33 10000 5.1 30 21:18 26.10.2020
6259 Thunderstorm 14 1034 33 10000 5.1 30 20:49 26.10.2020
6260 Thunderstorm 14 1034 33 10000 5.1 30 20:27 26.10.2020
6261 Clouds 16 1035 14 10000 6.7 240 19:49 26.10.2020
6262 Clouds 16 1035 14 10000 6.7 240 19:28 26.10.2020
6263 Clouds 19 1035 17 10000 6.7 90 18:58 26.10.2020
6264 Clouds 19 1035 17 10000 6.7 90 18:39 26.10.2020
6265 Clouds 19 1036 17 10000 3.1 140 18:19 26.10.2020
6266 Clouds 19 1036 17 10000 3.1 140 17:41 26.10.2020
6267 Clouds 17 1038 25 10000 2.1 170 17:23 26.10.2020
6268 Clouds 17 1038 25 10000 2.1 170 16:45 26.10.2020
6269 Clouds 15 1038 28 10000 2.1 250 16:22 26.10.2020
6270 Clouds 15 1038 28 10000 2.1 250 15:45 26.10.2020
6271 Clouds 15 1038 28 10000 2.1 250 15:26 26.10.2020
6272 Clouds 12 1038 34 10000 1 0 14:56 26.10.2020
6273 Clouds 12 1038 34 10000 1 0 14:56 26.10.2020
6274 Clouds 12 1038 34 10000 1 0 14:38 26.10.2020
6275 Clouds 10 1038 46 10000 2.6 250 13:48 26.10.2020
6276 Clouds 10 1038 46 10000 2.6 250 13:29 26.10.2020
6277 Clouds 7 1037 48 10000 3.1 10 12:58 26.10.2020
6278 Clouds 7 1037 48 10000 3.1 10 12:40 26.10.2020
6279 Clouds 2 1036 74 10000 1 0 12:20 26.10.2020
6280 Clouds 2 1036 74 10000 1 0 11:46 26.10.2020
6281 Clouds 5 1036 60 10000 2.6 20 11:23 26.10.2020
6282 Clouds 5 1036 60 10000 2.6 20 10:57 26.10.2020
6283 Clouds 5 1036 60 10000 2.6 20 10:38 26.10.2020
6284 Clouds 5 1036 65 10000 2.6 10 10:18 26.10.2020
6285 Clouds 5 1036 65 10000 2.6 10 09:32 26.10.2020
6286 Clouds 4 1036 57 10000 1 0 08:58 26.10.2020
6287 Clouds 4 1036 56 10000 1 0 08:26 26.10.2020
6288 Clouds 6 1037 56 10000 2.1 360 07:48 26.10.2020
6289 Clouds 6 1037 54 10000 2.1 360 07:29 26.10.2020
6290 Clouds 5 1038 75 10000 2.1 60 05:46 26.10.2020
6291 Clouds 9 1038 49 10000 4.1 320 04:20 26.10.2020
6292 Clouds 9 1037 45 10000 2.6 360 03:21 26.10.2020
6293 Clouds 9 1037 45 10000 2.6 360 03:21 26.10.2020
6294 Clouds 9 1037 45 10000 2.6 360 03:21 26.10.2020
6295 Clouds 9 1036 42 10000 2.1 10 01:34 26.10.2020
6296 Clouds 9 1036 45 10000 1 0 00:39 26.10.2020
6297 Clouds 14 1036 26 10000 2.6 140 00:20 26.10.2020
6298 Clouds 14 1036 26 10000 2.6 140 23:37 25.10.2020
6299 Clouds 13 1036 37 10000 6.2 210 22:50 25.10.2020
6300 Clouds 13 1036 37 10000 6.2 210 22:30 25.10.2020
6301 Clouds 14 1036 33 10000 7.7 220 21:58 25.10.2020
6302 Clouds 16 1035 15 10000 5.7 340 21:39 25.10.2020
6303 Clouds 15 1036 19 10000 4.6 330 21:19 25.10.2020
6304 Clouds 15 1036 19 10000 4.6 330 20:43 25.10.2020
6305 Clouds 15 1036 19 10000 4.6 330 20:24 25.10.2020
6306 Clouds 14 1037 26 10000 7.2 20 19:56 25.10.2020
6307 Clouds 14 1037 26 10000 7.2 20 19:37 25.10.2020
6308 Clouds 15 1038 34 10000 4.1 60 19:19 25.10.2020
6309 Clouds 15 1038 34 10000 4.1 60 18:41 25.10.2020
6310 Clouds 15 1039 44 10000 3.1 100 18:22 25.10.2020
6311 Clouds 15 1039 44 10000 3.1 100 18:22 25.10.2020
6312 Clouds 15 1039 44 10000 3.1 100 17:56 25.10.2020
6313 Clouds 15 1039 44 10000 3.1 100 17:38 25.10.2020
6314 Clouds 15 1040 44 10000 3.1 90 17:19 25.10.2020
6315 Clouds 15 1040 44 10000 3.1 90 16:44 25.10.2020
6316 Clouds 15 1040 44 10000 3.1 90 16:25 25.10.2020
6317 Clouds 13 1040 50 10000 3.6 90 15:47 25.10.2020
6318 Clouds 13 1040 50 10000 3.6 90 15:27 25.10.2020
6319 Clouds 10 1040 71 10000 2.1 90 14:54 25.10.2020
6320 Clouds 10 1040 71 10000 2.1 90 14:30 25.10.2020
6321 Clouds 9 1038 81 10000 1 0 13:46 25.10.2020
6322 Clouds 6 1038 87 6000 1 0 13:25 25.10.2020
6323 Clouds 6 1038 87 6000 1 0 12:57 25.10.2020
6324 Clouds 6 1038 87 6000 1 0 12:39 25.10.2020
6325 Fog 3 1037 93 3000 1.5 90 12:21 25.10.2020
6326 Fog 3 1037 93 3000 1.5 90 11:42 25.10.2020
6327 Fog 4 1036 93 4000 1 0 11:20 25.10.2020
6328 Fog 4 1036 93 4000 1 0 10:47 25.10.2020
6329 Fog 4 1036 93 4000 1 0 10:26 25.10.2020
6330 Fog 4 1035 93 4000 1 0 09:55 25.10.2020
6331 Fog 4 1035 93 4000 1 0 09:36 25.10.2020
6332 Clouds 4 1035 86 10000 1 0 09:18 25.10.2020
6333 Clouds 4 1035 86 10000 1 0 08:40 25.10.2020
6334 Clouds 7 1036 56 10000 2.1 20 08:22 25.10.2020
6335 Clouds 7 1036 56 10000 2.1 20 07:44 25.10.2020
6336 Clouds 9 1015 65 10000 0.68 358 06:53 25.10.2020
6337 Clouds 7 1037 64 10000 2.1 10 06:28 25.10.2020
6338 Clouds 7 1037 75 10000 1.5 280 05:22 25.10.2020
6339 Clouds 7 1037 75 10000 1.5 280 04:50 25.10.2020
6340 Clouds 11 1035 40 10000 2.1 220 02:37 25.10.2020
6341 Thunderstorm 14 1034 30 10000 5.7 260 00:54 25.10.2020
6342 Clouds 16 1034 29 10000 4.1 130 00:28 25.10.2020
6343 Clouds 16 1034 29 10000 4.1 130 23:55 24.10.2020
6344 Clouds 16 1034 29 10000 4.1 130 23:35 24.10.2020
6345 Clouds 17 1034 29 10000 3.6 150 22:59 24.10.2020
6346 Clouds 17 1034 29 10000 3.6 150 22:40 24.10.2020
6347 Clouds 18 1035 25 10000 3.6 250 22:21 24.10.2020
6348 Clouds 18 1035 25 10000 3.6 250 21:54 24.10.2020
6349 Clouds 18 1035 25 10000 3.6 250 21:36 24.10.2020
6350 Clouds 18 1037 25 10000 4.1 240 21:18 24.10.2020
6351 Clouds 18 1037 25 10000 4.1 240 20:42 24.10.2020
6352 Clouds 17 1038 27 10000 2.6 280 20:20 24.10.2020
6353 Clouds 17 1038 27 10000 2.6 280 19:40 24.10.2020
6354 Clouds 15 1039 38 10000 2.6 290 19:22 24.10.2020
6355 Clouds 15 1039 38 10000 2.6 290 18:49 24.10.2020
6356 Clouds 15 1039 38 10000 2.6 290 18:28 24.10.2020
6357 Clouds 15 1040 38 10000 1 0 17:43 24.10.2020
6358 Clouds 15 1040 38 10000 1 0 17:25 24.10.2020
6359 Clouds 13 1040 50 10000 1 0 16:48 24.10.2020
6360 Clouds 12 1040 50 10000 1 0 16:30 24.10.2020
6361 Clouds 12 1040 50 10000 1 0 15:42 24.10.2020
6362 Clouds 10 1039 66 10000 2.6 90 15:20 24.10.2020
6363 Clouds 10 1039 66 10000 2.6 90 14:57 24.10.2020
6364 Clouds 10 1039 66 10000 2.6 90 14:29 24.10.2020
6365 Fog 5 1038 100 4000 2.6 90 13:50 24.10.2020
6366 Fog 5 1038 100 4000 2.6 90 13:31 24.10.2020
6367 Fog 3 1038 100 3000 3.1 80 12:59 24.10.2020
6368 Fog 3 1038 100 3000 3.1 80 12:37 24.10.2020
6369 Fog 3 1037 100 4000 3.6 100 12:19 24.10.2020
6370 Fog 3 1037 100 4000 3.6 100 11:43 24.10.2020
6371 Fog 1 1037 61 4000 1.5 70 11:18 24.10.2020
6372 Fog 1 1037 61 4000 1.5 70 10:39 24.10.2020
6373 Clouds 3 1037 67 10000 1.5 40 10:18 24.10.2020
6374 Clouds 3 1037 67 10000 1.5 40 09:42 24.10.2020
6375 Clouds 3 1037 73 10000 1.5 40 09:21 24.10.2020
6376 Clouds 3 1037 86 10000 1 0 08:51 24.10.2020
6377 Clouds 6 1038 75 10000 2.6 360 08:18 24.10.2020
6378 Clouds 6 1038 75 10000 2.6 360 07:48 24.10.2020
6379 Clouds 8 1039 65 10000 2.6 20 07:19 24.10.2020
6380 Clouds 8 1039 65 10000 2.6 20 06:44 24.10.2020
6381 Thunderstorm 8 1039 75 10000 4.1 270 04:45 24.10.2020
6382 Clouds 12 1036 60 10000 3.6 120 02:20 24.10.2020
6383 Clouds 14 1035 59 10000 3.1 80 00:44 24.10.2020
6384 Clouds 14 1035 66 10000 3.1 80 00:22 24.10.2020
6385 Clouds 15 1035 66 10000 2.6 70 23:56 23.10.2020
6386 Clouds 15 1035 66 10000 2.6 70 23:36 23.10.2020
6387 Clouds 14 1036 71 10000 3.1 120 23:18 23.10.2020
6388 Clouds 14 1036 71 10000 3.1 120 22:42 23.10.2020
6389 Clouds 14 1036 49 10000 3.1 120 22:20 23.10.2020
6390 Thunderstorm 9 1037 66 10000 7.2 190 21:51 23.10.2020
6391 Thunderstorm 9 1037 66 10000 7.2 190 21:25 23.10.2020
6392 Thunderstorm 15 1037 39 10000 4.6 160 20:42 23.10.2020
6393 Thunderstorm 15 1037 40 10000 4.6 160 20:23 23.10.2020
6394 Clouds 15 1038 38 10000 4.1 110 19:58 23.10.2020
6395 Clouds 15 1038 38 10000 4.1 110 19:33 23.10.2020
6396 Clouds 14 1039 50 10000 4.1 130 18:57 23.10.2020
6397 Clouds 14 1039 50 10000 4.1 130 18:38 23.10.2020
6398 Clouds 14 1040 50 10000 3.1 110 18:19 23.10.2020
6399 Clouds 14 1040 50 10000 3.1 110 17:42 23.10.2020
6400 Clouds 12 1040 54 10000 2.1 100 17:20 23.10.2020
6401 Clouds 12 1040 54 10000 2.1 100 16:44 23.10.2020
6402 Clouds 12 1040 54 10000 2.1 100 16:25 23.10.2020
6403 Clouds 9 1040 76 10000 2.1 130 15:45 23.10.2020
6404 Clouds 9 1040 76 10000 2.1 130 15:24 23.10.2020
6405 Clouds 8 1040 81 10000 1 0 14:54 23.10.2020
6406 Clouds 8 1040 81 10000 1 0 14:35 23.10.2020
6407 Clouds 5 1039 93 10000 1.5 50 13:59 23.10.2020
6408 Clouds 5 1039 93 10000 1.5 50 13:37 23.10.2020
6409 Clouds 4 1038 93 10000 0.74 292 13:19 23.10.2020
6410 Clouds 4 1038 93 10000 0.74 292 12:43 23.10.2020
6411 Clouds 5 1038 93 10000 1 0 12:24 23.10.2020
6412 Clouds 5 1038 93 10000 1 0 11:46 23.10.2020
6413 Clouds 4 1037 93 10000 1 0 11:21 23.10.2020
6414 Clouds 4 1037 93 10000 1 0 10:43 23.10.2020
6415 Clouds 4 1038 100 10000 1 0 10:25 23.10.2020
6416 Clouds 4 1038 100 10000 1 0 09:45 23.10.2020
6417 Clouds 4 1038 100 10000 1 0 09:26 23.10.2020
6418 Clouds 4 1038 100 10000 1 0 08:52 23.10.2020
6419 Clouds 4 1038 100 10000 1 0 08:32 23.10.2020
6420 Clouds 5 1040 93 10000 1 0 07:35 23.10.2020
6421 Clouds 5 1040 93 10000 1 0 06:59 23.10.2020
6422 Clouds 5 1040 86 10000 2.1 40 06:20 23.10.2020
6423 Fog 5 1041 93 4000 4.6 70 04:56 23.10.2020
6424 Clouds 6 1040 93 8000 4.1 180 02:32 23.10.2020
6425 Clouds 8 1037 75 8000 9.3 80 01:23 23.10.2020
6426 Clouds 8 1037 75 8000 9.3 80 00:36 23.10.2020
6427 Clouds 15 1036 56 10000 2.6 90 23:40 22.10.2020
6428 Clouds 15 1036 56 10000 2.6 90 23:40 22.10.2020
6429 Clouds 15 1036 41 10000 4.1 80 23:22 22.10.2020
6430 Clouds 15 1036 41 10000 4.1 80 22:48 22.10.2020
6431 Clouds 15 1036 41 10000 4.1 80 22:26 22.10.2020
6432 Clouds 15 1037 41 10000 2.1 100 21:58 22.10.2020
6433 Clouds 15 1037 41 10000 2.1 100 21:40 22.10.2020
6434 Clouds 12 1038 50 10000 2.6 130 21:20 22.10.2020
6435 Clouds 12 1038 50 10000 2.6 130 20:44 22.10.2020
6436 Clouds 12 1039 46 10000 1 0 20:25 22.10.2020
6437 Clouds 12 1039 46 10000 1 0 19:44 22.10.2020
6438 Clouds 10 1040 57 10000 1 0 19:21 22.10.2020
6439 Clouds 10 1040 57 10000 1 0 18:58 22.10.2020
6440 Clouds 10 1040 57 10000 1 0 18:37 22.10.2020
6441 Clouds 6 1041 81 10000 2.6 310 18:18 22.10.2020
6442 Clouds 6 1041 81 10000 2.6 310 17:43 22.10.2020
6443 Clouds 6 1042 81 10000 3.6 340 17:20 22.10.2020
6444 Clouds 6 1042 81 10000 3.6 340 16:45 22.10.2020
6445 Clouds 6 1042 81 10000 3.6 340 16:24 22.10.2020
6446 Clouds 6 1041 87 7000 1 0 15:49 22.10.2020
6447 Clouds 6 1041 87 7000 1 0 15:27 22.10.2020
6448 Clouds 4 1041 93 6000 4.1 330 14:55 22.10.2020
6449 Clouds 4 1041 93 6000 4.1 330 14:36 22.10.2020
6450 Clouds 4 1041 93 6000 4.1 330 14:36 22.10.2020
6451 Mist 4 1040 93 3000 0.53 168 14:18 22.10.2020
6452 Mist 4 1040 93 3000 0.53 168 13:41 22.10.2020
6453 Fog 5 1039 93 4000 2.1 210 13:22 22.10.2020
6454 Fog 5 1039 93 4000 2.1 210 12:31 22.10.2020
6455 Fog 5 1039 93 4000 2.1 250 11:58 22.10.2020
6456 Fog 5 1039 93 4000 2.1 250 11:38 22.10.2020
6457 Fog 5 1038 100 4000 1 0 11:18 22.10.2020
6458 Fog 5 1038 100 4000 1 0 10:46 22.10.2020
6459 Fog 4 1038 100 3000 2.1 90 10:24 22.10.2020
6460 Fog 4 1038 100 3000 2.1 90 09:42 22.10.2020
6461 Clouds 3 1038 93 10000 2.6 80 09:18 22.10.2020
6462 Clouds 3 1038 93 10000 2.6 80 08:40 22.10.2020
6463 Clouds 3 1039 93 10000 2.1 80 08:20 22.10.2020
6464 Clouds 3 1039 93 10000 2.1 80 07:43 22.10.2020
6465 Clouds 5 1040 93 10000 2.1 80 07:18 22.10.2020
6466 Clouds 5 1040 93 10000 2.1 80 06:38 22.10.2020
6467 Fog 3 1040 93 4000 2.6 70 06:18 22.10.2020
6468 Fog 3 1040 93 4000 2.6 70 05:37 22.10.2020
6469 Clouds 7 1039 81 10000 5.1 130 02:55 22.10.2020
6470 Clouds 9 1037 81 8000 3.6 120 00:50 22.10.2020
6471 Clouds 11 1036 50 8000 5.1 80 00:21 22.10.2020
6472 Clouds 12 1035 50 10000 4.6 60 23:42 21.10.2020
6473 Clouds 14 1035 41 10000 4.6 80 22:59 21.10.2020
6474 Clouds 14 1035 41 10000 4.6 80 22:37 21.10.2020
6475 Clouds 13 1036 37 10000 3.6 100 22:19 21.10.2020
6476 Clouds 13 1036 37 10000 3.6 100 21:45 21.10.2020
6477 Clouds 15 1037 33 10000 5.1 120 21:19 21.10.2020
6478 Clouds 15 1037 33 10000 5.1 120 20:55 21.10.2020
6479 Clouds 15 1037 33 10000 5.1 120 20:36 21.10.2020
6480 Clouds 11 1039 50 10000 3.1 130 20:18 21.10.2020
6481 Clouds 11 1039 50 10000 3.1 130 19:40 21.10.2020
6482 Clouds 12 1040 46 10000 7.2 90 19:22 21.10.2020
6483 Clouds 12 1040 46 10000 7.2 90 18:47 21.10.2020
6484 Clouds 12 1040 46 10000 7.2 90 18:26 21.10.2020
6485 Clouds 12 1040 50 10000 6.2 80 17:47 21.10.2020
6486 Clouds 11 1040 53 10000 6.2 80 17:21 21.10.2020
6487 Clouds 11 1040 53 10000 6.2 80 16:56 21.10.2020
6488 Clouds 11 1040 53 10000 6.2 80 16:36 21.10.2020
6489 Clouds 11 1040 53 10000 6.2 80 16:18 21.10.2020
6490 Clouds 9 1040 57 10000 5.1 80 15:42 21.10.2020
6491 Clouds 9 1040 57 10000 5.1 80 15:20 21.10.2020
6492 Clouds 7 1040 75 6000 4.6 110 14:45 21.10.2020
6493 Clouds 7 1040 75 6000 4.6 110 14:27 21.10.2020
6494 Fog 4 1039 93 4000 3.6 100 13:46 21.10.2020
6495 Fog 4 1039 93 4000 3.6 100 13:26 21.10.2020
6496 Fog 1 1038 100 4000 1 110 12:48 21.10.2020
6497 Fog 1 1038 100 4000 1 110 12:25 21.10.2020
6498 Fog 1 1038 100 4000 1.5 110 11:59 21.10.2020
6499 Fog 1 1038 100 4000 1.5 110 11:40 21.10.2020
6500 Fog 1 1038 100 4000 1.5 110 11:19 21.10.2020
6501 Fog 2 1037 100 4000 2.6 60 10:44 21.10.2020
6502 Fog 2 1037 100 4000 2.6 60 10:25 21.10.2020
6503 Clouds 3 1037 93 10000 1 0 09:52 21.10.2020
6504 Clouds 3 1037 93 10000 1 0 09:33 21.10.2020
6505 Clouds 4 1037 86 10000 1 0 08:43 21.10.2020
6506 Clouds 4 1037 86 10000 1 0 08:25 21.10.2020
6507 Fog 3 1037 93 4000 3.6 90 07:58 21.10.2020
6508 Fog 3 1037 93 4000 3.6 90 07:31 21.10.2020
6509 Clouds 3 1038 93 10000 3.6 70 06:50 21.10.2020
6510 Clouds 3 1038 93 10000 3.6 70 06:26 21.10.2020
6511 Clouds 5 1038 75 10000 3.1 80 04:46 21.10.2020
6512 Clouds 11 1034 43 10000 5.7 40 00:51 21.10.2020
6513 Clouds 14 1033 41 10000 6.2 50 23:49 20.10.2020
6514 Clouds 14 1034 51 10000 6.2 40 22:52 20.10.2020
6515 Clouds 14 1034 52 10000 6.2 40 22:28 20.10.2020
6516 Clouds 13 1034 43 10000 6.2 70 21:50 20.10.2020
6517 Clouds 15 1035 33 10000 6.2 50 21:20 20.10.2020
6518 Clouds 15 1035 33 10000 6.2 50 20:45 20.10.2020
6519 Clouds 15 1035 33 10000 6.2 50 20:26 20.10.2020
6520 Clouds 17 1036 29 10000 5.7 90 19:58 20.10.2020
6521 Clouds 17 1036 29 10000 5.7 90 19:58 20.10.2020
6522 Clouds 17 1036 29 10000 5.7 90 19:40 20.10.2020
6523 Clouds 16 1037 31 10000 5.1 80 19:21 20.10.2020
6524 Clouds 16 1037 31 10000 5.1 80 18:47 20.10.2020
6525 Clouds 16 1037 31 10000 5.1 80 18:27 20.10.2020
6526 Clouds 15 1038 38 10000 3.6 80 17:43 20.10.2020
6527 Clouds 15 1038 38 10000 3.6 80 17:24 20.10.2020
6528 Clouds 12 1038 54 10000 3.1 100 16:48 20.10.2020
6529 Clouds 12 1038 54 10000 3.1 100 16:26 20.10.2020
6530 Clouds 10 1038 66 8000 3.1 80 15:50 20.10.2020
6531 Clouds 10 1038 66 8000 3.1 80 15:32 20.10.2020
6532 Clouds 8 1038 70 6000 3.6 130 14:56 20.10.2020
6533 Clouds 8 1038 70 6000 3.6 130 14:37 20.10.2020
6534 Clouds 8 1038 70 6000 3.6 130 14:19 20.10.2020
6535 Clouds 5 1037 86 6000 2.6 110 13:42 20.10.2020
6536 Clouds 5 1037 86 6000 2.6 110 13:22 20.10.2020
6537 Fog 3 1036 93 4000 3.1 80 12:54 20.10.2020
6538 Fog 3 1036 93 4000 3.1 80 12:36 20.10.2020
6539 Fog 4 1036 93 4000 3.1 90 12:18 20.10.2020
6540 Fog 4 1036 93 4000 3.1 90 11:36 20.10.2020
6541 Fog 3 1035 93 4000 3.6 60 11:18 20.10.2020
6542 Fog 3 1035 93 4000 3.6 60 10:29 20.10.2020
6543 Clouds 2 1036 74 10000 2.6 70 09:50 20.10.2020
6544 Clouds 2 1036 74 10000 2.6 70 09:21 20.10.2020
6545 Clouds 4 1036 69 10000 1.5 350 08:57 20.10.2020
6546 Clouds 4 1036 69 10000 1.5 350 08:30 20.10.2020
6547 Clouds 2 1036 68 10000 2.1 40 07:51 20.10.2020
6548 Clouds 2 1036 65 10000 2.1 40 07:25 20.10.2020
6549 Clouds 4 1036 86 10000 1.5 280 06:25 20.10.2020
6550 Clouds 6 1036 58 10000 5.1 60 05:21 20.10.2020
6551 Clouds 9 1035 59 10000 4.1 60 02:33 20.10.2020
6552 Clouds 10 1033 46 10000 4.6 60 01:59 20.10.2020
6553 Clouds 12 1032 40 10000 6.2 60 00:57 20.10.2020
6554 Clouds 12 1032 40 10000 6.2 60 00:39 20.10.2020
6555 Clouds 15 1032 28 10000 4.6 120 00:18 20.10.2020
6556 Clouds 15 1032 28 10000 4.6 120 00:18 20.10.2020
6557 Clouds 15 1032 28 10000 4.6 120 23:39 19.10.2020
6558 Clouds 16 1032 23 10000 5.1 150 23:18 19.10.2020
6559 Clouds 16 1032 23 10000 5.1 150 22:42 19.10.2020
6560 Clouds 16 1032 23 10000 5.1 150 22:20 19.10.2020
6561 Clouds 15 1033 24 10000 5.1 100 21:41 19.10.2020
6562 Clouds 17 1034 27 10000 5.1 90 21:19 19.10.2020
6563 Clouds 17 1034 27 10000 5.1 90 20:45 19.10.2020
6564 Clouds 17 1034 27 10000 5.1 90 20:26 19.10.2020
6565 Clouds 16 1035 29 10000 4.6 90 19:47 19.10.2020
6566 Clouds 15 1036 33 10000 5.1 90 19:22 19.10.2020
6567 Clouds 15 1036 33 10000 5.1 90 19:22 19.10.2020
6568 Clouds 15 1036 33 10000 5.1 90 18:51 19.10.2020
6569 Clouds 15 1036 33 10000 5.1 90 18:32 19.10.2020
6570 Clouds 13 1037 37 10000 4.6 160 17:56 19.10.2020
6571 Clouds 13 1037 37 10000 4.6 160 17:38 19.10.2020
6572 Clouds 11 1037 50 10000 4.1 120 17:19 19.10.2020
6573 Clouds 11 1037 50 10000 4.1 120 16:42 19.10.2020
6574 Clouds 11 1037 50 10000 4.1 120 16:20 19.10.2020
6575 Clouds 12 1016 43 10000 1.53 170 15:40 19.10.2020
6576 Clouds 10 1016 52 10000 1.18 190 15:21 19.10.2020
6577 Clouds 10 1016 52 10000 1.18 190 14:47 19.10.2020
6578 Clouds 9 1017 59 10000 0.71 236 14:24 19.10.2020
6579 Clouds 9 1017 59 10000 0.72 215 13:48 19.10.2020
6580 Clouds 7 1017 68 10000 0.82 317 13:30 19.10.2020
6581 Clouds 7 1017 68 10000 0.82 317 12:46 19.10.2020
6582 Clouds 6 1016 75 10000 1.3 325 12:28 19.10.2020
6583 Clouds 6 1016 75 10000 1.3 325 11:51 19.10.2020
6584 Clouds 2 1035 93 10000 2.6 320 11:25 19.10.2020
6585 Clouds 2 1035 93 10000 2.6 320 10:55 19.10.2020
6586 Clouds 2 1035 93 10000 2.6 320 10:36 19.10.2020
6587 Clouds 3 1036 86 10000 2.1 310 10:18 19.10.2020
6588 Clouds 3 1036 86 10000 2.1 310 09:42 19.10.2020
6589 Clouds 3 1037 86 10000 2.6 310 09:18 19.10.2020
6590 Clouds 3 1037 86 10000 2.6 310 08:47 19.10.2020
6591 Clouds 3 1037 86 10000 2.6 310 08:47 19.10.2020
6592 Clouds 3 1037 86 10000 2.6 310 08:21 19.10.2020
6593 Clouds 3 1037 86 10000 1 0 07:21 19.10.2020
6594 Clouds 3 1037 86 10000 1 0 06:50 19.10.2020
6595 Clouds 1 1038 69 10000 1 0 05:42 19.10.2020
6596 Clouds 3 1037 86 10000 3.1 70 03:47 19.10.2020
6597 Clouds 5 1035 75 10000 4.1 50 01:57 19.10.2020
6598 Clouds 5 1035 86 6000 6.2 100 00:43 19.10.2020
6599 Thunderstorm 8 1034 65 10000 8.2 250 23:59 18.10.2020
6600 Thunderstorm 8 1034 65 10000 8.2 250 23:40 18.10.2020
6601 Thunderstorm 12 1033 37 10000 2.6 330 23:20 18.10.2020
6602 Thunderstorm 12 1033 37 10000 2.6 330 22:44 18.10.2020
6603 Thunderstorm 11 1034 43 10000 5.1 20 22:19 18.10.2020
6604 Thunderstorm 11 1034 43 10000 5.1 20 21:43 18.10.2020
6605 Thunderstorm 11 1034 43 10000 5.1 20 21:23 18.10.2020
6606 Thunderstorm 11 1035 43 10000 6.2 80 20:46 18.10.2020
6607 Thunderstorm 11 1035 43 10000 6.2 80 20:24 18.10.2020
6608 Thunderstorm 11 1036 37 10000 7.2 60 19:50 18.10.2020
6609 Thunderstorm 12 1037 46 10000 3.1 150 19:28 18.10.2020
6610 Thunderstorm 12 1037 46 10000 3.1 150 18:55 18.10.2020
6611 Thunderstorm 12 1037 46 10000 3.1 150 18:36 18.10.2020
6612 Thunderstorm 13 1037 43 10000 2.6 210 18:18 18.10.2020
6613 Clouds 13 1038 43 10000 2.1 160 17:41 18.10.2020
6614 Clouds 10 1038 57 10000 2.1 150 17:22 18.10.2020
6615 Clouds 10 1038 57 10000 2.1 150 16:43 18.10.2020
6616 Clouds 7 1038 70 10000 2.1 150 16:24 18.10.2020
6617 Clouds 7 1038 70 10000 2.1 150 15:43 18.10.2020
6618 Clouds 5 1038 86 10000 2.6 120 15:21 18.10.2020
6619 Clouds 5 1038 86 10000 2.6 120 14:58 18.10.2020
6620 Clouds 5 1038 86 10000 2.6 120 14:31 18.10.2020
6621 Fog 2 1037 100 4000 2.6 80 13:59 18.10.2020
6622 Fog 2 1037 100 4000 2.6 80 13:40 18.10.2020
6623 Fog 0 1037 68 4000 3.6 60 13:22 18.10.2020
6624 Fog 0 1037 68 4000 3.6 60 12:43 18.10.2020
6625 Clouds 2 1036 75 10000 1 0 12:23 18.10.2020
6626 Clouds 2 1036 75 10000 1 0 11:43 18.10.2020
6627 Clouds 2 1036 74 10000 1 0 11:23 18.10.2020
6628 Clouds 1 1036 86 10000 1 0 10:46 18.10.2020
6629 Clouds 2 1036 73 10000 1 0 10:22 18.10.2020
6630 Clouds 2 1036 73 10000 1 0 10:00 18.10.2020
6631 Clouds 2 1036 73 10000 1 0 09:41 18.10.2020
6632 Clouds 3 1037 74 10000 2.1 340 09:20 18.10.2020
6633 Clouds 3 1037 74 10000 2.1 340 08:44 18.10.2020
6634 Clouds 3 1037 74 10000 2.1 340 08:25 18.10.2020
6635 Clouds 1 1037 86 10000 2.6 40 07:48 18.10.2020
6636 Clouds 2 1038 69 10000 2.1 20 05:36 18.10.2020
6637 Clouds 3 1038 93 10000 1 0 03:39 18.10.2020
6638 Clouds 3 1037 93 10000 2.6 90 02:39 18.10.2020
6639 Clouds 6 1036 75 10000 2.6 170 01:25 18.10.2020
6640 Clouds 6 1036 75 10000 2.6 170 01:25 18.10.2020
6641 Clouds 6 1036 75 10000 2.6 170 00:35 18.10.2020
6642 Clouds 6 1037 81 10000 1 0 23:57 17.10.2020
6643 Clouds 6 1037 81 10000 1 0 23:39 17.10.2020
6644 Clouds 5 1037 86 8000 4.6 340 23:20 17.10.2020
6645 Clouds 5 1037 86 8000 4.6 340 22:54 17.10.2020
6646 Clouds 6 1037 75 8000 6.2 330 22:21 17.10.2020
6647 Rain 6 1037 75 8000 6.2 330 21:59 17.10.2020
6648 Rain 6 1037 75 8000 6.2 330 21:40 17.10.2020
6649 Rain 9 1037 50 10000 7.2 30 21:20 17.10.2020
6650 Rain 9 1037 50 10000 7.2 30 20:43 17.10.2020
6651 Rain 10 1038 53 8000 5.1 40 20:19 17.10.2020
6652 Rain 10 1038 53 8000 5.1 40 19:43 17.10.2020
6653 Clouds 12 1039 46 8000 4.6 90 19:20 17.10.2020
6654 Clouds 12 1039 46 8000 4.6 90 18:45 17.10.2020
6655 Thunderstorm 13 1039 47 10000 1 0 18:25 17.10.2020
6656 Clouds 13 1039 43 10000 2.6 210 17:50 17.10.2020
6657 Clouds 13 1040 43 10000 1 0 17:23 17.10.2020
6658 Clouds 13 1040 43 10000 1 0 16:50 17.10.2020
6659 Clouds 13 1040 43 10000 1 0 16:24 17.10.2020
6660 Clouds 10 1040 53 10000 1 0 15:58 17.10.2020
6661 Clouds 10 1040 53 10000 1 0 15:40 17.10.2020
6662 Clouds 7 1039 75 8000 1 0 15:20 17.10.2020
6663 Clouds 7 1039 75 8000 1 0 14:53 17.10.2020
6664 Clouds 7 1039 75 8000 1 0 14:28 17.10.2020
6665 Fog 4 1038 93 4000 2.1 60 13:57 17.10.2020
6666 Fog 4 1038 93 4000 2.1 60 13:39 17.10.2020
6667 Clouds 4 1038 86 8000 1 0 13:19 17.10.2020
6668 Clouds 4 1038 86 8000 1 0 12:40 17.10.2020
6669 Clouds 5 1037 80 10000 1 0 12:19 17.10.2020
6670 Clouds 5 1037 80 10000 1 0 11:54 17.10.2020
6671 Clouds 5 1037 86 10000 3.1 310 11:28 17.10.2020
6672 Rain 5 1037 86 10000 3.1 310 10:36 17.10.2020
6673 Rain 4 1038 86 10000 4.1 310 10:18 17.10.2020
6674 Clouds 4 1038 86 10000 4.1 310 09:40 17.10.2020
6675 Clouds 5 1038 80 10000 4.1 290 09:21 17.10.2020
6676 Rain 5 1038 80 10000 4.1 290 08:37 17.10.2020
6677 Rain 5 1039 86 10000 3.1 260 08:18 17.10.2020
6678 Clouds 5 1039 86 10000 3.1 260 07:28 17.10.2020
6679 Clouds 6 1040 81 10000 2.6 320 06:22 17.10.2020
6680 Clouds 5 1039 80 10000 4.1 90 03:48 17.10.2020
6681 Clouds 5 1038 86 10000 2.6 80 02:28 17.10.2020
6682 Clouds 7 1037 75 10000 5.1 110 00:53 17.10.2020
6683 Clouds 7 1037 75 10000 5.1 110 00:30 17.10.2020
6684 Clouds 8 1036 65 10000 6.2 110 23:27 16.10.2020
6685 Clouds 10 1037 61 10000 4.1 120 22:59 16.10.2020
6686 Clouds 10 1037 61 10000 4.1 120 22:41 16.10.2020
6687 Clouds 12 1038 46 10000 4.1 280 22:22 16.10.2020
6688 Clouds 12 1038 46 10000 4.1 280 21:46 16.10.2020
6689 Rain 9 1038 57 6000 5.7 330 21:24 16.10.2020
6690 Clouds 8 1039 65 9000 7.2 320 20:44 16.10.2020
6691 Clouds 8 1039 65 9000 7.2 320 20:25 16.10.2020
6692 Clouds 12 1039 54 9000 5.7 240 19:47 16.10.2020
6693 Clouds 12 1039 54 9000 5.7 240 19:28 16.10.2020
6694 Clouds 12 1040 50 9000 1 0 18:57 16.10.2020
6695 Clouds 12 1040 50 9000 1 0 18:34 16.10.2020
6696 Clouds 13 1041 47 8000 2.6 100 17:51 16.10.2020
6697 Clouds 13 1041 47 8000 2.6 100 17:33 16.10.2020
6698 Clouds 9 1041 61 8000 2.6 100 16:57 16.10.2020
6699 Clouds 9 1041 61 8000 2.6 100 16:38 16.10.2020
6700 Clouds 8 1041 70 8000 2.1 100 16:19 16.10.2020
6701 Clouds 6 1040 81 6000 2.6 150 15:24 16.10.2020
6702 Clouds 6 1040 81 6000 2.6 150 14:45 16.10.2020
6703 Fog 5 1039 86 4000 3.1 120 14:21 16.10.2020
6704 Fog 5 1039 86 4000 3.1 120 13:59 16.10.2020
6705 Fog 5 1039 86 4000 3.1 120 13:40 16.10.2020
6706 Fog 4 1039 93 4000 2.6 120 13:22 16.10.2020
6707 Fog 4 1039 93 4000 2.6 120 12:51 16.10.2020